<?xml version="1.0" encoding="UTF-8"?>
<gpx version="1.1" creator="Garmin Connect"
  xsi:schemaLocation="http://www.topografix.com/GPX/1/1 http://www.topografix.com/GPX/1/1/gpx.xsd http://www.garmin.com/xmlschemas/GpxExtensions/v3 http://www.garmin.com/xmlschemas/GpxExtensionsv3.xsd http://www.garmin.com/xmlschemas/TrackPointExtension/v1 http://www.garmin.com/xmlschemas/TrackPointExtensionv1.xsd"
  xmlns="http://www.topografix.com/GPX/1/1"
  xmlns:gpxtpx="http://www.garmin.com/xmlschemas/TrackPointExtension/v1"
  xmlns:gpxx="http://www.garmin.com/xmlschemas/GpxExtensions/v3" xmlns:xsi="http://www.w3.org/2001/XMLSchema-instance">
  <metadata>
    <link href="connect.garmin.com">
      <text>Garmin Connect</text>
    </link>
    <time>2014-07-04T03:11:05.000Z</time>
  </metadata>
  <trk>
    <name>KLASSICHESKIY KISALON +SINGL EYN RAFA</name>
    <trkseg>
      <trkpt lon="35.01641873270273" lat="31.777803311124444">
        <ele>284.20001220703125</ele>
        <time>2014-07-04T03:11:05.000Z</time>
      </trkpt>
      <trkpt lon="35.01640113070607" lat="31.777789732441306">
        <ele>284.20001220703125</ele>
        <time>2014-07-04T03:11:15.000Z</time>
      </trkpt>
      <trkpt lon="35.0163324829191" lat="31.777748661115766">
        <ele>284.20001220703125</ele>
        <time>2014-07-04T03:11:20.000Z</time>
      </trkpt>
      <trkpt lon="35.016261488199234" lat="31.77772401832044">
        <ele>283.6000061035156</ele>
        <time>2014-07-04T03:11:23.000Z</time>
      </trkpt>
      <trkpt lon="35.0162460654974" lat="31.77770742215216">
        <ele>283.79998779296875</ele>
        <time>2014-07-04T03:11:24.000Z</time>
      </trkpt>
      <trkpt lon="35.01622913405299" lat="31.777693340554833">
        <ele>283.79998779296875</ele>
        <time>2014-07-04T03:11:25.000Z</time>
      </trkpt>
      <trkpt lon="35.01621010713279" lat="31.77767858840525">
        <ele>283.6000061035156</ele>
        <time>2014-07-04T03:11:26.000Z</time>
      </trkpt>
      <trkpt lon="35.016192672774196" lat="31.777664087712765">
        <ele>283.6000061035156</ele>
        <time>2014-07-04T03:11:27.000Z</time>
      </trkpt>
      <trkpt lon="35.016176579520106" lat="31.77764975465834">
        <ele>283.6000061035156</ele>
        <time>2014-07-04T03:11:28.000Z</time>
      </trkpt>
      <trkpt lon="35.01610533334315" lat="31.77761153317988">
        <ele>283.0</ele>
        <time>2014-07-04T03:11:31.000Z</time>
      </trkpt>
      <trkpt lon="35.01607968471944" lat="31.777613293379545">
        <ele>282.3999938964844</ele>
        <time>2014-07-04T03:11:32.000Z</time>
      </trkpt>
      <trkpt lon="35.01605646684766" lat="31.777623686939478">
        <ele>281.79998779296875</ele>
        <time>2014-07-04T03:11:33.000Z</time>
      </trkpt>
      <trkpt lon="35.016042133793235" lat="31.777642546221614">
        <ele>281.0</ele>
        <time>2014-07-04T03:11:34.000Z</time>
      </trkpt>
      <trkpt lon="35.01603752374649" lat="31.777668027207255">
        <ele>280.3999938964844</ele>
        <time>2014-07-04T03:11:35.000Z</time>
      </trkpt>
      <trkpt lon="35.016037188470364" lat="31.777700381353498">
        <ele>279.6000061035156</ele>
        <time>2014-07-04T03:11:36.000Z</time>
      </trkpt>
      <trkpt lon="35.01603693701327" lat="31.777735920622945">
        <ele>278.79998779296875</ele>
        <time>2014-07-04T03:11:37.000Z</time>
      </trkpt>
      <trkpt lon="35.0160317402333" lat="31.77777372300625">
        <ele>278.0</ele>
        <time>2014-07-04T03:11:38.000Z</time>
      </trkpt>
      <trkpt lon="35.01602335833013" lat="31.777813201770186">
        <ele>277.0</ele>
        <time>2014-07-04T03:11:39.000Z</time>
      </trkpt>
      <trkpt lon="35.01601145602763" lat="31.77785594947636">
        <ele>275.79998779296875</ele>
        <time>2014-07-04T03:11:40.000Z</time>
      </trkpt>
      <trkpt lon="35.015925373882055" lat="31.778072202578187">
        <ele>271.3999938964844</ele>
        <time>2014-07-04T03:11:45.000Z</time>
      </trkpt>
      <trkpt lon="35.01591766253114" lat="31.778121571987867">
        <ele>270.79998779296875</ele>
        <time>2014-07-04T03:11:46.000Z</time>
      </trkpt>
      <trkpt lon="35.015925792977214" lat="31.77817446179688">
        <ele>270.20001220703125</ele>
        <time>2014-07-04T03:11:47.000Z</time>
      </trkpt>
      <trkpt lon="35.0159471668303" lat="31.77822584286332">
        <ele>270.20001220703125</ele>
        <time>2014-07-04T03:11:48.000Z</time>
      </trkpt>
      <trkpt lon="35.01597600057721" lat="31.778274876996875">
        <ele>270.79998779296875</ele>
        <time>2014-07-04T03:11:49.000Z</time>
      </trkpt>
      <trkpt lon="35.01617875881493" lat="31.778589030727744">
        <ele>274.6000061035156</ele>
        <time>2014-07-04T03:11:56.000Z</time>
      </trkpt>
      <trkpt lon="35.01619292423129" lat="31.77874468266964">
        <ele>275.6000061035156</ele>
        <time>2014-07-04T03:12:01.000Z</time>
      </trkpt>
      <trkpt lon="35.01616367138922" lat="31.778905196115375">
        <ele>276.20001220703125</ele>
        <time>2014-07-04T03:12:08.000Z</time>
      </trkpt>
      <trkpt lon="35.016148667782545" lat="31.778973592445254">
        <ele>276.6000061035156</ele>
        <time>2014-07-04T03:12:11.000Z</time>
      </trkpt>
      <trkpt lon="35.016150595620275" lat="31.77899496629834">
        <ele>276.79998779296875</ele>
        <time>2014-07-04T03:12:12.000Z</time>
      </trkpt>
      <trkpt lon="35.01614975742996" lat="31.77901399321854">
        <ele>277.0</ele>
        <time>2014-07-04T03:12:13.000Z</time>
      </trkpt>
      <trkpt lon="35.016149673610926" lat="31.779031176120043">
        <ele>277.20001220703125</ele>
        <time>2014-07-04T03:12:14.000Z</time>
      </trkpt>
      <trkpt lon="35.016153110191226" lat="31.779048023745418">
        <ele>277.3999938964844</ele>
        <time>2014-07-04T03:12:15.000Z</time>
      </trkpt>
      <trkpt lon="35.01616107299924" lat="31.779065374284983">
        <ele>277.79998779296875</ele>
        <time>2014-07-04T03:12:16.000Z</time>
      </trkpt>
      <trkpt lon="35.01617289148271" lat="31.779082054272294">
        <ele>278.20001220703125</ele>
        <time>2014-07-04T03:12:17.000Z</time>
      </trkpt>
      <trkpt lon="35.01618839800358" lat="31.779095884412527">
        <ele>278.6000061035156</ele>
        <time>2014-07-04T03:12:18.000Z</time>
      </trkpt>
      <trkpt lon="35.01621203497052" lat="31.779105104506016">
        <ele>279.0</ele>
        <time>2014-07-04T03:12:19.000Z</time>
      </trkpt>
      <trkpt lon="35.01623726449907" lat="31.779110804200172">
        <ele>279.20001220703125</ele>
        <time>2014-07-04T03:12:20.000Z</time>
      </trkpt>
      <trkpt lon="35.01626576296985" lat="31.779110552743077">
        <ele>279.20001220703125</ele>
        <time>2014-07-04T03:12:21.000Z</time>
      </trkpt>
      <trkpt lon="35.01630079932511" lat="31.779104098677635">
        <ele>278.6000061035156</ele>
        <time>2014-07-04T03:12:22.000Z</time>
      </trkpt>
      <trkpt lon="35.0163359194994" lat="31.77909605205059">
        <ele>278.3999938964844</ele>
        <time>2014-07-04T03:12:23.000Z</time>
      </trkpt>
      <trkpt lon="35.016557704657316" lat="31.779051795601845">
        <ele>277.3999938964844</ele>
        <time>2014-07-04T03:12:28.000Z</time>
      </trkpt>
      <trkpt lon="35.016749147325754" lat="31.77903595380485">
        <ele>276.79998779296875</ele>
        <time>2014-07-04T03:12:31.000Z</time>
      </trkpt>
      <trkpt lon="35.016820561140776" lat="31.779041988775134">
        <ele>276.6000061035156</ele>
        <time>2014-07-04T03:12:32.000Z</time>
      </trkpt>
      <trkpt lon="35.01689222641289" lat="31.779051711782813">
        <ele>276.6000061035156</ele>
        <time>2014-07-04T03:12:33.000Z</time>
      </trkpt>
      <trkpt lon="35.01703815534711" lat="31.779086580500007">
        <ele>276.6000061035156</ele>
        <time>2014-07-04T03:12:35.000Z</time>
      </trkpt>
      <trkpt lon="35.017110239714384" lat="31.77911549806595">
        <ele>276.79998779296875</ele>
        <time>2014-07-04T03:12:36.000Z</time>
      </trkpt>
      <trkpt lon="35.01717939041555" lat="31.779152126982808">
        <ele>277.0</ele>
        <time>2014-07-04T03:12:37.000Z</time>
      </trkpt>
      <trkpt lon="35.01724049448967" lat="31.779191941022873">
        <ele>277.6000061035156</ele>
        <time>2014-07-04T03:12:38.000Z</time>
      </trkpt>
      <trkpt lon="35.01729430630803" lat="31.779236029833555">
        <ele>278.20001220703125</ele>
        <time>2014-07-04T03:12:39.000Z</time>
      </trkpt>
      <trkpt lon="35.01734702847898" lat="31.779279448091984">
        <ele>278.79998779296875</ele>
        <time>2014-07-04T03:12:40.000Z</time>
      </trkpt>
      <trkpt lon="35.0173927936703" lat="31.77932420745492">
        <ele>279.20001220703125</ele>
        <time>2014-07-04T03:12:41.000Z</time>
      </trkpt>
      <trkpt lon="35.01750377006829" lat="31.779458234086633">
        <ele>280.0</ele>
        <time>2014-07-04T03:12:44.000Z</time>
      </trkpt>
      <trkpt lon="35.01753570511937" lat="31.779502406716347">
        <ele>280.3999938964844</ele>
        <time>2014-07-04T03:12:45.000Z</time>
      </trkpt>
      <trkpt lon="35.0176584161818" lat="31.779657807201147">
        <ele>282.0</ele>
        <time>2014-07-04T03:12:49.000Z</time>
      </trkpt>
      <trkpt lon="35.01768473535776" lat="31.779697788879275">
        <ele>282.3999938964844</ele>
        <time>2014-07-04T03:12:50.000Z</time>
      </trkpt>
      <trkpt lon="35.01771440729499" lat="31.779736010357738">
        <ele>282.79998779296875</ele>
        <time>2014-07-04T03:12:51.000Z</time>
      </trkpt>
      <trkpt lon="35.017745001241565" lat="31.779774064198136">
        <ele>283.20001220703125</ele>
        <time>2014-07-04T03:12:52.000Z</time>
      </trkpt>
      <trkpt lon="35.017769476398826" lat="31.779815973713994">
        <ele>283.6000061035156</ele>
        <time>2014-07-04T03:12:53.000Z</time>
      </trkpt>
      <trkpt lon="35.01779453828931" lat="31.779859643429518">
        <ele>284.0</ele>
        <time>2014-07-04T03:12:54.000Z</time>
      </trkpt>
      <trkpt lon="35.017825635150075" lat="31.779901050031185">
        <ele>284.3999938964844</ele>
        <time>2014-07-04T03:12:55.000Z</time>
      </trkpt>
      <trkpt lon="35.01785815693438" lat="31.779942456632853">
        <ele>284.6000061035156</ele>
        <time>2014-07-04T03:12:56.000Z</time>
      </trkpt>
      <trkpt lon="35.017931163311005" lat="31.780020827427506">
        <ele>284.79998779296875</ele>
        <time>2014-07-04T03:12:58.000Z</time>
      </trkpt>
      <trkpt lon="35.01797743141651" lat="31.780055109411478">
        <ele>284.79998779296875</ele>
        <time>2014-07-04T03:12:59.000Z</time>
      </trkpt>
      <trkpt lon="35.018031327053905" lat="31.78008645772934">
        <ele>284.6000061035156</ele>
        <time>2014-07-04T03:13:00.000Z</time>
      </trkpt>
      <trkpt lon="35.01830390654504" lat="31.780204894021153">
        <ele>285.0</ele>
        <time>2014-07-04T03:13:06.000Z</time>
      </trkpt>
      <trkpt lon="35.01771440729499" lat="31.779736010357738">
        <ele>282.79998779296875</ele>
        <time>2014-07-04T03:15:33.000Z</time>
      </trkpt>
      <trkpt lon="35.021962858736515" lat="31.779458234086633">
        <ele>301.20001220703125</ele>
        <time>2014-07-04T03:15:51.000Z</time>
      </trkpt>
      <trkpt lon="35.0219810474664" lat="31.77939411252737">
        <ele>300.79998779296875</ele>
        <time>2014-07-04T03:16:03.000Z</time>
      </trkpt>
      <trkpt lon="35.02214005216956" lat="31.779337786138058">
        <ele>301.0</ele>
        <time>2014-07-04T03:16:13.000Z</time>
      </trkpt>
      <trkpt lon="35.022240886464715" lat="31.779300151392817">
        <ele>304.0</ele>
        <time>2014-07-04T03:16:21.000Z</time>
      </trkpt>
      <trkpt lon="35.02225287258625" lat="31.779281040653586">
        <ele>304.20001220703125</ele>
        <time>2014-07-04T03:16:23.000Z</time>
      </trkpt>
      <trkpt lon="35.022331327199936" lat="31.779263522475958">
        <ele>305.79998779296875</ele>
        <time>2014-07-04T03:16:30.000Z</time>
      </trkpt>
      <trkpt lon="35.02237239852548" lat="31.779224211350083">
        <ele>304.6000061035156</ele>
        <time>2014-07-04T03:16:34.000Z</time>
      </trkpt>
      <trkpt lon="35.02247566357255" lat="31.779179787263274">
        <ele>303.20001220703125</ele>
        <time>2014-07-04T03:16:41.000Z</time>
      </trkpt>
      <trkpt lon="35.02258471213281" lat="31.77913896739483">
        <ele>301.79998779296875</ele>
        <time>2014-07-04T03:16:48.000Z</time>
      </trkpt>
      <trkpt lon="35.022753439843655" lat="31.77907694131136">
        <ele>300.0</ele>
        <time>2014-07-04T03:16:55.000Z</time>
      </trkpt>
      <trkpt lon="35.02298226580024" lat="31.77896898239851">
        <ele>301.79998779296875</ele>
        <time>2014-07-04T03:17:01.000Z</time>
      </trkpt>
      <trkpt lon="35.02332391217351" lat="31.778835793957114">
        <ele>310.3999938964844</ele>
        <time>2014-07-04T03:17:10.000Z</time>
      </trkpt>
      <trkpt lon="35.02367234788835" lat="31.778678549453616">
        <ele>308.6000061035156</ele>
        <time>2014-07-04T03:17:19.000Z</time>
      </trkpt>
      <trkpt lon="35.024010222405195" lat="31.778443520888686">
        <ele>309.0</ele>
        <time>2014-07-04T03:17:29.000Z</time>
      </trkpt>
      <trkpt lon="35.02430794760585" lat="31.77823120728135">
        <ele>301.0</ele>
        <time>2014-07-04T03:17:38.000Z</time>
      </trkpt>
      <trkpt lon="35.0246487557888" lat="31.778014367446303">
        <ele>307.0</ele>
        <time>2014-07-04T03:17:48.000Z</time>
      </trkpt>
      <trkpt lon="35.024902895092964" lat="31.777906827628613">
        <ele>316.0</ele>
        <time>2014-07-04T03:17:56.000Z</time>
      </trkpt>
      <trkpt lon="35.02513540908694" lat="31.7778367549181">
        <ele>319.6000061035156</ele>
        <time>2014-07-04T03:18:02.000Z</time>
      </trkpt>
      <trkpt lon="35.02538627944887" lat="31.77779970690608">
        <ele>314.6000061035156</ele>
        <time>2014-07-04T03:18:10.000Z</time>
      </trkpt>
      <trkpt lon="35.02569263800979" lat="31.77773231640458">
        <ele>317.3999938964844</ele>
        <time>2014-07-04T03:18:19.000Z</time>
      </trkpt>
      <trkpt lon="35.02592163160443" lat="31.777549674734473">
        <ele>314.6000061035156</ele>
        <time>2014-07-04T03:18:28.000Z</time>
      </trkpt>
      <trkpt lon="35.02609387971461" lat="31.777331242337823">
        <ele>313.20001220703125</ele>
        <time>2014-07-04T03:18:37.000Z</time>
      </trkpt>
      <trkpt lon="35.02633192576468" lat="31.77715170197189">
        <ele>320.79998779296875</ele>
        <time>2014-07-04T03:18:46.000Z</time>
      </trkpt>
      <trkpt lon="35.026560416445136" lat="31.777119347825646">
        <ele>327.6000061035156</ele>
        <time>2014-07-04T03:18:53.000Z</time>
      </trkpt>
      <trkpt lon="35.026740627363324" lat="31.777164777740836">
        <ele>330.6000061035156</ele>
        <time>2014-07-04T03:19:01.000Z</time>
      </trkpt>
      <trkpt lon="35.026936596259475" lat="31.777263851836324">
        <ele>332.6000061035156</ele>
        <time>2014-07-04T03:19:11.000Z</time>
      </trkpt>
      <trkpt lon="35.027071461081505" lat="31.777359740808606">
        <ele>333.20001220703125</ele>
        <time>2014-07-04T03:19:20.000Z</time>
      </trkpt>
      <trkpt lon="35.0271668471396" lat="31.77748060785234">
        <ele>332.6000061035156</ele>
        <time>2014-07-04T03:19:28.000Z</time>
      </trkpt>
      <trkpt lon="35.02724521793425" lat="31.7776433005929">
        <ele>332.0</ele>
        <time>2014-07-04T03:19:37.000Z</time>
      </trkpt>
      <trkpt lon="35.02731068059802" lat="31.77781973965466">
        <ele>331.3999938964844</ele>
        <time>2014-07-04T03:19:46.000Z</time>
      </trkpt>
      <trkpt lon="35.02739718183875" lat="31.778044626116753">
        <ele>330.6000061035156</ele>
        <time>2014-07-04T03:19:58.000Z</time>
      </trkpt>
      <trkpt lon="35.02749843522906" lat="31.778198601678014">
        <ele>330.0</ele>
        <time>2014-07-04T03:20:07.000Z</time>
      </trkpt>
      <trkpt lon="35.027663642540574" lat="31.778223076835275">
        <ele>330.3999938964844</ele>
        <time>2014-07-04T03:20:14.000Z</time>
      </trkpt>
      <trkpt lon="35.02788039855659" lat="31.778181083500385">
        <ele>330.20001220703125</ele>
        <time>2014-07-04T03:20:22.000Z</time>
      </trkpt>
      <trkpt lon="35.028312150388956" lat="31.778158536180854">
        <ele>334.0</ele>
        <time>2014-07-04T03:20:33.000Z</time>
      </trkpt>
      <trkpt lon="35.028664441779256" lat="31.778154345229268">
        <ele>336.20001220703125</ele>
        <time>2014-07-04T03:20:42.000Z</time>
      </trkpt>
      <trkpt lon="35.02899871207774" lat="31.778165576979518">
        <ele>337.6000061035156</ele>
        <time>2014-07-04T03:20:51.000Z</time>
      </trkpt>
      <trkpt lon="35.02936399541795" lat="31.77817488089204">
        <ele>339.20001220703125</ele>
        <time>2014-07-04T03:21:01.000Z</time>
      </trkpt>
      <trkpt lon="35.02964939922094" lat="31.77817538380623">
        <ele>341.0</ele>
        <time>2014-07-04T03:21:09.000Z</time>
      </trkpt>
      <trkpt lon="35.02995843999088" lat="31.778185525909066">
        <ele>347.20001220703125</ele>
        <time>2014-07-04T03:21:18.000Z</time>
      </trkpt>
      <trkpt lon="35.03019011579454" lat="31.778109669685364">
        <ele>353.3999938964844</ele>
        <time>2014-07-04T03:21:26.000Z</time>
      </trkpt>
      <trkpt lon="35.030422462150455" lat="31.777998944744468">
        <ele>352.20001220703125</ele>
        <time>2014-07-04T03:21:35.000Z</time>
      </trkpt>
      <trkpt lon="35.030604768544436" lat="31.777869360521436">
        <ele>351.3999938964844</ele>
        <time>2014-07-04T03:21:43.000Z</time>
      </trkpt>
      <trkpt lon="35.03083418123424" lat="31.777672553434968">
        <ele>348.3999938964844</ele>
        <time>2014-07-04T03:21:53.000Z</time>
      </trkpt>
      <trkpt lon="35.03098254092038" lat="31.77752746269107">
        <ele>343.3999938964844</ele>
        <time>2014-07-04T03:22:00.000Z</time>
      </trkpt>
      <trkpt lon="35.03121170215309" lat="31.777373487129807">
        <ele>338.3999938964844</ele>
        <time>2014-07-04T03:22:10.000Z</time>
      </trkpt>
      <trkpt lon="35.03143759444356" lat="31.777280448004603">
        <ele>340.20001220703125</ele>
        <time>2014-07-04T03:22:19.000Z</time>
      </trkpt>
      <trkpt lon="35.031625516712666" lat="31.77718162536621">
        <ele>342.3999938964844</ele>
        <time>2014-07-04T03:22:26.000Z</time>
      </trkpt>
      <trkpt lon="35.03177630715072" lat="31.777097806334496">
        <ele>344.20001220703125</ele>
        <time>2014-07-04T03:22:34.000Z</time>
      </trkpt>
      <trkpt lon="35.031944615766406" lat="31.776940058916807">
        <ele>347.20001220703125</ele>
        <time>2014-07-04T03:22:44.000Z</time>
      </trkpt>
      <trkpt lon="35.032033463940024" lat="31.776805194094777">
        <ele>349.3999938964844</ele>
        <time>2014-07-04T03:22:52.000Z</time>
      </trkpt>
      <trkpt lon="35.03210077062249" lat="31.776670245453715">
        <ele>351.79998779296875</ele>
        <time>2014-07-04T03:22:59.000Z</time>
      </trkpt>
      <trkpt lon="35.032194731757045" lat="31.776520293205976">
        <ele>357.6000061035156</ele>
        <time>2014-07-04T03:23:08.000Z</time>
      </trkpt>
      <trkpt lon="35.03230143338442" lat="31.77636606618762">
        <ele>362.3999938964844</ele>
        <time>2014-07-04T03:23:16.000Z</time>
      </trkpt>
      <trkpt lon="35.03229355439544" lat="31.776253078132868">
        <ele>362.20001220703125</ele>
        <time>2014-07-04T03:23:23.000Z</time>
      </trkpt>
      <trkpt lon="35.032257763668895" lat="31.77623799070716">
        <ele>360.79998779296875</ele>
        <time>2014-07-04T03:23:25.000Z</time>
      </trkpt>
      <trkpt lon="35.03223739564419" lat="31.77624050527811">
        <ele>360.0</ele>
        <time>2014-07-04T03:23:26.000Z</time>
      </trkpt>
      <trkpt lon="35.032063722610474" lat="31.776297753676772">
        <ele>354.20001220703125</ele>
        <time>2014-07-04T03:23:35.000Z</time>
      </trkpt>
      <trkpt lon="35.03198493272066" lat="31.776280738413334">
        <ele>355.79998779296875</ele>
        <time>2014-07-04T03:23:39.000Z</time>
      </trkpt>
      <trkpt lon="35.03197621554136" lat="31.776263806968927">
        <ele>356.0</ele>
        <time>2014-07-04T03:23:40.000Z</time>
      </trkpt>
      <trkpt lon="35.03197655081749" lat="31.77624536678195">
        <ele>356.0</ele>
        <time>2014-07-04T03:23:41.000Z</time>
      </trkpt>
      <trkpt lon="35.03198141232133" lat="31.776228016242385">
        <ele>356.0</ele>
        <time>2014-07-04T03:23:42.000Z</time>
      </trkpt>
      <trkpt lon="35.031990045681596" lat="31.776211336255074">
        <ele>355.79998779296875</ele>
        <time>2014-07-04T03:23:43.000Z</time>
      </trkpt>
      <trkpt lon="35.03200186416507" lat="31.776195913553238">
        <ele>355.6000061035156</ele>
        <time>2014-07-04T03:23:44.000Z</time>
      </trkpt>
      <trkpt lon="35.03211669623852" lat="31.77609482780099">
        <ele>355.20001220703125</ele>
        <time>2014-07-04T03:23:52.000Z</time>
      </trkpt>
      <trkpt lon="35.03221174702048" lat="31.775988209992647">
        <ele>359.3999938964844</ele>
        <time>2014-07-04T03:24:01.000Z</time>
      </trkpt>
      <trkpt lon="35.03222096711397" lat="31.775975385680795">
        <ele>360.0</ele>
        <time>2014-07-04T03:24:02.000Z</time>
      </trkpt>
      <trkpt lon="35.03230235539377" lat="31.775832641869783">
        <ele>364.0</ele>
        <time>2014-07-04T03:24:10.000Z</time>
      </trkpt>
      <trkpt lon="35.03238600678742" lat="31.775679923593998">
        <ele>368.6000061035156</ele>
        <time>2014-07-04T03:24:20.000Z</time>
      </trkpt>
      <trkpt lon="35.03243898041546" lat="31.77552762441337">
        <ele>373.20001220703125</ele>
        <time>2014-07-04T03:24:29.000Z</time>
      </trkpt>
      <trkpt lon="35.032488936558366" lat="31.775386221706867">
        <ele>377.3999938964844</ele>
        <time>2014-07-04T03:24:38.000Z</time>
      </trkpt>
      <trkpt lon="35.032524056732655" lat="31.775305336341262">
        <ele>380.0</ele>
        <time>2014-07-04T03:24:44.000Z</time>
      </trkpt>
      <trkpt lon="35.032525062561035" lat="31.77529100328684">
        <ele>379.79998779296875</ele>
        <time>2014-07-04T03:24:45.000Z</time>
      </trkpt>
      <trkpt lon="35.0325199496001" lat="31.775275245308876">
        <ele>379.3999938964844</ele>
        <time>2014-07-04T03:24:46.000Z</time>
      </trkpt>
      <trkpt lon="35.032509975135326" lat="31.775258984416723">
        <ele>379.0</ele>
        <time>2014-07-04T03:24:47.000Z</time>
      </trkpt>
      <trkpt lon="35.032493295148015" lat="31.775247752666473">
        <ele>378.6000061035156</ele>
        <time>2014-07-04T03:24:48.000Z</time>
      </trkpt>
      <trkpt lon="35.032475274056196" lat="31.77524079568684">
        <ele>378.20001220703125</ele>
        <time>2014-07-04T03:24:49.000Z</time>
      </trkpt>
      <trkpt lon="35.03245700150728" lat="31.775240376591682">
        <ele>378.0</ele>
        <time>2014-07-04T03:24:50.000Z</time>
      </trkpt>
      <trkpt lon="35.03244308754802" lat="31.775245908647776">
        <ele>377.3999938964844</ele>
        <time>2014-07-04T03:24:51.000Z</time>
      </trkpt>
      <trkpt lon="35.03243328072131" lat="31.775258481502533">
        <ele>376.79998779296875</ele>
        <time>2014-07-04T03:24:52.000Z</time>
      </trkpt>
      <trkpt lon="35.03242741338909" lat="31.775271389633417">
        <ele>376.3999938964844</ele>
        <time>2014-07-04T03:24:53.000Z</time>
      </trkpt>
      <trkpt lon="35.0323317758739" lat="31.77541807293892">
        <ele>370.0</ele>
        <time>2014-07-04T03:25:03.000Z</time>
      </trkpt>
      <trkpt lon="35.03224368207157" lat="31.775523349642754">
        <ele>364.6000061035156</ele>
        <time>2014-07-04T03:25:12.000Z</time>
      </trkpt>
      <trkpt lon="35.0321330409497" lat="31.77563508041203">
        <ele>358.0</ele>
        <time>2014-07-04T03:25:20.000Z</time>
      </trkpt>
      <trkpt lon="35.03207830712199" lat="31.77567263133824">
        <ele>356.0</ele>
        <time>2014-07-04T03:25:24.000Z</time>
      </trkpt>
      <trkpt lon="35.03205852583051" lat="31.775676487013698">
        <ele>356.6000061035156</ele>
        <time>2014-07-04T03:25:25.000Z</time>
      </trkpt>
      <trkpt lon="35.03204109147191" lat="31.77567556500435">
        <ele>357.20001220703125</ele>
        <time>2014-07-04T03:25:26.000Z</time>
      </trkpt>
      <trkpt lon="35.032026590779424" lat="31.77566919475794">
        <ele>357.6000061035156</ele>
        <time>2014-07-04T03:25:27.000Z</time>
      </trkpt>
      <trkpt lon="35.032013431191444" lat="31.775661231949925">
        <ele>358.20001220703125</ele>
        <time>2014-07-04T03:25:28.000Z</time>
      </trkpt>
      <trkpt lon="35.0320072285831" lat="31.775647988542914">
        <ele>358.79998779296875</ele>
        <time>2014-07-04T03:25:29.000Z</time>
      </trkpt>
      <trkpt lon="35.032005636021495" lat="31.775631895288825">
        <ele>359.3999938964844</ele>
        <time>2014-07-04T03:25:30.000Z</time>
      </trkpt>
      <trkpt lon="35.032009575515985" lat="31.77561504766345">
        <ele>359.3999938964844</ele>
        <time>2014-07-04T03:25:31.000Z</time>
      </trkpt>
      <trkpt lon="35.0320172868669" lat="31.77559887059033">
        <ele>359.3999938964844</ele>
        <time>2014-07-04T03:25:32.000Z</time>
      </trkpt>
      <trkpt lon="35.032025165855885" lat="31.775582693517208">
        <ele>359.3999938964844</ele>
        <time>2014-07-04T03:25:33.000Z</time>
      </trkpt>
      <trkpt lon="35.032033966854215" lat="31.775569198653102">
        <ele>359.20001220703125</ele>
        <time>2014-07-04T03:25:34.000Z</time>
      </trkpt>
      <trkpt lon="35.032108230516315" lat="31.77545478567481">
        <ele>359.6000061035156</ele>
        <time>2014-07-04T03:25:42.000Z</time>
      </trkpt>
      <trkpt lon="35.032163970172405" lat="31.775324614718556">
        <ele>364.0</ele>
        <time>2014-07-04T03:25:51.000Z</time>
      </trkpt>
      <trkpt lon="35.03218685276806" lat="31.775231156498194">
        <ele>366.20001220703125</ele>
        <time>2014-07-04T03:25:58.000Z</time>
      </trkpt>
      <trkpt lon="35.03219364210963" lat="31.775215482339263">
        <ele>366.79998779296875</ele>
        <time>2014-07-04T03:25:59.000Z</time>
      </trkpt>
      <trkpt lon="35.032203532755375" lat="31.775198467075825">
        <ele>367.3999938964844</ele>
        <time>2014-07-04T03:26:00.000Z</time>
      </trkpt>
      <trkpt lon="35.032214764505625" lat="31.775180278345942">
        <ele>368.20001220703125</ele>
        <time>2014-07-04T03:26:01.000Z</time>
      </trkpt>
      <trkpt lon="35.03222272731364" lat="31.77516108378768">
        <ele>368.79998779296875</ele>
        <time>2014-07-04T03:26:02.000Z</time>
      </trkpt>
      <trkpt lon="35.032295398414135" lat="31.774999480694532">
        <ele>371.79998779296875</ele>
        <time>2014-07-04T03:26:12.000Z</time>
      </trkpt>
      <trkpt lon="35.0323489587754" lat="31.774861933663487">
        <ele>371.79998779296875</ele>
        <time>2014-07-04T03:26:20.000Z</time>
      </trkpt>
      <trkpt lon="35.03244794905186" lat="31.774744419381022">
        <ele>380.0</ele>
        <time>2014-07-04T03:26:28.000Z</time>
      </trkpt>
      <trkpt lon="35.032585160806775" lat="31.774666886776686">
        <ele>386.6000061035156</ele>
        <time>2014-07-04T03:26:36.000Z</time>
      </trkpt>
      <trkpt lon="35.032701920717955" lat="31.774621959775686">
        <ele>390.20001220703125</ele>
        <time>2014-07-04T03:26:44.000Z</time>
      </trkpt>
      <trkpt lon="35.032850950956345" lat="31.77456052042544">
        <ele>392.0</ele>
        <time>2014-07-04T03:26:52.000Z</time>
      </trkpt>
      <trkpt lon="35.03302529454231" lat="31.774512827396393">
        <ele>397.20001220703125</ele>
        <time>2014-07-04T03:27:02.000Z</time>
      </trkpt>
      <trkpt lon="35.03318287432194" lat="31.77447167225182">
        <ele>404.6000061035156</ele>
        <time>2014-07-04T03:27:11.000Z</time>
      </trkpt>
      <trkpt lon="35.03331053070724" lat="31.774424482136965">
        <ele>410.79998779296875</ele>
        <time>2014-07-04T03:27:19.000Z</time>
      </trkpt>
      <trkpt lon="35.03348805941641" lat="31.774377208203077">
        <ele>412.3999938964844</ele>
        <time>2014-07-04T03:27:29.000Z</time>
      </trkpt>
      <trkpt lon="35.03367271274328" lat="31.774372179061174">
        <ele>413.79998779296875</ele>
        <time>2014-07-04T03:27:39.000Z</time>
      </trkpt>
      <trkpt lon="35.03371613100171" lat="31.774383494630456">
        <ele>414.0</ele>
        <time>2014-07-04T03:27:42.000Z</time>
      </trkpt>
      <trkpt lon="35.0337340682745" lat="31.774389278143644">
        <ele>414.20001220703125</ele>
        <time>2014-07-04T03:27:43.000Z</time>
      </trkpt>
      <trkpt lon="35.03392877988517" lat="31.77449262700975">
        <ele>417.3999938964844</ele>
        <time>2014-07-04T03:27:53.000Z</time>
      </trkpt>
      <trkpt lon="35.03396272659302" lat="31.774617601186037">
        <ele>416.79998779296875</ele>
        <time>2014-07-04T03:27:58.000Z</time>
      </trkpt>
      <trkpt lon="35.03393649123609" lat="31.774658588692546">
        <ele>415.79998779296875</ele>
        <time>2014-07-04T03:28:01.000Z</time>
      </trkpt>
      <trkpt lon="35.03381478600204" lat="31.774699492380023">
        <ele>412.3999938964844</ele>
        <time>2014-07-04T03:28:10.000Z</time>
      </trkpt>
      <trkpt lon="35.03369165584445" lat="31.774744670838118">
        <ele>410.0</ele>
        <time>2014-07-04T03:28:18.000Z</time>
      </trkpt>
      <trkpt lon="35.03355352208018" lat="31.774838212877512">
        <ele>403.3999938964844</ele>
        <time>2014-07-04T03:28:28.000Z</time>
      </trkpt>
      <trkpt lon="35.033392421901226" lat="31.775002581998706">
        <ele>398.79998779296875</ele>
        <time>2014-07-04T03:28:38.000Z</time>
      </trkpt>
      <trkpt lon="35.03330902196467" lat="31.775127639994025">
        <ele>398.79998779296875</ele>
        <time>2014-07-04T03:28:45.000Z</time>
      </trkpt>
      <trkpt lon="35.03321900032461" lat="31.77529930137098">
        <ele>398.79998779296875</ele>
        <time>2014-07-04T03:28:55.000Z</time>
      </trkpt>
      <trkpt lon="35.033252108842134" lat="31.775446068495512">
        <ele>402.3999938964844</ele>
        <time>2014-07-04T03:29:04.000Z</time>
      </trkpt>
      <trkpt lon="35.03330080769956" lat="31.77559258416295">
        <ele>407.0</ele>
        <time>2014-07-04T03:29:13.000Z</time>
      </trkpt>
      <trkpt lon="35.03332016989589" lat="31.77572552114725">
        <ele>409.3999938964844</ele>
        <time>2014-07-04T03:29:22.000Z</time>
      </trkpt>
      <trkpt lon="35.033422177657485" lat="31.775897350162268">
        <ele>411.0</ele>
        <time>2014-07-04T03:29:33.000Z</time>
      </trkpt>
      <trkpt lon="35.033499877899885" lat="31.775998771190643">
        <ele>412.79998779296875</ele>
        <time>2014-07-04T03:29:40.000Z</time>
      </trkpt>
      <trkpt lon="35.033545810729265" lat="31.77614671178162">
        <ele>412.3999938964844</ele>
        <time>2014-07-04T03:29:50.000Z</time>
      </trkpt>
      <trkpt lon="35.0336130335927" lat="31.77631627768278">
        <ele>412.6000061035156</ele>
        <time>2014-07-04T03:30:02.000Z</time>
      </trkpt>
      <trkpt lon="35.03365552984178" lat="31.776444436982274">
        <ele>412.20001220703125</ele>
        <time>2014-07-04T03:30:11.000Z</time>
      </trkpt>
      <trkpt lon="35.03371126949787" lat="31.77655474282801">
        <ele>413.20001220703125</ele>
        <time>2014-07-04T03:30:19.000Z</time>
      </trkpt>
      <trkpt lon="35.033783772960305" lat="31.77670117467642">
        <ele>410.20001220703125</ele>
        <time>2014-07-04T03:30:28.000Z</time>
      </trkpt>
      <trkpt lon="35.03389583900571" lat="31.776872668415308">
        <ele>406.3999938964844</ele>
        <time>2014-07-04T03:30:38.000Z</time>
      </trkpt>
      <trkpt lon="35.03399357199669" lat="31.776977442204952">
        <ele>404.6000061035156</ele>
        <time>2014-07-04T03:30:46.000Z</time>
      </trkpt>
      <trkpt lon="35.034086275845766" lat="31.777020692825317">
        <ele>404.79998779296875</ele>
        <time>2014-07-04T03:30:52.000Z</time>
      </trkpt>
      <trkpt lon="35.034105218946934" lat="31.777019686996937">
        <ele>405.20001220703125</ele>
        <time>2014-07-04T03:30:53.000Z</time>
      </trkpt>
      <trkpt lon="35.03412298858166" lat="31.777019519358873">
        <ele>405.6000061035156</ele>
        <time>2014-07-04T03:30:54.000Z</time>
      </trkpt>
      <trkpt lon="35.03429951146245" lat="31.777037708088756">
        <ele>409.0</ele>
        <time>2014-07-04T03:31:04.000Z</time>
      </trkpt>
      <trkpt lon="35.034474693238735" lat="31.777065116912127">
        <ele>413.20001220703125</ele>
        <time>2014-07-04T03:31:14.000Z</time>
      </trkpt>
      <trkpt lon="35.03468197770417" lat="31.777086993679404">
        <ele>418.6000061035156</ele>
        <time>2014-07-04T03:31:26.000Z</time>
      </trkpt>
      <trkpt lon="35.0348911061883" lat="31.777125131338835">
        <ele>423.3999938964844</ele>
        <time>2014-07-04T03:31:37.000Z</time>
      </trkpt>
      <trkpt lon="35.03508221358061" lat="31.77715027704835">
        <ele>428.20001220703125</ele>
        <time>2014-07-04T03:31:47.000Z</time>
      </trkpt>
      <trkpt lon="35.03528564237058" lat="31.7771752551198">
        <ele>433.20001220703125</ele>
        <time>2014-07-04T03:31:57.000Z</time>
      </trkpt>
      <trkpt lon="35.03545847721398" lat="31.77722110413015">
        <ele>436.20001220703125</ele>
        <time>2014-07-04T03:32:06.000Z</time>
      </trkpt>
      <trkpt lon="35.03561647608876" lat="31.777278603985906">
        <ele>437.3999938964844</ele>
        <time>2014-07-04T03:32:14.000Z</time>
      </trkpt>
      <trkpt lon="35.03575561568141" lat="31.777323028072715">
        <ele>438.6000061035156</ele>
        <time>2014-07-04T03:32:21.000Z</time>
      </trkpt>
      <trkpt lon="35.03593205474317" lat="31.7774273827672">
        <ele>438.3999938964844</ele>
        <time>2014-07-04T03:32:31.000Z</time>
      </trkpt>
      <trkpt lon="35.03607111051679" lat="31.77755537442863">
        <ele>437.20001220703125</ele>
        <time>2014-07-04T03:32:41.000Z</time>
      </trkpt>
      <trkpt lon="35.036201030015945" lat="31.777658136561513">
        <ele>436.6000061035156</ele>
        <time>2014-07-04T03:32:50.000Z</time>
      </trkpt>
      <trkpt lon="35.03630521707237" lat="31.777722761034966">
        <ele>436.79998779296875</ele>
        <time>2014-07-04T03:32:56.000Z</time>
      </trkpt>
      <trkpt lon="35.03649154677987" lat="31.777841616421938">
        <ele>436.79998779296875</ele>
        <time>2014-07-04T03:33:07.000Z</time>
      </trkpt>
      <trkpt lon="35.036671087145805" lat="31.7779247649014">
        <ele>437.79998779296875</ele>
        <time>2014-07-04T03:33:17.000Z</time>
      </trkpt>
      <trkpt lon="35.03678231500089" lat="31.777988970279694">
        <ele>438.0</ele>
        <time>2014-07-04T03:33:24.000Z</time>
      </trkpt>
      <trkpt lon="35.036914413794875" lat="31.778035070747137">
        <ele>439.3999938964844</ele>
        <time>2014-07-04T03:33:32.000Z</time>
      </trkpt>
      <trkpt lon="35.03710971213877" lat="31.778075890615582">
        <ele>442.79998779296875</ele>
        <time>2014-07-04T03:33:43.000Z</time>
      </trkpt>
      <trkpt lon="35.03717852756381" lat="31.7780870385468">
        <ele>444.0</ele>
        <time>2014-07-04T03:33:47.000Z</time>
      </trkpt>
      <trkpt lon="35.03719663247466" lat="31.778093241155148">
        <ele>444.20001220703125</ele>
        <time>2014-07-04T03:33:48.000Z</time>
      </trkpt>
      <trkpt lon="35.037245666608214" lat="31.77811578847468">
        <ele>444.6000061035156</ele>
        <time>2014-07-04T03:33:51.000Z</time>
      </trkpt>
      <trkpt lon="35.03733040764928" lat="31.778147807344794">
        <ele>445.6000061035156</ele>
        <time>2014-07-04T03:33:57.000Z</time>
      </trkpt>
      <trkpt lon="35.03754045814276" lat="31.778233218938112">
        <ele>447.20001220703125</ele>
        <time>2014-07-04T03:34:09.000Z</time>
      </trkpt>
      <trkpt lon="35.037727961316705" lat="31.77830597385764">
        <ele>448.0</ele>
        <time>2014-07-04T03:34:20.000Z</time>
      </trkpt>
      <trkpt lon="35.03780943341553" lat="31.77833715453744">
        <ele>448.20001220703125</ele>
        <time>2014-07-04T03:34:25.000Z</time>
      </trkpt>
      <trkpt lon="35.03796617500484" lat="31.778425248339772">
        <ele>447.3999938964844</ele>
        <time>2014-07-04T03:34:34.000Z</time>
      </trkpt>
      <trkpt lon="35.03800481557846" lat="31.778439162299037">
        <ele>447.3999938964844</ele>
        <time>2014-07-04T03:34:36.000Z</time>
      </trkpt>
      <trkpt lon="35.03802149556577" lat="31.77844519726932">
        <ele>447.6000061035156</ele>
        <time>2014-07-04T03:34:37.000Z</time>
      </trkpt>
      <trkpt lon="35.038037756457925" lat="31.77845399826765">
        <ele>447.3999938964844</ele>
        <time>2014-07-04T03:34:38.000Z</time>
      </trkpt>
      <trkpt lon="35.03823255188763" lat="31.778518203645945">
        <ele>448.6000061035156</ele>
        <time>2014-07-04T03:34:49.000Z</time>
      </trkpt>
      <trkpt lon="35.03839616663754" lat="31.77855650894344">
        <ele>450.79998779296875</ele>
        <time>2014-07-04T03:34:58.000Z</time>
      </trkpt>
      <trkpt lon="35.03854662179947" lat="31.77858936600387">
        <ele>452.79998779296875</ele>
        <time>2014-07-04T03:35:06.000Z</time>
      </trkpt>
      <trkpt lon="35.03868316300213" lat="31.778624067083">
        <ele>454.3999938964844</ele>
        <time>2014-07-04T03:35:14.000Z</time>
      </trkpt>
      <trkpt lon="35.03886764869094" lat="31.77867284975946">
        <ele>457.20001220703125</ele>
        <time>2014-07-04T03:35:24.000Z</time>
      </trkpt>
      <trkpt lon="35.03904710523784" lat="31.778729259967804">
        <ele>459.6000061035156</ele>
        <time>2014-07-04T03:35:34.000Z</time>
      </trkpt>
      <trkpt lon="35.039200745522976" lat="31.778758093714714">
        <ele>463.0</ele>
        <time>2014-07-04T03:35:42.000Z</time>
      </trkpt>
      <trkpt lon="35.03939151763916" lat="31.778824981302023">
        <ele>465.20001220703125</ele>
        <time>2014-07-04T03:35:52.000Z</time>
      </trkpt>
      <trkpt lon="35.03952881321311" lat="31.778872506693006">
        <ele>466.3999938964844</ele>
        <time>2014-07-04T03:36:00.000Z</time>
      </trkpt>
      <trkpt lon="35.03970080986619" lat="31.77893436513841">
        <ele>471.0</ele>
        <time>2014-07-04T03:36:10.000Z</time>
      </trkpt>
      <trkpt lon="35.03988269716501" lat="31.77901742979884">
        <ele>476.6000061035156</ele>
        <time>2014-07-04T03:36:21.000Z</time>
      </trkpt>
      <trkpt lon="35.03993399441242" lat="31.779127987101674">
        <ele>475.20001220703125</ele>
        <time>2014-07-04T03:36:28.000Z</time>
      </trkpt>
      <trkpt lon="35.039974730461836" lat="31.779224295169115">
        <ele>474.20001220703125</ele>
        <time>2014-07-04T03:36:35.000Z</time>
      </trkpt>
      <trkpt lon="35.04002611152828" lat="31.77937558852136">
        <ele>472.0</ele>
        <time>2014-07-04T03:36:44.000Z</time>
      </trkpt>
      <trkpt lon="35.04011319950223" lat="31.779454378411174">
        <ele>474.20001220703125</ele>
        <time>2014-07-04T03:36:51.000Z</time>
      </trkpt>
      <trkpt lon="35.04026876762509" lat="31.779561918228865">
        <ele>479.20001220703125</ele>
        <time>2014-07-04T03:37:02.000Z</time>
      </trkpt>
      <trkpt lon="35.04041067324579" lat="31.779664093628526">
        <ele>483.6000061035156</ele>
        <time>2014-07-04T03:37:13.000Z</time>
      </trkpt>
      <trkpt lon="35.04050471819937" lat="31.779766604304314">
        <ele>486.0</ele>
        <time>2014-07-04T03:37:21.000Z</time>
      </trkpt>
      <trkpt lon="35.04054067656398" lat="31.779901888221502">
        <ele>483.79998779296875</ele>
        <time>2014-07-04T03:37:29.000Z</time>
      </trkpt>
      <trkpt lon="35.040563978254795" lat="31.780049661174417">
        <ele>480.3999938964844</ele>
        <time>2014-07-04T03:37:39.000Z</time>
      </trkpt>
      <trkpt lon="35.04059951752424" lat="31.78011864423752">
        <ele>480.3999938964844</ele>
        <time>2014-07-04T03:37:44.000Z</time>
      </trkpt>
      <trkpt lon="35.040602115914226" lat="31.780132642015815">
        <ele>480.20001220703125</ele>
        <time>2014-07-04T03:37:45.000Z</time>
      </trkpt>
      <trkpt lon="35.04066623747349" lat="31.78026683628559">
        <ele>480.0</ele>
        <time>2014-07-04T03:37:54.000Z</time>
      </trkpt>
      <trkpt lon="35.04068886861205" lat="31.780292401090264">
        <ele>480.6000061035156</ele>
        <time>2014-07-04T03:37:56.000Z</time>
      </trkpt>
      <trkpt lon="35.04070119000971" lat="31.78030338138342">
        <ele>481.0</ele>
        <time>2014-07-04T03:37:57.000Z</time>
      </trkpt>
      <trkpt lon="35.04071275703609" lat="31.78031570278108">
        <ele>481.20001220703125</ele>
        <time>2014-07-04T03:37:58.000Z</time>
      </trkpt>
      <trkpt lon="35.040823481976986" lat="31.780417878180742">
        <ele>484.79998779296875</ele>
        <time>2014-07-04T03:38:08.000Z</time>
      </trkpt>
      <trkpt lon="35.04092741757631" lat="31.780548468232155">
        <ele>487.20001220703125</ele>
        <time>2014-07-04T03:38:19.000Z</time>
      </trkpt>
      <trkpt lon="35.04101685248315" lat="31.78070453926921">
        <ele>487.79998779296875</ele>
        <time>2014-07-04T03:38:29.000Z</time>
      </trkpt>
      <trkpt lon="35.04117250442505" lat="31.780976364389062">
        <ele>486.20001220703125</ele>
        <time>2014-07-04T03:38:40.000Z</time>
      </trkpt>
      <trkpt lon="35.04126260988414" lat="31.781269228085876">
        <ele>479.6000061035156</ele>
        <time>2014-07-04T03:38:48.000Z</time>
      </trkpt>
      <trkpt lon="35.041303262114525" lat="31.781368805095553">
        <ele>477.3999938964844</ele>
        <time>2014-07-04T03:38:50.000Z</time>
      </trkpt>
      <trkpt lon="35.04134357906878" lat="31.781415659934282">
        <ele>477.20001220703125</ele>
        <time>2014-07-04T03:38:51.000Z</time>
      </trkpt>
      <trkpt lon="35.04139579832554" lat="31.781456228345633">
        <ele>478.0</ele>
        <time>2014-07-04T03:38:52.000Z</time>
      </trkpt>
      <trkpt lon="35.04145598039031" lat="31.781493108719587">
        <ele>479.20001220703125</ele>
        <time>2014-07-04T03:38:53.000Z</time>
      </trkpt>
      <trkpt lon="35.04152328707278" lat="31.781525714322925">
        <ele>481.0</ele>
        <time>2014-07-04T03:38:54.000Z</time>
      </trkpt>
      <trkpt lon="35.041593024507165" lat="31.78155379369855">
        <ele>483.0</ele>
        <time>2014-07-04T03:38:55.000Z</time>
      </trkpt>
      <trkpt lon="35.04172998480499" lat="31.781597044318914">
        <ele>487.20001220703125</ele>
        <time>2014-07-04T03:38:57.000Z</time>
      </trkpt>
      <trkpt lon="35.041795279830694" lat="31.781616993248463">
        <ele>489.20001220703125</ele>
        <time>2014-07-04T03:38:58.000Z</time>
      </trkpt>
      <trkpt lon="35.04185236059129" lat="31.781644821166992">
        <ele>490.6000061035156</ele>
        <time>2014-07-04T03:38:59.000Z</time>
      </trkpt>
      <trkpt lon="35.04189980216324" lat="31.781680192798376">
        <ele>491.0</ele>
        <time>2014-07-04T03:39:00.000Z</time>
      </trkpt>
      <trkpt lon="35.04193685017526" lat="31.78172143176198">
        <ele>490.79998779296875</ele>
        <time>2014-07-04T03:39:01.000Z</time>
      </trkpt>
      <trkpt lon="35.04196459427476" lat="31.78176736459136">
        <ele>490.0</ele>
        <time>2014-07-04T03:39:02.000Z</time>
      </trkpt>
      <trkpt lon="35.04198420792818" lat="31.78181866183877">
        <ele>488.3999938964844</ele>
        <time>2014-07-04T03:39:03.000Z</time>
      </trkpt>
      <trkpt lon="35.04199401475489" lat="31.781873228028417">
        <ele>486.3999938964844</ele>
        <time>2014-07-04T03:39:04.000Z</time>
      </trkpt>
      <trkpt lon="35.04210029728711" lat="31.78222761489451">
        <ele>474.3999938964844</ele>
        <time>2014-07-04T03:39:12.000Z</time>
      </trkpt>
      <trkpt lon="35.04227254539728" lat="31.78232685662806">
        <ele>473.0</ele>
        <time>2014-07-04T03:39:19.000Z</time>
      </trkpt>
      <trkpt lon="35.042537581175566" lat="31.78236197680235">
        <ele>476.3999938964844</ele>
        <time>2014-07-04T03:39:28.000Z</time>
      </trkpt>
      <trkpt lon="35.04271066747606" lat="31.78236356936395">
        <ele>479.6000061035156</ele>
        <time>2014-07-04T03:39:36.000Z</time>
      </trkpt>
      <trkpt lon="35.042850729078054" lat="31.782357953488827">
        <ele>482.6000061035156</ele>
        <time>2014-07-04T03:39:42.000Z</time>
      </trkpt>
      <trkpt lon="35.0430453568697" lat="31.78236834704876">
        <ele>486.0</ele>
        <time>2014-07-04T03:39:52.000Z</time>
      </trkpt>
      <trkpt lon="35.04324518144131" lat="31.782374382019043">
        <ele>489.20001220703125</ele>
        <time>2014-07-04T03:40:02.000Z</time>
      </trkpt>
      <trkpt lon="35.0434441678226" lat="31.782386200502515">
        <ele>492.0</ele>
        <time>2014-07-04T03:40:12.000Z</time>
      </trkpt>
      <trkpt lon="35.0435633584857" lat="31.78239433094859">
        <ele>493.79998779296875</ele>
        <time>2014-07-04T03:40:18.000Z</time>
      </trkpt>
      <trkpt lon="35.043586576357484" lat="31.782400365918875">
        <ele>493.79998779296875</ele>
        <time>2014-07-04T03:40:19.000Z</time>
      </trkpt>
      <trkpt lon="35.04361222498119" lat="31.782403886318207">
        <ele>494.20001220703125</ele>
        <time>2014-07-04T03:40:20.000Z</time>
      </trkpt>
      <trkpt lon="35.04363586194813" lat="31.78240891546011">
        <ele>494.3999938964844</ele>
        <time>2014-07-04T03:40:21.000Z</time>
      </trkpt>
      <trkpt lon="35.04365379922092" lat="31.78241277113557">
        <ele>494.3999938964844</ele>
        <time>2014-07-04T03:40:22.000Z</time>
      </trkpt>
      <trkpt lon="35.043832417577505" lat="31.782432552427053">
        <ele>496.20001220703125</ele>
        <time>2014-07-04T03:40:31.000Z</time>
      </trkpt>
      <trkpt lon="35.043993601575494" lat="31.782469684258103">
        <ele>496.3999938964844</ele>
        <time>2014-07-04T03:40:40.000Z</time>
      </trkpt>
      <trkpt lon="35.044196946546435" lat="31.782537577673793">
        <ele>495.6000061035156</ele>
        <time>2014-07-04T03:40:51.000Z</time>
      </trkpt>
      <trkpt lon="35.044292248785496" lat="31.78258719854057">
        <ele>494.20001220703125</ele>
        <time>2014-07-04T03:40:56.000Z</time>
      </trkpt>
      <trkpt lon="35.04430867731571" lat="31.78258979693055">
        <ele>494.3999938964844</ele>
        <time>2014-07-04T03:40:57.000Z</time>
      </trkpt>
      <trkpt lon="35.044323429465294" lat="31.782594323158264">
        <ele>494.3999938964844</ele>
        <time>2014-07-04T03:40:58.000Z</time>
      </trkpt>
      <trkpt lon="35.044338600710034" lat="31.78260052576661">
        <ele>494.20001220703125</ele>
        <time>2014-07-04T03:40:59.000Z</time>
      </trkpt>
      <trkpt lon="35.0443525146693" lat="31.782607566565275">
        <ele>494.0</ele>
        <time>2014-07-04T03:41:00.000Z</time>
      </trkpt>
      <trkpt lon="35.0443696975708" lat="31.782613350078464">
        <ele>494.0</ele>
        <time>2014-07-04T03:41:01.000Z</time>
      </trkpt>
      <trkpt lon="35.044520907104015" lat="31.78265525959432">
        <ele>493.79998779296875</ele>
        <time>2014-07-04T03:41:10.000Z</time>
      </trkpt>
      <trkpt lon="35.0445388443768" lat="31.78265660069883">
        <ele>494.0</ele>
        <time>2014-07-04T03:41:11.000Z</time>
      </trkpt>
      <trkpt lon="35.04475140944123" lat="31.782726170495152">
        <ele>491.6000061035156</ele>
        <time>2014-07-04T03:41:23.000Z</time>
      </trkpt>
      <trkpt lon="35.04491242580116" lat="31.7827720195055">
        <ele>490.0</ele>
        <time>2014-07-04T03:41:32.000Z</time>
      </trkpt>
      <trkpt lon="35.044928854331374" lat="31.782779647037387">
        <ele>489.6000061035156</ele>
        <time>2014-07-04T03:41:33.000Z</time>
      </trkpt>
      <trkpt lon="35.04494779743254" lat="31.78278660401702">
        <ele>489.20001220703125</ele>
        <time>2014-07-04T03:41:34.000Z</time>
      </trkpt>
      <trkpt lon="35.04510110244155" lat="31.78283932618797">
        <ele>487.3999938964844</ele>
        <time>2014-07-04T03:41:43.000Z</time>
      </trkpt>
      <trkpt lon="35.045258263126016" lat="31.782893305644393">
        <ele>485.79998779296875</ele>
        <time>2014-07-04T03:41:51.000Z</time>
      </trkpt>
      <trkpt lon="35.045396480709314" lat="31.782904118299484">
        <ele>486.6000061035156</ele>
        <time>2014-07-04T03:41:59.000Z</time>
      </trkpt>
      <trkpt lon="35.0456028431654" lat="31.782869836315513">
        <ele>488.0</ele>
        <time>2014-07-04T03:42:10.000Z</time>
      </trkpt>
      <trkpt lon="35.04579026252031" lat="31.782826501876116">
        <ele>489.6000061035156</ele>
        <time>2014-07-04T03:42:20.000Z</time>
      </trkpt>
      <trkpt lon="35.04598002880812" lat="31.78278559818864">
        <ele>491.6000061035156</ele>
        <time>2014-07-04T03:42:30.000Z</time>
      </trkpt>
      <trkpt lon="35.04623374901712" lat="31.78273245692253">
        <ele>494.79998779296875</ele>
        <time>2014-07-04T03:42:43.000Z</time>
      </trkpt>
      <trkpt lon="35.046379594132304" lat="31.782717369496822">
        <ele>496.0</ele>
        <time>2014-07-04T03:42:50.000Z</time>
      </trkpt>
      <trkpt lon="35.04659785889089" lat="31.782689122483134">
        <ele>498.3999938964844</ele>
        <time>2014-07-04T03:43:00.000Z</time>
      </trkpt>
      <trkpt lon="35.04683959297836" lat="31.782652493566275">
        <ele>501.79998779296875</ele>
        <time>2014-07-04T03:43:11.000Z</time>
      </trkpt>
      <trkpt lon="35.04706900566816" lat="31.782631957903504">
        <ele>504.0</ele>
        <time>2014-07-04T03:43:21.000Z</time>
      </trkpt>
      <trkpt lon="35.047320714220405" lat="31.782625671476126">
        <ele>507.79998779296875</ele>
        <time>2014-07-04T03:43:32.000Z</time>
      </trkpt>
      <trkpt lon="35.04748810082674" lat="31.782609997317195">
        <ele>509.79998779296875</ele>
        <time>2014-07-04T03:43:40.000Z</time>
      </trkpt>
      <trkpt lon="35.04771189764142" lat="31.782593987882137">
        <ele>512.2000122070312</ele>
        <time>2014-07-04T03:43:51.000Z</time>
      </trkpt>
      <trkpt lon="35.04793971776962" lat="31.782589629292488">
        <ele>514.0</ele>
        <time>2014-07-04T03:44:02.000Z</time>
      </trkpt>
      <trkpt lon="35.04810760729015" lat="31.782604129984975">
        <ele>517.2000122070312</ele>
        <time>2014-07-04T03:44:10.000Z</time>
      </trkpt>
      <trkpt lon="35.048303911462426" lat="31.782642351463437">
        <ele>519.2000122070312</ele>
        <time>2014-07-04T03:44:20.000Z</time>
      </trkpt>
      <trkpt lon="35.048428885638714" lat="31.7826684191823">
        <ele>520.2000122070312</ele>
        <time>2014-07-04T03:44:26.000Z</time>
      </trkpt>
      <trkpt lon="35.04863348789513" lat="31.78270940668881">
        <ele>521.7999877929688</ele>
        <time>2014-07-04T03:44:36.000Z</time>
      </trkpt>
      <trkpt lon="35.048852087929845" lat="31.782763302326202">
        <ele>522.4000244140625</ele>
        <time>2014-07-04T03:44:47.000Z</time>
      </trkpt>
      <trkpt lon="35.04903556779027" lat="31.782809989526868">
        <ele>521.7999877929688</ele>
        <time>2014-07-04T03:44:57.000Z</time>
      </trkpt>
      <trkpt lon="35.04918317310512" lat="31.782858269289136">
        <ele>520.7999877929688</ele>
        <time>2014-07-04T03:45:05.000Z</time>
      </trkpt>
      <trkpt lon="35.049343686550856" lat="31.78290822543204">
        <ele>520.4000244140625</ele>
        <time>2014-07-04T03:45:14.000Z</time>
      </trkpt>
      <trkpt lon="35.049476036801934" lat="31.782959271222353">
        <ele>519.7999877929688</ele>
        <time>2014-07-04T03:45:21.000Z</time>
      </trkpt>
      <trkpt lon="35.04963034763932" lat="31.782998414710164">
        <ele>520.0</ele>
        <time>2014-07-04T03:45:30.000Z</time>
      </trkpt>
      <trkpt lon="35.049711149185896" lat="31.78302657790482">
        <ele>519.0</ele>
        <time>2014-07-04T03:45:35.000Z</time>
      </trkpt>
      <trkpt lon="35.04972933791578" lat="31.783034205436707">
        <ele>518.7999877929688</ele>
        <time>2014-07-04T03:45:36.000Z</time>
      </trkpt>
      <trkpt lon="35.049885492771864" lat="31.783078964799643">
        <ele>517.4000244140625</ele>
        <time>2014-07-04T03:45:46.000Z</time>
      </trkpt>
      <trkpt lon="35.050016921013594" lat="31.783098662272096">
        <ele>517.4000244140625</ele>
        <time>2014-07-04T03:45:55.000Z</time>
      </trkpt>
      <trkpt lon="35.05018179304898" lat="31.78312573581934">
        <ele>517.2000122070312</ele>
        <time>2014-07-04T03:46:06.000Z</time>
      </trkpt>
      <trkpt lon="35.05030207335949" lat="31.783129507675767">
        <ele>518.2000122070312</ele>
        <time>2014-07-04T03:46:14.000Z</time>
      </trkpt>
      <trkpt lon="35.05032311193645" lat="31.783142248168588">
        <ele>517.5999755859375</ele>
        <time>2014-07-04T03:46:22.000Z</time>
      </trkpt>
      <trkpt lon="35.05035831592977" lat="31.783137386664748">
        <ele>518.4000244140625</ele>
        <time>2014-07-04T03:46:31.000Z</time>
      </trkpt>
      <trkpt lon="35.05038362927735" lat="31.783135877922177">
        <ele>519.2000122070312</ele>
        <time>2014-07-04T03:46:39.000Z</time>
      </trkpt>
      <trkpt lon="35.050403997302055" lat="31.78314132615924">
        <ele>519.2000122070312</ele>
        <time>2014-07-04T03:46:56.000Z</time>
      </trkpt>
      <trkpt lon="35.05041237920523" lat="31.783136297017336">
        <ele>519.7999877929688</ele>
        <time>2014-07-04T03:47:17.000Z</time>
      </trkpt>
      <trkpt lon="35.05041682161391" lat="31.783145014196634">
        <ele>519.2000122070312</ele>
        <time>2014-07-04T03:47:32.000Z</time>
      </trkpt>
      <trkpt lon="35.05039687268436" lat="31.783127831295133">
        <ele>520.0</ele>
        <time>2014-07-04T03:47:49.000Z</time>
      </trkpt>
      <trkpt lon="35.05039360374212" lat="31.78313503973186">
        <ele>519.4000244140625</ele>
        <time>2014-07-04T03:48:04.000Z</time>
      </trkpt>
      <trkpt lon="35.05044347606599" lat="31.783136129379272">
        <ele>520.4000244140625</ele>
        <time>2014-07-04T03:48:12.000Z</time>
      </trkpt>
      <trkpt lon="35.05045839585364" lat="31.783135626465082">
        <ele>520.5999755859375</ele>
        <time>2014-07-04T03:48:13.000Z</time>
      </trkpt>
      <trkpt lon="35.05061044357717" lat="31.783122550696135">
        <ele>523.4000244140625</ele>
        <time>2014-07-04T03:48:23.000Z</time>
      </trkpt>
      <trkpt lon="35.05076047964394" lat="31.783108050003648">
        <ele>526.4000244140625</ele>
        <time>2014-07-04T03:48:31.000Z</time>
      </trkpt>
      <trkpt lon="35.0509992800653" lat="31.783105116337538">
        <ele>529.4000244140625</ele>
        <time>2014-07-04T03:48:44.000Z</time>
      </trkpt>
      <trkpt lon="35.05114152096212" lat="31.7830881010741">
        <ele>532.5999755859375</ele>
        <time>2014-07-04T03:48:52.000Z</time>
      </trkpt>
      <trkpt lon="35.05133464001119" lat="31.78307485766709">
        <ele>535.0</ele>
        <time>2014-07-04T03:49:03.000Z</time>
      </trkpt>
      <trkpt lon="35.051554245874286" lat="31.783076282590628">
        <ele>536.5999755859375</ele>
        <time>2014-07-04T03:49:14.000Z</time>
      </trkpt>
      <trkpt lon="35.051756501197815" lat="31.78307343274355">
        <ele>538.2000122070312</ele>
        <time>2014-07-04T03:49:25.000Z</time>
      </trkpt>
      <trkpt lon="35.05192774347961" lat="31.78306706249714">
        <ele>540.0</ele>
        <time>2014-07-04T03:49:35.000Z</time>
      </trkpt>
      <trkpt lon="35.05206218920648" lat="31.78305977024138">
        <ele>540.5999755859375</ele>
        <time>2014-07-04T03:49:43.000Z</time>
      </trkpt>
      <trkpt lon="35.05222178064287" lat="31.783052310347557">
        <ele>541.5999755859375</ele>
        <time>2014-07-04T03:49:52.000Z</time>
      </trkpt>
      <trkpt lon="35.05233485251665" lat="31.78305055014789">
        <ele>542.0</ele>
        <time>2014-07-04T03:49:59.000Z</time>
      </trkpt>
      <trkpt lon="35.05250475369394" lat="31.78304065950215">
        <ele>543.4000244140625</ele>
        <time>2014-07-04T03:50:09.000Z</time>
      </trkpt>
      <trkpt lon="35.052658980712295" lat="31.783026829361916">
        <ele>544.7999877929688</ele>
        <time>2014-07-04T03:50:18.000Z</time>
      </trkpt>
      <trkpt lon="35.05283667705953" lat="31.783023476600647">
        <ele>544.2000122070312</ele>
        <time>2014-07-04T03:50:28.000Z</time>
      </trkpt>
      <trkpt lon="35.05301068536937" lat="31.78303537890315">
        <ele>541.5999755859375</ele>
        <time>2014-07-04T03:50:37.000Z</time>
      </trkpt>
      <trkpt lon="35.05317321047187" lat="31.783015513792634">
        <ele>541.0</ele>
        <time>2014-07-04T03:50:46.000Z</time>
      </trkpt>
      <trkpt lon="35.053374795243144" lat="31.782952900975943">
        <ele>542.4000244140625</ele>
        <time>2014-07-04T03:50:57.000Z</time>
      </trkpt>
      <trkpt lon="35.05354763008654" lat="31.782905710861087">
        <ele>543.4000244140625</ele>
        <time>2014-07-04T03:51:06.000Z</time>
      </trkpt>
      <trkpt lon="35.05374116823077" lat="31.782824993133545">
        <ele>546.2000122070312</ele>
        <time>2014-07-04T03:51:17.000Z</time>
      </trkpt>
      <trkpt lon="35.05393269471824" lat="31.782741006463766">
        <ele>550.2000122070312</ele>
        <time>2014-07-04T03:51:28.000Z</time>
      </trkpt>
      <trkpt lon="35.05408641882241" lat="31.782684680074453">
        <ele>552.5999755859375</ele>
        <time>2014-07-04T03:51:37.000Z</time>
      </trkpt>
      <trkpt lon="35.05425229668617" lat="31.78262986242771">
        <ele>553.5999755859375</ele>
        <time>2014-07-04T03:51:47.000Z</time>
      </trkpt>
      <trkpt lon="35.054421946406364" lat="31.782592898234725">
        <ele>553.5999755859375</ele>
        <time>2014-07-04T03:51:57.000Z</time>
      </trkpt>
      <trkpt lon="35.05456016398966" lat="31.782555263489485">
        <ele>554.2000122070312</ele>
        <time>2014-07-04T03:52:05.000Z</time>
      </trkpt>
      <trkpt lon="35.054705338552594" lat="31.78253539837897">
        <ele>553.5999755859375</ele>
        <time>2014-07-04T03:52:14.000Z</time>
      </trkpt>
      <trkpt lon="35.05484003573656" lat="31.782516790553927">
        <ele>551.0</ele>
        <time>2014-07-04T03:52:23.000Z</time>
      </trkpt>
      <trkpt lon="35.05501287057996" lat="31.782442526891828">
        <ele>548.5999755859375</ele>
        <time>2014-07-04T03:52:34.000Z</time>
      </trkpt>
      <trkpt lon="35.05510222166777" lat="31.78234973922372">
        <ele>548.7999877929688</ele>
        <time>2014-07-04T03:52:41.000Z</time>
      </trkpt>
      <trkpt lon="35.0552040617913" lat="31.782231722027063">
        <ele>549.2000122070312</ele>
        <time>2014-07-04T03:52:51.000Z</time>
      </trkpt>
      <trkpt lon="35.055298106744885" lat="31.78208596073091">
        <ele>550.0</ele>
        <time>2014-07-04T03:53:04.000Z</time>
      </trkpt>
      <trkpt lon="35.05531528964639" lat="31.78201898932457">
        <ele>551.2000122070312</ele>
        <time>2014-07-04T03:53:10.000Z</time>
      </trkpt>
      <trkpt lon="35.055315624922514" lat="31.782005494460464">
        <ele>551.4000244140625</ele>
        <time>2014-07-04T03:53:11.000Z</time>
      </trkpt>
      <trkpt lon="35.05537563934922" lat="31.781869623810053">
        <ele>552.7999877929688</ele>
        <time>2014-07-04T03:53:21.000Z</time>
      </trkpt>
      <trkpt lon="35.05539651028812" lat="31.781729897484183">
        <ele>555.5999755859375</ele>
        <time>2014-07-04T03:53:32.000Z</time>
      </trkpt>
      <trkpt lon="35.05539005622268" lat="31.78160022944212">
        <ele>558.7999877929688</ele>
        <time>2014-07-04T03:53:41.000Z</time>
      </trkpt>
      <trkpt lon="35.05535904318094" lat="31.781452791765332">
        <ele>561.7999877929688</ele>
        <time>2014-07-04T03:53:51.000Z</time>
      </trkpt>
      <trkpt lon="35.055321995168924" lat="31.781305270269513">
        <ele>564.5999755859375</ele>
        <time>2014-07-04T03:54:02.000Z</time>
      </trkpt>
      <trkpt lon="35.05531394854188" lat="31.78114291280508">
        <ele>567.0</ele>
        <time>2014-07-04T03:54:14.000Z</time>
      </trkpt>
      <trkpt lon="35.0553042255342" lat="31.781023051589727">
        <ele>568.7999877929688</ele>
        <time>2014-07-04T03:54:23.000Z</time>
      </trkpt>
      <trkpt lon="35.05530338734388" lat="31.780861699953675">
        <ele>571.0</ele>
        <time>2014-07-04T03:54:34.000Z</time>
      </trkpt>
      <trkpt lon="35.055299028754234" lat="31.780662797391415">
        <ele>573.0</ele>
        <time>2014-07-04T03:54:43.000Z</time>
      </trkpt>
      <trkpt lon="35.05526835098863" lat="31.780476132407784">
        <ele>575.0</ele>
        <time>2014-07-04T03:54:55.000Z</time>
      </trkpt>
      <trkpt lon="35.05524706095457" lat="31.780335819348693">
        <ele>577.4000244140625</ele>
        <time>2014-07-04T03:55:05.000Z</time>
      </trkpt>
      <trkpt lon="35.05528528243303" lat="31.780198020860553">
        <ele>579.5999755859375</ele>
        <time>2014-07-04T03:55:17.000Z</time>
      </trkpt>
      <trkpt lon="35.055309338495135" lat="31.780180586501956">
        <ele>579.5999755859375</ele>
        <time>2014-07-04T03:55:21.000Z</time>
      </trkpt>
      <trkpt lon="35.05535409785807" lat="31.780177066102624">
        <ele>579.4000244140625</ele>
        <time>2014-07-04T03:55:27.000Z</time>
      </trkpt>
      <trkpt lon="35.05538301542401" lat="31.780194332823157">
        <ele>579.0</ele>
        <time>2014-07-04T03:55:40.000Z</time>
      </trkpt>
      <trkpt lon="35.05539475008845" lat="31.780202127993107">
        <ele>578.7999877929688</ele>
        <time>2014-07-04T03:56:03.000Z</time>
      </trkpt>
      <trkpt lon="35.05538712255657" lat="31.780213275924325">
        <ele>578.5999755859375</ele>
        <time>2014-07-04T03:56:25.000Z</time>
      </trkpt>
      <trkpt lon="35.05540338344872" lat="31.780218137428164">
        <ele>578.4000244140625</ele>
        <time>2014-07-04T03:56:47.000Z</time>
      </trkpt>
      <trkpt lon="35.05541427992284" lat="31.780230458825827">
        <ele>578.2000122070312</ele>
        <time>2014-07-04T03:57:02.000Z</time>
      </trkpt>
      <trkpt lon="35.05540874786675" lat="31.780232470482588">
        <ele>578.2000122070312</ele>
        <time>2014-07-04T03:57:13.000Z</time>
      </trkpt>
      <trkpt lon="35.05540682002902" lat="31.780237834900618">
        <ele>578.2000122070312</ele>
        <time>2014-07-04T03:57:27.000Z</time>
      </trkpt>
      <trkpt lon="35.055430456995964" lat="31.780230458825827">
        <ele>578.0</ele>
        <time>2014-07-04T03:57:43.000Z</time>
      </trkpt>
      <trkpt lon="35.05542894825339" lat="31.780227106064558">
        <ele>578.0</ele>
        <time>2014-07-04T03:58:02.000Z</time>
      </trkpt>
      <trkpt lon="35.055421739816666" lat="31.78022375330329">
        <ele>578.2000122070312</ele>
        <time>2014-07-04T03:58:14.000Z</time>
      </trkpt>
      <trkpt lon="35.05539424717426" lat="31.780215790495276">
        <ele>578.5999755859375</ele>
        <time>2014-07-04T03:58:26.000Z</time>
      </trkpt>
      <trkpt lon="35.0554043892771" lat="31.78021939471364">
        <ele>578.4000244140625</ele>
        <time>2014-07-04T03:58:39.000Z</time>
      </trkpt>
      <trkpt lon="35.05539374426007" lat="31.78021210245788">
        <ele>578.5999755859375</ele>
        <time>2014-07-04T03:58:57.000Z</time>
      </trkpt>
      <trkpt lon="35.055397767573595" lat="31.780210845172405">
        <ele>578.5999755859375</ele>
        <time>2014-07-04T03:59:12.000Z</time>
      </trkpt>
      <trkpt lon="35.05541075952351" lat="31.7802042234689">
        <ele>578.5999755859375</ele>
        <time>2014-07-04T03:59:29.000Z</time>
      </trkpt>
      <trkpt lon="35.055410005152225" lat="31.780211348086596">
        <ele>578.5999755859375</ele>
        <time>2014-07-04T03:59:49.000Z</time>
      </trkpt>
      <trkpt lon="35.05540246143937" lat="31.780193159356713">
        <ele>578.7999877929688</ele>
        <time>2014-07-04T04:00:05.000Z</time>
      </trkpt>
      <trkpt lon="35.05542987026274" lat="31.780187878757715">
        <ele>578.7999877929688</ele>
        <time>2014-07-04T04:00:16.000Z</time>
      </trkpt>
      <trkpt lon="35.05544504150748" lat="31.78017983213067">
        <ele>578.4000244140625</ele>
        <time>2014-07-04T04:00:17.000Z</time>
      </trkpt>
      <trkpt lon="35.05561485886574" lat="31.78006994538009">
        <ele>575.2000122070312</ele>
        <time>2014-07-04T04:00:24.000Z</time>
      </trkpt>
      <trkpt lon="35.05591459572315" lat="31.779932817444205">
        <ele>573.5999755859375</ele>
        <time>2014-07-04T04:00:32.000Z</time>
      </trkpt>
      <trkpt lon="35.056225983425975" lat="31.779788313433528">
        <ele>572.0</ele>
        <time>2014-07-04T04:00:40.000Z</time>
      </trkpt>
      <trkpt lon="35.05644768476486" lat="31.77969116717577">
        <ele>574.5999755859375</ele>
        <time>2014-07-04T04:00:47.000Z</time>
      </trkpt>
      <trkpt lon="35.05679938942194" lat="31.77954465150833">
        <ele>578.2000122070312</ele>
        <time>2014-07-04T04:00:56.000Z</time>
      </trkpt>
      <trkpt lon="35.05713768303394" lat="31.779364608228207">
        <ele>580.0</ele>
        <time>2014-07-04T04:01:04.000Z</time>
      </trkpt>
      <trkpt lon="35.05749852396548" lat="31.779196467250586">
        <ele>589.0</ele>
        <time>2014-07-04T04:01:14.000Z</time>
      </trkpt>
      <trkpt lon="35.05775660276413" lat="31.77909353747964">
        <ele>592.0</ele>
        <time>2014-07-04T04:01:22.000Z</time>
      </trkpt>
      <trkpt lon="35.057958187535405" lat="31.779017597436905">
        <ele>595.4000244140625</ele>
        <time>2014-07-04T04:01:29.000Z</time>
      </trkpt>
      <trkpt lon="35.05816605873406" lat="31.77906721830368">
        <ele>599.7999877929688</ele>
        <time>2014-07-04T04:01:36.000Z</time>
      </trkpt>
      <trkpt lon="35.05823110230267" lat="31.779204178601503">
        <ele>599.7999877929688</ele>
        <time>2014-07-04T04:01:41.000Z</time>
      </trkpt>
      <trkpt lon="35.058152144774795" lat="31.77948346361518">
        <ele>595.7999877929688</ele>
        <time>2014-07-04T04:01:49.000Z</time>
      </trkpt>
      <trkpt lon="35.058108726516366" lat="31.779888980090618">
        <ele>592.2000122070312</ele>
        <time>2014-07-04T04:02:01.000Z</time>
      </trkpt>
      <trkpt lon="35.05823437124491" lat="31.78017203696072">
        <ele>584.0</ele>
        <time>2014-07-04T04:02:09.000Z</time>
      </trkpt>
      <trkpt lon="35.0585110578686" lat="31.780345542356372">
        <ele>583.0</ele>
        <time>2014-07-04T04:02:17.000Z</time>
      </trkpt>
      <trkpt lon="35.058557242155075" lat="31.78035568445921">
        <ele>583.4000244140625</ele>
        <time>2014-07-04T04:02:18.000Z</time>
      </trkpt>
      <trkpt lon="35.059039536863565" lat="31.780415698885918">
        <ele>584.4000244140625</ele>
        <time>2014-07-04T04:02:28.000Z</time>
      </trkpt>
      <trkpt lon="35.059394259005785" lat="31.780421314761043">
        <ele>584.2000122070312</ele>
        <time>2014-07-04T04:02:36.000Z</time>
      </trkpt>
      <trkpt lon="35.059650829061866" lat="31.780401868745685">
        <ele>586.4000244140625</ele>
        <time>2014-07-04T04:02:43.000Z</time>
      </trkpt>
      <trkpt lon="35.059952829033136" lat="31.78037085570395">
        <ele>586.4000244140625</ele>
        <time>2014-07-04T04:02:52.000Z</time>
      </trkpt>
      <trkpt lon="35.06039782427251" lat="31.780322743579745">
        <ele>586.4000244140625</ele>
        <time>2014-07-04T04:03:04.000Z</time>
      </trkpt>
      <trkpt lon="35.060697477310896" lat="31.780296424403787">
        <ele>585.2000122070312</ele>
        <time>2014-07-04T04:03:10.000Z</time>
      </trkpt>
      <trkpt lon="35.06081901490688" lat="31.780287539586425">
        <ele>584.5999755859375</ele>
        <time>2014-07-04T04:03:12.000Z</time>
      </trkpt>
      <trkpt lon="35.06127331405878" lat="31.78018804639578">
        <ele>582.5999755859375</ele>
        <time>2014-07-04T04:03:19.000Z</time>
      </trkpt>
      <trkpt lon="35.06160205230117" lat="31.78008209913969">
        <ele>587.2000122070312</ele>
        <time>2014-07-04T04:03:26.000Z</time>
      </trkpt>
      <trkpt lon="35.061884270980954" lat="31.779937343671918">
        <ele>587.7999877929688</ele>
        <time>2014-07-04T04:03:34.000Z</time>
      </trkpt>
      <trkpt lon="35.06215517409146" lat="31.779780937358737">
        <ele>591.0</ele>
        <time>2014-07-04T04:03:41.000Z</time>
      </trkpt>
      <trkpt lon="35.06244267337024" lat="31.779648084193468">
        <ele>597.5999755859375</ele>
        <time>2014-07-04T04:03:49.000Z</time>
      </trkpt>
      <trkpt lon="35.06269438192248" lat="31.779523780569434">
        <ele>601.4000244140625</ele>
        <time>2014-07-04T04:03:57.000Z</time>
      </trkpt>
      <trkpt lon="35.06298892199993" lat="31.77937751635909">
        <ele>603.5999755859375</ele>
        <time>2014-07-04T04:04:06.000Z</time>
      </trkpt>
      <trkpt lon="35.06334406323731" lat="31.779230665415525">
        <ele>611.0</ele>
        <time>2014-07-04T04:04:15.000Z</time>
      </trkpt>
      <trkpt lon="35.06373792886734" lat="31.779073169454932">
        <ele>612.0</ele>
        <time>2014-07-04T04:04:25.000Z</time>
      </trkpt>
      <trkpt lon="35.0639991927892" lat="31.778982309624553">
        <ele>617.7999877929688</ele>
        <time>2014-07-04T04:04:33.000Z</time>
      </trkpt>
      <trkpt lon="35.06416289135814" lat="31.778948362916708">
        <ele>621.4000244140625</ele>
        <time>2014-07-04T04:04:40.000Z</time>
      </trkpt>
      <trkpt lon="35.06431250832975" lat="31.778932018205523">
        <ele>624.5999755859375</ele>
        <time>2014-07-04T04:04:47.000Z</time>
      </trkpt>
      <trkpt lon="35.0643652305007" lat="31.77894316613674">
        <ele>625.2000122070312</ele>
        <time>2014-07-04T04:04:50.000Z</time>
      </trkpt>
      <trkpt lon="35.06438107229769" lat="31.778943669050932">
        <ele>625.5999755859375</ele>
        <time>2014-07-04T04:04:51.000Z</time>
      </trkpt>
      <trkpt lon="35.06439900957048" lat="31.778947776183486">
        <ele>625.7999877929688</ele>
        <time>2014-07-04T04:04:52.000Z</time>
      </trkpt>
      <trkpt lon="35.064417868852615" lat="31.7789523024112">
        <ele>626.0</ele>
        <time>2014-07-04T04:04:53.000Z</time>
      </trkpt>
      <trkpt lon="35.06443656049669" lat="31.778957415372133">
        <ele>626.2000122070312</ele>
        <time>2014-07-04T04:04:54.000Z</time>
      </trkpt>
      <trkpt lon="35.06445583887398" lat="31.77896512672305">
        <ele>626.4000244140625</ele>
        <time>2014-07-04T04:04:55.000Z</time>
      </trkpt>
      <trkpt lon="35.06447662599385" lat="31.778975017368793">
        <ele>626.5999755859375</ele>
        <time>2014-07-04T04:04:56.000Z</time>
      </trkpt>
      <trkpt lon="35.06459631957114" lat="31.779121700674295">
        <ele>627.2000122070312</ele>
        <time>2014-07-04T04:05:03.000Z</time>
      </trkpt>
      <trkpt lon="35.064501855522394" lat="31.77933200262487">
        <ele>626.0</ele>
        <time>2014-07-04T04:05:09.000Z</time>
      </trkpt>
      <trkpt lon="35.06430119276047" lat="31.779645569622517">
        <ele>623.2000122070312</ele>
        <time>2014-07-04T04:05:17.000Z</time>
      </trkpt>
      <trkpt lon="35.064132967963815" lat="31.779929799959064">
        <ele>620.2000122070312</ele>
        <time>2014-07-04T04:05:26.000Z</time>
      </trkpt>
      <trkpt lon="35.063919480890036" lat="31.780247557908297">
        <ele>615.5999755859375</ele>
        <time>2014-07-04T04:05:35.000Z</time>
      </trkpt>
      <trkpt lon="35.06373683921993" lat="31.780601860955358">
        <ele>614.2000122070312</ele>
        <time>2014-07-04T04:05:44.000Z</time>
      </trkpt>
      <trkpt lon="35.063684368506074" lat="31.780761033296585">
        <ele>612.2000122070312</ele>
        <time>2014-07-04T04:05:47.000Z</time>
      </trkpt>
      <trkpt lon="35.06367732770741" lat="31.780822556465864">
        <ele>610.7999877929688</ele>
        <time>2014-07-04T04:05:48.000Z</time>
      </trkpt>
      <trkpt lon="35.06368353031576" lat="31.78088533692062">
        <ele>609.5999755859375</ele>
        <time>2014-07-04T04:05:49.000Z</time>
      </trkpt>
      <trkpt lon="35.063704987987876" lat="31.78094451315701">
        <ele>608.7999877929688</ele>
        <time>2014-07-04T04:05:50.000Z</time>
      </trkpt>
      <trkpt lon="35.06374035961926" lat="31.780994134023786">
        <ele>608.4000244140625</ele>
        <time>2014-07-04T04:05:51.000Z</time>
      </trkpt>
      <trkpt lon="35.063786963000894" lat="31.781030595302582">
        <ele>608.0</ele>
        <time>2014-07-04T04:05:52.000Z</time>
      </trkpt>
      <trkpt lon="35.06384161300957" lat="31.781051633879542">
        <ele>607.4000244140625</ele>
        <time>2014-07-04T04:05:53.000Z</time>
      </trkpt>
      <trkpt lon="35.063902800902724" lat="31.781060937792063">
        <ele>607.0</ele>
        <time>2014-07-04T04:05:54.000Z</time>
      </trkpt>
      <trkpt lon="35.063970778137445" lat="31.78106621839106">
        <ele>606.5999755859375</ele>
        <time>2014-07-04T04:05:55.000Z</time>
      </trkpt>
      <trkpt lon="35.06434737704694" lat="31.781067391857505">
        <ele>607.7999877929688</ele>
        <time>2014-07-04T04:06:00.000Z</time>
      </trkpt>
      <trkpt lon="35.06441568955779" lat="31.781077031046152">
        <ele>608.0</ele>
        <time>2014-07-04T04:06:01.000Z</time>
      </trkpt>
      <trkpt lon="35.06448157131672" lat="31.78108474239707">
        <ele>608.2000122070312</ele>
        <time>2014-07-04T04:06:02.000Z</time>
      </trkpt>
      <trkpt lon="35.06454644724727" lat="31.781081221997738">
        <ele>608.7999877929688</ele>
        <time>2014-07-04T04:06:03.000Z</time>
      </trkpt>
      <trkpt lon="35.06460621021688" lat="31.781072253361344">
        <ele>609.4000244140625</ele>
        <time>2014-07-04T04:06:04.000Z</time>
      </trkpt>
      <trkpt lon="35.06466689519584" lat="31.7810676433146">
        <ele>609.0</ele>
        <time>2014-07-04T04:06:05.000Z</time>
      </trkpt>
      <trkpt lon="35.06472875364125" lat="31.78107007406652">
        <ele>608.5999755859375</ele>
        <time>2014-07-04T04:06:06.000Z</time>
      </trkpt>
      <trkpt lon="35.06515824235976" lat="31.781088933348656">
        <ele>606.7999877929688</ele>
        <time>2014-07-04T04:06:14.000Z</time>
      </trkpt>
      <trkpt lon="35.065597957000136" lat="31.78109982982278">
        <ele>604.5999755859375</ele>
        <time>2014-07-04T04:06:23.000Z</time>
      </trkpt>
      <trkpt lon="35.06577339023352" lat="31.781073678284883">
        <ele>603.5999755859375</ele>
        <time>2014-07-04T04:06:29.000Z</time>
      </trkpt>
      <trkpt lon="35.06600514985621" lat="31.781033696606755">
        <ele>603.0</ele>
        <time>2014-07-04T04:06:37.000Z</time>
      </trkpt>
      <trkpt lon="35.06627881899476" lat="31.780924228951335">
        <ele>605.0</ele>
        <time>2014-07-04T04:06:46.000Z</time>
      </trkpt>
      <trkpt lon="35.066580064594746" lat="31.78074024617672">
        <ele>607.0</ele>
        <time>2014-07-04T04:06:56.000Z</time>
      </trkpt>
      <trkpt lon="35.06686161272228" lat="31.780552994459867">
        <ele>606.5999755859375</ele>
        <time>2014-07-04T04:07:03.000Z</time>
      </trkpt>
      <trkpt lon="35.067233517766" lat="31.780269853770733">
        <ele>610.4000244140625</ele>
        <time>2014-07-04T04:07:10.000Z</time>
      </trkpt>
      <trkpt lon="35.06740643642843" lat="31.780174551531672">
        <ele>611.5999755859375</ele>
        <time>2014-07-04T04:07:13.000Z</time>
      </trkpt>
      <trkpt lon="35.06746142171323" lat="31.780154015868902">
        <ele>612.2000122070312</ele>
        <time>2014-07-04T04:07:14.000Z</time>
      </trkpt>
      <trkpt lon="35.0675165746361" lat="31.780138593167067">
        <ele>612.7999877929688</ele>
        <time>2014-07-04T04:07:15.000Z</time>
      </trkpt>
      <trkpt lon="35.067624282091856" lat="31.780121996998787">
        <ele>613.2000122070312</ele>
        <time>2014-07-04T04:07:17.000Z</time>
      </trkpt>
      <trkpt lon="35.06773039698601" lat="31.78011973388493">
        <ele>613.0</ele>
        <time>2014-07-04T04:07:19.000Z</time>
      </trkpt>
      <trkpt lon="35.06779502145946" lat="31.780124679207802">
        <ele>612.5999755859375</ele>
        <time>2014-07-04T04:07:20.000Z</time>
      </trkpt>
      <trkpt lon="35.06786283105612" lat="31.780137922614813">
        <ele>612.0</ele>
        <time>2014-07-04T04:07:21.000Z</time>
      </trkpt>
      <trkpt lon="35.06793332286179" lat="31.780161056667566">
        <ele>610.7999877929688</ele>
        <time>2014-07-04T04:07:22.000Z</time>
      </trkpt>
      <trkpt lon="35.068003395572305" lat="31.780191315338016">
        <ele>609.5999755859375</ele>
        <time>2014-07-04T04:07:23.000Z</time>
      </trkpt>
      <trkpt lon="35.06808461621404" lat="31.780219729989767">
        <ele>608.4000244140625</ele>
        <time>2014-07-04T04:07:24.000Z</time>
      </trkpt>
      <trkpt lon="35.06817597895861" lat="31.780246384441853">
        <ele>607.2000122070312</ele>
        <time>2014-07-04T04:07:25.000Z</time>
      </trkpt>
      <trkpt lon="35.06857730448246" lat="31.780334310606122">
        <ele>602.7999877929688</ele>
        <time>2014-07-04T04:07:29.000Z</time>
      </trkpt>
      <trkpt lon="35.06868182681501" lat="31.78033707663417">
        <ele>602.2000122070312</ele>
        <time>2014-07-04T04:07:30.000Z</time>
      </trkpt>
      <trkpt lon="35.068784756585956" lat="31.78033079020679">
        <ele>602.2000122070312</ele>
        <time>2014-07-04T04:07:31.000Z</time>
      </trkpt>
      <trkpt lon="35.069544576108456" lat="31.78022375330329">
        <ele>598.2000122070312</ele>
        <time>2014-07-04T04:07:38.000Z</time>
      </trkpt>
      <trkpt lon="35.07012384943664" lat="31.780052091926336">
        <ele>592.5999755859375</ele>
        <time>2014-07-04T04:07:44.000Z</time>
      </trkpt>
      <trkpt lon="35.070719718933105" lat="31.7797189950943">
        <ele>593.0</ele>
        <time>2014-07-04T04:07:52.000Z</time>
      </trkpt>
      <trkpt lon="35.071163792163134" lat="31.779477931559086">
        <ele>596.4000244140625</ele>
        <time>2014-07-04T04:07:58.000Z</time>
      </trkpt>
      <trkpt lon="35.07133595645428" lat="31.779422527179122">
        <ele>597.4000244140625</ele>
        <time>2014-07-04T04:08:00.000Z</time>
      </trkpt>
      <trkpt lon="35.071425726637244" lat="31.77940735593438">
        <ele>597.7999877929688</ele>
        <time>2014-07-04T04:08:01.000Z</time>
      </trkpt>
      <trkpt lon="35.071514155715704" lat="31.779405092820525">
        <ele>597.5999755859375</ele>
        <time>2014-07-04T04:08:02.000Z</time>
      </trkpt>
      <trkpt lon="35.071598729118705" lat="31.779413726180792">
        <ele>597.0</ele>
        <time>2014-07-04T04:08:03.000Z</time>
      </trkpt>
      <trkpt lon="35.07167818956077" lat="31.77942479029298">
        <ele>596.4000244140625</ele>
        <time>2014-07-04T04:08:04.000Z</time>
      </trkpt>
      <trkpt lon="35.07213056087494" lat="31.779467118903995">
        <ele>594.0</ele>
        <time>2014-07-04T04:08:10.000Z</time>
      </trkpt>
      <trkpt lon="35.07276138290763" lat="31.779387155547738">
        <ele>596.5999755859375</ele>
        <time>2014-07-04T04:08:18.000Z</time>
      </trkpt>
      <trkpt lon="35.07334006950259" lat="31.779314652085304">
        <ele>602.4000244140625</ele>
        <time>2014-07-04T04:08:25.000Z</time>
      </trkpt>
      <trkpt lon="35.07341232150793" lat="31.77932756021619">
        <ele>602.5999755859375</ele>
        <time>2014-07-04T04:08:26.000Z</time>
      </trkpt>
      <trkpt lon="35.07347954437137" lat="31.779345916584134">
        <ele>602.5999755859375</ele>
        <time>2014-07-04T04:08:27.000Z</time>
      </trkpt>
      <trkpt lon="35.07389612495899" lat="31.779556050896645">
        <ele>598.7999877929688</ele>
        <time>2014-07-04T04:08:34.000Z</time>
      </trkpt>
      <trkpt lon="35.07423995062709" lat="31.779715893790126">
        <ele>594.0</ele>
        <time>2014-07-04T04:08:40.000Z</time>
      </trkpt>
      <trkpt lon="35.074525689706206" lat="31.779793426394463">
        <ele>591.5999755859375</ele>
        <time>2014-07-04T04:08:44.000Z</time>
      </trkpt>
      <trkpt lon="35.07461294531822" lat="31.77979627624154">
        <ele>591.5999755859375</ele>
        <time>2014-07-04T04:08:45.000Z</time>
      </trkpt>
      <trkpt lon="35.075032878667116" lat="31.77976635284722">
        <ele>585.0</ele>
        <time>2014-07-04T04:08:49.000Z</time>
      </trkpt>
      <trkpt lon="35.07562028244138" lat="31.779619585722685">
        <ele>579.0</ele>
        <time>2014-07-04T04:08:55.000Z</time>
      </trkpt>
      <trkpt lon="35.075710974633694" lat="31.77958371117711">
        <ele>578.5999755859375</ele>
        <time>2014-07-04T04:08:56.000Z</time>
      </trkpt>
      <trkpt lon="35.075796972960234" lat="31.779542472213507">
        <ele>578.4000244140625</ele>
        <time>2014-07-04T04:08:57.000Z</time>
      </trkpt>
      <trkpt lon="35.075876684859395" lat="31.779493018984795">
        <ele>578.5999755859375</ele>
        <time>2014-07-04T04:08:58.000Z</time>
      </trkpt>
      <trkpt lon="35.07594977505505" lat="31.779437446966767">
        <ele>578.2000122070312</ele>
        <time>2014-07-04T04:08:59.000Z</time>
      </trkpt>
      <trkpt lon="35.07601330988109" lat="31.779374331235886">
        <ele>578.4000244140625</ele>
        <time>2014-07-04T04:09:00.000Z</time>
      </trkpt>
      <trkpt lon="35.076067708432674" lat="31.779303839430213">
        <ele>579.0</ele>
        <time>2014-07-04T04:09:01.000Z</time>
      </trkpt>
      <trkpt lon="35.07611942477524" lat="31.779232257977128">
        <ele>579.5999755859375</ele>
        <time>2014-07-04T04:09:02.000Z</time>
      </trkpt>
      <trkpt lon="35.07640323601663" lat="31.77891860716045">
        <ele>585.7999877929688</ele>
        <time>2014-07-04T04:09:07.000Z</time>
      </trkpt>
      <trkpt lon="35.07646819576621" lat="31.77887468598783">
        <ele>587.4000244140625</ele>
        <time>2014-07-04T04:09:08.000Z</time>
      </trkpt>
      <trkpt lon="35.076537262648344" lat="31.778844762593508">
        <ele>588.5999755859375</ele>
        <time>2014-07-04T04:09:09.000Z</time>
      </trkpt>
      <trkpt lon="35.07660984992981" lat="31.778829591348767">
        <ele>589.2000122070312</ele>
        <time>2014-07-04T04:09:10.000Z</time>
      </trkpt>
      <trkpt lon="35.0766811799258" lat="31.77882875315845">
        <ele>589.4000244140625</ele>
        <time>2014-07-04T04:09:11.000Z</time>
      </trkpt>
      <trkpt lon="35.07674505002797" lat="31.778837218880653">
        <ele>589.2000122070312</ele>
        <time>2014-07-04T04:09:12.000Z</time>
      </trkpt>
      <trkpt lon="35.07680917158723" lat="31.77884970791638">
        <ele>588.7999877929688</ele>
        <time>2014-07-04T04:09:13.000Z</time>
      </trkpt>
      <trkpt lon="35.07687455043197" lat="31.7788727581501">
        <ele>588.0</ele>
        <time>2014-07-04T04:09:14.000Z</time>
      </trkpt>
      <trkpt lon="35.07693783380091" lat="31.77890787832439">
        <ele>586.7999877929688</ele>
        <time>2014-07-04T04:09:15.000Z</time>
      </trkpt>
      <trkpt lon="35.07700270973146" lat="31.778944842517376">
        <ele>585.5999755859375</ele>
        <time>2014-07-04T04:09:16.000Z</time>
      </trkpt>
      <trkpt lon="35.07707102224231" lat="31.778978873044252">
        <ele>585.0</ele>
        <time>2014-07-04T04:09:17.000Z</time>
      </trkpt>
      <trkpt lon="35.077221896499395" lat="31.77904467098415">
        <ele>583.4000244140625</ele>
        <time>2014-07-04T04:09:19.000Z</time>
      </trkpt>
      <trkpt lon="35.07776512764394" lat="31.77914248779416">
        <ele>589.5999755859375</ele>
        <time>2014-07-04T04:09:25.000Z</time>
      </trkpt>
      <trkpt lon="35.077856155112386" lat="31.77914584055543">
        <ele>590.5999755859375</ele>
        <time>2014-07-04T04:09:26.000Z</time>
      </trkpt>
      <trkpt lon="35.077945087105036" lat="31.77914433181286">
        <ele>592.0</ele>
        <time>2014-07-04T04:09:27.000Z</time>
      </trkpt>
      <trkpt lon="35.07841480895877" lat="31.7790852393955">
        <ele>602.2000122070312</ele>
        <time>2014-07-04T04:09:33.000Z</time>
      </trkpt>
      <trkpt lon="35.07848245091736" lat="31.779078701511025">
        <ele>603.5999755859375</ele>
        <time>2014-07-04T04:09:34.000Z</time>
      </trkpt>
      <trkpt lon="35.078546991571784" lat="31.779085071757436">
        <ele>605.2000122070312</ele>
        <time>2014-07-04T04:09:35.000Z</time>
      </trkpt>
      <trkpt lon="35.07860038429499" lat="31.779104098677635">
        <ele>606.5999755859375</ele>
        <time>2014-07-04T04:09:36.000Z</time>
      </trkpt>
      <trkpt lon="35.078637935221195" lat="31.77913410589099">
        <ele>608.0</ele>
        <time>2014-07-04T04:09:37.000Z</time>
      </trkpt>
      <trkpt lon="35.07863575592637" lat="31.779192863032222">
        <ele>609.2000122070312</ele>
        <time>2014-07-04T04:09:38.000Z</time>
      </trkpt>
      <trkpt lon="35.078626703470945" lat="31.77924550138414">
        <ele>610.2000122070312</ele>
        <time>2014-07-04T04:09:39.000Z</time>
      </trkpt>
      <trkpt lon="35.07860901765525" lat="31.779291853308678">
        <ele>610.5999755859375</ele>
        <time>2014-07-04T04:09:40.000Z</time>
      </trkpt>
      <trkpt lon="35.07858647033572" lat="31.779332756996155">
        <ele>611.0</ele>
        <time>2014-07-04T04:09:41.000Z</time>
      </trkpt>
      <trkpt lon="35.07856015115976" lat="31.779370391741395">
        <ele>611.2000122070312</ele>
        <time>2014-07-04T04:09:42.000Z</time>
      </trkpt>
      <trkpt lon="35.078349094837904" lat="31.77970575168729">
        <ele>609.4000244140625</ele>
        <time>2014-07-04T04:09:50.000Z</time>
      </trkpt>
      <trkpt lon="35.07811498828232" lat="31.780049074441195">
        <ele>602.7999877929688</ele>
        <time>2014-07-04T04:09:58.000Z</time>
      </trkpt>
      <trkpt lon="35.07793486118317" lat="31.78048526868224">
        <ele>602.2000122070312</ele>
        <time>2014-07-04T04:10:06.000Z</time>
      </trkpt>
      <trkpt lon="35.07784014567733" lat="31.781066553667188">
        <ele>593.5999755859375</ele>
        <time>2014-07-04T04:10:15.000Z</time>
      </trkpt>
      <trkpt lon="35.077840480953455" lat="31.781139727681875">
        <ele>592.0</ele>
        <time>2014-07-04T04:10:16.000Z</time>
      </trkpt>
      <trkpt lon="35.07784819230437" lat="31.78121231496334">
        <ele>590.7999877929688</ele>
        <time>2014-07-04T04:10:17.000Z</time>
      </trkpt>
      <trkpt lon="35.07792882621288" lat="31.781522445380688">
        <ele>587.4000244140625</ele>
        <time>2014-07-04T04:10:21.000Z</time>
      </trkpt>
      <trkpt lon="35.077969981357455" lat="31.78160559386015">
        <ele>585.7999877929688</ele>
        <time>2014-07-04T04:10:22.000Z</time>
      </trkpt>
      <trkpt lon="35.07802119478583" lat="31.781683042645454">
        <ele>584.0</ele>
        <time>2014-07-04T04:10:23.000Z</time>
      </trkpt>
      <trkpt lon="35.078077940270305" lat="31.781750852242112">
        <ele>582.7999877929688</ele>
        <time>2014-07-04T04:10:24.000Z</time>
      </trkpt>
      <trkpt lon="35.07813929580152" lat="31.781809190288186">
        <ele>582.0</ele>
        <time>2014-07-04T04:10:25.000Z</time>
      </trkpt>
      <trkpt lon="35.078202076256275" lat="31.781859900802374">
        <ele>581.5999755859375</ele>
        <time>2014-07-04T04:10:26.000Z</time>
      </trkpt>
      <trkpt lon="35.078266616910696" lat="31.781903486698866">
        <ele>581.4000244140625</ele>
        <time>2014-07-04T04:10:27.000Z</time>
      </trkpt>
      <trkpt lon="35.07881504483521" lat="31.78223943337798">
        <ele>582.7999877929688</ele>
        <time>2014-07-04T04:10:36.000Z</time>
      </trkpt>
      <trkpt lon="35.07920388132334" lat="31.78253933787346">
        <ele>583.0</ele>
        <time>2014-07-04T04:10:42.000Z</time>
      </trkpt>
      <trkpt lon="35.079260962083936" lat="31.78260773420334">
        <ele>582.4000244140625</ele>
        <time>2014-07-04T04:10:43.000Z</time>
      </trkpt>
      <trkpt lon="35.07931008003652" lat="31.78268409334123">
        <ele>581.2000122070312</ele>
        <time>2014-07-04T04:10:44.000Z</time>
      </trkpt>
      <trkpt lon="35.079539492726326" lat="31.783196311444044">
        <ele>570.2000122070312</ele>
        <time>2014-07-04T04:10:50.000Z</time>
      </trkpt>
      <trkpt lon="35.07958894595504" lat="31.783271078020334">
        <ele>569.4000244140625</ele>
        <time>2014-07-04T04:10:51.000Z</time>
      </trkpt>
      <trkpt lon="35.07964191958308" lat="31.783337462693453">
        <ele>568.4000244140625</ele>
        <time>2014-07-04T04:10:52.000Z</time>
      </trkpt>
      <trkpt lon="35.0797030236572" lat="31.78339697420597">
        <ele>567.5999755859375</ele>
        <time>2014-07-04T04:10:53.000Z</time>
      </trkpt>
      <trkpt lon="35.079775946214795" lat="31.78344634361565">
        <ele>567.2000122070312</ele>
        <time>2014-07-04T04:10:54.000Z</time>
      </trkpt>
      <trkpt lon="35.07985381409526" lat="31.78348104469478">
        <ele>567.0</ele>
        <time>2014-07-04T04:10:55.000Z</time>
      </trkpt>
      <trkpt lon="35.07993193343282" lat="31.783504346385598">
        <ele>567.0</ele>
        <time>2014-07-04T04:10:56.000Z</time>
      </trkpt>
      <trkpt lon="35.08001374080777" lat="31.78351758979261">
        <ele>567.2000122070312</ele>
        <time>2014-07-04T04:10:57.000Z</time>
      </trkpt>
      <trkpt lon="35.08009144105017" lat="31.783528653904796">
        <ele>567.4000244140625</ele>
        <time>2014-07-04T04:10:58.000Z</time>
      </trkpt>
      <trkpt lon="35.080169811844826" lat="31.783532928675413">
        <ele>567.5999755859375</ele>
        <time>2014-07-04T04:10:59.000Z</time>
      </trkpt>
      <trkpt lon="35.080391597002745" lat="31.783537371084094">
        <ele>568.5999755859375</ele>
        <time>2014-07-04T04:11:02.000Z</time>
      </trkpt>
      <trkpt lon="35.08083265274763" lat="31.783495545387268">
        <ele>572.5999755859375</ele>
        <time>2014-07-04T04:11:09.000Z</time>
      </trkpt>
      <trkpt lon="35.08088973350823" lat="31.783491605892777">
        <ele>571.7999877929688</ele>
        <time>2014-07-04T04:11:10.000Z</time>
      </trkpt>
      <trkpt lon="35.08131486363709" lat="31.7834110558033">
        <ele>567.0</ele>
        <time>2014-07-04T04:11:17.000Z</time>
      </trkpt>
      <trkpt lon="35.08188022300601" lat="31.783238304778934">
        <ele>566.2000122070312</ele>
        <time>2014-07-04T04:11:25.000Z</time>
      </trkpt>
      <trkpt lon="35.08238020353019" lat="31.78309011273086">
        <ele>575.5999755859375</ele>
        <time>2014-07-04T04:11:33.000Z</time>
      </trkpt>
      <trkpt lon="35.08275822736323" lat="31.78294451907277">
        <ele>584.2000122070312</ele>
        <time>2014-07-04T04:11:40.000Z</time>
      </trkpt>
      <trkpt lon="35.08315687067807" lat="31.782803116366267">
        <ele>583.7999877929688</ele>
        <time>2014-07-04T04:11:47.000Z</time>
      </trkpt>
      <trkpt lon="35.08363103494048" lat="31.782649224624038">
        <ele>581.4000244140625</ele>
        <time>2014-07-04T04:11:55.000Z</time>
      </trkpt>
      <trkpt lon="35.08401417173445" lat="31.782513605430722">
        <ele>579.2000122070312</ele>
        <time>2014-07-04T04:12:03.000Z</time>
      </trkpt>
      <trkpt lon="35.084174098446965" lat="31.782450824975967">
        <ele>578.0</ele>
        <time>2014-07-04T04:12:08.000Z</time>
      </trkpt>
      <trkpt lon="35.08438196964562" lat="31.782369185239077">
        <ele>577.0</ele>
        <time>2014-07-04T04:12:15.000Z</time>
      </trkpt>
      <trkpt lon="35.08460191078484" lat="31.782297352328897">
        <ele>579.0</ele>
        <time>2014-07-04T04:12:23.000Z</time>
      </trkpt>
      <trkpt lon="35.08482042700052" lat="31.78222476504743">
        <ele>581.7999877929688</ele>
        <time>2014-07-04T04:12:32.000Z</time>
      </trkpt>
      <trkpt lon="35.085022849962115" lat="31.78222032263875">
        <ele>583.7999877929688</ele>
        <time>2014-07-04T04:12:40.000Z</time>
      </trkpt>
      <trkpt lon="35.085008684545755" lat="31.782237589359283">
        <ele>583.4000244140625</ele>
        <time>2014-07-04T04:12:48.000Z</time>
      </trkpt>
      <trkpt lon="35.085021341219544" lat="31.78224664181471">
        <ele>583.5999755859375</ele>
        <time>2014-07-04T04:13:03.000Z</time>
      </trkpt>
      <trkpt lon="35.08503693155944" lat="31.78227748721838">
        <ele>583.4000244140625</ele>
        <time>2014-07-04T04:13:19.000Z</time>
      </trkpt>
      <trkpt lon="35.08504003286362" lat="31.782287126407027">
        <ele>583.2000122070312</ele>
        <time>2014-07-04T04:13:20.000Z</time>
      </trkpt>
      <trkpt lon="35.08504464291036" lat="31.782296178862453">
        <ele>583.2000122070312</ele>
        <time>2014-07-04T04:13:21.000Z</time>
      </trkpt>
      <trkpt lon="35.08505587466061" lat="31.78230489604175">
        <ele>583.2000122070312</ele>
        <time>2014-07-04T04:13:22.000Z</time>
      </trkpt>
      <trkpt lon="35.08507305756211" lat="31.782309003174305">
        <ele>583.4000244140625</ele>
        <time>2014-07-04T04:13:23.000Z</time>
      </trkpt>
      <trkpt lon="35.085093257948756" lat="31.782308584079146">
        <ele>583.5999755859375</ele>
        <time>2014-07-04T04:13:24.000Z</time>
      </trkpt>
      <trkpt lon="35.08511681109667" lat="31.782305985689163">
        <ele>583.7999877929688</ele>
        <time>2014-07-04T04:13:25.000Z</time>
      </trkpt>
      <trkpt lon="35.08533926680684" lat="31.782338926568627">
        <ele>585.5999755859375</ele>
        <time>2014-07-04T04:13:35.000Z</time>
      </trkpt>
      <trkpt lon="35.08553179912269" lat="31.782401204109192">
        <ele>587.2000122070312</ele>
        <time>2014-07-04T04:13:43.000Z</time>
      </trkpt>
      <trkpt lon="35.085729360580444" lat="31.782448226585984">
        <ele>589.4000244140625</ele>
        <time>2014-07-04T04:13:52.000Z</time>
      </trkpt>
      <trkpt lon="35.08593345992267" lat="31.78250513970852">
        <ele>592.0</ele>
        <time>2014-07-04T04:14:01.000Z</time>
      </trkpt>
      <trkpt lon="35.08615532889962" lat="31.782555682584643">
        <ele>594.5999755859375</ele>
        <time>2014-07-04T04:14:11.000Z</time>
      </trkpt>
      <trkpt lon="35.086320620030165" lat="31.782585605978966">
        <ele>595.4000244140625</ele>
        <time>2014-07-04T04:14:20.000Z</time>
      </trkpt>
      <trkpt lon="35.08635699748993" lat="31.782589461654425">
        <ele>595.2000122070312</ele>
        <time>2014-07-04T04:14:22.000Z</time>
      </trkpt>
      <trkpt lon="35.086377365514636" lat="31.782592060044408">
        <ele>595.2000122070312</ele>
        <time>2014-07-04T04:14:23.000Z</time>
      </trkpt>
      <trkpt lon="35.08657727390528" lat="31.782597927376628">
        <ele>595.2000122070312</ele>
        <time>2014-07-04T04:14:33.000Z</time>
      </trkpt>
      <trkpt lon="35.08663443848491" lat="31.782605722546577">
        <ele>595.7999877929688</ele>
        <time>2014-07-04T04:14:36.000Z</time>
      </trkpt>
      <trkpt lon="35.08665313012898" lat="31.782605471089482">
        <ele>596.0</ele>
        <time>2014-07-04T04:14:37.000Z</time>
      </trkpt>
      <trkpt lon="35.0866693072021" lat="31.782606979832053">
        <ele>596.0</ele>
        <time>2014-07-04T04:14:38.000Z</time>
      </trkpt>
      <trkpt lon="35.08668741211295" lat="31.782610332593322">
        <ele>596.2000122070312</ele>
        <time>2014-07-04T04:14:39.000Z</time>
      </trkpt>
      <trkpt lon="35.08670677430928" lat="31.782612511888146">
        <ele>596.4000244140625</ele>
        <time>2014-07-04T04:14:40.000Z</time>
      </trkpt>
      <trkpt lon="35.0867263879627" lat="31.78261360153556">
        <ele>596.5999755859375</ele>
        <time>2014-07-04T04:14:41.000Z</time>
      </trkpt>
      <trkpt lon="35.086746755987406" lat="31.78261368535459">
        <ele>596.7999877929688</ele>
        <time>2014-07-04T04:14:42.000Z</time>
      </trkpt>
      <trkpt lon="35.08676880039275" lat="31.78261511027813">
        <ele>597.0</ele>
        <time>2014-07-04T04:14:43.000Z</time>
      </trkpt>
      <trkpt lon="35.08694540709257" lat="31.782641764730215">
        <ele>598.5999755859375</ele>
        <time>2014-07-04T04:14:51.000Z</time>
      </trkpt>
      <trkpt lon="35.08718630298972" lat="31.78266783244908">
        <ele>600.2000122070312</ele>
        <time>2014-07-04T04:15:01.000Z</time>
      </trkpt>
      <trkpt lon="35.087424432858825" lat="31.78271879442036">
        <ele>601.0</ele>
        <time>2014-07-04T04:15:11.000Z</time>
      </trkpt>
      <trkpt lon="35.08771193213761" lat="31.782798254862428">
        <ele>604.5999755859375</ele>
        <time>2014-07-04T04:15:22.000Z</time>
      </trkpt>
      <trkpt lon="35.0879473797977" lat="31.78286815993488">
        <ele>607.2000122070312</ele>
        <time>2014-07-04T04:15:31.000Z</time>
      </trkpt>
      <trkpt lon="35.088175954297185" lat="31.782937226817012">
        <ele>606.5999755859375</ele>
        <time>2014-07-04T04:15:40.000Z</time>
      </trkpt>
      <trkpt lon="35.088412910699844" lat="31.7829982470721">
        <ele>606.0</ele>
        <time>2014-07-04T04:15:49.000Z</time>
      </trkpt>
      <trkpt lon="35.08865213021636" lat="31.7830777913332">
        <ele>605.5999755859375</ele>
        <time>2014-07-04T04:15:59.000Z</time>
      </trkpt>
      <trkpt lon="35.088870730251074" lat="31.78313503973186">
        <ele>606.4000244140625</ele>
        <time>2014-07-04T04:16:08.000Z</time>
      </trkpt>
      <trkpt lon="35.08915454149246" lat="31.783184744417667">
        <ele>606.7999877929688</ele>
        <time>2014-07-04T04:16:20.000Z</time>
      </trkpt>
      <trkpt lon="35.08940180763602" lat="31.78319756872952">
        <ele>608.2000122070312</ele>
        <time>2014-07-04T04:16:30.000Z</time>
      </trkpt>
      <trkpt lon="35.089608086273074" lat="31.783218272030354">
        <ele>609.2000122070312</ele>
        <time>2014-07-04T04:16:39.000Z</time>
      </trkpt>
      <trkpt lon="35.089818220585585" lat="31.783233946189284">
        <ele>610.7999877929688</ele>
        <time>2014-07-04T04:16:50.000Z</time>
      </trkpt>
      <trkpt lon="35.09000848978758" lat="31.783249033614993">
        <ele>612.2000122070312</ele>
        <time>2014-07-04T04:17:01.000Z</time>
      </trkpt>
      <trkpt lon="35.09018777869642" lat="31.783251715824008">
        <ele>613.4000244140625</ele>
        <time>2014-07-04T04:17:11.000Z</time>
      </trkpt>
      <trkpt lon="35.09032524190843" lat="31.783258337527514">
        <ele>614.4000244140625</ele>
        <time>2014-07-04T04:17:20.000Z</time>
      </trkpt>
      <trkpt lon="35.0905151758343" lat="31.783272502943873">
        <ele>616.0</ele>
        <time>2014-07-04T04:17:29.000Z</time>
      </trkpt>
      <trkpt lon="35.090677198022604" lat="31.783275017514825">
        <ele>617.5999755859375</ele>
        <time>2014-07-04T04:17:37.000Z</time>
      </trkpt>
      <trkpt lon="35.09069320745766" lat="31.783275017514825">
        <ele>617.7999877929688</ele>
        <time>2014-07-04T04:17:38.000Z</time>
      </trkpt>
      <trkpt lon="35.09071039035916" lat="31.783270658925176">
        <ele>617.7999877929688</ele>
        <time>2014-07-04T04:17:39.000Z</time>
      </trkpt>
      <trkpt lon="35.0908862426877" lat="31.783265294507146">
        <ele>619.4000244140625</ele>
        <time>2014-07-04T04:17:48.000Z</time>
      </trkpt>
      <trkpt lon="35.09109612554312" lat="31.78325138054788">
        <ele>621.2000122070312</ele>
        <time>2014-07-04T04:17:59.000Z</time>
      </trkpt>
      <trkpt lon="35.0912868976593" lat="31.783248698338866">
        <ele>623.2000122070312</ele>
        <time>2014-07-04T04:18:09.000Z</time>
      </trkpt>
      <trkpt lon="35.09132671169937" lat="31.78324794396758">
        <ele>623.5999755859375</ele>
        <time>2014-07-04T04:18:11.000Z</time>
      </trkpt>
      <trkpt lon="35.09134691208601" lat="31.783251045271754">
        <ele>623.7999877929688</ele>
        <time>2014-07-04T04:18:12.000Z</time>
      </trkpt>
      <trkpt lon="35.09156324900687" lat="31.78325330838561">
        <ele>626.0</ele>
        <time>2014-07-04T04:18:23.000Z</time>
      </trkpt>
      <trkpt lon="35.09179785847664" lat="31.783256577327847">
        <ele>628.4000244140625</ele>
        <time>2014-07-04T04:18:34.000Z</time>
      </trkpt>
      <trkpt lon="35.092047387734056" lat="31.78325138054788">
        <ele>630.5999755859375</ele>
        <time>2014-07-04T04:18:47.000Z</time>
      </trkpt>
      <trkpt lon="35.092213014140725" lat="31.783223217353225">
        <ele>631.4000244140625</ele>
        <time>2014-07-04T04:18:55.000Z</time>
      </trkpt>
      <trkpt lon="35.09238584898412" lat="31.783176697790623">
        <ele>633.5999755859375</ele>
        <time>2014-07-04T04:19:04.000Z</time>
      </trkpt>
      <trkpt lon="35.09256765246391" lat="31.783128334209323">
        <ele>636.2000122070312</ele>
        <time>2014-07-04T04:19:14.000Z</time>
      </trkpt>
      <trkpt lon="35.09272933937609" lat="31.783068906515837">
        <ele>639.0</ele>
        <time>2014-07-04T04:19:23.000Z</time>
      </trkpt>
      <trkpt lon="35.092892702668905" lat="31.78301534615457">
        <ele>639.7999877929688</ele>
        <time>2014-07-04T04:19:31.000Z</time>
      </trkpt>
      <trkpt lon="35.093131167814136" lat="31.782940747216344">
        <ele>642.4000244140625</ele>
        <time>2014-07-04T04:19:42.000Z</time>
      </trkpt>
      <trkpt lon="35.09337122552097" lat="31.78288240917027">
        <ele>645.5999755859375</ele>
        <time>2014-07-04T04:19:52.000Z</time>
      </trkpt>
      <trkpt lon="35.09360642172396" lat="31.782815773040056">
        <ele>646.5999755859375</ele>
        <time>2014-07-04T04:20:03.000Z</time>
      </trkpt>
      <trkpt lon="35.09384765289724" lat="31.78275349549949">
        <ele>647.2000122070312</ele>
        <time>2014-07-04T04:20:14.000Z</time>
      </trkpt>
      <trkpt lon="35.09405108168721" lat="31.782697001472116">
        <ele>648.0</ele>
        <time>2014-07-04T04:20:24.000Z</time>
      </trkpt>
      <trkpt lon="35.09426943026483" lat="31.78265525959432">
        <ele>647.7999877929688</ele>
        <time>2014-07-04T04:20:34.000Z</time>
      </trkpt>
      <trkpt lon="35.0945405010134" lat="31.782634472474456">
        <ele>647.2000122070312</ele>
        <time>2014-07-04T04:20:44.000Z</time>
      </trkpt>
      <trkpt lon="35.09477024897933" lat="31.78261024877429">
        <ele>647.4000244140625</ele>
        <time>2014-07-04T04:20:53.000Z</time>
      </trkpt>
      <trkpt lon="35.09500913321972" lat="31.782556269317865">
        <ele>646.7999877929688</ele>
        <time>2014-07-04T04:21:02.000Z</time>
      </trkpt>
      <trkpt lon="35.095254220068455" lat="31.782492231577635">
        <ele>646.0</ele>
        <time>2014-07-04T04:21:12.000Z</time>
      </trkpt>
      <trkpt lon="35.09552923031151" lat="31.782430289313197">
        <ele>645.4000244140625</ele>
        <time>2014-07-04T04:21:21.000Z</time>
      </trkpt>
      <trkpt lon="35.0957387778908" lat="31.782399527728558">
        <ele>644.4000244140625</ele>
        <time>2014-07-04T04:21:28.000Z</time>
      </trkpt>
      <trkpt lon="35.0960651692003" lat="31.782296178862453">
        <ele>646.0</ele>
        <time>2014-07-04T04:21:39.000Z</time>
      </trkpt>
      <trkpt lon="35.09635744616389" lat="31.782211270183325">
        <ele>646.5999755859375</ele>
        <time>2014-07-04T04:21:49.000Z</time>
      </trkpt>
      <trkpt lon="35.09661125019193" lat="31.782124936580658">
        <ele>648.5999755859375</ele>
        <time>2014-07-04T04:21:58.000Z</time>
      </trkpt>
      <trkpt lon="35.0969269964844" lat="31.78203608840704">
        <ele>651.0</ele>
        <time>2014-07-04T04:22:09.000Z</time>
      </trkpt>
      <trkpt lon="35.09729563258588" lat="31.781976828351617">
        <ele>653.4000244140625</ele>
        <time>2014-07-04T04:22:21.000Z</time>
      </trkpt>
      <trkpt lon="35.097557567059994" lat="31.781946318224072">
        <ele>655.2000122070312</ele>
        <time>2014-07-04T04:22:29.000Z</time>
      </trkpt>
      <trkpt lon="35.09791899472475" lat="31.78192561492324">
        <ele>657.7999877929688</ele>
        <time>2014-07-04T04:22:40.000Z</time>
      </trkpt>
      <trkpt lon="35.09824052453041" lat="31.78194514475763">
        <ele>657.7999877929688</ele>
        <time>2014-07-04T04:22:50.000Z</time>
      </trkpt>
      <trkpt lon="35.09852685034275" lat="31.78196475841105">
        <ele>657.4000244140625</ele>
        <time>2014-07-04T04:22:58.000Z</time>
      </trkpt>
      <trkpt lon="35.09887671098113" lat="31.78202242590487">
        <ele>656.4000244140625</ele>
        <time>2014-07-04T04:23:07.000Z</time>
      </trkpt>
      <trkpt lon="35.09932950139046" lat="31.78208889439702">
        <ele>656.0</ele>
        <time>2014-07-04T04:23:17.000Z</time>
      </trkpt>
      <trkpt lon="35.09978111833334" lat="31.78216894157231">
        <ele>655.2000122070312</ele>
        <time>2014-07-04T04:23:26.000Z</time>
      </trkpt>
      <trkpt lon="35.10023734532297" lat="31.782208336517215">
        <ele>656.5999755859375</ele>
        <time>2014-07-04T04:23:35.000Z</time>
      </trkpt>
      <trkpt lon="35.10039249435067" lat="31.782210683450103">
        <ele>658.0</ele>
        <time>2014-07-04T04:23:38.000Z</time>
      </trkpt>
      <trkpt lon="35.10044320486486" lat="31.78221403621137">
        <ele>658.4000244140625</ele>
        <time>2014-07-04T04:23:39.000Z</time>
      </trkpt>
      <trkpt lon="35.100880237296224" lat="31.78223348222673">
        <ele>660.0</ele>
        <time>2014-07-04T04:23:49.000Z</time>
      </trkpt>
      <trkpt lon="35.101200342178345" lat="31.78222426213324">
        <ele>662.0</ele>
        <time>2014-07-04T04:23:58.000Z</time>
      </trkpt>
      <trkpt lon="35.10155254974961" lat="31.78223297931254">
        <ele>664.2000122070312</ele>
        <time>2014-07-04T04:24:08.000Z</time>
      </trkpt>
      <trkpt lon="35.10184759274125" lat="31.782226860523224">
        <ele>666.5999755859375</ele>
        <time>2014-07-04T04:24:17.000Z</time>
      </trkpt>
      <trkpt lon="35.10210500098765" lat="31.782196015119553">
        <ele>667.5999755859375</ele>
        <time>2014-07-04T04:24:26.000Z</time>
      </trkpt>
      <trkpt lon="35.102269453927875" lat="31.782148657366633">
        <ele>669.2000122070312</ele>
        <time>2014-07-04T04:24:35.000Z</time>
      </trkpt>
      <trkpt lon="35.10241890326142" lat="31.782102305442095">
        <ele>670.7999877929688</ele>
        <time>2014-07-04T04:24:45.000Z</time>
      </trkpt>
      <trkpt lon="35.10257137008011" lat="31.78203022107482">
        <ele>673.0</ele>
        <time>2014-07-04T04:24:56.000Z</time>
      </trkpt>
      <trkpt lon="35.10268745943904" lat="31.781962914392352">
        <ele>673.2000122070312</ele>
        <time>2014-07-04T04:25:06.000Z</time>
      </trkpt>
      <trkpt lon="35.102798687294126" lat="31.781896026805043">
        <ele>673.2000122070312</ele>
        <time>2014-07-04T04:25:16.000Z</time>
      </trkpt>
      <trkpt lon="35.102893486618996" lat="31.78183584474027">
        <ele>673.4000244140625</ele>
        <time>2014-07-04T04:25:25.000Z</time>
      </trkpt>
      <trkpt lon="35.102900359779596" lat="31.78182704374194">
        <ele>673.4000244140625</ele>
        <time>2014-07-04T04:25:26.000Z</time>
      </trkpt>
      <trkpt lon="35.102911088615656" lat="31.781818410381675">
        <ele>673.5999755859375</ele>
        <time>2014-07-04T04:25:27.000Z</time>
      </trkpt>
      <trkpt lon="35.10292206890881" lat="31.78181036375463">
        <ele>673.5999755859375</ele>
        <time>2014-07-04T04:25:28.000Z</time>
      </trkpt>
      <trkpt lon="35.10293330065906" lat="31.781805334612727">
        <ele>673.5999755859375</ele>
        <time>2014-07-04T04:25:29.000Z</time>
      </trkpt>
      <trkpt lon="35.10303153656423" lat="31.781754372641444">
        <ele>674.7999877929688</ele>
        <time>2014-07-04T04:25:38.000Z</time>
      </trkpt>
      <trkpt lon="35.1031213067472" lat="31.781695783138275">
        <ele>675.7999877929688</ele>
        <time>2014-07-04T04:25:47.000Z</time>
      </trkpt>
      <trkpt lon="35.10321426205337" lat="31.781631242483854">
        <ele>676.7999877929688</ele>
        <time>2014-07-04T04:25:55.000Z</time>
      </trkpt>
      <trkpt lon="35.1034337002784" lat="31.781518002972007">
        <ele>678.7999877929688</ele>
        <time>2014-07-04T04:26:06.000Z</time>
      </trkpt>
      <trkpt lon="35.103627406060696" lat="31.781428400427103">
        <ele>680.5999755859375</ele>
        <time>2014-07-04T04:26:15.000Z</time>
      </trkpt>
      <trkpt lon="35.103802839294076" lat="31.78142731077969">
        <ele>681.0</ele>
        <time>2014-07-04T04:26:24.000Z</time>
      </trkpt>
      <trkpt lon="35.10400861501694" lat="31.781478188931942">
        <ele>682.4000244140625</ele>
        <time>2014-07-04T04:26:34.000Z</time>
      </trkpt>
      <trkpt lon="35.104213301092386" lat="31.781547842547297">
        <ele>683.7999877929688</ele>
        <time>2014-07-04T04:26:43.000Z</time>
      </trkpt>
      <trkpt lon="35.10445210151374" lat="31.78161783143878">
        <ele>685.0</ele>
        <time>2014-07-04T04:26:53.000Z</time>
      </trkpt>
      <trkpt lon="35.10472954250872" lat="31.781716654077172">
        <ele>686.2000122070312</ele>
        <time>2014-07-04T04:27:04.000Z</time>
      </trkpt>
      <trkpt lon="35.104974042624235" lat="31.78179326467216">
        <ele>687.4000244140625</ele>
        <time>2014-07-04T04:27:13.000Z</time>
      </trkpt>
      <trkpt lon="35.10522013530135" lat="31.781864846125245">
        <ele>688.7999877929688</ele>
        <time>2014-07-04T04:27:22.000Z</time>
      </trkpt>
      <trkpt lon="35.10553864762187" lat="31.781974816694856">
        <ele>690.4000244140625</ele>
        <time>2014-07-04T04:27:35.000Z</time>
      </trkpt>
      <trkpt lon="35.10577275417745" lat="31.78206349723041">
        <ele>691.5999755859375</ele>
        <time>2014-07-04T04:27:44.000Z</time>
      </trkpt>
      <trkpt lon="35.106013817712665" lat="31.78213977254927">
        <ele>693.2000122070312</ele>
        <time>2014-07-04T04:27:53.000Z</time>
      </trkpt>
      <trkpt lon="35.10634439997375" lat="31.782246893271804">
        <ele>694.5999755859375</ele>
        <time>2014-07-04T04:28:03.000Z</time>
      </trkpt>
      <trkpt lon="35.10662284679711" lat="31.78233213722706">
        <ele>695.5999755859375</ele>
        <time>2014-07-04T04:28:13.000Z</time>
      </trkpt>
      <trkpt lon="35.10681646876037" lat="31.782400282099843">
        <ele>696.2000122070312</ele>
        <time>2014-07-04T04:28:21.000Z</time>
      </trkpt>
      <trkpt lon="35.10704956948757" lat="31.782469851896167">
        <ele>697.2000122070312</ele>
        <time>2014-07-04T04:28:30.000Z</time>
      </trkpt>
      <trkpt lon="35.10737730190158" lat="31.782577391713858">
        <ele>698.7999877929688</ele>
        <time>2014-07-04T04:28:43.000Z</time>
      </trkpt>
      <trkpt lon="35.10756153613329" lat="31.78264302201569">
        <ele>699.7999877929688</ele>
        <time>2014-07-04T04:28:51.000Z</time>
      </trkpt>
      <trkpt lon="35.1075990870595" lat="31.78265224210918">
        <ele>700.0</ele>
        <time>2014-07-04T04:28:53.000Z</time>
      </trkpt>
      <trkpt lon="35.107616605237126" lat="31.782653583213687">
        <ele>700.0</ele>
        <time>2014-07-04T04:28:54.000Z</time>
      </trkpt>
      <trkpt lon="35.10763135738671" lat="31.782652996480465">
        <ele>700.2000122070312</ele>
        <time>2014-07-04T04:28:55.000Z</time>
      </trkpt>
      <trkpt lon="35.1076440140605" lat="31.782653415575624">
        <ele>700.2000122070312</ele>
        <time>2014-07-04T04:28:56.000Z</time>
      </trkpt>
      <trkpt lon="35.10767427273095" lat="31.782692978158593">
        <ele>700.2000122070312</ele>
        <time>2014-07-04T04:29:01.000Z</time>
      </trkpt>
      <trkpt lon="35.10766086168587" lat="31.78272558376193">
        <ele>700.0</ele>
        <time>2014-07-04T04:29:08.000Z</time>
      </trkpt>
      <trkpt lon="35.10760855861008" lat="31.78269289433956">
        <ele>699.7999877929688</ele>
        <time>2014-07-04T04:29:16.000Z</time>
      </trkpt>
      <trkpt lon="35.10758894495666" lat="31.782686607912183">
        <ele>699.5999755859375</ele>
        <time>2014-07-04T04:29:27.000Z</time>
      </trkpt>
      <trkpt lon="35.1075800601393" lat="31.782675124704838">
        <ele>699.5999755859375</ele>
        <time>2014-07-04T04:29:48.000Z</time>
      </trkpt>
      <trkpt lon="35.10757285170257" lat="31.782672191038728">
        <ele>699.5999755859375</ele>
        <time>2014-07-04T04:30:09.000Z</time>
      </trkpt>
      <trkpt lon="35.1075853407383" lat="31.782681914046407">
        <ele>699.5999755859375</ele>
        <time>2014-07-04T04:30:28.000Z</time>
      </trkpt>
      <trkpt lon="35.10757804848254" lat="31.78266992792487">
        <ele>699.5999755859375</ele>
        <time>2014-07-04T04:30:52.000Z</time>
      </trkpt>
      <trkpt lon="35.10758517310023" lat="31.78266783244908">
        <ele>699.7999877929688</ele>
        <time>2014-07-04T04:31:14.000Z</time>
      </trkpt>
      <trkpt lon="35.10758257471025" lat="31.782675962895155">
        <ele>699.5999755859375</ele>
        <time>2014-07-04T04:31:41.000Z</time>
      </trkpt>
      <trkpt lon="35.10758701711893" lat="31.78269138559699">
        <ele>699.5999755859375</ele>
        <time>2014-07-04T04:32:10.000Z</time>
      </trkpt>
      <trkpt lon="35.10759422555566" lat="31.782677890732884">
        <ele>699.7999877929688</ele>
        <time>2014-07-04T04:32:33.000Z</time>
      </trkpt>
      <trkpt lon="35.107593052089214" lat="31.782669173553586">
        <ele>699.7999877929688</ele>
        <time>2014-07-04T04:32:58.000Z</time>
      </trkpt>
      <trkpt lon="35.107587771490216" lat="31.782674370333552">
        <ele>699.7999877929688</ele>
        <time>2014-07-04T04:33:21.000Z</time>
      </trkpt>
      <trkpt lon="35.1075919624418" lat="31.78267043083906">
        <ele>699.7999877929688</ele>
        <time>2014-07-04T04:33:38.000Z</time>
      </trkpt>
      <trkpt lon="35.10759347118437" lat="31.782668503001332">
        <ele>699.7999877929688</ele>
        <time>2014-07-04T04:33:59.000Z</time>
      </trkpt>
      <trkpt lon="35.10758467018604" lat="31.78267286159098">
        <ele>699.7999877929688</ele>
        <time>2014-07-04T04:34:25.000Z</time>
      </trkpt>
      <trkpt lon="35.1075729355216" lat="31.78267420269549">
        <ele>699.5999755859375</ele>
        <time>2014-07-04T04:34:47.000Z</time>
      </trkpt>
      <trkpt lon="35.10757863521576" lat="31.782666323706508">
        <ele>699.7999877929688</ele>
        <time>2014-07-04T04:35:14.000Z</time>
      </trkpt>
      <trkpt lon="35.10759280063212" lat="31.78266355767846">
        <ele>699.7999877929688</ele>
        <time>2014-07-04T04:35:36.000Z</time>
      </trkpt>
      <trkpt lon="35.10759439319372" lat="31.78267043083906">
        <ele>699.7999877929688</ele>
        <time>2014-07-04T04:35:57.000Z</time>
      </trkpt>
      <trkpt lon="35.1075972430408" lat="31.782661713659763">
        <ele>699.7999877929688</ele>
        <time>2014-07-04T04:36:23.000Z</time>
      </trkpt>
      <trkpt lon="35.10759447701275" lat="31.782666156068444">
        <ele>699.7999877929688</ele>
        <time>2014-07-04T04:36:51.000Z</time>
      </trkpt>
      <trkpt lon="35.107597494497895" lat="31.782668754458427">
        <ele>699.7999877929688</ele>
        <time>2014-07-04T04:37:20.000Z</time>
      </trkpt>
      <trkpt lon="35.10761199519038" lat="31.78266347385943">
        <ele>700.0</ele>
        <time>2014-07-04T04:37:43.000Z</time>
      </trkpt>
      <trkpt lon="35.10759481228888" lat="31.782678812742233">
        <ele>699.7999877929688</ele>
        <time>2014-07-04T04:38:04.000Z</time>
      </trkpt>
      <trkpt lon="35.1075869332999" lat="31.782675040885806">
        <ele>699.7999877929688</ele>
        <time>2014-07-04T04:38:25.000Z</time>
      </trkpt>
      <trkpt lon="35.10757586918771" lat="31.782671101391315">
        <ele>699.5999755859375</ele>
        <time>2014-07-04T04:38:47.000Z</time>
      </trkpt>
      <trkpt lon="35.1076524797827" lat="31.782680992037058">
        <ele>700.2000122070312</ele>
        <time>2014-07-04T04:39:05.000Z</time>
      </trkpt>
      <trkpt lon="35.10770344175398" lat="31.78266883827746">
        <ele>700.5999755859375</ele>
        <time>2014-07-04T04:39:11.000Z</time>
      </trkpt>
      <trkpt lon="35.10767745785415" lat="31.78266347385943">
        <ele>700.4000244140625</ele>
        <time>2014-07-04T04:39:19.000Z</time>
      </trkpt>
      <trkpt lon="35.1076440140605" lat="31.78266456350684">
        <ele>700.2000122070312</ele>
        <time>2014-07-04T04:39:39.000Z</time>
      </trkpt>
      <trkpt lon="35.10762716643512" lat="31.782676381990314">
        <ele>700.0</ele>
        <time>2014-07-04T04:39:47.000Z</time>
      </trkpt>
      <trkpt lon="35.10762406513095" lat="31.782669592648745">
        <ele>700.0</ele>
        <time>2014-07-04T04:40:02.000Z</time>
      </trkpt>
      <trkpt lon="35.10762942954898" lat="31.782662216573954">
        <ele>700.2000122070312</ele>
        <time>2014-07-04T04:40:15.000Z</time>
      </trkpt>
      <trkpt lon="35.107629261910915" lat="31.782685853540897">
        <ele>700.0</ele>
        <time>2014-07-04T04:40:30.000Z</time>
      </trkpt>
      <trkpt lon="35.107618533074856" lat="31.7826736997813">
        <ele>700.0</ele>
        <time>2014-07-04T04:40:48.000Z</time>
      </trkpt>
      <trkpt lon="35.10760537348688" lat="31.782674537971616">
        <ele>699.7999877929688</ele>
        <time>2014-07-04T04:41:10.000Z</time>
      </trkpt>
      <trkpt lon="35.10761048644781" lat="31.78266749717295">
        <ele>700.0</ele>
        <time>2014-07-04T04:41:25.000Z</time>
      </trkpt>
      <trkpt lon="35.10762574151158" lat="31.78266439586878">
        <ele>700.0</ele>
        <time>2014-07-04T04:41:38.000Z</time>
      </trkpt>
      <trkpt lon="35.10762507095933" lat="31.782664982602">
        <ele>700.0</ele>
        <time>2014-07-04T04:41:43.000Z</time>
      </trkpt>
      <trkpt lon="35.107600847259164" lat="31.782658863812685">
        <ele>700.0</ele>
        <time>2014-07-04T04:41:44.000Z</time>
      </trkpt>
      <trkpt lon="35.10749464854598" lat="31.782639166340232">
        <ele>699.2000122070312</ele>
        <time>2014-07-04T04:41:46.000Z</time>
      </trkpt>
      <trkpt lon="35.107430359348655" lat="31.78261946886778">
        <ele>699.0</ele>
        <time>2014-07-04T04:41:47.000Z</time>
      </trkpt>
      <trkpt lon="35.106904143467546" lat="31.782448813319206">
        <ele>696.4000244140625</ele>
        <time>2014-07-04T04:41:54.000Z</time>
      </trkpt>
      <trkpt lon="35.10619687847793" lat="31.78223113529384">
        <ele>693.7999877929688</ele>
        <time>2014-07-04T04:42:02.000Z</time>
      </trkpt>
      <trkpt lon="35.10546572506428" lat="31.781986970454454">
        <ele>689.5999755859375</ele>
        <time>2014-07-04T04:42:10.000Z</time>
      </trkpt>
      <trkpt lon="35.10477304458618" lat="31.78176250308752">
        <ele>686.2000122070312</ele>
        <time>2014-07-04T04:42:17.000Z</time>
      </trkpt>
      <trkpt lon="35.10410978458822" lat="31.781537029892206">
        <ele>683.0</ele>
        <time>2014-07-04T04:42:24.000Z</time>
      </trkpt>
      <trkpt lon="35.10381625033915" lat="31.781445080414414">
        <ele>681.0</ele>
        <time>2014-07-04T04:42:27.000Z</time>
      </trkpt>
      <trkpt lon="35.10371558368206" lat="31.781431417912245">
        <ele>680.5999755859375</ele>
        <time>2014-07-04T04:42:28.000Z</time>
      </trkpt>
      <trkpt lon="35.10361055843532" lat="31.78143418394029">
        <ele>680.4000244140625</ele>
        <time>2014-07-04T04:42:29.000Z</time>
      </trkpt>
      <trkpt lon="35.103505197912455" lat="31.781456479802728">
        <ele>679.7999877929688</ele>
        <time>2014-07-04T04:42:30.000Z</time>
      </trkpt>
      <trkpt lon="35.103406542912126" lat="31.781494617462158">
        <ele>678.7999877929688</ele>
        <time>2014-07-04T04:42:31.000Z</time>
      </trkpt>
      <trkpt lon="35.10331400670111" lat="31.781542478129268">
        <ele>677.7999877929688</ele>
        <time>2014-07-04T04:42:32.000Z</time>
      </trkpt>
      <trkpt lon="35.103226248174906" lat="31.781595032662153">
        <ele>677.0</ele>
        <time>2014-07-04T04:42:33.000Z</time>
      </trkpt>
      <trkpt lon="35.103140166029334" lat="31.78164917975664">
        <ele>676.2000122070312</ele>
        <time>2014-07-04T04:42:34.000Z</time>
      </trkpt>
      <trkpt lon="35.1023871358484" lat="31.782116135582328">
        <ele>670.4000244140625</ele>
        <time>2014-07-04T04:42:43.000Z</time>
      </trkpt>
      <trkpt lon="35.1018900051713" lat="31.782276900485158">
        <ele>665.4000244140625</ele>
        <time>2014-07-04T04:42:49.000Z</time>
      </trkpt>
      <trkpt lon="35.10181272402406" lat="31.78228343836963">
        <ele>664.7999877929688</ele>
        <time>2014-07-04T04:42:50.000Z</time>
      </trkpt>
      <trkpt lon="35.1012768689543" lat="31.782278828322887">
        <ele>661.0</ele>
        <time>2014-07-04T04:42:56.000Z</time>
      </trkpt>
      <trkpt lon="35.10050523094833" lat="31.782238176092505">
        <ele>658.0</ele>
        <time>2014-07-04T04:43:04.000Z</time>
      </trkpt>
      <trkpt lon="35.09980936534703" lat="31.78219727240503">
        <ele>654.7999877929688</ele>
        <time>2014-07-04T04:43:11.000Z</time>
      </trkpt>
      <trkpt lon="35.09915482252836" lat="31.7820899002254">
        <ele>655.5999755859375</ele>
        <time>2014-07-04T04:43:19.000Z</time>
      </trkpt>
      <trkpt lon="35.098661379888654" lat="31.782022258266807">
        <ele>656.2000122070312</ele>
        <time>2014-07-04T04:43:26.000Z</time>
      </trkpt>
      <trkpt lon="35.097984205931425" lat="31.781966350972652">
        <ele>657.0</ele>
        <time>2014-07-04T04:43:34.000Z</time>
      </trkpt>
      <trkpt lon="35.097362603992224" lat="31.781994765624404">
        <ele>653.2000122070312</ele>
        <time>2014-07-04T04:43:41.000Z</time>
      </trkpt>
      <trkpt lon="35.096715269610286" lat="31.782120997086167">
        <ele>648.7999877929688</ele>
        <time>2014-07-04T04:43:48.000Z</time>
      </trkpt>
      <trkpt lon="35.09606617502868" lat="31.782311433926225">
        <ele>645.4000244140625</ele>
        <time>2014-07-04T04:43:55.000Z</time>
      </trkpt>
      <trkpt lon="35.09545521810651" lat="31.782475132495165">
        <ele>645.7999877929688</ele>
        <time>2014-07-04T04:44:02.000Z</time>
      </trkpt>
      <trkpt lon="35.09529210627079" lat="31.7825095821172">
        <ele>646.0</ele>
        <time>2014-07-04T04:44:04.000Z</time>
      </trkpt>
      <trkpt lon="35.09465826675296" lat="31.782643357291818">
        <ele>647.4000244140625</ele>
        <time>2014-07-04T04:44:11.000Z</time>
      </trkpt>
      <trkpt lon="35.09409357793629" lat="31.78271284326911">
        <ele>648.2000122070312</ele>
        <time>2014-07-04T04:44:17.000Z</time>
      </trkpt>
      <trkpt lon="35.09337432682514" lat="31.78290093317628">
        <ele>645.4000244140625</ele>
        <time>2014-07-04T04:44:24.000Z</time>
      </trkpt>
      <trkpt lon="35.092667900025845" lat="31.783095058053732">
        <ele>637.7999877929688</ele>
        <time>2014-07-04T04:44:31.000Z</time>
      </trkpt>
      <trkpt lon="35.09217864833772" lat="31.783239813521504">
        <ele>631.5999755859375</ele>
        <time>2014-07-04T04:44:37.000Z</time>
      </trkpt>
      <trkpt lon="35.09207680821419" lat="31.78326110355556">
        <ele>631.2000122070312</ele>
        <time>2014-07-04T04:44:38.000Z</time>
      </trkpt>
      <trkpt lon="35.09196633473039" lat="31.78327132947743">
        <ele>630.4000244140625</ele>
        <time>2014-07-04T04:44:39.000Z</time>
      </trkpt>
      <trkpt lon="35.09124951437116" lat="31.78326948545873">
        <ele>623.0</ele>
        <time>2014-07-04T04:44:45.000Z</time>
      </trkpt>
      <trkpt lon="35.09034669958055" lat="31.78327384404838">
        <ele>614.7999877929688</ele>
        <time>2014-07-04T04:44:53.000Z</time>
      </trkpt>
      <trkpt lon="35.08946651592851" lat="31.78319664672017">
        <ele>608.5999755859375</ele>
        <time>2014-07-04T04:45:00.000Z</time>
      </trkpt>
      <trkpt lon="35.088713904842734" lat="31.783098243176937">
        <ele>605.7999877929688</ele>
        <time>2014-07-04T04:45:06.000Z</time>
      </trkpt>
      <trkpt lon="35.087927682325244" lat="31.782873021438718">
        <ele>607.0</ele>
        <time>2014-07-04T04:45:13.000Z</time>
      </trkpt>
      <trkpt lon="35.0872287992388" lat="31.78267956711352">
        <ele>600.4000244140625</ele>
        <time>2014-07-04T04:45:20.000Z</time>
      </trkpt>
      <trkpt lon="35.086839040741324" lat="31.78263019770384">
        <ele>597.5999755859375</ele>
        <time>2014-07-04T04:45:25.000Z</time>
      </trkpt>
      <trkpt lon="35.08635540492833" lat="31.782597340643406">
        <ele>595.4000244140625</ele>
        <time>2014-07-04T04:45:32.000Z</time>
      </trkpt>
      <trkpt lon="35.0858093239367" lat="31.782491309568286">
        <ele>590.7999877929688</ele>
        <time>2014-07-04T04:45:38.000Z</time>
      </trkpt>
      <trkpt lon="35.0854380056262" lat="31.782375555485487">
        <ele>586.2000122070312</ele>
        <time>2014-07-04T04:45:43.000Z</time>
      </trkpt>
      <trkpt lon="35.0852707028389" lat="31.78233129903674">
        <ele>585.0</ele>
        <time>2014-07-04T04:45:46.000Z</time>
      </trkpt>
      <trkpt lon="35.08522200398147" lat="31.782329035922885">
        <ele>584.5999755859375</ele>
        <time>2014-07-04T04:45:47.000Z</time>
      </trkpt>
      <trkpt lon="35.085181603208184" lat="31.78233800455928">
        <ele>584.0</ele>
        <time>2014-07-04T04:45:48.000Z</time>
      </trkpt>
      <trkpt lon="35.085149332880974" lat="31.782361222431064">
        <ele>583.5999755859375</ele>
        <time>2014-07-04T04:45:49.000Z</time>
      </trkpt>
      <trkpt lon="35.08512276224792" lat="31.782396594062448">
        <ele>583.5999755859375</ele>
        <time>2014-07-04T04:45:50.000Z</time>
      </trkpt>
      <trkpt lon="35.085094179958105" lat="31.782434061169624">
        <ele>584.4000244140625</ele>
        <time>2014-07-04T04:45:51.000Z</time>
      </trkpt>
      <trkpt lon="35.08505486883223" lat="31.782465409487486">
        <ele>584.7999877929688</ele>
        <time>2014-07-04T04:45:52.000Z</time>
      </trkpt>
      <trkpt lon="35.08500977419317" lat="31.782488794997334">
        <ele>585.0</ele>
        <time>2014-07-04T04:45:53.000Z</time>
      </trkpt>
      <trkpt lon="35.08496216498315" lat="31.782507738098502">
        <ele>585.2000122070312</ele>
        <time>2014-07-04T04:45:54.000Z</time>
      </trkpt>
      <trkpt lon="35.08490835316479" lat="31.78252383135259">
        <ele>585.2000122070312</ele>
        <time>2014-07-04T04:45:55.000Z</time>
      </trkpt>
      <trkpt lon="35.08445531129837" lat="31.782611841335893">
        <ele>585.4000244140625</ele>
        <time>2014-07-04T04:46:02.000Z</time>
      </trkpt>
      <trkpt lon="35.08400285616517" lat="31.782764056697488">
        <ele>587.2000122070312</ele>
        <time>2014-07-04T04:46:08.000Z</time>
      </trkpt>
      <trkpt lon="35.08323322981596" lat="31.783098662272096">
        <ele>587.2000122070312</ele>
        <time>2014-07-04T04:46:17.000Z</time>
      </trkpt>
      <trkpt lon="35.08281505666673" lat="31.783356573432684">
        <ele>588.2000122070312</ele>
        <time>2014-07-04T04:46:23.000Z</time>
      </trkpt>
      <trkpt lon="35.08227501064539" lat="31.783707523718476">
        <ele>592.2000122070312</ele>
        <time>2014-07-04T04:46:33.000Z</time>
      </trkpt>
      <trkpt lon="35.081962533295155" lat="31.78388119675219">
        <ele>593.5999755859375</ele>
        <time>2014-07-04T04:46:40.000Z</time>
      </trkpt>
      <trkpt lon="35.08173689246178" lat="31.78402821533382">
        <ele>588.5999755859375</ele>
        <time>2014-07-04T04:46:47.000Z</time>
      </trkpt>
      <trkpt lon="35.08158124051988" lat="31.784140868112445">
        <ele>588.4000244140625</ele>
        <time>2014-07-04T04:46:53.000Z</time>
      </trkpt>
      <trkpt lon="35.08127043955028" lat="31.78433113731444">
        <ele>586.7999877929688</ele>
        <time>2014-07-04T04:47:02.000Z</time>
      </trkpt>
      <trkpt lon="35.08093080483377" lat="31.784518640488386">
        <ele>590.0</ele>
        <time>2014-07-04T04:47:11.000Z</time>
      </trkpt>
      <trkpt lon="35.080600222572684" lat="31.78466155193746">
        <ele>586.5999755859375</ele>
        <time>2014-07-04T04:47:20.000Z</time>
      </trkpt>
      <trkpt lon="35.080443397164345" lat="31.784722739830613">
        <ele>584.4000244140625</ele>
        <time>2014-07-04T04:47:27.000Z</time>
      </trkpt>
      <trkpt lon="35.080248434096575" lat="31.78481007926166">
        <ele>584.7999877929688</ele>
        <time>2014-07-04T04:47:36.000Z</time>
      </trkpt>
      <trkpt lon="35.080080879852176" lat="31.784906219691038">
        <ele>584.7999877929688</ele>
        <time>2014-07-04T04:47:46.000Z</time>
      </trkpt>
      <trkpt lon="35.079939141869545" lat="31.784979309886694">
        <ele>584.4000244140625</ele>
        <time>2014-07-04T04:47:53.000Z</time>
      </trkpt>
      <trkpt lon="35.07974359206855" lat="31.785068158060312">
        <ele>583.4000244140625</ele>
        <time>2014-07-04T04:48:03.000Z</time>
      </trkpt>
      <trkpt lon="35.079550137743354" lat="31.785163041204214">
        <ele>582.7999877929688</ele>
        <time>2014-07-04T04:48:12.000Z</time>
      </trkpt>
      <trkpt lon="35.07935123518109" lat="31.78525658324361">
        <ele>585.0</ele>
        <time>2014-07-04T04:48:22.000Z</time>
      </trkpt>
      <trkpt lon="35.07920899428427" lat="31.785326739773154">
        <ele>586.5999755859375</ele>
        <time>2014-07-04T04:48:30.000Z</time>
      </trkpt>
      <trkpt lon="35.079033225774765" lat="31.785395639017224">
        <ele>585.2000122070312</ele>
        <time>2014-07-04T04:48:39.000Z</time>
      </trkpt>
      <trkpt lon="35.07885024882853" lat="31.785484906286">
        <ele>583.5999755859375</ele>
        <time>2014-07-04T04:48:48.000Z</time>
      </trkpt>
      <trkpt lon="35.07865872234106" lat="31.785574173554778">
        <ele>584.7999877929688</ele>
        <time>2014-07-04T04:48:57.000Z</time>
      </trkpt>
      <trkpt lon="35.07854087278247" lat="31.78554735146463">
        <ele>585.2000122070312</ele>
        <time>2014-07-04T04:49:04.000Z</time>
      </trkpt>
      <trkpt lon="35.07854632101953" lat="31.78553561680019">
        <ele>585.2000122070312</ele>
        <time>2014-07-04T04:49:05.000Z</time>
      </trkpt>
      <trkpt lon="35.078539699316025" lat="31.785523211583495">
        <ele>585.2000122070312</ele>
        <time>2014-07-04T04:49:06.000Z</time>
      </trkpt>
      <trkpt lon="35.078523606061935" lat="31.785508962348104">
        <ele>585.2000122070312</ele>
        <time>2014-07-04T04:49:07.000Z</time>
      </trkpt>
      <trkpt lon="35.07837248034775" lat="31.785373091697693">
        <ele>585.4000244140625</ele>
        <time>2014-07-04T04:49:14.000Z</time>
      </trkpt>
      <trkpt lon="35.078289080411196" lat="31.785257337614894">
        <ele>585.5999755859375</ele>
        <time>2014-07-04T04:49:20.000Z</time>
      </trkpt>
      <trkpt lon="35.078252870589495" lat="31.78506120108068">
        <ele>584.0</ele>
        <time>2014-07-04T04:49:26.000Z</time>
      </trkpt>
      <trkpt lon="35.07823501713574" lat="31.784951984882355">
        <ele>583.2000122070312</ele>
        <time>2014-07-04T04:49:28.000Z</time>
      </trkpt>
      <trkpt lon="35.07821599021554" lat="31.78489842452109">
        <ele>582.7999877929688</ele>
        <time>2014-07-04T04:49:29.000Z</time>
      </trkpt>
      <trkpt lon="35.07819101214409" lat="31.7848477140069">
        <ele>582.0</ele>
        <time>2014-07-04T04:49:30.000Z</time>
      </trkpt>
      <trkpt lon="35.07808757945895" lat="31.784694073721766">
        <ele>579.0</ele>
        <time>2014-07-04T04:49:35.000Z</time>
      </trkpt>
      <trkpt lon="35.07804994471371" lat="31.78458963520825">
        <ele>576.5999755859375</ele>
        <time>2014-07-04T04:49:41.000Z</time>
      </trkpt>
      <trkpt lon="35.07796880789101" lat="31.784399701282382">
        <ele>572.2000122070312</ele>
        <time>2014-07-04T04:49:47.000Z</time>
      </trkpt>
      <trkpt lon="35.07794089615345" lat="31.784348152577877">
        <ele>571.2000122070312</ele>
        <time>2014-07-04T04:49:48.000Z</time>
      </trkpt>
      <trkpt lon="35.07790225557983" lat="31.784295681864023">
        <ele>570.5999755859375</ele>
        <time>2014-07-04T04:49:49.000Z</time>
      </trkpt>
      <trkpt lon="35.07785598747432" lat="31.784248407930136">
        <ele>570.5999755859375</ele>
        <time>2014-07-04T04:49:50.000Z</time>
      </trkpt>
      <trkpt lon="35.07780611515045" lat="31.784205911681056">
        <ele>571.0</ele>
        <time>2014-07-04T04:49:51.000Z</time>
      </trkpt>
      <trkpt lon="35.07775582373142" lat="31.78416894748807">
        <ele>571.4000244140625</ele>
        <time>2014-07-04T04:49:52.000Z</time>
      </trkpt>
      <trkpt lon="35.07743555121124" lat="31.783980606123805">
        <ele>573.7999877929688</ele>
        <time>2014-07-04T04:49:58.000Z</time>
      </trkpt>
      <trkpt lon="35.07736782543361" lat="31.783960070461035">
        <ele>574.5999755859375</ele>
        <time>2014-07-04T04:49:59.000Z</time>
      </trkpt>
      <trkpt lon="35.077309319749475" lat="31.783948503434658">
        <ele>575.7999877929688</ele>
        <time>2014-07-04T04:50:00.000Z</time>
      </trkpt>
      <trkpt lon="35.07726020179689" lat="31.783944312483072">
        <ele>577.0</ele>
        <time>2014-07-04T04:50:01.000Z</time>
      </trkpt>
      <trkpt lon="35.07721384987235" lat="31.783945569768548">
        <ele>578.4000244140625</ele>
        <time>2014-07-04T04:50:02.000Z</time>
      </trkpt>
      <trkpt lon="35.07717043161392" lat="31.78394816815853">
        <ele>579.7999877929688</ele>
        <time>2014-07-04T04:50:03.000Z</time>
      </trkpt>
      <trkpt lon="35.07692953571677" lat="31.783964009955525">
        <ele>583.7999877929688</ele>
        <time>2014-07-04T04:50:10.000Z</time>
      </trkpt>
      <trkpt lon="35.07654053159058" lat="31.783998543396592">
        <ele>589.4000244140625</ele>
        <time>2014-07-04T04:50:20.000Z</time>
      </trkpt>
      <trkpt lon="35.07622813805938" lat="31.784075405448675">
        <ele>595.2000122070312</ele>
        <time>2014-07-04T04:50:29.000Z</time>
      </trkpt>
      <trkpt lon="35.07592680864036" lat="31.784136928617954">
        <ele>593.5999755859375</ele>
        <time>2014-07-04T04:50:38.000Z</time>
      </trkpt>
      <trkpt lon="35.075490698218346" lat="31.78428235463798">
        <ele>594.2000122070312</ele>
        <time>2014-07-04T04:50:48.000Z</time>
      </trkpt>
      <trkpt lon="35.07514343596995" lat="31.784373465925455">
        <ele>593.2000122070312</ele>
        <time>2014-07-04T04:50:56.000Z</time>
      </trkpt>
      <trkpt lon="35.07475309073925" lat="31.784403892233968">
        <ele>590.5999755859375</ele>
        <time>2014-07-04T04:51:03.000Z</time>
      </trkpt>
      <trkpt lon="35.074530048295856" lat="31.784448903054">
        <ele>591.0</ele>
        <time>2014-07-04T04:51:08.000Z</time>
      </trkpt>
      <trkpt lon="35.07432200945914" lat="31.78449139930308">
        <ele>590.0</ele>
        <time>2014-07-04T04:51:15.000Z</time>
      </trkpt>
      <trkpt lon="35.074141547083855" lat="31.784518472850323">
        <ele>589.2000122070312</ele>
        <time>2014-07-04T04:51:22.000Z</time>
      </trkpt>
      <trkpt lon="35.074013974517584" lat="31.78453884087503">
        <ele>588.7999877929688</ele>
        <time>2014-07-04T04:51:25.000Z</time>
      </trkpt>
      <trkpt lon="35.07396284490824" lat="31.78455644287169">
        <ele>589.0</ele>
        <time>2014-07-04T04:51:26.000Z</time>
      </trkpt>
      <trkpt lon="35.07357141003013" lat="31.784772779792547">
        <ele>591.7999877929688</ele>
        <time>2014-07-04T04:51:34.000Z</time>
      </trkpt>
      <trkpt lon="35.07332271896303" lat="31.784972520545125">
        <ele>589.2000122070312</ele>
        <time>2014-07-04T04:51:41.000Z</time>
      </trkpt>
      <trkpt lon="35.073024574667215" lat="31.785214506089687">
        <ele>583.0</ele>
        <time>2014-07-04T04:51:49.000Z</time>
      </trkpt>
      <trkpt lon="35.072893649339676" lat="31.78531726822257">
        <ele>581.2000122070312</ele>
        <time>2014-07-04T04:51:52.000Z</time>
      </trkpt>
      <trkpt lon="35.072861881926656" lat="31.785355238243937">
        <ele>580.2000122070312</ele>
        <time>2014-07-04T04:51:53.000Z</time>
      </trkpt>
      <trkpt lon="35.07283614948392" lat="31.785395303741097">
        <ele>579.4000244140625</ele>
        <time>2014-07-04T04:51:54.000Z</time>
      </trkpt>
      <trkpt lon="35.07281192578375" lat="31.785443080589175">
        <ele>578.7999877929688</ele>
        <time>2014-07-04T04:51:55.000Z</time>
      </trkpt>
      <trkpt lon="35.072790468111634" lat="31.78550007753074">
        <ele>578.5999755859375</ele>
        <time>2014-07-04T04:51:56.000Z</time>
      </trkpt>
      <trkpt lon="35.07277605123818" lat="31.785565204918385">
        <ele>578.5999755859375</ele>
        <time>2014-07-04T04:51:57.000Z</time>
      </trkpt>
      <trkpt lon="35.072770519182086" lat="31.78563100285828">
        <ele>579.4000244140625</ele>
        <time>2014-07-04T04:51:58.000Z</time>
      </trkpt>
      <trkpt lon="35.07275836542249" lat="31.7856870777905">
        <ele>579.5999755859375</ele>
        <time>2014-07-04T04:51:59.000Z</time>
      </trkpt>
      <trkpt lon="35.07274101488292" lat="31.785731334239244">
        <ele>578.7999877929688</ele>
        <time>2014-07-04T04:52:00.000Z</time>
      </trkpt>
      <trkpt lon="35.07271645590663" lat="31.785775674507022">
        <ele>576.5999755859375</ele>
        <time>2014-07-04T04:52:01.000Z</time>
      </trkpt>
      <trkpt lon="35.072659542784095" lat="31.78588354960084">
        <ele>571.2000122070312</ele>
        <time>2014-07-04T04:52:03.000Z</time>
      </trkpt>
      <trkpt lon="35.072647891938686" lat="31.785943815484643">
        <ele>569.0</ele>
        <time>2014-07-04T04:52:04.000Z</time>
      </trkpt>
      <trkpt lon="35.07265233434737" lat="31.78600030951202">
        <ele>567.4000244140625</ele>
        <time>2014-07-04T04:52:05.000Z</time>
      </trkpt>
      <trkpt lon="35.07266951724887" lat="31.786046074703336">
        <ele>566.7999877929688</ele>
        <time>2014-07-04T04:52:06.000Z</time>
      </trkpt>
      <trkpt lon="35.072693321853876" lat="31.78607993759215">
        <ele>566.7999877929688</ele>
        <time>2014-07-04T04:52:07.000Z</time>
      </trkpt>
      <trkpt lon="35.07272006012499" lat="31.78610290400684">
        <ele>567.2000122070312</ele>
        <time>2014-07-04T04:52:08.000Z</time>
      </trkpt>
      <trkpt lon="35.07273891940713" lat="31.786122350022197">
        <ele>567.4000244140625</ele>
        <time>2014-07-04T04:52:09.000Z</time>
      </trkpt>
      <trkpt lon="35.07275300100446" lat="31.78614003583789">
        <ele>567.5999755859375</ele>
        <time>2014-07-04T04:52:10.000Z</time>
      </trkpt>
      <trkpt lon="35.07277035154402" lat="31.786153027787805">
        <ele>567.7999877929688</ele>
        <time>2014-07-04T04:52:11.000Z</time>
      </trkpt>
      <trkpt lon="35.07278921082616" lat="31.786160739138722">
        <ele>568.4000244140625</ele>
        <time>2014-07-04T04:52:12.000Z</time>
      </trkpt>
      <trkpt lon="35.07280739955604" lat="31.78616593591869">
        <ele>569.0</ele>
        <time>2014-07-04T04:52:13.000Z</time>
      </trkpt>
      <trkpt lon="35.07293287664652" lat="31.786227962002158">
        <ele>572.2000122070312</ele>
        <time>2014-07-04T04:52:19.000Z</time>
      </trkpt>
      <trkpt lon="35.07322557270527" lat="31.78634338080883">
        <ele>573.7999877929688</ele>
        <time>2014-07-04T04:52:27.000Z</time>
      </trkpt>
      <trkpt lon="35.073483400046825" lat="31.786451088264585">
        <ele>575.0</ele>
        <time>2014-07-04T04:52:35.000Z</time>
      </trkpt>
      <trkpt lon="35.07378129288554" lat="31.78653348237276">
        <ele>577.7999877929688</ele>
        <time>2014-07-04T04:52:43.000Z</time>
      </trkpt>
      <trkpt lon="35.07401246577501" lat="31.78655250929296">
        <ele>581.4000244140625</ele>
        <time>2014-07-04T04:52:53.000Z</time>
      </trkpt>
      <trkpt lon="35.07414313964546" lat="31.78657304495573">
        <ele>583.0</ele>
        <time>2014-07-04T04:53:01.000Z</time>
      </trkpt>
      <trkpt lon="35.07430046796799" lat="31.786623587831855">
        <ele>584.2000122070312</ele>
        <time>2014-07-04T04:53:10.000Z</time>
      </trkpt>
      <trkpt lon="35.07431379519403" lat="31.786631047725677">
        <ele>584.2000122070312</ele>
        <time>2014-07-04T04:53:11.000Z</time>
      </trkpt>
      <trkpt lon="35.07432687096298" lat="31.786640854552388">
        <ele>584.0</ele>
        <time>2014-07-04T04:53:12.000Z</time>
      </trkpt>
      <trkpt lon="35.0743430480361" lat="31.786649487912655">
        <ele>584.0</ele>
        <time>2014-07-04T04:53:13.000Z</time>
      </trkpt>
      <trkpt lon="35.07435880601406" lat="31.78665560670197">
        <ele>584.2000122070312</ele>
        <time>2014-07-04T04:53:14.000Z</time>
      </trkpt>
      <trkpt lon="35.0743758212775" lat="31.786660216748714">
        <ele>584.2000122070312</ele>
        <time>2014-07-04T04:53:15.000Z</time>
      </trkpt>
      <trkpt lon="35.074393674731255" lat="31.78666289895773">
        <ele>584.4000244140625</ele>
        <time>2014-07-04T04:53:16.000Z</time>
      </trkpt>
      <trkpt lon="35.07440968416631" lat="31.78666734136641">
        <ele>584.5999755859375</ele>
        <time>2014-07-04T04:53:17.000Z</time>
      </trkpt>
      <trkpt lon="35.074425442144275" lat="31.786671951413155">
        <ele>584.7999877929688</ele>
        <time>2014-07-04T04:53:18.000Z</time>
      </trkpt>
      <trkpt lon="35.07444027811289" lat="31.786676393821836">
        <ele>584.7999877929688</ele>
        <time>2014-07-04T04:53:19.000Z</time>
      </trkpt>
      <trkpt lon="35.074456287547946" lat="31.786682093515992">
        <ele>585.0</ele>
        <time>2014-07-04T04:53:20.000Z</time>
      </trkpt>
      <trkpt lon="35.07447246462107" lat="31.78668829612434">
        <ele>585.0</ele>
        <time>2014-07-04T04:53:21.000Z</time>
      </trkpt>
      <trkpt lon="35.07448931224644" lat="31.786696007475257">
        <ele>585.2000122070312</ele>
        <time>2014-07-04T04:53:22.000Z</time>
      </trkpt>
      <trkpt lon="35.07463490590453" lat="31.78673816844821">
        <ele>585.7999877929688</ele>
        <time>2014-07-04T04:53:30.000Z</time>
      </trkpt>
      <trkpt lon="35.07475736550987" lat="31.78676549345255">
        <ele>585.2000122070312</ele>
        <time>2014-07-04T04:53:38.000Z</time>
      </trkpt>
      <trkpt lon="35.07490664720535" lat="31.786807319149375">
        <ele>584.4000244140625</ele>
        <time>2014-07-04T04:53:48.000Z</time>
      </trkpt>
      <trkpt lon="35.075050396844745" lat="31.786858700215816">
        <ele>583.2000122070312</ele>
        <time>2014-07-04T04:53:57.000Z</time>
      </trkpt>
      <trkpt lon="35.07516413927078" lat="31.78688778541982">
        <ele>582.5999755859375</ele>
        <time>2014-07-04T04:54:04.000Z</time>
      </trkpt>
      <trkpt lon="35.0751803163439" lat="31.78688518702984">
        <ele>582.7999877929688</ele>
        <time>2014-07-04T04:54:05.000Z</time>
      </trkpt>
      <trkpt lon="35.07519288919866" lat="31.786887114867568">
        <ele>582.7999877929688</ele>
        <time>2014-07-04T04:54:06.000Z</time>
      </trkpt>
      <trkpt lon="35.07520764134824" lat="31.786891892552376">
        <ele>582.5999755859375</ele>
        <time>2014-07-04T04:54:07.000Z</time>
      </trkpt>
      <trkpt lon="35.0752236507833" lat="31.78689700551331">
        <ele>582.5999755859375</ele>
        <time>2014-07-04T04:54:08.000Z</time>
      </trkpt>
      <trkpt lon="35.07524033077061" lat="31.786900274455547">
        <ele>582.4000244140625</ele>
        <time>2014-07-04T04:54:09.000Z</time>
      </trkpt>
      <trkpt lon="35.07525935769081" lat="31.786902118474245">
        <ele>582.4000244140625</ele>
        <time>2014-07-04T04:54:10.000Z</time>
      </trkpt>
      <trkpt lon="35.07527897134423" lat="31.786900609731674">
        <ele>582.5999755859375</ele>
        <time>2014-07-04T04:54:11.000Z</time>
      </trkpt>
      <trkpt lon="35.075299087911844" lat="31.7869009450078">
        <ele>582.5999755859375</ele>
        <time>2014-07-04T04:54:12.000Z</time>
      </trkpt>
      <trkpt lon="35.075318617746234" lat="31.78690144792199">
        <ele>582.7999877929688</ele>
        <time>2014-07-04T04:54:13.000Z</time>
      </trkpt>
      <trkpt lon="35.07533831521869" lat="31.786902537569404">
        <ele>582.7999877929688</ele>
        <time>2014-07-04T04:54:14.000Z</time>
      </trkpt>
      <trkpt lon="35.0753600243479" lat="31.786903627216816">
        <ele>582.7999877929688</ele>
        <time>2014-07-04T04:54:15.000Z</time>
      </trkpt>
      <trkpt lon="35.07537712343037" lat="31.786904633045197">
        <ele>582.7999877929688</ele>
        <time>2014-07-04T04:54:16.000Z</time>
      </trkpt>
      <trkpt lon="35.07551089860499" lat="31.786882421001792">
        <ele>582.4000244140625</ele>
        <time>2014-07-04T04:54:25.000Z</time>
      </trkpt>
      <trkpt lon="35.0756224617362" lat="31.786850318312645">
        <ele>581.7999877929688</ele>
        <time>2014-07-04T04:54:34.000Z</time>
      </trkpt>
      <trkpt lon="35.075732013210654" lat="31.786804888397455">
        <ele>581.5999755859375</ele>
        <time>2014-07-04T04:54:43.000Z</time>
      </trkpt>
      <trkpt lon="35.07581599988043" lat="31.78673766553402">
        <ele>582.7999877929688</ele>
        <time>2014-07-04T04:54:52.000Z</time>
      </trkpt>
      <trkpt lon="35.07588917389512" lat="31.7866731248796">
        <ele>584.0</ele>
        <time>2014-07-04T04:55:00.000Z</time>
      </trkpt>
      <trkpt lon="35.075901662930846" lat="31.786665162071586">
        <ele>584.2000122070312</ele>
        <time>2014-07-04T04:55:01.000Z</time>
      </trkpt>
      <trkpt lon="35.07605630904436" lat="31.786573296412826">
        <ele>585.0</ele>
        <time>2014-07-04T04:55:10.000Z</time>
      </trkpt>
      <trkpt lon="35.07628111168742" lat="31.786435917019844">
        <ele>585.4000244140625</ele>
        <time>2014-07-04T04:55:17.000Z</time>
      </trkpt>
      <trkpt lon="35.07657280191779" lat="31.786263836547732">
        <ele>584.2000122070312</ele>
        <time>2014-07-04T04:55:24.000Z</time>
      </trkpt>
      <trkpt lon="35.07698024623096" lat="31.786103155463934">
        <ele>582.0</ele>
        <time>2014-07-04T04:55:30.000Z</time>
      </trkpt>
      <trkpt lon="35.07714000530541" lat="31.786046661436558">
        <ele>581.7999877929688</ele>
        <time>2014-07-04T04:55:32.000Z</time>
      </trkpt>
      <trkpt lon="35.07768449373543" lat="31.78584742359817">
        <ele>582.7999877929688</ele>
        <time>2014-07-04T04:55:39.000Z</time>
      </trkpt>
      <trkpt lon="35.07774249650538" lat="31.785841220989823">
        <ele>582.4000244140625</ele>
        <time>2014-07-04T04:55:40.000Z</time>
      </trkpt>
      <trkpt lon="35.07811188697815" lat="31.78583669476211">
        <ele>582.2000122070312</ele>
        <time>2014-07-04T04:55:47.000Z</time>
      </trkpt>
      <trkpt lon="35.078420927748084" lat="31.78582403808832">
        <ele>582.7999877929688</ele>
        <time>2014-07-04T04:55:53.000Z</time>
      </trkpt>
      <trkpt lon="35.07847842760384" lat="31.785802831873298">
        <ele>583.2000122070312</ele>
        <time>2014-07-04T04:55:56.000Z</time>
      </trkpt>
      <trkpt lon="35.078491335734725" lat="31.785804089158773">
        <ele>583.2000122070312</ele>
        <time>2014-07-04T04:55:57.000Z</time>
      </trkpt>
      <trkpt lon="35.07850684225559" lat="31.78580383770168">
        <ele>583.2000122070312</ele>
        <time>2014-07-04T04:55:58.000Z</time>
      </trkpt>
      <trkpt lon="35.078524025157094" lat="31.785803586244583">
        <ele>583.2000122070312</ele>
        <time>2014-07-04T04:55:59.000Z</time>
      </trkpt>
      <trkpt lon="35.078540202230215" lat="31.7858044244349">
        <ele>583.2000122070312</ele>
        <time>2014-07-04T04:56:00.000Z</time>
      </trkpt>
      <trkpt lon="35.07855746895075" lat="31.785806100815535">
        <ele>583.2000122070312</ele>
        <time>2014-07-04T04:56:01.000Z</time>
      </trkpt>
      <trkpt lon="35.07857892662287" lat="31.785809118300676">
        <ele>583.2000122070312</ele>
        <time>2014-07-04T04:56:02.000Z</time>
      </trkpt>
      <trkpt lon="35.078630140051246" lat="31.785831917077303">
        <ele>582.7999877929688</ele>
        <time>2014-07-04T04:56:04.000Z</time>
      </trkpt>
      <trkpt lon="35.07865386083722" lat="31.785856392234564">
        <ele>582.4000244140625</ele>
        <time>2014-07-04T04:56:05.000Z</time>
      </trkpt>
      <trkpt lon="35.07868328131735" lat="31.785884723067284">
        <ele>582.0</ele>
        <time>2014-07-04T04:56:06.000Z</time>
      </trkpt>
      <trkpt lon="35.078722927719355" lat="31.785912634804845">
        <ele>581.5999755859375</ele>
        <time>2014-07-04T04:56:07.000Z</time>
      </trkpt>
      <trkpt lon="35.07876634597778" lat="31.7859407979995">
        <ele>581.2000122070312</ele>
        <time>2014-07-04T04:56:08.000Z</time>
      </trkpt>
      <trkpt lon="35.079131880775094" lat="31.78617532365024">
        <ele>585.2000122070312</ele>
        <time>2014-07-04T04:56:16.000Z</time>
      </trkpt>
      <trkpt lon="35.07953396067023" lat="31.78641672246158">
        <ele>589.2000122070312</ele>
        <time>2014-07-04T04:56:25.000Z</time>
      </trkpt>
      <trkpt lon="35.07990268059075" lat="31.786650326102972">
        <ele>594.2000122070312</ele>
        <time>2014-07-04T04:56:35.000Z</time>
      </trkpt>
      <trkpt lon="35.080104768276215" lat="31.78683497942984">
        <ele>595.0</ele>
        <time>2014-07-04T04:56:43.000Z</time>
      </trkpt>
      <trkpt lon="35.080313477665186" lat="31.78707294166088">
        <ele>594.4000244140625</ele>
        <time>2014-07-04T04:56:53.000Z</time>
      </trkpt>
      <trkpt lon="35.080545488744974" lat="31.787342252209783">
        <ele>594.5999755859375</ele>
        <time>2014-07-04T04:57:02.000Z</time>
      </trkpt>
      <trkpt lon="35.08078479208052" lat="31.78762254305184">
        <ele>596.0</ele>
        <time>2014-07-04T04:57:12.000Z</time>
      </trkpt>
      <trkpt lon="35.081070782616735" lat="31.787953795865178">
        <ele>597.5999755859375</ele>
        <time>2014-07-04T04:57:23.000Z</time>
      </trkpt>
      <trkpt lon="35.081269685178995" lat="31.788299633190036">
        <ele>597.2000122070312</ele>
        <time>2014-07-04T04:57:31.000Z</time>
      </trkpt>
      <trkpt lon="35.081523321568966" lat="31.78877178579569">
        <ele>600.4000244140625</ele>
        <time>2014-07-04T04:57:39.000Z</time>
      </trkpt>
      <trkpt lon="35.08158601820469" lat="31.788961216807365">
        <ele>600.4000244140625</ele>
        <time>2014-07-04T04:57:44.000Z</time>
      </trkpt>
      <trkpt lon="35.08161133155227" lat="31.78908610716462">
        <ele>599.4000244140625</ele>
        <time>2014-07-04T04:57:50.000Z</time>
      </trkpt>
      <trkpt lon="35.08162708953023" lat="31.789124328643084">
        <ele>599.2000122070312</ele>
        <time>2014-07-04T04:57:56.000Z</time>
      </trkpt>
      <trkpt lon="35.081639075651765" lat="31.789105720818043">
        <ele>600.0</ele>
        <time>2014-07-04T04:58:06.000Z</time>
      </trkpt>
      <trkpt lon="35.08163748309016" lat="31.789121897891164">
        <ele>599.5999755859375</ele>
        <time>2014-07-04T04:58:24.000Z</time>
      </trkpt>
      <trkpt lon="35.081625413149595" lat="31.789138577878475">
        <ele>598.7999877929688</ele>
        <time>2014-07-04T04:58:38.000Z</time>
      </trkpt>
      <trkpt lon="35.08163848891854" lat="31.78915349766612">
        <ele>599.0</ele>
        <time>2014-07-04T04:58:46.000Z</time>
      </trkpt>
      <trkpt lon="35.08166573010385" lat="31.78917839191854">
        <ele>599.4000244140625</ele>
        <time>2014-07-04T04:58:58.000Z</time>
      </trkpt>
      <trkpt lon="35.08168802596629" lat="31.789211248978972">
        <ele>599.4000244140625</ele>
        <time>2014-07-04T04:59:03.000Z</time>
      </trkpt>
      <trkpt lon="35.0817081425339" lat="31.789254331961274">
        <ele>599.2000122070312</ele>
        <time>2014-07-04T04:59:10.000Z</time>
      </trkpt>
      <trkpt lon="35.08170529268682" lat="31.789270844310522">
        <ele>598.7999877929688</ele>
        <time>2014-07-04T04:59:15.000Z</time>
      </trkpt>
      <trkpt lon="35.08171979337931" lat="31.789295487105846">
        <ele>598.7999877929688</ele>
        <time>2014-07-04T04:59:20.000Z</time>
      </trkpt>
      <trkpt lon="35.08172725327313" lat="31.78932641632855">
        <ele>598.4000244140625</ele>
        <time>2014-07-04T04:59:27.000Z</time>
      </trkpt>
      <trkpt lon="35.08177377283573" lat="31.789403362199664">
        <ele>598.2000122070312</ele>
        <time>2014-07-04T04:59:33.000Z</time>
      </trkpt>
      <trkpt lon="35.08177964016795" lat="31.78941643796861">
        <ele>598.2000122070312</ele>
        <time>2014-07-04T04:59:34.000Z</time>
      </trkpt>
      <trkpt lon="35.081856586039066" lat="31.789507381618023">
        <ele>598.7999877929688</ele>
        <time>2014-07-04T04:59:41.000Z</time>
      </trkpt>
      <trkpt lon="35.081932190805674" lat="31.789581896737218">
        <ele>599.7999877929688</ele>
        <time>2014-07-04T04:59:49.000Z</time>
      </trkpt>
      <trkpt lon="35.082008549943566" lat="31.789714163169265">
        <ele>599.5999755859375</ele>
        <time>2014-07-04T04:59:59.000Z</time>
      </trkpt>
      <trkpt lon="35.082017350941896" lat="31.789726316928864">
        <ele>599.5999755859375</ele>
        <time>2014-07-04T05:00:00.000Z</time>
      </trkpt>
      <trkpt lon="35.08210343308747" lat="31.789793372154236">
        <ele>601.0</ele>
        <time>2014-07-04T05:00:07.000Z</time>
      </trkpt>
      <trkpt lon="35.08221046999097" lat="31.789878364652395">
        <ele>602.2000122070312</ele>
        <time>2014-07-04T05:00:15.000Z</time>
      </trkpt>
      <trkpt lon="35.08228045888245" lat="31.789930667728186">
        <ele>602.4000244140625</ele>
        <time>2014-07-04T05:00:22.000Z</time>
      </trkpt>
      <trkpt lon="35.08230191655457" lat="31.78994407877326">
        <ele>602.5999755859375</ele>
        <time>2014-07-04T05:00:24.000Z</time>
      </trkpt>
      <trkpt lon="35.082414569333196" lat="31.789999064058065">
        <ele>604.0</ele>
        <time>2014-07-04T05:00:32.000Z</time>
      </trkpt>
      <trkpt lon="35.082526467740536" lat="31.790076596662402">
        <ele>604.5999755859375</ele>
        <time>2014-07-04T05:00:41.000Z</time>
      </trkpt>
      <trkpt lon="35.082621769979596" lat="31.790159745141864">
        <ele>604.4000244140625</ele>
        <time>2014-07-04T05:00:50.000Z</time>
      </trkpt>
      <trkpt lon="35.08273668587208" lat="31.790240043774247">
        <ele>605.0</ele>
        <time>2014-07-04T05:00:57.000Z</time>
      </trkpt>
      <trkpt lon="35.08283173665404" lat="31.79031933657825">
        <ele>605.0</ele>
        <time>2014-07-04T05:01:04.000Z</time>
      </trkpt>
      <trkpt lon="35.08298931643367" lat="31.790418159216642">
        <ele>605.5999755859375</ele>
        <time>2014-07-04T05:01:12.000Z</time>
      </trkpt>
      <trkpt lon="35.08309794589877" lat="31.79048404097557">
        <ele>605.4000244140625</ele>
        <time>2014-07-04T05:01:19.000Z</time>
      </trkpt>
      <trkpt lon="35.08319810964167" lat="31.790569620206952">
        <ele>604.5999755859375</ele>
        <time>2014-07-04T05:01:24.000Z</time>
      </trkpt>
      <trkpt lon="35.08332258090377" lat="31.790634244680405">
        <ele>604.5999755859375</ele>
        <time>2014-07-04T05:01:30.000Z</time>
      </trkpt>
      <trkpt lon="35.08335342630744" lat="31.790646817535162">
        <ele>604.7999877929688</ele>
        <time>2014-07-04T05:01:32.000Z</time>
      </trkpt>
      <trkpt lon="35.083511928096414" lat="31.790716387331486">
        <ele>605.4000244140625</ele>
        <time>2014-07-04T05:01:40.000Z</time>
      </trkpt>
      <trkpt lon="35.0836577732116" lat="31.79079274646938">
        <ele>605.2000122070312</ele>
        <time>2014-07-04T05:01:45.000Z</time>
      </trkpt>
      <trkpt lon="35.083802193403244" lat="31.790841780602932">
        <ele>605.7999877929688</ele>
        <time>2014-07-04T05:01:52.000Z</time>
      </trkpt>
      <trkpt lon="35.08391627110541" lat="31.790898274630308">
        <ele>605.7999877929688</ele>
        <time>2014-07-04T05:01:58.000Z</time>
      </trkpt>
      <trkpt lon="35.08394309319556" lat="31.790908752009273">
        <ele>606.0</ele>
        <time>2014-07-04T05:01:59.000Z</time>
      </trkpt>
      <trkpt lon="35.08404476568103" lat="31.790923001244664">
        <ele>606.7999877929688</ele>
        <time>2014-07-04T05:02:05.000Z</time>
      </trkpt>
      <trkpt lon="35.08417200297117" lat="31.790982009842992">
        <ele>606.4000244140625</ele>
        <time>2014-07-04T05:02:11.000Z</time>
      </trkpt>
      <trkpt lon="35.08434684947133" lat="31.79107035510242">
        <ele>605.5999755859375</ele>
        <time>2014-07-04T05:02:18.000Z</time>
      </trkpt>
      <trkpt lon="35.084578189998865" lat="31.79115534760058">
        <ele>605.5999755859375</ele>
        <time>2014-07-04T05:02:25.000Z</time>
      </trkpt>
      <trkpt lon="35.084749264642596" lat="31.791258109733462">
        <ele>604.7999877929688</ele>
        <time>2014-07-04T05:02:32.000Z</time>
      </trkpt>
      <trkpt lon="35.08492494933307" lat="31.791292391717434">
        <ele>606.0</ele>
        <time>2014-07-04T05:02:38.000Z</time>
      </trkpt>
      <trkpt lon="35.08509057573974" lat="31.791342180222273">
        <ele>606.5999755859375</ele>
        <time>2014-07-04T05:02:45.000Z</time>
      </trkpt>
      <trkpt lon="35.08522401563823" lat="31.791416443884373">
        <ele>606.2000122070312</ele>
        <time>2014-07-04T05:02:50.000Z</time>
      </trkpt>
      <trkpt lon="35.08524622768164" lat="31.791436225175858">
        <ele>606.0</ele>
        <time>2014-07-04T05:02:51.000Z</time>
      </trkpt>
      <trkpt lon="35.085353096947074" lat="31.791496155783534">
        <ele>605.5999755859375</ele>
        <time>2014-07-04T05:02:55.000Z</time>
      </trkpt>
      <trkpt lon="35.08554353378713" lat="31.79155357182026">
        <ele>605.7999877929688</ele>
        <time>2014-07-04T05:03:03.000Z</time>
      </trkpt>
      <trkpt lon="35.0856798235327" lat="31.79159665480256">
        <ele>605.4000244140625</ele>
        <time>2014-07-04T05:03:08.000Z</time>
      </trkpt>
      <trkpt lon="35.08572265505791" lat="31.791599253192544">
        <ele>605.7999877929688</ele>
        <time>2014-07-04T05:03:10.000Z</time>
      </trkpt>
      <trkpt lon="35.08590370416641" lat="31.791654573753476">
        <ele>605.4000244140625</ele>
        <time>2014-07-04T05:03:17.000Z</time>
      </trkpt>
      <trkpt lon="35.08612289093435" lat="31.79172162897885">
        <ele>604.7999877929688</ele>
        <time>2014-07-04T05:03:25.000Z</time>
      </trkpt>
      <trkpt lon="35.08641324006021" lat="31.791778961196542">
        <ele>603.4000244140625</ele>
        <time>2014-07-04T05:03:34.000Z</time>
      </trkpt>
      <trkpt lon="35.08664206601679" lat="31.791797317564487">
        <ele>602.2000122070312</ele>
        <time>2014-07-04T05:03:41.000Z</time>
      </trkpt>
      <trkpt lon="35.0868418905884" lat="31.791799580678344">
        <ele>601.7999877929688</ele>
        <time>2014-07-04T05:03:48.000Z</time>
      </trkpt>
      <trkpt lon="35.08689268492162" lat="31.791810058057308">
        <ele>601.2000122070312</ele>
        <time>2014-07-04T05:03:51.000Z</time>
      </trkpt>
      <trkpt lon="35.086937779560685" lat="31.791799496859312">
        <ele>601.5999755859375</ele>
        <time>2014-07-04T05:03:55.000Z</time>
      </trkpt>
      <trkpt lon="35.08678548038006" lat="31.791767477989197">
        <ele>603.2000122070312</ele>
        <time>2014-07-04T05:04:02.000Z</time>
      </trkpt>
      <trkpt lon="35.08669906295836" lat="31.79174761287868">
        <ele>604.2000122070312</ele>
        <time>2014-07-04T05:04:05.000Z</time>
      </trkpt>
      <trkpt lon="35.08649295195937" lat="31.79165868088603">
        <ele>608.2000122070312</ele>
        <time>2014-07-04T05:04:14.000Z</time>
      </trkpt>
      <trkpt lon="35.08636286482215" lat="31.791592380031943">
        <ele>611.0</ele>
        <time>2014-07-04T05:04:22.000Z</time>
      </trkpt>
      <trkpt lon="35.0861996691674" lat="31.791526079177856">
        <ele>613.2000122070312</ele>
        <time>2014-07-04T05:04:30.000Z</time>
      </trkpt>
      <trkpt lon="35.08603731170297" lat="31.79147687740624">
        <ele>613.2000122070312</ele>
        <time>2014-07-04T05:04:37.000Z</time>
      </trkpt>
      <trkpt lon="35.0858785584569" lat="31.791420970112085">
        <ele>613.5999755859375</ele>
        <time>2014-07-04T05:04:43.000Z</time>
      </trkpt>
      <trkpt lon="35.085759200155735" lat="31.79134000092745">
        <ele>615.2000122070312</ele>
        <time>2014-07-04T05:04:49.000Z</time>
      </trkpt>
      <trkpt lon="35.0856814160943" lat="31.791251990944147">
        <ele>617.4000244140625</ele>
        <time>2014-07-04T05:04:55.000Z</time>
      </trkpt>
      <trkpt lon="35.08560103364289" lat="31.791185941547155">
        <ele>618.7999877929688</ele>
        <time>2014-07-04T05:05:01.000Z</time>
      </trkpt>
      <trkpt lon="35.08550824597478" lat="31.791078401729465">
        <ele>621.5999755859375</ele>
        <time>2014-07-04T05:05:09.000Z</time>
      </trkpt>
      <trkpt lon="35.085403975099325" lat="31.791003299877048">
        <ele>622.7999877929688</ele>
        <time>2014-07-04T05:05:17.000Z</time>
      </trkpt>
      <trkpt lon="35.08528830483556" lat="31.79094764403999">
        <ele>622.7999877929688</ele>
        <time>2014-07-04T05:05:24.000Z</time>
      </trkpt>
      <trkpt lon="35.08516249246895" lat="31.790878158062696">
        <ele>623.0</ele>
        <time>2014-07-04T05:05:32.000Z</time>
      </trkpt>
      <trkpt lon="35.085024274885654" lat="31.790777323767543">
        <ele>624.0</ele>
        <time>2014-07-04T05:05:41.000Z</time>
      </trkpt>
      <trkpt lon="35.08487650193274" lat="31.79068093188107">
        <ele>625.0</ele>
        <time>2014-07-04T05:05:50.000Z</time>
      </trkpt>
      <trkpt lon="35.08477868512273" lat="31.790631478652358">
        <ele>625.2000122070312</ele>
        <time>2014-07-04T05:05:57.000Z</time>
      </trkpt>
      <trkpt lon="35.084782037884" lat="31.790611362084746">
        <ele>626.0</ele>
        <time>2014-07-04T05:06:00.000Z</time>
      </trkpt>
      <trkpt lon="35.08486736565828" lat="31.790610691532493">
        <ele>627.5999755859375</ele>
        <time>2014-07-04T05:06:05.000Z</time>
      </trkpt>
      <trkpt lon="35.084901228547096" lat="31.790618570521474">
        <ele>627.7999877929688</ele>
        <time>2014-07-04T05:06:07.000Z</time>
      </trkpt>
      <trkpt lon="35.08508705534041" lat="31.790621923282743">
        <ele>630.7999877929688</ele>
        <time>2014-07-04T05:06:16.000Z</time>
      </trkpt>
      <trkpt lon="35.08520188741386" lat="31.790664670988917">
        <ele>631.0</ele>
        <time>2014-07-04T05:06:22.000Z</time>
      </trkpt>
      <trkpt lon="35.08532736450434" lat="31.790717393159866">
        <ele>631.2000122070312</ele>
        <time>2014-07-04T05:06:28.000Z</time>
      </trkpt>
      <trkpt lon="35.0854760594666" lat="31.79072636179626">
        <ele>633.4000244140625</ele>
        <time>2014-07-04T05:06:37.000Z</time>
      </trkpt>
      <trkpt lon="35.085646882653236" lat="31.79077866487205">
        <ele>634.2000122070312</ele>
        <time>2014-07-04T05:06:44.000Z</time>
      </trkpt>
      <trkpt lon="35.08578727953136" lat="31.790827866643667">
        <ele>634.5999755859375</ele>
        <time>2014-07-04T05:06:50.000Z</time>
      </trkpt>
      <trkpt lon="35.085807060822845" lat="31.790831554681063">
        <ele>634.7999877929688</ele>
        <time>2014-07-04T05:06:51.000Z</time>
      </trkpt>
      <trkpt lon="35.085939494892955" lat="31.790889808908105">
        <ele>634.7999877929688</ele>
        <time>2014-07-04T05:06:56.000Z</time>
      </trkpt>
      <trkpt lon="35.086093889549375" lat="31.79091445170343">
        <ele>636.5999755859375</ele>
        <time>2014-07-04T05:07:03.000Z</time>
      </trkpt>
      <trkpt lon="35.08617326617241" lat="31.790931802242994">
        <ele>637.2000122070312</ele>
        <time>2014-07-04T05:07:07.000Z</time>
      </trkpt>
      <trkpt lon="35.08626471273601" lat="31.790947392582893">
        <ele>638.2000122070312</ele>
        <time>2014-07-04T05:07:13.000Z</time>
      </trkpt>
      <trkpt lon="35.086435452103615" lat="31.79099273867905">
        <ele>636.2000122070312</ele>
        <time>2014-07-04T05:07:24.000Z</time>
      </trkpt>
      <trkpt lon="35.08656436577439" lat="31.791052501648664">
        <ele>633.4000244140625</ele>
        <time>2014-07-04T05:07:31.000Z</time>
      </trkpt>
      <trkpt lon="35.08670451119542" lat="31.791132632642984">
        <ele>630.0</ele>
        <time>2014-07-04T05:07:37.000Z</time>
      </trkpt>
      <trkpt lon="35.08682956919074" lat="31.791175715625286">
        <ele>628.2000122070312</ele>
        <time>2014-07-04T05:07:44.000Z</time>
      </trkpt>
      <trkpt lon="35.08688220754266" lat="31.79119306616485">
        <ele>627.5999755859375</ele>
        <time>2014-07-04T05:07:47.000Z</time>
      </trkpt>
      <trkpt lon="35.08694306015968" lat="31.79119599983096">
        <ele>627.4000244140625</ele>
        <time>2014-07-04T05:07:50.000Z</time>
      </trkpt>
      <trkpt lon="35.08698404766619" lat="31.791204633191228">
        <ele>627.2000122070312</ele>
        <time>2014-07-04T05:07:52.000Z</time>
      </trkpt>
      <trkpt lon="35.08716861717403" lat="31.791193736717105">
        <ele>627.2000122070312</ele>
        <time>2014-07-04T05:08:01.000Z</time>
      </trkpt>
      <trkpt lon="35.08732778951526" lat="31.791179152205586">
        <ele>626.4000244140625</ele>
        <time>2014-07-04T05:08:10.000Z</time>
      </trkpt>
      <trkpt lon="35.08749609813094" lat="31.79117395542562">
        <ele>625.2000122070312</ele>
        <time>2014-07-04T05:08:18.000Z</time>
      </trkpt>
      <trkpt lon="35.087620317935944" lat="31.791093992069364">
        <ele>627.5999755859375</ele>
        <time>2014-07-04T05:08:24.000Z</time>
      </trkpt>
      <trkpt lon="35.087746884673834" lat="31.79102350026369">
        <ele>629.4000244140625</ele>
        <time>2014-07-04T05:08:32.000Z</time>
      </trkpt>
      <trkpt lon="35.08801409974694" lat="31.79099324159324">
        <ele>629.7999877929688</ele>
        <time>2014-07-04T05:08:37.000Z</time>
      </trkpt>
      <trkpt lon="35.08823378942907" lat="31.79095854051411">
        <ele>633.5999755859375</ele>
        <time>2014-07-04T05:08:40.000Z</time>
      </trkpt>
      <trkpt lon="35.088525814935565" lat="31.790906824171543">
        <ele>638.5999755859375</ele>
        <time>2014-07-04T05:08:44.000Z</time>
      </trkpt>
      <trkpt lon="35.08859203197062" lat="31.790906824171543">
        <ele>639.2000122070312</ele>
        <time>2014-07-04T05:08:45.000Z</time>
      </trkpt>
      <trkpt lon="35.08865053765476" lat="31.79092182777822">
        <ele>639.2000122070312</ele>
        <time>2014-07-04T05:08:46.000Z</time>
      </trkpt>
      <trkpt lon="35.088709043338895" lat="31.79094764403999">
        <ele>638.5999755859375</ele>
        <time>2014-07-04T05:08:47.000Z</time>
      </trkpt>
      <trkpt lon="35.088771153241396" lat="31.79098142310977">
        <ele>638.0</ele>
        <time>2014-07-04T05:08:48.000Z</time>
      </trkpt>
      <trkpt lon="35.08883552625775" lat="31.791020734235644">
        <ele>637.4000244140625</ele>
        <time>2014-07-04T05:08:49.000Z</time>
      </trkpt>
      <trkpt lon="35.08889822289348" lat="31.791066667065024">
        <ele>636.5999755859375</ele>
        <time>2014-07-04T05:08:50.000Z</time>
      </trkpt>
      <trkpt lon="35.08895991370082" lat="31.79111427627504">
        <ele>635.7999877929688</ele>
        <time>2014-07-04T05:08:51.000Z</time>
      </trkpt>
      <trkpt lon="35.089097460731864" lat="31.79120471701026">
        <ele>634.4000244140625</ele>
        <time>2014-07-04T05:08:53.000Z</time>
      </trkpt>
      <trkpt lon="35.0891699641943" lat="31.791238831356168">
        <ele>634.2000122070312</ele>
        <time>2014-07-04T05:08:54.000Z</time>
      </trkpt>
      <trkpt lon="35.089401975274086" lat="31.79132583551109">
        <ele>635.0</ele>
        <time>2014-07-04T05:08:58.000Z</time>
      </trkpt>
      <trkpt lon="35.08944891393185" lat="31.79134930483997">
        <ele>634.7999877929688</ele>
        <time>2014-07-04T05:08:59.000Z</time>
      </trkpt>
      <trkpt lon="35.089640356600285" lat="31.79144276306033">
        <ele>634.4000244140625</ele>
        <time>2014-07-04T05:09:05.000Z</time>
      </trkpt>
      <trkpt lon="35.08976139128208" lat="31.791471680626273">
        <ele>634.4000244140625</ele>
        <time>2014-07-04T05:09:12.000Z</time>
      </trkpt>
      <trkpt lon="35.089909080415964" lat="31.79151493124664">
        <ele>634.2000122070312</ele>
        <time>2014-07-04T05:09:21.000Z</time>
      </trkpt>
      <trkpt lon="35.0899781472981" lat="31.79151107557118">
        <ele>635.2000122070312</ele>
        <time>2014-07-04T05:09:25.000Z</time>
      </trkpt>
      <trkpt lon="35.08999097160995" lat="31.791513757780194">
        <ele>635.2000122070312</ele>
        <time>2014-07-04T05:09:26.000Z</time>
      </trkpt>
      <trkpt lon="35.09000463411212" lat="31.791521133854985">
        <ele>635.2000122070312</ele>
        <time>2014-07-04T05:09:27.000Z</time>
      </trkpt>
      <trkpt lon="35.09007596410811" lat="31.791552063077688">
        <ele>634.5999755859375</ele>
        <time>2014-07-04T05:09:31.000Z</time>
      </trkpt>
      <trkpt lon="35.090212086215615" lat="31.79163135588169">
        <ele>632.7999877929688</ele>
        <time>2014-07-04T05:09:36.000Z</time>
      </trkpt>
      <trkpt lon="35.09039958938956" lat="31.791720455512404">
        <ele>631.4000244140625</ele>
        <time>2014-07-04T05:09:42.000Z</time>
      </trkpt>
      <trkpt lon="35.09054099209607" lat="31.791721377521753">
        <ele>632.4000244140625</ele>
        <time>2014-07-04T05:09:49.000Z</time>
      </trkpt>
      <trkpt lon="35.090664541348815" lat="31.791751636192203">
        <ele>631.7999877929688</ele>
        <time>2014-07-04T05:09:55.000Z</time>
      </trkpt>
      <trkpt lon="35.090831676498055" lat="31.791770663112402">
        <ele>631.2000122070312</ele>
        <time>2014-07-04T05:10:03.000Z</time>
      </trkpt>
      <trkpt lon="35.09088607504964" lat="31.79176429286599">
        <ele>631.5999755859375</ele>
        <time>2014-07-04T05:10:06.000Z</time>
      </trkpt>
      <trkpt lon="35.09104499593377" lat="31.791764879599214">
        <ele>631.5999755859375</ele>
        <time>2014-07-04T05:10:14.000Z</time>
      </trkpt>
      <trkpt lon="35.09118522517383" lat="31.79182682186365">
        <ele>629.5999755859375</ele>
        <time>2014-07-04T05:10:20.000Z</time>
      </trkpt>
      <trkpt lon="35.091283628717065" lat="31.791834281757474">
        <ele>629.4000244140625</ele>
        <time>2014-07-04T05:10:24.000Z</time>
      </trkpt>
      <trkpt lon="35.091453697532415" lat="31.79186437278986">
        <ele>627.7999877929688</ele>
        <time>2014-07-04T05:10:30.000Z</time>
      </trkpt>
      <trkpt lon="35.09149946272373" lat="31.791872419416904">
        <ele>627.4000244140625</ele>
        <time>2014-07-04T05:10:31.000Z</time>
      </trkpt>
      <trkpt lon="35.09180020540953" lat="31.791961770504713">
        <ele>622.0</ele>
        <time>2014-07-04T05:10:38.000Z</time>
      </trkpt>
      <trkpt lon="35.09199961088598" lat="31.791936540976167">
        <ele>620.0</ele>
        <time>2014-07-04T05:10:44.000Z</time>
      </trkpt>
      <trkpt lon="35.09213539771736" lat="31.79196545854211">
        <ele>617.4000244140625</ele>
        <time>2014-07-04T05:10:48.000Z</time>
      </trkpt>
      <trkpt lon="35.09235802106559" lat="31.79196797311306">
        <ele>614.2000122070312</ele>
        <time>2014-07-04T05:10:54.000Z</time>
      </trkpt>
      <trkpt lon="35.09244292974472" lat="31.79190795868635">
        <ele>614.5999755859375</ele>
        <time>2014-07-04T05:10:58.000Z</time>
      </trkpt>
      <trkpt lon="35.092486096546054" lat="31.791846184059978">
        <ele>614.2000122070312</ele>
        <time>2014-07-04T05:11:02.000Z</time>
      </trkpt>
      <trkpt lon="35.09267309680581" lat="31.7917621973902">
        <ele>609.4000244140625</ele>
        <time>2014-07-04T05:11:10.000Z</time>
      </trkpt>
      <trkpt lon="35.09276445955038" lat="31.791726825758815">
        <ele>607.2000122070312</ele>
        <time>2014-07-04T05:11:14.000Z</time>
      </trkpt>
      <trkpt lon="35.09281039237976" lat="31.791595900431275">
        <ele>607.2000122070312</ele>
        <time>2014-07-04T05:11:21.000Z</time>
      </trkpt>
      <trkpt lon="35.09282162413001" lat="31.791477128863335">
        <ele>608.7999877929688</ele>
        <time>2014-07-04T05:11:28.000Z</time>
      </trkpt>
      <trkpt lon="35.09282698854804" lat="31.791346119716763">
        <ele>610.5999755859375</ele>
        <time>2014-07-04T05:11:36.000Z</time>
      </trkpt>
      <trkpt lon="35.09282103739679" lat="31.791203962638974">
        <ele>612.5999755859375</ele>
        <time>2014-07-04T05:11:45.000Z</time>
      </trkpt>
      <trkpt lon="35.09283419698477" lat="31.791067756712437">
        <ele>614.0</ele>
        <time>2014-07-04T05:11:54.000Z</time>
      </trkpt>
      <trkpt lon="35.09286319836974" lat="31.790941273793578">
        <ele>614.5999755859375</ele>
        <time>2014-07-04T05:12:00.000Z</time>
      </trkpt>
      <trkpt lon="35.092895636335015" lat="31.790783358737826">
        <ele>615.4000244140625</ele>
        <time>2014-07-04T05:12:06.000Z</time>
      </trkpt>
      <trkpt lon="35.092907370999455" lat="31.79062611423433">
        <ele>617.4000244140625</ele>
        <time>2014-07-04T05:12:13.000Z</time>
      </trkpt>
      <trkpt lon="35.09299705736339" lat="31.790511701256037">
        <ele>616.0</ele>
        <time>2014-07-04T05:12:19.000Z</time>
      </trkpt>
      <trkpt lon="35.09298632852733" lat="31.79044682532549">
        <ele>617.4000244140625</ele>
        <time>2014-07-04T05:12:24.000Z</time>
      </trkpt>
      <trkpt lon="35.093000158667564" lat="31.79042922332883">
        <ele>617.2000122070312</ele>
        <time>2014-07-04T05:12:40.000Z</time>
      </trkpt>
      <trkpt lon="35.09300979785621" lat="31.79042444564402">
        <ele>617.0</ele>
        <time>2014-07-04T05:12:51.000Z</time>
      </trkpt>
      <trkpt lon="35.09302144870162" lat="31.790402317419648">
        <ele>616.7999877929688</ele>
        <time>2014-07-04T05:12:54.000Z</time>
      </trkpt>
      <trkpt lon="35.09303821250796" lat="31.790266782045364">
        <ele>618.4000244140625</ele>
        <time>2014-07-04T05:13:03.000Z</time>
      </trkpt>
      <trkpt lon="35.093044163659215" lat="31.790181789547205">
        <ele>619.5999755859375</ele>
        <time>2014-07-04T05:13:08.000Z</time>
      </trkpt>
      <trkpt lon="35.09308833628893" lat="31.79004759527743">
        <ele>620.2000122070312</ele>
        <time>2014-07-04T05:13:15.000Z</time>
      </trkpt>
      <trkpt lon="35.09314273484051" lat="31.78993427194655">
        <ele>619.5999755859375</ele>
        <time>2014-07-04T05:13:22.000Z</time>
      </trkpt>
      <trkpt lon="35.09318271651864" lat="31.789833353832364">
        <ele>619.4000244140625</ele>
        <time>2014-07-04T05:13:29.000Z</time>
      </trkpt>
      <trkpt lon="35.09318749420345" lat="31.78970267996192">
        <ele>621.4000244140625</ele>
        <time>2014-07-04T05:13:39.000Z</time>
      </trkpt>
      <trkpt lon="35.09319059550762" lat="31.789643168449402">
        <ele>622.2000122070312</ele>
        <time>2014-07-04T05:13:47.000Z</time>
      </trkpt>
      <trkpt lon="35.09319151751697" lat="31.789597906172276">
        <ele>622.7999877929688</ele>
        <time>2014-07-04T05:13:54.000Z</time>
      </trkpt>
      <trkpt lon="35.0931606721133" lat="31.78951752372086">
        <ele>625.2000122070312</ele>
        <time>2014-07-04T05:14:06.000Z</time>
      </trkpt>
      <trkpt lon="35.09314566850662" lat="31.789484079927206">
        <ele>626.2000122070312</ele>
        <time>2014-07-04T05:14:13.000Z</time>
      </trkpt>
      <trkpt lon="35.093155642971396" lat="31.7893807310611">
        <ele>627.5999755859375</ele>
        <time>2014-07-04T05:14:21.000Z</time>
      </trkpt>
      <trkpt lon="35.09316008538008" lat="31.78920186124742">
        <ele>630.2000122070312</ele>
        <time>2014-07-04T05:14:30.000Z</time>
      </trkpt>
      <trkpt lon="35.0931815430522" lat="31.789080407470465">
        <ele>631.2000122070312</ele>
        <time>2014-07-04T05:14:37.000Z</time>
      </trkpt>
      <trkpt lon="35.09331808425486" lat="31.78877044469118">
        <ele>630.4000244140625</ele>
        <time>2014-07-04T05:14:49.000Z</time>
      </trkpt>
      <trkpt lon="35.09344364516437" lat="31.78850465454161">
        <ele>629.2000122070312</ele>
        <time>2014-07-04T05:14:57.000Z</time>
      </trkpt>
      <trkpt lon="35.09367565624416" lat="31.788148256018758">
        <ele>625.2000122070312</ele>
        <time>2014-07-04T05:15:07.000Z</time>
      </trkpt>
      <trkpt lon="35.09386961348355" lat="31.78782496601343">
        <ele>624.5999755859375</ele>
        <time>2014-07-04T05:15:15.000Z</time>
      </trkpt>
      <trkpt lon="35.09393859654665" lat="31.78766269236803">
        <ele>625.5999755859375</ele>
        <time>2014-07-04T05:15:19.000Z</time>
      </trkpt>
      <trkpt lon="35.093943793326616" lat="31.787394639104605">
        <ele>631.4000244140625</ele>
        <time>2014-07-04T05:15:26.000Z</time>
      </trkpt>
      <trkpt lon="35.09388813748956" lat="31.787236807867885">
        <ele>637.4000244140625</ele>
        <time>2014-07-04T05:15:32.000Z</time>
      </trkpt>
      <trkpt lon="35.09387942031026" lat="31.787174781784415">
        <ele>639.4000244140625</ele>
        <time>2014-07-04T05:15:39.000Z</time>
      </trkpt>
      <trkpt lon="35.09388729929924" lat="31.78716371767223">
        <ele>639.5999755859375</ele>
        <time>2014-07-04T05:15:40.000Z</time>
      </trkpt>
      <trkpt lon="35.09400120936334" lat="31.78709976375103">
        <ele>639.5999755859375</ele>
        <time>2014-07-04T05:15:47.000Z</time>
      </trkpt>
      <trkpt lon="35.09401294402778" lat="31.787089789286256">
        <ele>639.5999755859375</ele>
        <time>2014-07-04T05:15:48.000Z</time>
      </trkpt>
      <trkpt lon="35.09402518160641" lat="31.78708015009761">
        <ele>639.7999877929688</ele>
        <time>2014-07-04T05:15:49.000Z</time>
      </trkpt>
      <trkpt lon="35.0940396822989" lat="31.787075959146023">
        <ele>639.5999755859375</ele>
        <time>2014-07-04T05:15:50.000Z</time>
      </trkpt>
      <trkpt lon="35.094057619571686" lat="31.787071265280247">
        <ele>639.4000244140625</ele>
        <time>2014-07-04T05:15:51.000Z</time>
      </trkpt>
      <trkpt lon="35.09407631121576" lat="31.787066822871566">
        <ele>639.2000122070312</ele>
        <time>2014-07-04T05:15:52.000Z</time>
      </trkpt>
      <trkpt lon="35.09409399703145" lat="31.78706062026322">
        <ele>639.0</ele>
        <time>2014-07-04T05:15:53.000Z</time>
      </trkpt>
      <trkpt lon="35.09411168284714" lat="31.787052154541016">
        <ele>639.0</ele>
        <time>2014-07-04T05:15:54.000Z</time>
      </trkpt>
      <trkpt lon="35.09427370503545" lat="31.787017872557044">
        <ele>637.5999755859375</ele>
        <time>2014-07-04T05:16:02.000Z</time>
      </trkpt>
      <trkpt lon="35.094442097470164" lat="31.78701091557741">
        <ele>636.2000122070312</ele>
        <time>2014-07-04T05:16:10.000Z</time>
      </trkpt>
      <trkpt lon="35.094573022797704" lat="31.78696447983384">
        <ele>636.7999877929688</ele>
        <time>2014-07-04T05:16:18.000Z</time>
      </trkpt>
      <trkpt lon="35.09472733363509" lat="31.786925923079252">
        <ele>636.7999877929688</ele>
        <time>2014-07-04T05:16:27.000Z</time>
      </trkpt>
      <trkpt lon="35.09483856149018" lat="31.786898346617818">
        <ele>636.7999877929688</ele>
        <time>2014-07-04T05:16:35.000Z</time>
      </trkpt>
      <trkpt lon="35.09486177936196" lat="31.786894155666232">
        <ele>636.7999877929688</ele>
        <time>2014-07-04T05:16:44.000Z</time>
      </trkpt>
      <trkpt lon="35.0948737654835" lat="31.786894407123327">
        <ele>636.5999755859375</ele>
        <time>2014-07-04T05:17:01.000Z</time>
      </trkpt>
      <trkpt lon="35.09488323703408" lat="31.786900777369738">
        <ele>636.2000122070312</ele>
        <time>2014-07-04T05:17:17.000Z</time>
      </trkpt>
      <trkpt lon="35.09487971663475" lat="31.786911757662892">
        <ele>635.7999877929688</ele>
        <time>2014-07-04T05:17:38.000Z</time>
      </trkpt>
      <trkpt lon="35.09486781433225" lat="31.786908823996782">
        <ele>636.2000122070312</ele>
        <time>2014-07-04T05:17:55.000Z</time>
      </trkpt>
      <trkpt lon="35.094941072165966" lat="31.786892814561725">
        <ele>636.0</ele>
        <time>2014-07-04T05:18:01.000Z</time>
      </trkpt>
      <trkpt lon="35.09507811628282" lat="31.78686272352934">
        <ele>636.2000122070312</ele>
        <time>2014-07-04T05:18:09.000Z</time>
      </trkpt>
      <trkpt lon="35.095239048823714" lat="31.786832381039858">
        <ele>636.0</ele>
        <time>2014-07-04T05:18:17.000Z</time>
      </trkpt>
      <trkpt lon="35.09545840322971" lat="31.786778485402465">
        <ele>636.4000244140625</ele>
        <time>2014-07-04T05:18:27.000Z</time>
      </trkpt>
      <trkpt lon="35.09564934298396" lat="31.78676155395806">
        <ele>635.7999877929688</ele>
        <time>2014-07-04T05:18:32.000Z</time>
      </trkpt>
      <trkpt lon="35.095881605520844" lat="31.786676812916994">
        <ele>635.5999755859375</ele>
        <time>2014-07-04T05:18:39.000Z</time>
      </trkpt>
      <trkpt lon="35.09613390080631" lat="31.7865970171988">
        <ele>635.0</ele>
        <time>2014-07-04T05:18:48.000Z</time>
      </trkpt>
      <trkpt lon="35.09641209617257" lat="31.786518059670925">
        <ele>638.0</ele>
        <time>2014-07-04T05:18:56.000Z</time>
      </trkpt>
      <trkpt lon="35.09660697542131" lat="31.78644019179046">
        <ele>643.4000244140625</ele>
        <time>2014-07-04T05:19:03.000Z</time>
      </trkpt>
      <trkpt lon="35.096814930438995" lat="31.786416303366423">
        <ele>647.0</ele>
        <time>2014-07-04T05:19:09.000Z</time>
      </trkpt>
      <trkpt lon="35.097013749182224" lat="31.786529794335365">
        <ele>645.5999755859375</ele>
        <time>2014-07-04T05:19:15.000Z</time>
      </trkpt>
      <trkpt lon="35.097240479663014" lat="31.786689218133688">
        <ele>645.0</ele>
        <time>2014-07-04T05:19:22.000Z</time>
      </trkpt>
      <trkpt lon="35.09733410552144" lat="31.786768594756722">
        <ele>644.7999877929688</ele>
        <time>2014-07-04T05:19:25.000Z</time>
      </trkpt>
      <trkpt lon="35.097439382225275" lat="31.78694486618042">
        <ele>641.4000244140625</ele>
        <time>2014-07-04T05:19:29.000Z</time>
      </trkpt>
      <trkpt lon="35.097558069974184" lat="31.78707143291831">
        <ele>640.4000244140625</ele>
        <time>2014-07-04T05:19:32.000Z</time>
      </trkpt>
      <trkpt lon="35.09770751930773" lat="31.787260193377733">
        <ele>637.7999877929688</ele>
        <time>2014-07-04T05:19:37.000Z</time>
      </trkpt>
      <trkpt lon="35.0978353433311" lat="31.787374103441834">
        <ele>637.4000244140625</ele>
        <time>2014-07-04T05:19:41.000Z</time>
      </trkpt>
      <trkpt lon="35.09804354980588" lat="31.787562360987067">
        <ele>635.2000122070312</ele>
        <time>2014-07-04T05:19:47.000Z</time>
      </trkpt>
      <trkpt lon="35.09824136272073" lat="31.787698483094573">
        <ele>633.4000244140625</ele>
        <time>2014-07-04T05:19:53.000Z</time>
      </trkpt>
      <trkpt lon="35.098377568647265" lat="31.78784885443747">
        <ele>630.2000122070312</ele>
        <time>2014-07-04T05:19:57.000Z</time>
      </trkpt>
      <trkpt lon="35.098498687148094" lat="31.787967709824443">
        <ele>627.7999877929688</ele>
        <time>2014-07-04T05:20:00.000Z</time>
      </trkpt>
      <trkpt lon="35.09882784448564" lat="31.788216568529606">
        <ele>623.4000244140625</ele>
        <time>2014-07-04T05:20:08.000Z</time>
      </trkpt>
      <trkpt lon="35.09887235239148" lat="31.788245821371675">
        <ele>622.4000244140625</ele>
        <time>2014-07-04T05:20:09.000Z</time>
      </trkpt>
      <trkpt lon="35.09897352196276" lat="31.788299214094877">
        <ele>620.5999755859375</ele>
        <time>2014-07-04T05:20:11.000Z</time>
      </trkpt>
      <trkpt lon="35.099348444491625" lat="31.788405496627092">
        <ele>618.2000122070312</ele>
        <time>2014-07-04T05:20:18.000Z</time>
      </trkpt>
      <trkpt lon="35.09988530538976" lat="31.788528375327587">
        <ele>616.7999877929688</ele>
        <time>2014-07-04T05:20:27.000Z</time>
      </trkpt>
      <trkpt lon="35.100264167413116" lat="31.78859098814428">
        <ele>615.5999755859375</ele>
        <time>2014-07-04T05:20:32.000Z</time>
      </trkpt>
      <trkpt lon="35.10083958506584" lat="31.788630802184343">
        <ele>626.7999877929688</ele>
        <time>2014-07-04T05:20:40.000Z</time>
      </trkpt>
      <trkpt lon="35.101101687178016" lat="31.78866533562541">
        <ele>629.4000244140625</ele>
        <time>2014-07-04T05:20:46.000Z</time>
      </trkpt>
      <trkpt lon="35.10118483565748" lat="31.788671873509884">
        <ele>630.4000244140625</ele>
        <time>2014-07-04T05:20:51.000Z</time>
      </trkpt>
      <trkpt lon="35.10124401189387" lat="31.78874940611422">
        <ele>629.2000122070312</ele>
        <time>2014-07-04T05:20:58.000Z</time>
      </trkpt>
      <trkpt lon="35.101323472335935" lat="31.788805816322565">
        <ele>630.0</ele>
        <time>2014-07-04T05:21:03.000Z</time>
      </trkpt>
      <trkpt lon="35.101393880322576" lat="31.788933891803026">
        <ele>629.0</ele>
        <time>2014-07-04T05:21:13.000Z</time>
      </trkpt>
      <trkpt lon="35.101457331329584" lat="31.78911251015961">
        <ele>626.2000122070312</ele>
        <time>2014-07-04T05:21:20.000Z</time>
      </trkpt>
      <trkpt lon="35.101501336321235" lat="31.78919356316328">
        <ele>625.2000122070312</ele>
        <time>2014-07-04T05:21:22.000Z</time>
      </trkpt>
      <trkpt lon="35.10154793970287" lat="31.789378970861435">
        <ele>621.2000122070312</ele>
        <time>2014-07-04T05:21:28.000Z</time>
      </trkpt>
      <trkpt lon="35.10156654752791" lat="31.7895361315459">
        <ele>617.5999755859375</ele>
        <time>2014-07-04T05:21:35.000Z</time>
      </trkpt>
      <trkpt lon="35.10157844983041" lat="31.789575275033712">
        <ele>616.7999877929688</ele>
        <time>2014-07-04T05:21:40.000Z</time>
      </trkpt>
      <trkpt lon="35.10157744400203" lat="31.78959807381034">
        <ele>616.2000122070312</ele>
        <time>2014-07-04T05:21:55.000Z</time>
      </trkpt>
      <trkpt lon="35.101640056818724" lat="31.789762442931533">
        <ele>613.4000244140625</ele>
        <time>2014-07-04T05:22:02.000Z</time>
      </trkpt>
      <trkpt lon="35.101774921640754" lat="31.789937121793628">
        <ele>612.4000244140625</ele>
        <time>2014-07-04T05:22:08.000Z</time>
      </trkpt>
      <trkpt lon="35.101870307698846" lat="31.790139209479094">
        <ele>608.7999877929688</ele>
        <time>2014-07-04T05:22:14.000Z</time>
      </trkpt>
      <trkpt lon="35.101891765370965" lat="31.790187573060393">
        <ele>607.7999877929688</ele>
        <time>2014-07-04T05:22:15.000Z</time>
      </trkpt>
      <trkpt lon="35.10215495713055" lat="31.790477922186255">
        <ele>605.2000122070312</ele>
        <time>2014-07-04T05:22:22.000Z</time>
      </trkpt>
      <trkpt lon="35.102441953495145" lat="31.790825435891747">
        <ele>597.4000244140625</ele>
        <time>2014-07-04T05:22:30.000Z</time>
      </trkpt>
      <trkpt lon="35.10253650136292" lat="31.790915206074715">
        <ele>595.7999877929688</ele>
        <time>2014-07-04T05:22:32.000Z</time>
      </trkpt>
      <trkpt lon="35.10277412831783" lat="31.791077814996243">
        <ele>593.4000244140625</ele>
        <time>2014-07-04T05:22:36.000Z</time>
      </trkpt>
      <trkpt lon="35.103071769699454" lat="31.791158616542816">
        <ele>591.7999877929688</ele>
        <time>2014-07-04T05:22:40.000Z</time>
      </trkpt>
      <trkpt lon="35.10314687155187" lat="31.791160041466355">
        <ele>591.4000244140625</ele>
        <time>2014-07-04T05:22:41.000Z</time>
      </trkpt>
      <trkpt lon="35.10374198667705" lat="31.79109533317387">
        <ele>587.2000122070312</ele>
        <time>2014-07-04T05:22:50.000Z</time>
      </trkpt>
      <trkpt lon="35.10406343266368" lat="31.79095610976219">
        <ele>587.0</ele>
        <time>2014-07-04T05:22:58.000Z</time>
      </trkpt>
      <trkpt lon="35.10430960915983" lat="31.79079274646938">
        <ele>586.2000122070312</ele>
        <time>2014-07-04T05:23:06.000Z</time>
      </trkpt>
      <trkpt lon="35.10443173348904" lat="31.790725188329816">
        <ele>585.4000244140625</ele>
        <time>2014-07-04T05:23:09.000Z</time>
      </trkpt>
      <trkpt lon="35.10473624803126" lat="31.790525782853365">
        <ele>591.4000244140625</ele>
        <time>2014-07-04T05:23:16.000Z</time>
      </trkpt>
      <trkpt lon="35.105015030130744" lat="31.790297962725163">
        <ele>603.4000244140625</ele>
        <time>2014-07-04T05:23:24.000Z</time>
      </trkpt>
      <trkpt lon="35.10509641841054" lat="31.790205342695117">
        <ele>604.7999877929688</ele>
        <time>2014-07-04T05:23:30.000Z</time>
      </trkpt>
      <trkpt lon="35.10501251555979" lat="31.790202744305134">
        <ele>604.7999877929688</ele>
        <time>2014-07-04T05:23:35.000Z</time>
      </trkpt>
      <trkpt lon="35.104831382632256" lat="31.790346829220653">
        <ele>598.5999755859375</ele>
        <time>2014-07-04T05:23:43.000Z</time>
      </trkpt>
      <trkpt lon="35.1046494115144" lat="31.79048052057624">
        <ele>591.2000122070312</ele>
        <time>2014-07-04T05:23:50.000Z</time>
      </trkpt>
      <trkpt lon="35.10441983118653" lat="31.790627790614963">
        <ele>588.7999877929688</ele>
        <time>2014-07-04T05:23:57.000Z</time>
      </trkpt>
      <trkpt lon="35.104183964431286" lat="31.790712028741837">
        <ele>589.5999755859375</ele>
        <time>2014-07-04T05:24:04.000Z</time>
      </trkpt>
      <trkpt lon="35.10404356755316" lat="31.790791573002934">
        <ele>590.4000244140625</ele>
        <time>2014-07-04T05:24:10.000Z</time>
      </trkpt>
      <trkpt lon="35.10379915125668" lat="31.790930712595582">
        <ele>590.5999755859375</ele>
        <time>2014-07-04T05:24:18.000Z</time>
      </trkpt>
      <trkpt lon="35.103529589250684" lat="31.791013358160853">
        <ele>591.5999755859375</ele>
        <time>2014-07-04T05:24:25.000Z</time>
      </trkpt>
      <trkpt lon="35.103199845179915" lat="31.791015956550837">
        <ele>595.4000244140625</ele>
        <time>2014-07-04T05:24:34.000Z</time>
      </trkpt>
      <trkpt lon="35.10293019935489" lat="31.790968514978886">
        <ele>598.4000244140625</ele>
        <time>2014-07-04T05:24:42.000Z</time>
      </trkpt>
      <trkpt lon="35.10281695984304" lat="31.79091881029308">
        <ele>598.5999755859375</ele>
        <time>2014-07-04T05:24:47.000Z</time>
      </trkpt>
      <trkpt lon="35.10271277278662" lat="31.790827866643667">
        <ele>600.2000122070312</ele>
        <time>2014-07-04T05:24:54.000Z</time>
      </trkpt>
      <trkpt lon="35.10270112194121" lat="31.79081529378891">
        <ele>600.4000244140625</ele>
        <time>2014-07-04T05:24:55.000Z</time>
      </trkpt>
      <trkpt lon="35.10260598734021" lat="31.790690068155527">
        <ele>603.2000122070312</ele>
        <time>2014-07-04T05:25:04.000Z</time>
      </trkpt>
      <trkpt lon="35.10252082720399" lat="31.79059778340161">
        <ele>605.4000244140625</ele>
        <time>2014-07-04T05:25:12.000Z</time>
      </trkpt>
      <trkpt lon="35.102420495823026" lat="31.79050751030445">
        <ele>607.2000122070312</ele>
        <time>2014-07-04T05:25:20.000Z</time>
      </trkpt>
      <trkpt lon="35.10238981805742" lat="31.790469205006957">
        <ele>608.0</ele>
        <time>2014-07-04T05:25:23.000Z</time>
      </trkpt>
      <trkpt lon="35.10229133069515" lat="31.790352445095778">
        <ele>610.7999877929688</ele>
        <time>2014-07-04T05:25:32.000Z</time>
      </trkpt>
      <trkpt lon="35.10217063128948" lat="31.790182711556554">
        <ele>615.0</ele>
        <time>2014-07-04T05:25:43.000Z</time>
      </trkpt>
      <trkpt lon="35.10211480781436" lat="31.790098221972585">
        <ele>617.2000122070312</ele>
        <time>2014-07-04T05:25:49.000Z</time>
      </trkpt>
      <trkpt lon="35.102125788107514" lat="31.790067795664072">
        <ele>618.2000122070312</ele>
        <time>2014-07-04T05:25:52.000Z</time>
      </trkpt>
      <trkpt lon="35.102185467258096" lat="31.790076848119497">
        <ele>618.5999755859375</ele>
        <time>2014-07-04T05:25:56.000Z</time>
      </trkpt>
      <trkpt lon="35.102268951013684" lat="31.790152620524168">
        <ele>617.0</ele>
        <time>2014-07-04T05:26:06.000Z</time>
      </trkpt>
      <trkpt lon="35.102382861077785" lat="31.79022596217692">
        <ele>615.7999877929688</ele>
        <time>2014-07-04T05:26:15.000Z</time>
      </trkpt>
      <trkpt lon="35.1024666801095" lat="31.7902993876487">
        <ele>614.4000244140625</ele>
        <time>2014-07-04T05:26:22.000Z</time>
      </trkpt>
      <trkpt lon="35.10254245251417" lat="31.790352696552873">
        <ele>613.5999755859375</ele>
        <time>2014-07-04T05:26:27.000Z</time>
      </trkpt>
      <trkpt lon="35.10263716802001" lat="31.790431570261717">
        <ele>612.0</ele>
        <time>2014-07-04T05:26:32.000Z</time>
      </trkpt>
      <trkpt lon="35.1027981005609" lat="31.790534583851695">
        <ele>610.4000244140625</ele>
        <time>2014-07-04T05:26:38.000Z</time>
      </trkpt>
      <trkpt lon="35.102961882948875" lat="31.79059199988842">
        <ele>609.5999755859375</ele>
        <time>2014-07-04T05:26:45.000Z</time>
      </trkpt>
      <trkpt lon="35.10319657623768" lat="31.790664000436664">
        <ele>604.5999755859375</ele>
        <time>2014-07-04T05:26:51.000Z</time>
      </trkpt>
      <trkpt lon="35.10340671055019" lat="31.790710939094424">
        <ele>600.4000244140625</ele>
        <time>2014-07-04T05:26:56.000Z</time>
      </trkpt>
      <trkpt lon="35.10345901362598" lat="31.79071077145636">
        <ele>599.7999877929688</ele>
        <time>2014-07-04T05:26:57.000Z</time>
      </trkpt>
      <trkpt lon="35.10375372134149" lat="31.790636759251356">
        <ele>598.7999877929688</ele>
        <time>2014-07-04T05:27:03.000Z</time>
      </trkpt>
      <trkpt lon="35.10390660725534" lat="31.79054321721196">
        <ele>599.7999877929688</ele>
        <time>2014-07-04T05:27:10.000Z</time>
      </trkpt>
      <trkpt lon="35.10407675988972" lat="31.790422601625323">
        <ele>601.4000244140625</ele>
        <time>2014-07-04T05:27:17.000Z</time>
      </trkpt>
      <trkpt lon="35.10418614372611" lat="31.790319504216313">
        <ele>603.2000122070312</ele>
        <time>2014-07-04T05:27:24.000Z</time>
      </trkpt>
      <trkpt lon="35.10435864329338" lat="31.790240379050374">
        <ele>602.4000244140625</ele>
        <time>2014-07-04T05:27:30.000Z</time>
      </trkpt>
      <trkpt lon="35.10450557805598" lat="31.790128648281097">
        <ele>603.2000122070312</ele>
        <time>2014-07-04T05:27:37.000Z</time>
      </trkpt>
      <trkpt lon="35.10463465936482" lat="31.790036614984274">
        <ele>604.7999877929688</ele>
        <time>2014-07-04T05:27:43.000Z</time>
      </trkpt>
      <trkpt lon="35.10475343093276" lat="31.78993485867977">
        <ele>608.2000122070312</ele>
        <time>2014-07-04T05:27:49.000Z</time>
      </trkpt>
      <trkpt lon="35.104940766468644" lat="31.78980049677193">
        <ele>611.7999877929688</ele>
        <time>2014-07-04T05:27:57.000Z</time>
      </trkpt>
      <trkpt lon="35.105150984600186" lat="31.78968356922269">
        <ele>615.5999755859375</ele>
        <time>2014-07-04T05:28:04.000Z</time>
      </trkpt>
      <trkpt lon="35.105288280174136" lat="31.78960586898029">
        <ele>617.4000244140625</ele>
        <time>2014-07-04T05:28:07.000Z</time>
      </trkpt>
      <trkpt lon="35.105378637090325" lat="31.789551051333547">
        <ele>618.4000244140625</ele>
        <time>2014-07-04T05:28:09.000Z</time>
      </trkpt>
      <trkpt lon="35.105619030073285" lat="31.78946807049215">
        <ele>626.0</ele>
        <time>2014-07-04T05:28:14.000Z</time>
      </trkpt>
      <trkpt lon="35.10582488961518" lat="31.7895155120641">
        <ele>630.7999877929688</ele>
        <time>2014-07-04T05:28:18.000Z</time>
      </trkpt>
      <trkpt lon="35.10592823848128" lat="31.78966169245541">
        <ele>629.7999877929688</ele>
        <time>2014-07-04T05:28:23.000Z</time>
      </trkpt>
      <trkpt lon="35.10601792484522" lat="31.789854392409325">
        <ele>627.2000122070312</ele>
        <time>2014-07-04T05:28:29.000Z</time>
      </trkpt>
      <trkpt lon="35.10603007860482" lat="31.789869396016">
        <ele>627.2000122070312</ele>
        <time>2014-07-04T05:28:30.000Z</time>
      </trkpt>
      <trkpt lon="35.10605321265757" lat="31.790065616369247">
        <ele>625.2000122070312</ele>
        <time>2014-07-04T05:28:36.000Z</time>
      </trkpt>
      <trkpt lon="35.10606394149363" lat="31.79011221975088">
        <ele>624.7999877929688</ele>
        <time>2014-07-04T05:28:37.000Z</time>
      </trkpt>
      <trkpt lon="35.10612554848194" lat="31.790572386235">
        <ele>620.5999755859375</ele>
        <time>2014-07-04T05:28:46.000Z</time>
      </trkpt>
      <trkpt lon="35.106135522946715" lat="31.790617061778903">
        <ele>620.4000244140625</ele>
        <time>2014-07-04T05:28:47.000Z</time>
      </trkpt>
      <trkpt lon="35.1061431504786" lat="31.790705239400268">
        <ele>619.4000244140625</ele>
        <time>2014-07-04T05:28:49.000Z</time>
      </trkpt>
      <trkpt lon="35.10621003806591" lat="31.79085929878056">
        <ele>618.0</ele>
        <time>2014-07-04T05:28:54.000Z</time>
      </trkpt>
      <trkpt lon="35.10625169612467" lat="31.790999192744493">
        <ele>616.0</ele>
        <time>2014-07-04T05:29:00.000Z</time>
      </trkpt>
      <trkpt lon="35.10630668140948" lat="31.791063146665692">
        <ele>615.4000244140625</ele>
        <time>2014-07-04T05:29:05.000Z</time>
      </trkpt>
      <trkpt lon="35.106313889846206" lat="31.791052417829633">
        <ele>615.7999877929688</ele>
        <time>2014-07-04T05:29:08.000Z</time>
      </trkpt>
      <trkpt lon="35.106282541528344" lat="31.790914870798588">
        <ele>618.5999755859375</ele>
        <time>2014-07-04T05:29:17.000Z</time>
      </trkpt>
      <trkpt lon="35.10627441108227" lat="31.79075620137155">
        <ele>622.2000122070312</ele>
        <time>2014-07-04T05:29:27.000Z</time>
      </trkpt>
      <trkpt lon="35.10630953125656" lat="31.790700126439333">
        <ele>623.7999877929688</ele>
        <time>2014-07-04T05:29:33.000Z</time>
      </trkpt>
      <trkpt lon="35.10637222789228" lat="31.790831638500094">
        <ele>621.4000244140625</ele>
        <time>2014-07-04T05:29:42.000Z</time>
      </trkpt>
      <trkpt lon="35.10638446547091" lat="31.791001288220286">
        <ele>617.7999877929688</ele>
        <time>2014-07-04T05:29:49.000Z</time>
      </trkpt>
      <trkpt lon="35.10645814239979" lat="31.791223660111427">
        <ele>613.4000244140625</ele>
        <time>2014-07-04T05:29:56.000Z</time>
      </trkpt>
      <trkpt lon="35.10653357952833" lat="31.791311586275697">
        <ele>612.2000122070312</ele>
        <time>2014-07-04T05:30:02.000Z</time>
      </trkpt>
      <trkpt lon="35.10662142187357" lat="31.791449887678027">
        <ele>610.0</ele>
        <time>2014-07-04T05:30:09.000Z</time>
      </trkpt>
      <trkpt lon="35.10675041936338" lat="31.791604114696383">
        <ele>606.7999877929688</ele>
        <time>2014-07-04T05:30:15.000Z</time>
      </trkpt>
      <trkpt lon="35.1068805065006" lat="31.791698578745127">
        <ele>604.4000244140625</ele>
        <time>2014-07-04T05:30:19.000Z</time>
      </trkpt>
      <trkpt lon="35.10692249983549" lat="31.79172221571207">
        <ele>603.7999877929688</ele>
        <time>2014-07-04T05:30:20.000Z</time>
      </trkpt>
      <trkpt lon="35.107130287215114" lat="31.791783068329096">
        <ele>603.4000244140625</ele>
        <time>2014-07-04T05:30:24.000Z</time>
      </trkpt>
      <trkpt lon="35.1073535811156" lat="31.791871078312397">
        <ele>601.2000122070312</ele>
        <time>2014-07-04T05:30:29.000Z</time>
      </trkpt>
      <trkpt lon="35.10765650309622" lat="31.791952047497034">
        <ele>598.7999877929688</ele>
        <time>2014-07-04T05:30:36.000Z</time>
      </trkpt>
      <trkpt lon="35.107910726219416" lat="31.791989682242274">
        <ele>597.2000122070312</ele>
        <time>2014-07-04T05:30:42.000Z</time>
      </trkpt>
      <trkpt lon="35.10808154940605" lat="31.79198943078518">
        <ele>596.4000244140625</ele>
        <time>2014-07-04T05:30:47.000Z</time>
      </trkpt>
      <trkpt lon="35.10823887772858" lat="31.791936457157135">
        <ele>597.2000122070312</ele>
        <time>2014-07-04T05:30:53.000Z</time>
      </trkpt>
      <trkpt lon="35.108398804441094" lat="31.791859343647957">
        <ele>597.2000122070312</ele>
        <time>2014-07-04T05:31:00.000Z</time>
      </trkpt>
      <trkpt lon="35.10853526182473" lat="31.791784074157476">
        <ele>596.5999755859375</ele>
        <time>2014-07-04T05:31:07.000Z</time>
      </trkpt>
      <trkpt lon="35.10862872004509" lat="31.791693046689034">
        <ele>597.0</ele>
        <time>2014-07-04T05:31:14.000Z</time>
      </trkpt>
      <trkpt lon="35.10872452519834" lat="31.791568910703063">
        <ele>598.2000122070312</ele>
        <time>2014-07-04T05:31:23.000Z</time>
      </trkpt>
      <trkpt lon="35.108759980648756" lat="31.791518200188875">
        <ele>598.7999877929688</ele>
        <time>2014-07-04T05:31:27.000Z</time>
      </trkpt>
      <trkpt lon="35.10884673334658" lat="31.79141091182828">
        <ele>598.5999755859375</ele>
        <time>2014-07-04T05:31:34.000Z</time>
      </trkpt>
      <trkpt lon="35.10890708304942" lat="31.79122818633914">
        <ele>600.2000122070312</ele>
        <time>2014-07-04T05:31:44.000Z</time>
      </trkpt>
      <trkpt lon="35.108988638967276" lat="31.791054010391235">
        <ele>601.2000122070312</ele>
        <time>2014-07-04T05:31:54.000Z</time>
      </trkpt>
      <trkpt lon="35.109054604545236" lat="31.790898106992245">
        <ele>602.5999755859375</ele>
        <time>2014-07-04T05:32:03.000Z</time>
      </trkpt>
      <trkpt lon="35.10910850018263" lat="31.790775815024972">
        <ele>603.7999877929688</ele>
        <time>2014-07-04T05:32:10.000Z</time>
      </trkpt>
      <trkpt lon="35.10926641523838" lat="31.790633238852024">
        <ele>603.4000244140625</ele>
        <time>2014-07-04T05:32:17.000Z</time>
      </trkpt>
      <trkpt lon="35.10932886041701" lat="31.790516478940845">
        <ele>604.4000244140625</ele>
        <time>2014-07-04T05:32:22.000Z</time>
      </trkpt>
      <trkpt lon="35.109423995018005" lat="31.790312631055713">
        <ele>605.2000122070312</ele>
        <time>2014-07-04T05:32:30.000Z</time>
      </trkpt>
      <trkpt lon="35.10951460339129" lat="31.79013166576624">
        <ele>605.5999755859375</ele>
        <time>2014-07-04T05:32:37.000Z</time>
      </trkpt>
      <trkpt lon="35.109573528170586" lat="31.78992253728211">
        <ele>607.2000122070312</ele>
        <time>2014-07-04T05:32:45.000Z</time>
      </trkpt>
      <trkpt lon="35.10961527004838" lat="31.78980141878128">
        <ele>608.5999755859375</ele>
        <time>2014-07-04T05:32:52.000Z</time>
      </trkpt>
      <trkpt lon="35.1096523180604" lat="31.78967921063304">
        <ele>610.7999877929688</ele>
        <time>2014-07-04T05:33:00.000Z</time>
      </trkpt>
      <trkpt lon="35.109699508175254" lat="31.789511740207672">
        <ele>614.0</ele>
        <time>2014-07-04T05:33:10.000Z</time>
      </trkpt>
      <trkpt lon="35.109717193990946" lat="31.7893876042217">
        <ele>616.5999755859375</ele>
        <time>2014-07-04T05:33:18.000Z</time>
      </trkpt>
      <trkpt lon="35.109759690240026" lat="31.789278890937567">
        <ele>618.5999755859375</ele>
        <time>2014-07-04T05:33:25.000Z</time>
      </trkpt>
      <trkpt lon="35.10978131555021" lat="31.789174871519208">
        <ele>621.0</ele>
        <time>2014-07-04T05:33:32.000Z</time>
      </trkpt>
      <trkpt lon="35.10986580513418" lat="31.78908845409751">
        <ele>623.2000122070312</ele>
        <time>2014-07-04T05:33:38.000Z</time>
      </trkpt>
      <trkpt lon="35.11000519618392" lat="31.788983596488833">
        <ele>626.0</ele>
        <time>2014-07-04T05:33:44.000Z</time>
      </trkpt>
      <trkpt lon="35.11009521782398" lat="31.788929449394345">
        <ele>627.4000244140625</ele>
        <time>2014-07-04T05:33:48.000Z</time>
      </trkpt>
      <trkpt lon="35.110213067382574" lat="31.789017962291837">
        <ele>624.4000244140625</ele>
        <time>2014-07-04T05:33:54.000Z</time>
      </trkpt>
      <trkpt lon="35.11028406210244" lat="31.789092058315873">
        <ele>622.0</ele>
        <time>2014-07-04T05:33:56.000Z</time>
      </trkpt>
      <trkpt lon="35.11031691916287" lat="31.789111252874136">
        <ele>621.4000244140625</ele>
        <time>2014-07-04T05:33:57.000Z</time>
      </trkpt>
      <trkpt lon="35.11034323833883" lat="31.789121394976974">
        <ele>621.2000122070312</ele>
        <time>2014-07-04T05:33:58.000Z</time>
      </trkpt>
      <trkpt lon="35.11048992164433" lat="31.789128938689828">
        <ele>620.4000244140625</ele>
        <time>2014-07-04T05:34:05.000Z</time>
      </trkpt>
      <trkpt lon="35.11050961911678" lat="31.789133045822382">
        <ele>620.2000122070312</ele>
        <time>2014-07-04T05:34:06.000Z</time>
      </trkpt>
      <trkpt lon="35.11052696965635" lat="31.789141595363617">
        <ele>619.7999877929688</ele>
        <time>2014-07-04T05:34:07.000Z</time>
      </trkpt>
      <trkpt lon="35.11054457165301" lat="31.789149725809693">
        <ele>619.5999755859375</ele>
        <time>2014-07-04T05:34:08.000Z</time>
      </trkpt>
      <trkpt lon="35.11056208983064" lat="31.78915735334158">
        <ele>619.2000122070312</ele>
        <time>2014-07-04T05:34:09.000Z</time>
      </trkpt>
      <trkpt lon="35.110582457855344" lat="31.78916523233056">
        <ele>618.7999877929688</ele>
        <time>2014-07-04T05:34:10.000Z</time>
      </trkpt>
      <trkpt lon="35.11061011813581" lat="31.789168920367956">
        <ele>618.5999755859375</ele>
        <time>2014-07-04T05:34:11.000Z</time>
      </trkpt>
      <trkpt lon="35.110636269673705" lat="31.789168333634734">
        <ele>618.4000244140625</ele>
        <time>2014-07-04T05:34:12.000Z</time>
      </trkpt>
      <trkpt lon="35.110657727345824" lat="31.789167243987322">
        <ele>618.2000122070312</ele>
        <time>2014-07-04T05:34:13.000Z</time>
      </trkpt>
      <trkpt lon="35.11067918501794" lat="31.7891666572541">
        <ele>618.2000122070312</ele>
        <time>2014-07-04T05:34:14.000Z</time>
      </trkpt>
      <trkpt lon="35.110701229423285" lat="31.789163891226053">
        <ele>618.0</ele>
        <time>2014-07-04T05:34:15.000Z</time>
      </trkpt>
      <trkpt lon="35.110938269644976" lat="31.789153665304184">
        <ele>616.5999755859375</ele>
        <time>2014-07-04T05:34:23.000Z</time>
      </trkpt>
      <trkpt lon="35.11114647611976" lat="31.789181577041745">
        <ele>614.4000244140625</ele>
        <time>2014-07-04T05:34:29.000Z</time>
      </trkpt>
      <trkpt lon="35.11134596541524" lat="31.78913933224976">
        <ele>614.0</ele>
        <time>2014-07-04T05:34:35.000Z</time>
      </trkpt>
      <trkpt lon="35.11155467480421" lat="31.78903866559267">
        <ele>613.7999877929688</ele>
        <time>2014-07-04T05:34:43.000Z</time>
      </trkpt>
      <trkpt lon="35.11169632896781" lat="31.789003210142255">
        <ele>613.4000244140625</ele>
        <time>2014-07-04T05:34:50.000Z</time>
      </trkpt>
      <trkpt lon="35.11190093122423" lat="31.78893607109785">
        <ele>613.2000122070312</ele>
        <time>2014-07-04T05:34:58.000Z</time>
      </trkpt>
      <trkpt lon="35.112051386386156" lat="31.78889592178166">
        <ele>612.4000244140625</ele>
        <time>2014-07-04T05:35:02.000Z</time>
      </trkpt>
      <trkpt lon="35.112328408285975" lat="31.78877823986113">
        <ele>614.2000122070312</ele>
        <time>2014-07-04T05:35:08.000Z</time>
      </trkpt>
      <trkpt lon="35.1124550588429" lat="31.78864630870521">
        <ele>617.7999877929688</ele>
        <time>2014-07-04T05:35:14.000Z</time>
      </trkpt>
      <trkpt lon="35.1125776860863" lat="31.788520328700542">
        <ele>620.5999755859375</ele>
        <time>2014-07-04T05:35:21.000Z</time>
      </trkpt>
      <trkpt lon="35.11267793364823" lat="31.788435922935605">
        <ele>622.0</ele>
        <time>2014-07-04T05:35:27.000Z</time>
      </trkpt>
      <trkpt lon="35.11277147568762" lat="31.788366604596376">
        <ele>623.2000122070312</ele>
        <time>2014-07-04T05:35:33.000Z</time>
      </trkpt>
      <trkpt lon="35.11285982094705" lat="31.788270128890872">
        <ele>625.0</ele>
        <time>2014-07-04T05:35:41.000Z</time>
      </trkpt>
      <trkpt lon="35.11297356337309" lat="31.788185387849808">
        <ele>627.5999755859375</ele>
        <time>2014-07-04T05:35:47.000Z</time>
      </trkpt>
      <trkpt lon="35.11316793970764" lat="31.788125038146973">
        <ele>632.5999755859375</ele>
        <time>2014-07-04T05:35:53.000Z</time>
      </trkpt>
      <trkpt lon="35.11324429884553" lat="31.788168204948306">
        <ele>632.4000244140625</ele>
        <time>2014-07-04T05:35:59.000Z</time>
      </trkpt>
      <trkpt lon="35.11325167492032" lat="31.78818161599338">
        <ele>632.0</ele>
        <time>2014-07-04T05:36:08.000Z</time>
      </trkpt>
      <trkpt lon="35.1132439635694" lat="31.788194440305233">
        <ele>631.4000244140625</ele>
        <time>2014-07-04T05:36:18.000Z</time>
      </trkpt>
      <trkpt lon="35.113229462876916" lat="31.788246240466833">
        <ele>629.5999755859375</ele>
        <time>2014-07-04T05:36:36.000Z</time>
      </trkpt>
      <trkpt lon="35.11323985643685" lat="31.78824556991458">
        <ele>629.7999877929688</ele>
        <time>2014-07-04T05:36:53.000Z</time>
      </trkpt>
      <trkpt lon="35.11326625943184" lat="31.78827540948987">
        <ele>629.4000244140625</ele>
        <time>2014-07-04T05:36:57.000Z</time>
      </trkpt>
      <trkpt lon="35.113338930532336" lat="31.78837900981307">
        <ele>627.5999755859375</ele>
        <time>2014-07-04T05:37:03.000Z</time>
      </trkpt>
      <trkpt lon="35.113423420116305" lat="31.788500882685184">
        <ele>625.4000244140625</ele>
        <time>2014-07-04T05:37:09.000Z</time>
      </trkpt>
      <trkpt lon="35.113453259691596" lat="31.788551844656467">
        <ele>624.4000244140625</ele>
        <time>2014-07-04T05:37:13.000Z</time>
      </trkpt>
      <trkpt lon="35.11362039484084" lat="31.788715878501534">
        <ele>622.2000122070312</ele>
        <time>2014-07-04T05:37:23.000Z</time>
      </trkpt>
      <trkpt lon="35.113813346251845" lat="31.788765834644437">
        <ele>623.4000244140625</ele>
        <time>2014-07-04T05:37:30.000Z</time>
      </trkpt>
      <trkpt lon="35.11408852413297" lat="31.788858957588673">
        <ele>622.0</ele>
        <time>2014-07-04T05:37:39.000Z</time>
      </trkpt>
      <trkpt lon="35.114243254065514" lat="31.788897765800357">
        <ele>621.5999755859375</ele>
        <time>2014-07-04T05:37:46.000Z</time>
      </trkpt>
      <trkpt lon="35.11450166814029" lat="31.78895409218967">
        <ele>621.2000122070312</ele>
        <time>2014-07-04T05:37:55.000Z</time>
      </trkpt>
      <trkpt lon="35.11475128121674" lat="31.78896490484476">
        <ele>621.7999877929688</ele>
        <time>2014-07-04T05:38:02.000Z</time>
      </trkpt>
      <trkpt lon="35.114995362237096" lat="31.788961635902524">
        <ele>623.0</ele>
        <time>2014-07-04T05:38:10.000Z</time>
      </trkpt>
      <trkpt lon="35.11511296033859" lat="31.789054591208696">
        <ele>621.2000122070312</ele>
        <time>2014-07-04T05:38:16.000Z</time>
      </trkpt>
      <trkpt lon="35.115147326141596" lat="31.789164394140244">
        <ele>618.5999755859375</ele>
        <time>2014-07-04T05:38:19.000Z</time>
      </trkpt>
      <trkpt lon="35.115158474072814" lat="31.789255421608686">
        <ele>616.4000244140625</ele>
        <time>2014-07-04T05:38:21.000Z</time>
      </trkpt>
      <trkpt lon="35.115304319188" lat="31.78948240354657">
        <ele>611.4000244140625</ele>
        <time>2014-07-04T05:38:26.000Z</time>
      </trkpt>
      <trkpt lon="35.115416049957275" lat="31.78950528614223">
        <ele>611.4000244140625</ele>
        <time>2014-07-04T05:38:28.000Z</time>
      </trkpt>
      <trkpt lon="35.11588183231652" lat="31.78961819037795">
        <ele>609.7999877929688</ele>
        <time>2014-07-04T05:38:36.000Z</time>
      </trkpt>
      <trkpt lon="35.11594201438129" lat="31.789642833173275">
        <ele>609.2000122070312</ele>
        <time>2014-07-04T05:38:37.000Z</time>
      </trkpt>
      <trkpt lon="35.11599984951317" lat="31.78965481929481">
        <ele>609.0</ele>
        <time>2014-07-04T05:38:38.000Z</time>
      </trkpt>
      <trkpt lon="35.1160501409322" lat="31.78965431638062">
        <ele>609.2000122070312</ele>
        <time>2014-07-04T05:38:39.000Z</time>
      </trkpt>
      <trkpt lon="35.11635155417025" lat="31.789704272523522">
        <ele>608.4000244140625</ele>
        <time>2014-07-04T05:38:46.000Z</time>
      </trkpt>
      <trkpt lon="35.11639161966741" lat="31.789764957502484">
        <ele>607.2000122070312</ele>
        <time>2014-07-04T05:38:48.000Z</time>
      </trkpt>
      <trkpt lon="35.11639053002" lat="31.78980343043804">
        <ele>606.4000244140625</ele>
        <time>2014-07-04T05:38:49.000Z</time>
      </trkpt>
      <trkpt lon="35.11639053002" lat="31.789843747392297">
        <ele>605.5999755859375</ele>
        <time>2014-07-04T05:38:50.000Z</time>
      </trkpt>
      <trkpt lon="35.1163611933589" lat="31.790069891139865">
        <ele>601.7999877929688</ele>
        <time>2014-07-04T05:38:55.000Z</time>
      </trkpt>
      <trkpt lon="35.11633914895356" lat="31.79010735824704">
        <ele>601.0</ele>
        <time>2014-07-04T05:38:56.000Z</time>
      </trkpt>
      <trkpt lon="35.11630713008344" lat="31.790133761242032">
        <ele>600.5999755859375</ele>
        <time>2014-07-04T05:38:57.000Z</time>
      </trkpt>
      <trkpt lon="35.11627511121333" lat="31.7901439871639">
        <ele>600.2000122070312</ele>
        <time>2014-07-04T05:38:58.000Z</time>
      </trkpt>
      <trkpt lon="35.11624242179096" lat="31.790142310783267">
        <ele>600.2000122070312</ele>
        <time>2014-07-04T05:38:59.000Z</time>
      </trkpt>
      <trkpt lon="35.11621233075857" lat="31.790135940536857">
        <ele>600.2000122070312</ele>
        <time>2014-07-04T05:39:00.000Z</time>
      </trkpt>
      <trkpt lon="35.11618240736425" lat="31.790126636624336">
        <ele>600.2000122070312</ele>
        <time>2014-07-04T05:39:01.000Z</time>
      </trkpt>
      <trkpt lon="35.11608777567744" lat="31.79012236185372">
        <ele>600.0</ele>
        <time>2014-07-04T05:39:04.000Z</time>
      </trkpt>
      <trkpt lon="35.11606355197728" lat="31.790139125660062">
        <ele>599.7999877929688</ele>
        <time>2014-07-04T05:39:05.000Z</time>
      </trkpt>
      <trkpt lon="35.11604234576225" lat="31.790166199207306">
        <ele>599.4000244140625</ele>
        <time>2014-07-04T05:39:06.000Z</time>
      </trkpt>
      <trkpt lon="35.11602281592786" lat="31.790203666314483">
        <ele>598.7999877929688</ele>
        <time>2014-07-04T05:39:07.000Z</time>
      </trkpt>
      <trkpt lon="35.11601644568145" lat="31.790240379050374">
        <ele>598.2000122070312</ele>
        <time>2014-07-04T05:39:08.000Z</time>
      </trkpt>
      <trkpt lon="35.11602901853621" lat="31.790272230282426">
        <ele>597.7999877929688</ele>
        <time>2014-07-04T05:39:09.000Z</time>
      </trkpt>
      <trkpt lon="35.11605332605541" lat="31.7902943585068">
        <ele>597.5999755859375</ele>
        <time>2014-07-04T05:39:10.000Z</time>
      </trkpt>
      <trkpt lon="35.11608123779297" lat="31.790310284122825">
        <ele>597.4000244140625</ele>
        <time>2014-07-04T05:39:11.000Z</time>
      </trkpt>
      <trkpt lon="35.11610705405474" lat="31.790325874462724">
        <ele>597.2000122070312</ele>
        <time>2014-07-04T05:39:12.000Z</time>
      </trkpt>
      <trkpt lon="35.11612582951784" lat="31.79034624248743">
        <ele>597.0</ele>
        <time>2014-07-04T05:39:13.000Z</time>
      </trkpt>
      <trkpt lon="35.116141587495804" lat="31.790367867797613">
        <ele>596.5999755859375</ele>
        <time>2014-07-04T05:39:14.000Z</time>
      </trkpt>
      <trkpt lon="35.116162709891796" lat="31.790392510592937">
        <ele>596.4000244140625</ele>
        <time>2014-07-04T05:39:15.000Z</time>
      </trkpt>
      <trkpt lon="35.116196908056736" lat="31.790414890274405">
        <ele>596.2000122070312</ele>
        <time>2014-07-04T05:39:16.000Z</time>
      </trkpt>
      <trkpt lon="35.11623580008745" lat="31.79043374955654">
        <ele>596.0</ele>
        <time>2014-07-04T05:39:17.000Z</time>
      </trkpt>
      <trkpt lon="35.11627620086074" lat="31.790449591353536">
        <ele>595.7999877929688</ele>
        <time>2014-07-04T05:39:18.000Z</time>
      </trkpt>
      <trkpt lon="35.11631844565272" lat="31.790464259684086">
        <ele>595.7999877929688</ele>
        <time>2014-07-04T05:39:19.000Z</time>
      </trkpt>
      <trkpt lon="35.116534950211644" lat="31.790550677105784">
        <ele>595.5999755859375</ele>
        <time>2014-07-04T05:39:24.000Z</time>
      </trkpt>
      <trkpt lon="35.11657392606139" lat="31.790578505024314">
        <ele>595.4000244140625</ele>
        <time>2014-07-04T05:39:25.000Z</time>
      </trkpt>
      <trkpt lon="35.116611644625664" lat="31.790607757866383">
        <ele>595.2000122070312</ele>
        <time>2014-07-04T05:39:26.000Z</time>
      </trkpt>
      <trkpt lon="35.11669990606606" lat="31.790722841396928">
        <ele>594.0</ele>
        <time>2014-07-04T05:39:30.000Z</time>
      </trkpt>
      <trkpt lon="35.11668800376356" lat="31.790754022076726">
        <ele>594.0</ele>
        <time>2014-07-04T05:39:31.000Z</time>
      </trkpt>
      <trkpt lon="35.11666763573885" lat="31.790784364566207">
        <ele>593.7999877929688</ele>
        <time>2014-07-04T05:39:32.000Z</time>
      </trkpt>
      <trkpt lon="35.11663729324937" lat="31.790814958512783">
        <ele>593.5999755859375</ele>
        <time>2014-07-04T05:39:33.000Z</time>
      </trkpt>
      <trkpt lon="35.116599909961224" lat="31.790844965726137">
        <ele>593.4000244140625</ele>
        <time>2014-07-04T05:39:34.000Z</time>
      </trkpt>
      <trkpt lon="35.11656462214887" lat="31.790875224396586">
        <ele>593.2000122070312</ele>
        <time>2014-07-04T05:39:35.000Z</time>
      </trkpt>
      <trkpt lon="35.11653427965939" lat="31.790912859141827">
        <ele>593.0</ele>
        <time>2014-07-04T05:39:36.000Z</time>
      </trkpt>
      <trkpt lon="35.116509133949876" lat="31.790960803627968">
        <ele>592.7999877929688</ele>
        <time>2014-07-04T05:39:37.000Z</time>
      </trkpt>
      <trkpt lon="35.116500332951546" lat="31.79101570509374">
        <ele>592.4000244140625</ele>
        <time>2014-07-04T05:39:38.000Z</time>
      </trkpt>
      <trkpt lon="35.11650695465505" lat="31.79107337258756">
        <ele>592.2000122070312</ele>
        <time>2014-07-04T05:39:39.000Z</time>
      </trkpt>
      <trkpt lon="35.116523802280426" lat="31.791129866614938">
        <ele>592.0</ele>
        <time>2014-07-04T05:39:40.000Z</time>
      </trkpt>
      <trkpt lon="35.11654852889478" lat="31.79118267260492">
        <ele>591.7999877929688</ele>
        <time>2014-07-04T05:39:41.000Z</time>
      </trkpt>
      <trkpt lon="35.1165768597275" lat="31.79122919216752">
        <ele>591.7999877929688</ele>
        <time>2014-07-04T05:39:42.000Z</time>
      </trkpt>
      <trkpt lon="35.116605358198285" lat="31.79127319715917">
        <ele>591.7999877929688</ele>
        <time>2014-07-04T05:39:43.000Z</time>
      </trkpt>
      <trkpt lon="35.11663117446005" lat="31.791316783055663">
        <ele>591.7999877929688</ele>
        <time>2014-07-04T05:39:44.000Z</time>
      </trkpt>
      <trkpt lon="35.11665682308376" lat="31.791357016190886">
        <ele>591.7999877929688</ele>
        <time>2014-07-04T05:39:45.000Z</time>
      </trkpt>
      <trkpt lon="35.11667652055621" lat="31.79139574058354">
        <ele>591.7999877929688</ele>
        <time>2014-07-04T05:39:46.000Z</time>
      </trkpt>
      <trkpt lon="35.11667853221297" lat="31.79143203422427">
        <ele>591.5999755859375</ele>
        <time>2014-07-04T05:39:47.000Z</time>
      </trkpt>
      <trkpt lon="35.116661600768566" lat="31.791463466361165">
        <ele>591.2000122070312</ele>
        <time>2014-07-04T05:39:48.000Z</time>
      </trkpt>
      <trkpt lon="35.11663243174553" lat="31.791487857699394">
        <ele>590.7999877929688</ele>
        <time>2014-07-04T05:39:49.000Z</time>
      </trkpt>
      <trkpt lon="35.116597060114145" lat="31.791506130248308">
        <ele>590.4000244140625</ele>
        <time>2014-07-04T05:39:50.000Z</time>
      </trkpt>
      <trkpt lon="35.11655716225505" lat="31.791515853255987">
        <ele>590.0</ele>
        <time>2014-07-04T05:39:51.000Z</time>
      </trkpt>
      <trkpt lon="35.116513911634684" lat="31.791518116369843">
        <ele>589.5999755859375</ele>
        <time>2014-07-04T05:39:52.000Z</time>
      </trkpt>
      <trkpt lon="35.11647267267108" lat="31.791511327028275">
        <ele>589.2000122070312</ele>
        <time>2014-07-04T05:39:53.000Z</time>
      </trkpt>
      <trkpt lon="35.11643470264971" lat="31.791499508544803">
        <ele>588.7999877929688</ele>
        <time>2014-07-04T05:39:54.000Z</time>
      </trkpt>
      <trkpt lon="35.116399666294456" lat="31.791487438604236">
        <ele>588.5999755859375</ele>
        <time>2014-07-04T05:39:55.000Z</time>
      </trkpt>
      <trkpt lon="35.11607578955591" lat="31.79141040891409">
        <ele>586.5999755859375</ele>
        <time>2014-07-04T05:40:02.000Z</time>
      </trkpt>
      <trkpt lon="35.11562576517463" lat="31.791292307898402">
        <ele>583.5999755859375</ele>
        <time>2014-07-04T05:40:10.000Z</time>
      </trkpt>
      <trkpt lon="35.115286968648434" lat="31.791211757808924">
        <ele>581.2000122070312</ele>
        <time>2014-07-04T05:40:16.000Z</time>
      </trkpt>
      <trkpt lon="35.115225529298186" lat="31.791191892698407">
        <ele>580.7999877929688</ele>
        <time>2014-07-04T05:40:17.000Z</time>
      </trkpt>
      <trkpt lon="35.11516895145178" lat="31.791167249903083">
        <ele>580.5999755859375</ele>
        <time>2014-07-04T05:40:18.000Z</time>
      </trkpt>
      <trkpt lon="35.11511329561472" lat="31.791140008717775">
        <ele>580.4000244140625</ele>
        <time>2014-07-04T05:40:19.000Z</time>
      </trkpt>
      <trkpt lon="35.11506157927215" lat="31.79111083969474">
        <ele>580.2000122070312</ele>
        <time>2014-07-04T05:40:20.000Z</time>
      </trkpt>
      <trkpt lon="35.11500868946314" lat="31.791083430871367">
        <ele>580.0</ele>
        <time>2014-07-04T05:40:21.000Z</time>
      </trkpt>
      <trkpt lon="35.11494959704578" lat="31.791059290990233">
        <ele>579.5999755859375</ele>
        <time>2014-07-04T05:40:22.000Z</time>
      </trkpt>
      <trkpt lon="35.1144493650645" lat="31.7909471411258">
        <ele>578.0</ele>
        <time>2014-07-04T05:40:30.000Z</time>
      </trkpt>
      <trkpt lon="35.113879814743996" lat="31.79081437177956">
        <ele>576.7999877929688</ele>
        <time>2014-07-04T05:40:39.000Z</time>
      </trkpt>
      <trkpt lon="35.1137640606612" lat="31.790777072310448">
        <ele>577.0</ele>
        <time>2014-07-04T05:40:41.000Z</time>
      </trkpt>
      <trkpt lon="35.11371628381312" lat="31.79075133986771">
        <ele>576.5999755859375</ele>
        <time>2014-07-04T05:40:42.000Z</time>
      </trkpt>
      <trkpt lon="35.11367437429726" lat="31.79072351194918">
        <ele>576.4000244140625</ele>
        <time>2014-07-04T05:40:43.000Z</time>
      </trkpt>
      <trkpt lon="35.113637913018465" lat="31.79069551639259">
        <ele>576.5999755859375</ele>
        <time>2014-07-04T05:40:44.000Z</time>
      </trkpt>
      <trkpt lon="35.113605642691255" lat="31.7906691133976">
        <ele>577.0</ele>
        <time>2014-07-04T05:40:45.000Z</time>
      </trkpt>
      <trkpt lon="35.11336239986122" lat="31.79050935432315">
        <ele>578.5999755859375</ele>
        <time>2014-07-04T05:40:53.000Z</time>
      </trkpt>
      <trkpt lon="35.113273886963725" lat="31.790488651022315">
        <ele>578.4000244140625</ele>
        <time>2014-07-04T05:40:55.000Z</time>
      </trkpt>
      <trkpt lon="35.113227032124996" lat="31.790487812831998">
        <ele>578.2000122070312</ele>
        <time>2014-07-04T05:40:56.000Z</time>
      </trkpt>
      <trkpt lon="35.113179506734014" lat="31.790492087602615">
        <ele>577.7999877929688</ele>
        <time>2014-07-04T05:40:57.000Z</time>
      </trkpt>
      <trkpt lon="35.11313483119011" lat="31.79049728438258">
        <ele>577.4000244140625</ele>
        <time>2014-07-04T05:40:58.000Z</time>
      </trkpt>
      <trkpt lon="35.11309241876006" lat="31.79050407372415">
        <ele>577.0</ele>
        <time>2014-07-04T05:40:59.000Z</time>
      </trkpt>
      <trkpt lon="35.11296006850898" lat="31.790534667670727">
        <ele>575.5999755859375</ele>
        <time>2014-07-04T05:41:02.000Z</time>
      </trkpt>
      <trkpt lon="35.112913213670254" lat="31.79055486805737">
        <ele>575.2000122070312</ele>
        <time>2014-07-04T05:41:03.000Z</time>
      </trkpt>
      <trkpt lon="35.112461345270276" lat="31.790761901065707">
        <ele>573.4000244140625</ele>
        <time>2014-07-04T05:41:12.000Z</time>
      </trkpt>
      <trkpt lon="35.11202037334442" lat="31.790847312659025">
        <ele>575.0</ele>
        <time>2014-07-04T05:41:21.000Z</time>
      </trkpt>
      <trkpt lon="35.1115913875401" lat="31.79095552302897">
        <ele>577.0</ele>
        <time>2014-07-04T05:41:30.000Z</time>
      </trkpt>
      <trkpt lon="35.1114465482533" lat="31.791023164987564">
        <ele>576.2000122070312</ele>
        <time>2014-07-04T05:41:33.000Z</time>
      </trkpt>
      <trkpt lon="35.11099794879556" lat="31.791242938488722">
        <ele>575.2000122070312</ele>
        <time>2014-07-04T05:41:43.000Z</time>
      </trkpt>
      <trkpt lon="35.11063635349274" lat="31.791432704776525">
        <ele>572.5999755859375</ele>
        <time>2014-07-04T05:41:53.000Z</time>
      </trkpt>
      <trkpt lon="35.11033343151212" lat="31.791621297597885">
        <ele>571.7999877929688</ele>
        <time>2014-07-04T05:42:02.000Z</time>
      </trkpt>
      <trkpt lon="35.11008054949343" lat="31.791863031685352">
        <ele>574.0</ele>
        <time>2014-07-04T05:42:10.000Z</time>
      </trkpt>
      <trkpt lon="35.10989882983267" lat="31.792084565386176">
        <ele>573.0</ele>
        <time>2014-07-04T05:42:17.000Z</time>
      </trkpt>
      <trkpt lon="35.10967344045639" lat="31.79232956841588">
        <ele>569.7999877929688</ele>
        <time>2014-07-04T05:42:24.000Z</time>
      </trkpt>
      <trkpt lon="35.109476717188954" lat="31.79251816123724">
        <ele>570.4000244140625</ele>
        <time>2014-07-04T05:42:31.000Z</time>
      </trkpt>
      <trkpt lon="35.10927798226476" lat="31.792690828442574">
        <ele>572.5999755859375</ele>
        <time>2014-07-04T05:42:39.000Z</time>
      </trkpt>
      <trkpt lon="35.10909014381468" lat="31.792835500091314">
        <ele>573.2000122070312</ele>
        <time>2014-07-04T05:42:47.000Z</time>
      </trkpt>
      <trkpt lon="35.10896039195359" lat="31.79292711429298">
        <ele>572.2000122070312</ele>
        <time>2014-07-04T05:42:55.000Z</time>
      </trkpt>
      <trkpt lon="35.108919152989984" lat="31.792967934161425">
        <ele>571.7999877929688</ele>
        <time>2014-07-04T05:43:01.000Z</time>
      </trkpt>
      <trkpt lon="35.10877230204642" lat="31.793058710172772">
        <ele>570.7999877929688</ele>
        <time>2014-07-04T05:43:07.000Z</time>
      </trkpt>
      <trkpt lon="35.10866878554225" lat="31.7931523360312">
        <ele>570.0</ele>
        <time>2014-07-04T05:43:14.000Z</time>
      </trkpt>
      <trkpt lon="35.10852126404643" lat="31.79325543344021">
        <ele>568.4000244140625</ele>
        <time>2014-07-04T05:43:21.000Z</time>
      </trkpt>
      <trkpt lon="35.108314231038094" lat="31.793306479230523">
        <ele>567.7999877929688</ele>
        <time>2014-07-04T05:43:27.000Z</time>
      </trkpt>
      <trkpt lon="35.10802136734128" lat="31.793226012960076">
        <ele>567.2000122070312</ele>
        <time>2014-07-04T05:43:34.000Z</time>
      </trkpt>
      <trkpt lon="35.107784578576684" lat="31.79310112260282">
        <ele>568.2000122070312</ele>
        <time>2014-07-04T05:43:42.000Z</time>
      </trkpt>
      <trkpt lon="35.107626831158996" lat="31.79301076568663">
        <ele>569.0</ele>
        <time>2014-07-04T05:43:49.000Z</time>
      </trkpt>
      <trkpt lon="35.10756254196167" lat="31.792956199496984">
        <ele>569.7999877929688</ele>
        <time>2014-07-04T05:43:54.000Z</time>
      </trkpt>
      <trkpt lon="35.107384929433465" lat="31.792886797338724">
        <ele>570.0</ele>
        <time>2014-07-04T05:44:02.000Z</time>
      </trkpt>
      <trkpt lon="35.10708259418607" lat="31.79276492446661">
        <ele>570.4000244140625</ele>
        <time>2014-07-04T05:44:11.000Z</time>
      </trkpt>
      <trkpt lon="35.10689215734601" lat="31.792704993858933">
        <ele>569.2000122070312</ele>
        <time>2014-07-04T05:44:18.000Z</time>
      </trkpt>
      <trkpt lon="35.106637347489595" lat="31.792657803744078">
        <ele>567.2000122070312</ele>
        <time>2014-07-04T05:44:27.000Z</time>
      </trkpt>
      <trkpt lon="35.10661345906556" lat="31.792669789865613">
        <ele>566.5999755859375</ele>
        <time>2014-07-04T05:44:28.000Z</time>
      </trkpt>
      <trkpt lon="35.106594851240516" lat="31.792694935575128">
        <ele>566.0</ele>
        <time>2014-07-04T05:44:29.000Z</time>
      </trkpt>
      <trkpt lon="35.1065905764699" lat="31.792729049921036">
        <ele>565.5999755859375</ele>
        <time>2014-07-04T05:44:30.000Z</time>
      </trkpt>
      <trkpt lon="35.1066061668098" lat="31.792763583362103">
        <ele>565.2000122070312</ele>
        <time>2014-07-04T05:44:31.000Z</time>
      </trkpt>
      <trkpt lon="35.10663055814803" lat="31.792794093489647">
        <ele>565.0</ele>
        <time>2014-07-04T05:44:32.000Z</time>
      </trkpt>
      <trkpt lon="35.10666291229427" lat="31.792816473171115">
        <ele>564.7999877929688</ele>
        <time>2014-07-04T05:44:33.000Z</time>
      </trkpt>
      <trkpt lon="35.106691997498274" lat="31.792835919186473">
        <ele>564.7999877929688</ele>
        <time>2014-07-04T05:44:34.000Z</time>
      </trkpt>
      <trkpt lon="35.106715466827154" lat="31.792856035754085">
        <ele>564.5999755859375</ele>
        <time>2014-07-04T05:44:35.000Z</time>
      </trkpt>
      <trkpt lon="35.106757543981075" lat="31.7930019646883">
        <ele>563.5999755859375</ele>
        <time>2014-07-04T05:44:40.000Z</time>
      </trkpt>
      <trkpt lon="35.106757460162044" lat="31.79319005459547">
        <ele>562.2000122070312</ele>
        <time>2014-07-04T05:44:48.000Z</time>
      </trkpt>
      <trkpt lon="35.1067354157567" lat="31.793239675462246">
        <ele>562.2000122070312</ele>
        <time>2014-07-04T05:44:51.000Z</time>
      </trkpt>
      <trkpt lon="35.10672359727323" lat="31.793247805908322">
        <ele>562.2000122070312</ele>
        <time>2014-07-04T05:44:52.000Z</time>
      </trkpt>
      <trkpt lon="35.10667556896806" lat="31.793290805071592">
        <ele>562.4000244140625</ele>
        <time>2014-07-04T05:44:56.000Z</time>
      </trkpt>
      <trkpt lon="35.10667615570128" lat="31.79330530576408">
        <ele>562.5999755859375</ele>
        <time>2014-07-04T05:44:57.000Z</time>
      </trkpt>
      <trkpt lon="35.106683783233166" lat="31.793315950781107">
        <ele>562.5999755859375</ele>
        <time>2014-07-04T05:44:58.000Z</time>
      </trkpt>
      <trkpt lon="35.10679534636438" lat="31.79344176314771">
        <ele>563.4000244140625</ele>
        <time>2014-07-04T05:45:06.000Z</time>
      </trkpt>
      <trkpt lon="35.1068495772779" lat="31.793524157255888">
        <ele>563.7999877929688</ele>
        <time>2014-07-04T05:45:12.000Z</time>
      </trkpt>
      <trkpt lon="35.10695309378207" lat="31.793609065935016">
        <ele>564.4000244140625</ele>
        <time>2014-07-04T05:45:19.000Z</time>
      </trkpt>
      <trkpt lon="35.107045378535986" lat="31.79371383972466">
        <ele>565.0</ele>
        <time>2014-07-04T05:45:28.000Z</time>
      </trkpt>
      <trkpt lon="35.107082510367036" lat="31.793791623786092">
        <ele>565.4000244140625</ele>
        <time>2014-07-04T05:45:34.000Z</time>
      </trkpt>
      <trkpt lon="35.10703783482313" lat="31.793834622949362">
        <ele>565.7999877929688</ele>
        <time>2014-07-04T05:45:39.000Z</time>
      </trkpt>
      <trkpt lon="35.10689517483115" lat="31.793781146407127">
        <ele>565.4000244140625</ele>
        <time>2014-07-04T05:45:49.000Z</time>
      </trkpt>
      <trkpt lon="35.106778079643846" lat="31.793764801695943">
        <ele>565.7999877929688</ele>
        <time>2014-07-04T05:45:57.000Z</time>
      </trkpt>
      <trkpt lon="35.10664405301213" lat="31.79374661296606">
        <ele>567.0</ele>
        <time>2014-07-04T05:46:05.000Z</time>
      </trkpt>
      <trkpt lon="35.10645445436239" lat="31.79374309256673">
        <ele>569.2000122070312</ele>
        <time>2014-07-04T05:46:16.000Z</time>
      </trkpt>
      <trkpt lon="35.10629704222083" lat="31.793762957677245">
        <ele>571.5999755859375</ele>
        <time>2014-07-04T05:46:26.000Z</time>
      </trkpt>
      <trkpt lon="35.1061502750963" lat="31.793795144185424">
        <ele>572.7999877929688</ele>
        <time>2014-07-04T05:46:35.000Z</time>
      </trkpt>
      <trkpt lon="35.10609998367727" lat="31.793815260753036">
        <ele>573.2000122070312</ele>
        <time>2014-07-04T05:46:41.000Z</time>
      </trkpt>
      <trkpt lon="35.10609554126859" lat="31.793819619342685">
        <ele>573.2000122070312</ele>
        <time>2014-07-04T05:46:50.000Z</time>
      </trkpt>
      <trkpt lon="35.106075927615166" lat="31.793813416734338">
        <ele>573.2000122070312</ele>
        <time>2014-07-04T05:47:00.000Z</time>
      </trkpt>
      <trkpt lon="35.106062684208155" lat="31.793818278238177">
        <ele>573.4000244140625</ele>
        <time>2014-07-04T05:47:15.000Z</time>
      </trkpt>
      <trkpt lon="35.106051703915" lat="31.79381794296205">
        <ele>573.4000244140625</ele>
        <time>2014-07-04T05:47:29.000Z</time>
      </trkpt>
      <trkpt lon="35.10604625567794" lat="31.79381836205721">
        <ele>573.4000244140625</ele>
        <time>2014-07-04T05:47:42.000Z</time>
      </trkpt>
      <trkpt lon="35.10604055598378" lat="31.79381643421948">
        <ele>573.4000244140625</ele>
        <time>2014-07-04T05:47:56.000Z</time>
      </trkpt>
      <trkpt lon="35.106037789955735" lat="31.7938170209527">
        <ele>573.4000244140625</ele>
        <time>2014-07-04T05:48:10.000Z</time>
      </trkpt>
      <trkpt lon="35.106041226536036" lat="31.793805370107293">
        <ele>573.2000122070312</ele>
        <time>2014-07-04T05:48:31.000Z</time>
      </trkpt>
      <trkpt lon="35.106023121625185" lat="31.793811237439513">
        <ele>573.2000122070312</ele>
        <time>2014-07-04T05:48:49.000Z</time>
      </trkpt>
      <trkpt lon="35.10603033006191" lat="31.79380721412599">
        <ele>573.2000122070312</ele>
        <time>2014-07-04T05:49:00.000Z</time>
      </trkpt>
      <trkpt lon="35.10601080022752" lat="31.793797239661217">
        <ele>573.0</ele>
        <time>2014-07-04T05:49:09.000Z</time>
      </trkpt>
      <trkpt lon="35.10599562898278" lat="31.793803358450532">
        <ele>573.2000122070312</ele>
        <time>2014-07-04T05:49:11.000Z</time>
      </trkpt>
      <trkpt lon="35.10592999868095" lat="31.7938291747123">
        <ele>573.7999877929688</ele>
        <time>2014-07-04T05:49:18.000Z</time>
      </trkpt>
      <trkpt lon="35.10570963844657" lat="31.79385406896472">
        <ele>574.4000244140625</ele>
        <time>2014-07-04T05:49:28.000Z</time>
      </trkpt>
      <trkpt lon="35.10551819577813" lat="31.79386865347624">
        <ele>574.7999877929688</ele>
        <time>2014-07-04T05:49:35.000Z</time>
      </trkpt>
      <trkpt lon="35.105376709252596" lat="31.793933110311627">
        <ele>576.0</ele>
        <time>2014-07-04T05:49:42.000Z</time>
      </trkpt>
      <trkpt lon="35.1052850112319" lat="31.793996645137668">
        <ele>577.2000122070312</ele>
        <time>2014-07-04T05:49:48.000Z</time>
      </trkpt>
      <trkpt lon="35.105169927701354" lat="31.794103514403105">
        <ele>580.0</ele>
        <time>2014-07-04T05:49:55.000Z</time>
      </trkpt>
      <trkpt lon="35.10514075867832" lat="31.79413511417806">
        <ele>581.0</ele>
        <time>2014-07-04T05:49:57.000Z</time>
      </trkpt>
      <trkpt lon="35.105047300457954" lat="31.794149866327643">
        <ele>581.4000244140625</ele>
        <time>2014-07-04T05:50:02.000Z</time>
      </trkpt>
      <trkpt lon="35.104861641302705" lat="31.794073255732656">
        <ele>579.4000244140625</ele>
        <time>2014-07-04T05:50:10.000Z</time>
      </trkpt>
      <trkpt lon="35.10476726107299" lat="31.79391953162849">
        <ele>576.4000244140625</ele>
        <time>2014-07-04T05:50:16.000Z</time>
      </trkpt>
      <trkpt lon="35.10467858053744" lat="31.79378181695938">
        <ele>573.7999877929688</ele>
        <time>2014-07-04T05:50:21.000Z</time>
      </trkpt>
      <trkpt lon="35.104510774835944" lat="31.793679390102625">
        <ele>572.4000244140625</ele>
        <time>2014-07-04T05:50:28.000Z</time>
      </trkpt>
      <trkpt lon="35.10425847955048" lat="31.793623231351376">
        <ele>572.7999877929688</ele>
        <time>2014-07-04T05:50:37.000Z</time>
      </trkpt>
      <trkpt lon="35.1040571462363" lat="31.79358928464353">
        <ele>574.0</ele>
        <time>2014-07-04T05:50:46.000Z</time>
      </trkpt>
      <trkpt lon="35.103935692459345" lat="31.793515775352716">
        <ele>573.5999755859375</ele>
        <time>2014-07-04T05:50:52.000Z</time>
      </trkpt>
      <trkpt lon="35.10380837135017" lat="31.793490713462234">
        <ele>574.4000244140625</ele>
        <time>2014-07-04T05:50:58.000Z</time>
      </trkpt>
      <trkpt lon="35.103766629472375" lat="31.79348182864487">
        <ele>574.7999877929688</ele>
        <time>2014-07-04T05:51:01.000Z</time>
      </trkpt>
      <trkpt lon="35.103686079382896" lat="31.79349448531866">
        <ele>576.0</ele>
        <time>2014-07-04T05:51:07.000Z</time>
      </trkpt>
      <trkpt lon="35.10351617820561" lat="31.79345089942217">
        <ele>577.0</ele>
        <time>2014-07-04T05:51:17.000Z</time>
      </trkpt>
      <trkpt lon="35.10338835418224" lat="31.793397339060903">
        <ele>577.2000122070312</ele>
        <time>2014-07-04T05:51:24.000Z</time>
      </trkpt>
      <trkpt lon="35.10326195508242" lat="31.79335911758244">
        <ele>577.5999755859375</ele>
        <time>2014-07-04T05:51:30.000Z</time>
      </trkpt>
      <trkpt lon="35.10310127399862" lat="31.79333313368261">
        <ele>579.0</ele>
        <time>2014-07-04T05:51:37.000Z</time>
      </trkpt>
      <trkpt lon="35.10297009721398" lat="31.793323662132025">
        <ele>580.7999877929688</ele>
        <time>2014-07-04T05:51:43.000Z</time>
      </trkpt>
      <trkpt lon="35.10283078998327" lat="31.793329445645213">
        <ele>583.0</ele>
        <time>2014-07-04T05:51:51.000Z</time>
      </trkpt>
      <trkpt lon="35.10273766703904" lat="31.793321147561073">
        <ele>583.7999877929688</ele>
        <time>2014-07-04T05:51:58.000Z</time>
      </trkpt>
      <trkpt lon="35.10262886993587" lat="31.79329264909029">
        <ele>584.2000122070312</ele>
        <time>2014-07-04T05:52:04.000Z</time>
      </trkpt>
      <trkpt lon="35.102491825819016" lat="31.79326331242919">
        <ele>584.7999877929688</ele>
        <time>2014-07-04T05:52:13.000Z</time>
      </trkpt>
      <trkpt lon="35.10232879780233" lat="31.793212853372097">
        <ele>585.2000122070312</ele>
        <time>2014-07-04T05:52:22.000Z</time>
      </trkpt>
      <trkpt lon="35.1022026501596" lat="31.793176727369428">
        <ele>585.4000244140625</ele>
        <time>2014-07-04T05:52:28.000Z</time>
      </trkpt>
      <trkpt lon="35.102079939097166" lat="31.79313976317644">
        <ele>585.5999755859375</ele>
        <time>2014-07-04T05:52:34.000Z</time>
      </trkpt>
      <trkpt lon="35.101944487541914" lat="31.793098775669932">
        <ele>586.2000122070312</ele>
        <time>2014-07-04T05:52:41.000Z</time>
      </trkpt>
      <trkpt lon="35.10179378092289" lat="31.79307136684656">
        <ele>587.7999877929688</ele>
        <time>2014-07-04T05:52:50.000Z</time>
      </trkpt>
      <trkpt lon="35.10167702101171" lat="31.79304680787027">
        <ele>589.0</ele>
        <time>2014-07-04T05:52:59.000Z</time>
      </trkpt>
      <trkpt lon="35.10166964493692" lat="31.793039431795478">
        <ele>588.7999877929688</ele>
        <time>2014-07-04T05:53:00.000Z</time>
      </trkpt>
      <trkpt lon="35.10159747675061" lat="31.792984111234546">
        <ele>587.7999877929688</ele>
        <time>2014-07-04T05:53:06.000Z</time>
      </trkpt>
      <trkpt lon="35.101417852565646" lat="31.79293842986226">
        <ele>589.4000244140625</ele>
        <time>2014-07-04T05:53:17.000Z</time>
      </trkpt>
      <trkpt lon="35.10132816620171" lat="31.79288361221552">
        <ele>588.7999877929688</ele>
        <time>2014-07-04T05:53:25.000Z</time>
      </trkpt>
      <trkpt lon="35.10115164332092" lat="31.79281387478113">
        <ele>589.5999755859375</ele>
        <time>2014-07-04T05:53:36.000Z</time>
      </trkpt>
      <trkpt lon="35.10097386315465" lat="31.79278495721519">
        <ele>592.2000122070312</ele>
        <time>2014-07-04T05:53:47.000Z</time>
      </trkpt>
      <trkpt lon="35.10086012072861" lat="31.792789734899998">
        <ele>595.0</ele>
        <time>2014-07-04T05:53:56.000Z</time>
      </trkpt>
      <trkpt lon="35.10074319317937" lat="31.79277950897813">
        <ele>596.5999755859375</ele>
        <time>2014-07-04T05:54:04.000Z</time>
      </trkpt>
      <trkpt lon="35.10068225674331" lat="31.792797446250916">
        <ele>598.0</ele>
        <time>2014-07-04T05:54:08.000Z</time>
      </trkpt>
      <trkpt lon="35.10054487735033" lat="31.79280549287796">
        <ele>600.4000244140625</ele>
        <time>2014-07-04T05:54:18.000Z</time>
      </trkpt>
      <trkpt lon="35.10052199475467" lat="31.792807588353753">
        <ele>601.0</ele>
        <time>2014-07-04T05:54:20.000Z</time>
      </trkpt>
      <trkpt lon="35.10042074136436" lat="31.7927982006222">
        <ele>602.2000122070312</ele>
        <time>2014-07-04T05:54:29.000Z</time>
      </trkpt>
      <trkpt lon="35.10040640830994" lat="31.792796524241567">
        <ele>602.4000244140625</ele>
        <time>2014-07-04T05:54:30.000Z</time>
      </trkpt>
      <trkpt lon="35.10034404695034" lat="31.792773809283972">
        <ele>602.5999755859375</ele>
        <time>2014-07-04T05:54:34.000Z</time>
      </trkpt>
      <trkpt lon="35.100174732506275" lat="31.792694600299">
        <ele>602.5999755859375</ele>
        <time>2014-07-04T05:54:42.000Z</time>
      </trkpt>
      <trkpt lon="35.10011698119342" lat="31.79267599247396">
        <ele>602.7999877929688</ele>
        <time>2014-07-04T05:54:45.000Z</time>
      </trkpt>
      <trkpt lon="35.09998228400946" lat="31.79261488839984">
        <ele>602.7999877929688</ele>
        <time>2014-07-04T05:54:55.000Z</time>
      </trkpt>
      <trkpt lon="35.0999713037163" lat="31.792600052431226">
        <ele>602.5999755859375</ele>
        <time>2014-07-04T05:55:02.000Z</time>
      </trkpt>
      <trkpt lon="35.09996686130762" lat="31.792586389929056">
        <ele>602.2000122070312</ele>
        <time>2014-07-04T05:55:22.000Z</time>
      </trkpt>
      <trkpt lon="35.099986642599106" lat="31.792581444606185">
        <ele>601.5999755859375</ele>
        <time>2014-07-04T05:55:40.000Z</time>
      </trkpt>
      <trkpt lon="35.09998152963817" lat="31.79258714430034">
        <ele>602.0</ele>
        <time>2014-07-04T05:56:01.000Z</time>
      </trkpt>
      <trkpt lon="35.09998798370361" lat="31.79258856922388">
        <ele>601.7999877929688</ele>
        <time>2014-07-04T05:56:18.000Z</time>
      </trkpt>
      <trkpt lon="35.09999611414969" lat="31.79260265082121">
        <ele>602.2000122070312</ele>
        <time>2014-07-04T05:56:37.000Z</time>
      </trkpt>
      <trkpt lon="35.09998722933233" lat="31.792593095451593">
        <ele>602.0</ele>
        <time>2014-07-04T05:56:52.000Z</time>
      </trkpt>
      <trkpt lon="35.09998722933233" lat="31.79259384982288">
        <ele>602.0</ele>
        <time>2014-07-04T05:57:10.000Z</time>
      </trkpt>
      <trkpt lon="35.09998538531363" lat="31.792590664699674">
        <ele>602.0</ele>
        <time>2014-07-04T05:57:28.000Z</time>
      </trkpt>
      <trkpt lon="35.0999247841537" lat="31.792586809024215">
        <ele>602.7999877929688</ele>
        <time>2014-07-04T05:57:34.000Z</time>
      </trkpt>
      <trkpt lon="35.09977147914469" lat="31.79253676906228">
        <ele>603.5999755859375</ele>
        <time>2014-07-04T05:57:42.000Z</time>
      </trkpt>
      <trkpt lon="35.09957165457308" lat="31.79242881014943">
        <ele>602.5999755859375</ele>
        <time>2014-07-04T05:57:50.000Z</time>
      </trkpt>
      <trkpt lon="35.09945615194738" lat="31.792387403547764">
        <ele>602.5999755859375</ele>
        <time>2014-07-04T05:57:56.000Z</time>
      </trkpt>
      <trkpt lon="35.09936881251633" lat="31.792353792116046">
        <ele>602.4000244140625</ele>
        <time>2014-07-04T05:58:00.000Z</time>
      </trkpt>
      <trkpt lon="35.0993409845978" lat="31.792352870106697">
        <ele>602.5999755859375</ele>
        <time>2014-07-04T05:58:05.000Z</time>
      </trkpt>
      <trkpt lon="35.09930469095707" lat="31.792355552315712">
        <ele>603.2000122070312</ele>
        <time>2014-07-04T05:58:12.000Z</time>
      </trkpt>
      <trkpt lon="35.09926546365023" lat="31.79236670024693">
        <ele>603.7999877929688</ele>
        <time>2014-07-04T05:58:19.000Z</time>
      </trkpt>
      <trkpt lon="35.09926403872669" lat="31.792365610599518">
        <ele>603.7999877929688</ele>
        <time>2014-07-04T05:58:29.000Z</time>
      </trkpt>
      <trkpt lon="35.09923243895173" lat="31.79235739633441">
        <ele>603.7999877929688</ele>
        <time>2014-07-04T05:58:37.000Z</time>
      </trkpt>
      <trkpt lon="35.09917267598212" lat="31.79235152900219">
        <ele>604.2000122070312</ele>
        <time>2014-07-04T05:58:45.000Z</time>
      </trkpt>
      <trkpt lon="35.0991216301918" lat="31.792345326393843">
        <ele>604.5999755859375</ele>
        <time>2014-07-04T05:58:53.000Z</time>
      </trkpt>
      <trkpt lon="35.09911039844155" lat="31.792339123785496">
        <ele>604.5999755859375</ele>
        <time>2014-07-04T05:59:05.000Z</time>
      </trkpt>
      <trkpt lon="35.09908139705658" lat="31.792346416041255">
        <ele>605.0</ele>
        <time>2014-07-04T05:59:19.000Z</time>
      </trkpt>
      <trkpt lon="35.09906974621117" lat="31.792337112128735">
        <ele>604.7999877929688</ele>
        <time>2014-07-04T05:59:36.000Z</time>
      </trkpt>
      <trkpt lon="35.09907955303788" lat="31.79235647432506">
        <ele>605.2000122070312</ele>
        <time>2014-07-04T05:59:54.000Z</time>
      </trkpt>
      <trkpt lon="35.099092964082956" lat="31.79236770607531">
        <ele>605.4000244140625</ele>
        <time>2014-07-04T06:00:17.000Z</time>
      </trkpt>
      <trkpt lon="35.09908290579915" lat="31.792370304465294">
        <ele>605.5999755859375</ele>
        <time>2014-07-04T06:00:33.000Z</time>
      </trkpt>
      <trkpt lon="35.09906915947795" lat="31.792364604771137">
        <ele>605.5999755859375</ele>
        <time>2014-07-04T06:00:42.000Z</time>
      </trkpt>
      <trkpt lon="35.09906723164022" lat="31.79237214848399">
        <ele>605.7999877929688</ele>
        <time>2014-07-04T06:00:53.000Z</time>
      </trkpt>
      <trkpt lon="35.09905004873872" lat="31.792363012209535">
        <ele>605.7999877929688</ele>
        <time>2014-07-04T06:01:14.000Z</time>
      </trkpt>
      <trkpt lon="35.099063040688634" lat="31.792344823479652">
        <ele>605.2000122070312</ele>
        <time>2014-07-04T06:01:26.000Z</time>
      </trkpt>
      <trkpt lon="35.09903487749398" lat="31.792366113513708">
        <ele>606.0</ele>
        <time>2014-07-04T06:01:48.000Z</time>
      </trkpt>
      <trkpt lon="35.0990320276469" lat="31.792382122948766">
        <ele>606.4000244140625</ele>
        <time>2014-07-04T06:02:08.000Z</time>
      </trkpt>
      <trkpt lon="35.099034709855914" lat="31.792385978624225">
        <ele>606.5999755859375</ele>
        <time>2014-07-04T06:02:28.000Z</time>
      </trkpt>
      <trkpt lon="35.09903563186526" lat="31.792385140433908">
        <ele>606.5999755859375</ele>
        <time>2014-07-04T06:02:45.000Z</time>
      </trkpt>
      <trkpt lon="35.0990336202085" lat="31.79238916374743">
        <ele>606.5999755859375</ele>
        <time>2014-07-04T06:02:59.000Z</time>
      </trkpt>
      <trkpt lon="35.09904292412102" lat="31.792363179847598">
        <ele>605.7999877929688</ele>
        <time>2014-07-04T06:03:09.000Z</time>
      </trkpt>
      <trkpt lon="35.099016185849905" lat="31.792356139048934">
        <ele>605.7999877929688</ele>
        <time>2014-07-04T06:03:17.000Z</time>
      </trkpt>
      <trkpt lon="35.0989921297878" lat="31.792330909520388">
        <ele>605.4000244140625</ele>
        <time>2014-07-04T06:03:22.000Z</time>
      </trkpt>
      <trkpt lon="35.09889246895909" lat="31.79229528643191">
        <ele>605.4000244140625</ele>
        <time>2014-07-04T06:03:27.000Z</time>
      </trkpt>
      <trkpt lon="35.098751317709684" lat="31.792318085208535">
        <ele>607.2000122070312</ele>
        <time>2014-07-04T06:03:35.000Z</time>
      </trkpt>
      <trkpt lon="35.0986139383167" lat="31.792336106300354">
        <ele>608.2000122070312</ele>
        <time>2014-07-04T06:03:42.000Z</time>
      </trkpt>
      <trkpt lon="35.09859801270068" lat="31.792330741882324">
        <ele>608.0</ele>
        <time>2014-07-04T06:03:43.000Z</time>
      </trkpt>
      <trkpt lon="35.098410760983825" lat="31.792295118793845">
        <ele>607.5999755859375</ele>
        <time>2014-07-04T06:03:50.000Z</time>
      </trkpt>
      <trkpt lon="35.098231974989176" lat="31.79232076741755">
        <ele>609.0</ele>
        <time>2014-07-04T06:03:57.000Z</time>
      </trkpt>
      <trkpt lon="35.09806517511606" lat="31.792412800714374">
        <ele>612.2000122070312</ele>
        <time>2014-07-04T06:04:04.000Z</time>
      </trkpt>
      <trkpt lon="35.09787113405764" lat="31.792525453493">
        <ele>613.7999877929688</ele>
        <time>2014-07-04T06:04:12.000Z</time>
      </trkpt>
      <trkpt lon="35.09773140773177" lat="31.792648499831557">
        <ele>614.4000244140625</ele>
        <time>2014-07-04T06:04:18.000Z</time>
      </trkpt>
      <trkpt lon="35.09758271276951" lat="31.79277280345559">
        <ele>615.2000122070312</ele>
        <time>2014-07-04T06:04:25.000Z</time>
      </trkpt>
      <trkpt lon="35.09756167419255" lat="31.792936334386468">
        <ele>616.5999755859375</ele>
        <time>2014-07-04T06:04:32.000Z</time>
      </trkpt>
      <trkpt lon="35.097567373886704" lat="31.79312450811267">
        <ele>617.5999755859375</ele>
        <time>2014-07-04T06:04:39.000Z</time>
      </trkpt>
      <trkpt lon="35.09755287319422" lat="31.79341728799045">
        <ele>618.4000244140625</ele>
        <time>2014-07-04T06:04:48.000Z</time>
      </trkpt>
      <trkpt lon="35.09757483378053" lat="31.793732699006796">
        <ele>619.5999755859375</ele>
        <time>2014-07-04T06:04:56.000Z</time>
      </trkpt>
      <trkpt lon="35.097577683627605" lat="31.793855242431164">
        <ele>619.4000244140625</ele>
        <time>2014-07-04T06:04:59.000Z</time>
      </trkpt>
      <trkpt lon="35.09758329950273" lat="31.793948784470558">
        <ele>619.2000122070312</ele>
        <time>2014-07-04T06:05:01.000Z</time>
      </trkpt>
      <trkpt lon="35.097582042217255" lat="31.79399622604251">
        <ele>619.0</ele>
        <time>2014-07-04T06:05:02.000Z</time>
      </trkpt>
      <trkpt lon="35.09758807718754" lat="31.79403788410127">
        <ele>619.0</ele>
        <time>2014-07-04T06:05:03.000Z</time>
      </trkpt>
      <trkpt lon="35.097600147128105" lat="31.79407736286521">
        <ele>619.5999755859375</ele>
        <time>2014-07-04T06:05:04.000Z</time>
      </trkpt>
      <trkpt lon="35.09761196561158" lat="31.79411885328591">
        <ele>620.5999755859375</ele>
        <time>2014-07-04T06:05:05.000Z</time>
      </trkpt>
      <trkpt lon="35.09757458232343" lat="31.794250030070543">
        <ele>621.4000244140625</ele>
        <time>2014-07-04T06:05:09.000Z</time>
      </trkpt>
      <trkpt lon="35.09752219542861" lat="31.79440626874566">
        <ele>622.2000122070312</ele>
        <time>2014-07-04T06:05:14.000Z</time>
      </trkpt>
      <trkpt lon="35.09745656512678" lat="31.794540295377374">
        <ele>621.4000244140625</ele>
        <time>2014-07-04T06:05:19.000Z</time>
      </trkpt>
      <trkpt lon="35.09742203168571" lat="31.79470717906952">
        <ele>621.2000122070312</ele>
        <time>2014-07-04T06:05:25.000Z</time>
      </trkpt>
      <trkpt lon="35.09731650352478" lat="31.794869117438793">
        <ele>618.4000244140625</ele>
        <time>2014-07-04T06:05:31.000Z</time>
      </trkpt>
      <trkpt lon="35.09729093872011" lat="31.794907171279192">
        <ele>618.2000122070312</ele>
        <time>2014-07-04T06:05:32.000Z</time>
      </trkpt>
      <trkpt lon="35.09727006778121" lat="31.794945560395718">
        <ele>618.5999755859375</ele>
        <time>2014-07-04T06:05:33.000Z</time>
      </trkpt>
      <trkpt lon="35.09725607000291" lat="31.794980680570006">
        <ele>619.0</ele>
        <time>2014-07-04T06:05:34.000Z</time>
      </trkpt>
      <trkpt lon="35.09719094261527" lat="31.795109678059816">
        <ele>619.7999877929688</ele>
        <time>2014-07-04T06:05:40.000Z</time>
      </trkpt>
      <trkpt lon="35.09707954712212" lat="31.795197520405054">
        <ele>617.7999877929688</ele>
        <time>2014-07-04T06:05:44.000Z</time>
      </trkpt>
      <trkpt lon="35.097059765830636" lat="31.795231634750962">
        <ele>618.0</ele>
        <time>2014-07-04T06:05:45.000Z</time>
      </trkpt>
      <trkpt lon="35.09700486436486" lat="31.795304641127586">
        <ele>617.7999877929688</ele>
        <time>2014-07-04T06:05:47.000Z</time>
      </trkpt>
      <trkpt lon="35.09688693098724" lat="31.795465908944607">
        <ele>617.5999755859375</ele>
        <time>2014-07-04T06:05:52.000Z</time>
      </trkpt>
      <trkpt lon="35.09686505421996" lat="31.795493736863136">
        <ele>617.4000244140625</ele>
        <time>2014-07-04T06:05:53.000Z</time>
      </trkpt>
      <trkpt lon="35.09674049913883" lat="31.795658189803362">
        <ele>616.4000244140625</ele>
        <time>2014-07-04T06:05:59.000Z</time>
      </trkpt>
      <trkpt lon="35.0966315343976" lat="31.79578023031354">
        <ele>614.7999877929688</ele>
        <time>2014-07-04T06:06:04.000Z</time>
      </trkpt>
      <trkpt lon="35.0966093223542" lat="31.7958099860698">
        <ele>614.5999755859375</ele>
        <time>2014-07-04T06:06:05.000Z</time>
      </trkpt>
      <trkpt lon="35.09647504426539" lat="31.79600838571787">
        <ele>613.2000122070312</ele>
        <time>2014-07-04T06:06:12.000Z</time>
      </trkpt>
      <trkpt lon="35.096324840560555" lat="31.796221788972616">
        <ele>611.4000244140625</ele>
        <time>2014-07-04T06:06:20.000Z</time>
      </trkpt>
      <trkpt lon="35.09626834653318" lat="31.796386409550905">
        <ele>612.2000122070312</ele>
        <time>2014-07-04T06:06:26.000Z</time>
      </trkpt>
      <trkpt lon="35.09617983363569" lat="31.796582294628024">
        <ele>611.5999755859375</ele>
        <time>2014-07-04T06:06:32.000Z</time>
      </trkpt>
      <trkpt lon="35.09608805179596" lat="31.796906758099794">
        <ele>607.7999877929688</ele>
        <time>2014-07-04T06:06:40.000Z</time>
      </trkpt>
      <trkpt lon="35.0960635766387" lat="31.796993175521493">
        <ele>606.5999755859375</ele>
        <time>2014-07-04T06:06:42.000Z</time>
      </trkpt>
      <trkpt lon="35.0960186496377" lat="31.797429285943508">
        <ele>604.5999755859375</ele>
        <time>2014-07-04T06:06:51.000Z</time>
      </trkpt>
      <trkpt lon="35.09603918530047" lat="31.797774536535144">
        <ele>601.5999755859375</ele>
        <time>2014-07-04T06:06:59.000Z</time>
      </trkpt>
      <trkpt lon="35.09599752724171" lat="31.79802062921226">
        <ele>598.5999755859375</ele>
        <time>2014-07-04T06:07:07.000Z</time>
      </trkpt>
      <trkpt lon="35.095989564433694" lat="31.798055665567517">
        <ele>598.5999755859375</ele>
        <time>2014-07-04T06:07:08.000Z</time>
      </trkpt>
      <trkpt lon="35.09599098935723" lat="31.798371579498053">
        <ele>600.0</ele>
        <time>2014-07-04T06:07:15.000Z</time>
      </trkpt>
      <trkpt lon="35.09600339457393" lat="31.79848188534379">
        <ele>600.5999755859375</ele>
        <time>2014-07-04T06:07:18.000Z</time>
      </trkpt>
      <trkpt lon="35.095921168103814" lat="31.798572996631265">
        <ele>599.2000122070312</ele>
        <time>2014-07-04T06:07:22.000Z</time>
      </trkpt>
      <trkpt lon="35.095774065703154" lat="31.798598980531096">
        <ele>597.2000122070312</ele>
        <time>2014-07-04T06:07:27.000Z</time>
      </trkpt>
      <trkpt lon="35.095543479546905" lat="31.79858062416315">
        <ele>596.7999877929688</ele>
        <time>2014-07-04T06:07:34.000Z</time>
      </trkpt>
      <trkpt lon="35.0953035056591" lat="31.7985297460109">
        <ele>595.5999755859375</ele>
        <time>2014-07-04T06:07:42.000Z</time>
      </trkpt>
      <trkpt lon="35.09508113376796" lat="31.798459254205227">
        <ele>593.7999877929688</ele>
        <time>2014-07-04T06:07:50.000Z</time>
      </trkpt>
      <trkpt lon="35.09489832445979" lat="31.798409717157483">
        <ele>592.5999755859375</ele>
        <time>2014-07-04T06:07:57.000Z</time>
      </trkpt>
      <trkpt lon="35.09472381323576" lat="31.798372250050306">
        <ele>591.7999877929688</ele>
        <time>2014-07-04T06:08:04.000Z</time>
      </trkpt>
      <trkpt lon="35.09452449157834" lat="31.79829865694046">
        <ele>591.0</ele>
        <time>2014-07-04T06:08:12.000Z</time>
      </trkpt>
      <trkpt lon="35.09430471807718" lat="31.79822338744998">
        <ele>591.0</ele>
        <time>2014-07-04T06:08:20.000Z</time>
      </trkpt>
      <trkpt lon="35.0941017922014" lat="31.798139149323106">
        <ele>590.7999877929688</ele>
        <time>2014-07-04T06:08:28.000Z</time>
      </trkpt>
      <trkpt lon="35.09387908503413" lat="31.79805683903396">
        <ele>590.7999877929688</ele>
        <time>2014-07-04T06:08:37.000Z</time>
      </trkpt>
      <trkpt lon="35.09366266429424" lat="31.797969583421946">
        <ele>590.5999755859375</ele>
        <time>2014-07-04T06:08:46.000Z</time>
      </trkpt>
      <trkpt lon="35.09349343366921" lat="31.79790873080492">
        <ele>590.2000122070312</ele>
        <time>2014-07-04T06:08:53.000Z</time>
      </trkpt>
      <trkpt lon="35.09330517612398" lat="31.79783647879958">
        <ele>590.2000122070312</ele>
        <time>2014-07-04T06:09:00.000Z</time>
      </trkpt>
      <trkpt lon="35.093004601076245" lat="31.79773673415184">
        <ele>591.0</ele>
        <time>2014-07-04T06:09:10.000Z</time>
      </trkpt>
      <trkpt lon="35.09273847565055" lat="31.797708235681057">
        <ele>592.4000244140625</ele>
        <time>2014-07-04T06:09:19.000Z</time>
      </trkpt>
      <trkpt lon="35.09266521781683" lat="31.79768493399024">
        <ele>592.0</ele>
        <time>2014-07-04T06:09:26.000Z</time>
      </trkpt>
      <trkpt lon="35.09253228083253" lat="31.797597846016288">
        <ele>590.2000122070312</ele>
        <time>2014-07-04T06:09:32.000Z</time>
      </trkpt>
      <trkpt lon="35.092489616945386" lat="31.797595247626305">
        <ele>590.2000122070312</ele>
        <time>2014-07-04T06:09:33.000Z</time>
      </trkpt>
      <trkpt lon="35.09238584898412" lat="31.79758728481829">
        <ele>590.5999755859375</ele>
        <time>2014-07-04T06:09:39.000Z</time>
      </trkpt>
      <trkpt lon="35.09235206991434" lat="31.79756666533649">
        <ele>590.2000122070312</ele>
        <time>2014-07-04T06:09:58.000Z</time>
      </trkpt>
      <trkpt lon="35.092343520373106" lat="31.797576639801264">
        <ele>590.5999755859375</ele>
        <time>2014-07-04T06:10:21.000Z</time>
      </trkpt>
      <trkpt lon="35.09230119176209" lat="31.797568760812283">
        <ele>590.5999755859375</ele>
        <time>2014-07-04T06:10:34.000Z</time>
      </trkpt>
      <trkpt lon="35.0920934882015" lat="31.797559624537826">
        <ele>591.4000244140625</ele>
        <time>2014-07-04T06:10:41.000Z</time>
      </trkpt>
      <trkpt lon="35.09192945435643" lat="31.797531628981233">
        <ele>590.4000244140625</ele>
        <time>2014-07-04T06:10:48.000Z</time>
      </trkpt>
      <trkpt lon="35.09190732613206" lat="31.797516038641334">
        <ele>590.0</ele>
        <time>2014-07-04T06:10:55.000Z</time>
      </trkpt>
      <trkpt lon="35.09186776354909" lat="31.797516541555524">
        <ele>590.0</ele>
        <time>2014-07-04T06:11:01.000Z</time>
      </trkpt>
      <trkpt lon="35.09171051904559" lat="31.79750111885369">
        <ele>589.5999755859375</ele>
        <time>2014-07-04T06:11:06.000Z</time>
      </trkpt>
      <trkpt lon="35.091433161869645" lat="31.797544788569212">
        <ele>590.7999877929688</ele>
        <time>2014-07-04T06:11:14.000Z</time>
      </trkpt>
      <trkpt lon="35.09123115800321" lat="31.797529449686408">
        <ele>590.0</ele>
        <time>2014-07-04T06:11:19.000Z</time>
      </trkpt>
      <trkpt lon="35.091043738648295" lat="31.797459041699767">
        <ele>588.7999877929688</ele>
        <time>2014-07-04T06:11:25.000Z</time>
      </trkpt>
      <trkpt lon="35.09087769314647" lat="31.797388717532158">
        <ele>587.5999755859375</ele>
        <time>2014-07-04T06:11:31.000Z</time>
      </trkpt>
      <trkpt lon="35.09072455577552" lat="31.79732769727707">
        <ele>586.7999877929688</ele>
        <time>2014-07-04T06:11:37.000Z</time>
      </trkpt>
      <trkpt lon="35.09056965820491" lat="31.79728570394218">
        <ele>586.4000244140625</ele>
        <time>2014-07-04T06:11:43.000Z</time>
      </trkpt>
      <trkpt lon="35.09042833931744" lat="31.79724957793951">
        <ele>586.2000122070312</ele>
        <time>2014-07-04T06:11:50.000Z</time>
      </trkpt>
      <trkpt lon="35.090319123119116" lat="31.797180343419313">
        <ele>584.7999877929688</ele>
        <time>2014-07-04T06:11:55.000Z</time>
      </trkpt>
      <trkpt lon="35.09018249809742" lat="31.797060649842024">
        <ele>582.5999755859375</ele>
        <time>2014-07-04T06:12:01.000Z</time>
      </trkpt>
      <trkpt lon="35.09012474678457" lat="31.79701396264136">
        <ele>581.7999877929688</ele>
        <time>2014-07-04T06:12:05.000Z</time>
      </trkpt>
      <trkpt lon="35.09008761495352" lat="31.797008514404297">
        <ele>581.7999877929688</ele>
        <time>2014-07-04T06:12:07.000Z</time>
      </trkpt>
      <trkpt lon="35.089986361563206" lat="31.796958977356553">
        <ele>581.0</ele>
        <time>2014-07-04T06:12:12.000Z</time>
      </trkpt>
      <trkpt lon="35.08983842097223" lat="31.79691136814654">
        <ele>581.2000122070312</ele>
        <time>2014-07-04T06:12:19.000Z</time>
      </trkpt>
      <trkpt lon="35.08982031606138" lat="31.79688597097993">
        <ele>580.5999755859375</ele>
        <time>2014-07-04T06:12:21.000Z</time>
      </trkpt>
      <trkpt lon="35.08962853811681" lat="31.79675655439496">
        <ele>578.5999755859375</ele>
        <time>2014-07-04T06:12:28.000Z</time>
      </trkpt>
      <trkpt lon="35.08944891393185" lat="31.796714225783944">
        <ele>578.5999755859375</ele>
        <time>2014-07-04T06:12:34.000Z</time>
      </trkpt>
      <trkpt lon="35.089119002223015" lat="31.79660660214722">
        <ele>577.5999755859375</ele>
        <time>2014-07-04T06:12:41.000Z</time>
      </trkpt>
      <trkpt lon="35.08885052986443" lat="31.7965732421726">
        <ele>578.2000122070312</ele>
        <time>2014-07-04T06:12:47.000Z</time>
      </trkpt>
      <trkpt lon="35.08868783712387" lat="31.796552119776607">
        <ele>578.2000122070312</ele>
        <time>2014-07-04T06:12:52.000Z</time>
      </trkpt>
      <trkpt lon="35.088572753593326" lat="31.796552538871765">
        <ele>578.4000244140625</ele>
        <time>2014-07-04T06:12:56.000Z</time>
      </trkpt>
      <trkpt lon="35.08833361789584" lat="31.79652060382068">
        <ele>577.7999877929688</ele>
        <time>2014-07-04T06:13:03.000Z</time>
      </trkpt>
      <trkpt lon="35.088145108893514" lat="31.796521106734872">
        <ele>578.0</ele>
        <time>2014-07-04T06:13:09.000Z</time>
      </trkpt>
      <trkpt lon="35.08797738701105" lat="31.79648531600833">
        <ele>577.2000122070312</ele>
        <time>2014-07-04T06:13:15.000Z</time>
      </trkpt>
      <trkpt lon="35.087819807231426" lat="31.7964955419302">
        <ele>577.0</ele>
        <time>2014-07-04T06:13:20.000Z</time>
      </trkpt>
      <trkpt lon="35.08766650222242" lat="31.796536277979612">
        <ele>576.7999877929688</ele>
        <time>2014-07-04T06:13:27.000Z</time>
      </trkpt>
      <trkpt lon="35.087597435340285" lat="31.796533009037375">
        <ele>576.2000122070312</ele>
        <time>2014-07-04T06:13:29.000Z</time>
      </trkpt>
      <trkpt lon="35.08756063878536" lat="31.796540720388293">
        <ele>576.2000122070312</ele>
        <time>2014-07-04T06:13:30.000Z</time>
      </trkpt>
      <trkpt lon="35.08752593770623" lat="31.796548767015338">
        <ele>576.0</ele>
        <time>2014-07-04T06:13:31.000Z</time>
      </trkpt>
      <trkpt lon="35.08749064989388" lat="31.796554131433368">
        <ele>576.0</ele>
        <time>2014-07-04T06:13:32.000Z</time>
      </trkpt>
      <trkpt lon="35.08745511062443" lat="31.79655564017594">
        <ele>575.7999877929688</ele>
        <time>2014-07-04T06:13:33.000Z</time>
      </trkpt>
      <trkpt lon="35.08741680532694" lat="31.79655371233821">
        <ele>575.4000244140625</ele>
        <time>2014-07-04T06:13:34.000Z</time>
      </trkpt>
      <trkpt lon="35.08710231631994" lat="31.796600064262748">
        <ele>574.7999877929688</ele>
        <time>2014-07-04T06:13:42.000Z</time>
      </trkpt>
      <trkpt lon="35.08703098632395" lat="31.79660065099597">
        <ele>574.2000122070312</ele>
        <time>2014-07-04T06:13:44.000Z</time>
      </trkpt>
      <trkpt lon="35.087003242224455" lat="31.796583216637373">
        <ele>573.4000244140625</ele>
        <time>2014-07-04T06:13:50.000Z</time>
      </trkpt>
      <trkpt lon="35.08695211261511" lat="31.796575505286455">
        <ele>572.5999755859375</ele>
        <time>2014-07-04T06:13:54.000Z</time>
      </trkpt>
      <trkpt lon="35.086932331323624" lat="31.7965766787529">
        <ele>572.5999755859375</ele>
        <time>2014-07-04T06:13:55.000Z</time>
      </trkpt>
      <trkpt lon="35.08691221475601" lat="31.79657525382936">
        <ele>572.4000244140625</ele>
        <time>2014-07-04T06:13:56.000Z</time>
      </trkpt>
      <trkpt lon="35.08676653727889" lat="31.796565279364586">
        <ele>570.7999877929688</ele>
        <time>2014-07-04T06:14:01.000Z</time>
      </trkpt>
      <trkpt lon="35.0865709874779" lat="31.796533847227693">
        <ele>568.2000122070312</ele>
        <time>2014-07-04T06:14:07.000Z</time>
      </trkpt>
      <trkpt lon="35.08638247847557" lat="31.79650434292853">
        <ele>566.0</ele>
        <time>2014-07-04T06:14:12.000Z</time>
      </trkpt>
      <trkpt lon="35.086269322782755" lat="31.796516161412">
        <ele>565.4000244140625</ele>
        <time>2014-07-04T06:14:16.000Z</time>
      </trkpt>
      <trkpt lon="35.08608148433268" lat="31.796464528888464">
        <ele>562.5999755859375</ele>
        <time>2014-07-04T06:14:23.000Z</time>
      </trkpt>
      <trkpt lon="35.08589708246291" lat="31.796435359865427">
        <ele>560.2000122070312</ele>
        <time>2014-07-04T06:14:30.000Z</time>
      </trkpt>
      <trkpt lon="35.08572030812502" lat="31.796502331271768">
        <ele>559.7999877929688</ele>
        <time>2014-07-04T06:14:36.000Z</time>
      </trkpt>
      <trkpt lon="35.085682924836874" lat="31.796513982117176">
        <ele>559.5999755859375</ele>
        <time>2014-07-04T06:14:37.000Z</time>
      </trkpt>
      <trkpt lon="35.08547564037144" lat="31.796547006815672">
        <ele>558.4000244140625</ele>
        <time>2014-07-04T06:14:43.000Z</time>
      </trkpt>
      <trkpt lon="35.085358042269945" lat="31.796581204980612">
        <ele>558.2000122070312</ele>
        <time>2014-07-04T06:14:47.000Z</time>
      </trkpt>
      <trkpt lon="35.085136173292994" lat="31.796659408137202">
        <ele>558.0</ele>
        <time>2014-07-04T06:14:55.000Z</time>
      </trkpt>
      <trkpt lon="35.085051180794835" lat="31.79667206481099">
        <ele>557.5999755859375</ele>
        <time>2014-07-04T06:14:59.000Z</time>
      </trkpt>
      <trkpt lon="35.08495696820319" lat="31.796646332368255">
        <ele>556.0</ele>
        <time>2014-07-04T06:15:04.000Z</time>
      </trkpt>
      <trkpt lon="35.08485931903124" lat="31.796631831675768">
        <ele>554.5999755859375</ele>
        <time>2014-07-04T06:15:12.000Z</time>
      </trkpt>
      <trkpt lon="35.08487055078149" lat="31.796605847775936">
        <ele>554.2000122070312</ele>
        <time>2014-07-04T06:15:15.000Z</time>
      </trkpt>
      <trkpt lon="35.0849942676723" lat="31.796536864712834">
        <ele>553.5999755859375</ele>
        <time>2014-07-04T06:15:21.000Z</time>
      </trkpt>
      <trkpt lon="35.08513055741787" lat="31.79647752083838">
        <ele>553.7999877929688</ele>
        <time>2014-07-04T06:15:26.000Z</time>
      </trkpt>
      <trkpt lon="35.08521228097379" lat="31.796426977962255">
        <ele>553.5999755859375</ele>
        <time>2014-07-04T06:15:29.000Z</time>
      </trkpt>
      <trkpt lon="35.08535594679415" lat="31.79630166850984">
        <ele>552.4000244140625</ele>
        <time>2014-07-04T06:15:36.000Z</time>
      </trkpt>
      <trkpt lon="35.08547555655241" lat="31.796167055144906">
        <ele>550.5999755859375</ele>
        <time>2014-07-04T06:15:43.000Z</time>
      </trkpt>
      <trkpt lon="35.08564135059714" lat="31.796042416244745">
        <ele>549.5999755859375</ele>
        <time>2014-07-04T06:15:49.000Z</time>
      </trkpt>
      <trkpt lon="35.08572374470532" lat="31.79598751477897">
        <ele>549.4000244140625</ele>
        <time>2014-07-04T06:15:53.000Z</time>
      </trkpt>
      <trkpt lon="35.08582625538111" lat="31.795920794829726">
        <ele>548.7999877929688</ele>
        <time>2014-07-04T06:15:59.000Z</time>
      </trkpt>
      <trkpt lon="35.08586053736508" lat="31.795896319672465">
        <ele>548.5999755859375</ele>
        <time>2014-07-04T06:16:01.000Z</time>
      </trkpt>
      <trkpt lon="35.08600076660514" lat="31.795828761532903">
        <ele>548.2000122070312</ele>
        <time>2014-07-04T06:16:09.000Z</time>
      </trkpt>
      <trkpt lon="35.08601945824921" lat="31.795821553096175">
        <ele>548.2000122070312</ele>
        <time>2014-07-04T06:16:10.000Z</time>
      </trkpt>
      <trkpt lon="35.08617737330496" lat="31.79570940323174">
        <ele>547.2000122070312</ele>
        <time>2014-07-04T06:16:18.000Z</time>
      </trkpt>
      <trkpt lon="35.086263958364725" lat="31.795625584200025">
        <ele>546.2000122070312</ele>
        <time>2014-07-04T06:16:22.000Z</time>
      </trkpt>
      <trkpt lon="35.08644852787256" lat="31.795475967228413">
        <ele>544.2000122070312</ele>
        <time>2014-07-04T06:16:28.000Z</time>
      </trkpt>
      <trkpt lon="35.08662002161145" lat="31.795373875647783">
        <ele>543.2000122070312</ele>
        <time>2014-07-04T06:16:34.000Z</time>
      </trkpt>
      <trkpt lon="35.086650447919965" lat="31.79532391950488">
        <ele>542.4000244140625</ele>
        <time>2014-07-04T06:16:41.000Z</time>
      </trkpt>
      <trkpt lon="35.08652958087623" lat="31.79529986344278">
        <ele>541.2000122070312</ele>
        <time>2014-07-04T06:16:46.000Z</time>
      </trkpt>
      <trkpt lon="35.08629840798676" lat="31.795287625864148">
        <ele>539.4000244140625</ele>
        <time>2014-07-04T06:16:52.000Z</time>
      </trkpt>
      <trkpt lon="35.086166895926" lat="31.79525837302208">
        <ele>538.2000122070312</ele>
        <time>2014-07-04T06:16:57.000Z</time>
      </trkpt>
      <trkpt lon="35.08615340106189" lat="31.795249320566654">
        <ele>538.0</ele>
        <time>2014-07-04T06:16:58.000Z</time>
      </trkpt>
      <trkpt lon="35.0860839150846" lat="31.795175978913903">
        <ele>536.2000122070312</ele>
        <time>2014-07-04T06:17:03.000Z</time>
      </trkpt>
      <trkpt lon="35.086006885394454" lat="31.79514496587217">
        <ele>535.2000122070312</ele>
        <time>2014-07-04T06:17:07.000Z</time>
      </trkpt>
      <trkpt lon="35.08583229035139" lat="31.795142451301217">
        <ele>534.2000122070312</ele>
        <time>2014-07-04T06:17:15.000Z</time>
      </trkpt>
      <trkpt lon="35.08568024262786" lat="31.795099787414074">
        <ele>532.5999755859375</ele>
        <time>2014-07-04T06:17:20.000Z</time>
      </trkpt>
      <trkpt lon="35.08564461953938" lat="31.79510448127985">
        <ele>532.5999755859375</ele>
        <time>2014-07-04T06:17:21.000Z</time>
      </trkpt>
      <trkpt lon="35.08561628870666" lat="31.7951122764498">
        <ele>532.4000244140625</ele>
        <time>2014-07-04T06:17:22.000Z</time>
      </trkpt>
      <trkpt lon="35.08558695204556" lat="31.795115377753973">
        <ele>532.2000122070312</ele>
        <time>2014-07-04T06:17:23.000Z</time>
      </trkpt>
      <trkpt lon="35.085557866841555" lat="31.795114455744624">
        <ele>532.0</ele>
        <time>2014-07-04T06:17:24.000Z</time>
      </trkpt>
      <trkpt lon="35.08552827872336" lat="31.795110432431102">
        <ele>531.5999755859375</ele>
        <time>2014-07-04T06:17:25.000Z</time>
      </trkpt>
      <trkpt lon="35.085493326187134" lat="31.795103307813406">
        <ele>531.2000122070312</ele>
        <time>2014-07-04T06:17:26.000Z</time>
      </trkpt>
      <trkpt lon="35.0854570325464" lat="31.795095596462488">
        <ele>530.7999877929688</ele>
        <time>2014-07-04T06:17:27.000Z</time>
      </trkpt>
      <trkpt lon="35.085418978706" lat="31.79508486762643">
        <ele>530.4000244140625</ele>
        <time>2014-07-04T06:17:28.000Z</time>
      </trkpt>
      <trkpt lon="35.08537941612303" lat="31.79507715627551">
        <ele>529.7999877929688</ele>
        <time>2014-07-04T06:17:29.000Z</time>
      </trkpt>
      <trkpt lon="35.08534689433873" lat="31.79507900029421">
        <ele>529.5999755859375</ele>
        <time>2014-07-04T06:17:30.000Z</time>
      </trkpt>
      <trkpt lon="35.08531923405826" lat="31.79508587345481">
        <ele>529.5999755859375</ele>
        <time>2014-07-04T06:17:31.000Z</time>
      </trkpt>
      <trkpt lon="35.08529333397746" lat="31.795097440481186">
        <ele>529.5999755859375</ele>
        <time>2014-07-04T06:17:32.000Z</time>
      </trkpt>
      <trkpt lon="35.08526793681085" lat="31.795109594240785">
        <ele>529.5999755859375</ele>
        <time>2014-07-04T06:17:33.000Z</time>
      </trkpt>
      <trkpt lon="35.08516961708665" lat="31.795161310583353">
        <ele>529.7999877929688</ele>
        <time>2014-07-04T06:17:39.000Z</time>
      </trkpt>
      <trkpt lon="35.08513684384525" lat="31.795161478221416">
        <ele>529.5999755859375</ele>
        <time>2014-07-04T06:17:49.000Z</time>
      </trkpt>
      <trkpt lon="35.08511932566762" lat="31.79515871219337">
        <ele>529.4000244140625</ele>
        <time>2014-07-04T06:17:50.000Z</time>
      </trkpt>
      <trkpt lon="35.08510138839483" lat="31.795165166258812">
        <ele>529.4000244140625</ele>
        <time>2014-07-04T06:17:51.000Z</time>
      </trkpt>
      <trkpt lon="35.08509141393006" lat="31.795175559818745">
        <ele>529.4000244140625</ele>
        <time>2014-07-04T06:17:52.000Z</time>
      </trkpt>
      <trkpt lon="35.08508353494108" lat="31.795186288654804">
        <ele>529.5999755859375</ele>
        <time>2014-07-04T06:17:53.000Z</time>
      </trkpt>
      <trkpt lon="35.08507079444826" lat="31.79519383236766">
        <ele>529.5999755859375</ele>
        <time>2014-07-04T06:17:54.000Z</time>
      </trkpt>
      <trkpt lon="35.08505579084158" lat="31.795202465727925">
        <ele>529.5999755859375</ele>
        <time>2014-07-04T06:17:55.000Z</time>
      </trkpt>
      <trkpt lon="35.08504212833941" lat="31.79521386511624">
        <ele>529.7999877929688</ele>
        <time>2014-07-04T06:17:56.000Z</time>
      </trkpt>
      <trkpt lon="35.08489209227264" lat="31.79530086927116">
        <ele>530.0</ele>
        <time>2014-07-04T06:18:04.000Z</time>
      </trkpt>
      <trkpt lon="35.084682293236256" lat="31.795467920601368">
        <ele>530.7999877929688</ele>
        <time>2014-07-04T06:18:13.000Z</time>
      </trkpt>
      <trkpt lon="35.084541058167815" lat="31.79559892974794">
        <ele>532.0</ele>
        <time>2014-07-04T06:18:20.000Z</time>
      </trkpt>
      <trkpt lon="35.084310388192534" lat="31.795812165364623">
        <ele>532.7999877929688</ele>
        <time>2014-07-04T06:18:30.000Z</time>
      </trkpt>
      <trkpt lon="35.08401031605899" lat="31.79597611539066">
        <ele>532.5999755859375</ele>
        <time>2014-07-04T06:18:39.000Z</time>
      </trkpt>
      <trkpt lon="35.083727007731795" lat="31.79602112621069">
        <ele>531.2000122070312</ele>
        <time>2014-07-04T06:18:47.000Z</time>
      </trkpt>
      <trkpt lon="35.08344864472747" lat="31.79606513120234">
        <ele>531.7999877929688</ele>
        <time>2014-07-04T06:18:55.000Z</time>
      </trkpt>
      <trkpt lon="35.083173885941505" lat="31.796078961342573">
        <ele>531.7999877929688</ele>
        <time>2014-07-04T06:19:03.000Z</time>
      </trkpt>
      <trkpt lon="35.082901725545526" lat="31.796081140637398">
        <ele>532.0</ele>
        <time>2014-07-04T06:19:12.000Z</time>
      </trkpt>
      <trkpt lon="35.082688238471746" lat="31.79608122445643">
        <ele>532.4000244140625</ele>
        <time>2014-07-04T06:19:21.000Z</time>
      </trkpt>
      <trkpt lon="35.08248455822468" lat="31.796075105667114">
        <ele>532.7999877929688</ele>
        <time>2014-07-04T06:19:29.000Z</time>
      </trkpt>
      <trkpt lon="35.082290852442384" lat="31.796073094010353">
        <ele>534.2000122070312</ele>
        <time>2014-07-04T06:19:38.000Z</time>
      </trkpt>
      <trkpt lon="35.08212656714022" lat="31.7960914503783">
        <ele>536.2000122070312</ele>
        <time>2014-07-04T06:19:47.000Z</time>
      </trkpt>
      <trkpt lon="35.081933196634054" lat="31.7961345333606">
        <ele>537.4000244140625</ele>
        <time>2014-07-04T06:19:56.000Z</time>
      </trkpt>
      <trkpt lon="35.081710908561945" lat="31.796194799244404">
        <ele>538.7999877929688</ele>
        <time>2014-07-04T06:20:05.000Z</time>
      </trkpt>
      <trkpt lon="35.081528099253774" lat="31.796236289665103">
        <ele>540.5999755859375</ele>
        <time>2014-07-04T06:20:13.000Z</time>
      </trkpt>
      <trkpt lon="35.0812937412411" lat="31.79628062993288">
        <ele>542.5999755859375</ele>
        <time>2014-07-04T06:20:23.000Z</time>
      </trkpt>
      <trkpt lon="35.08107447065413" lat="31.796368220821023">
        <ele>546.0</ele>
        <time>2014-07-04T06:20:32.000Z</time>
      </trkpt>
      <trkpt lon="35.08093021810055" lat="31.796434856951237">
        <ele>547.4000244140625</ele>
        <time>2014-07-04T06:20:40.000Z</time>
      </trkpt>
      <trkpt lon="35.08077934384346" lat="31.796543737873435">
        <ele>549.5999755859375</ele>
        <time>2014-07-04T06:20:50.000Z</time>
      </trkpt>
      <trkpt lon="35.08076232858002" lat="31.796549102291465">
        <ele>549.7999877929688</ele>
        <time>2014-07-04T06:20:51.000Z</time>
      </trkpt>
      <trkpt lon="35.080588487908244" lat="31.796593526378274">
        <ele>550.5999755859375</ele>
        <time>2014-07-04T06:20:59.000Z</time>
      </trkpt>
      <trkpt lon="35.08043484762311" lat="31.79658900015056">
        <ele>550.2000122070312</ele>
        <time>2014-07-04T06:21:06.000Z</time>
      </trkpt>
      <trkpt lon="35.08027031086385" lat="31.79655916057527">
        <ele>550.0</ele>
        <time>2014-07-04T06:21:14.000Z</time>
      </trkpt>
      <trkpt lon="35.080124884843826" lat="31.796539966017008">
        <ele>550.2000122070312</ele>
        <time>2014-07-04T06:21:22.000Z</time>
      </trkpt>
      <trkpt lon="35.079997228458524" lat="31.79655957967043">
        <ele>551.4000244140625</ele>
        <time>2014-07-04T06:21:30.000Z</time>
      </trkpt>
      <trkpt lon="35.079859513789415" lat="31.796554634347558">
        <ele>551.7999877929688</ele>
        <time>2014-07-04T06:21:37.000Z</time>
      </trkpt>
      <trkpt lon="35.07975281216204" lat="31.796557903289795">
        <ele>552.4000244140625</ele>
        <time>2014-07-04T06:21:44.000Z</time>
      </trkpt>
      <trkpt lon="35.07965566590428" lat="31.796560417860746">
        <ele>553.0</ele>
        <time>2014-07-04T06:21:51.000Z</time>
      </trkpt>
      <trkpt lon="35.07964326068759" lat="31.79656251333654">
        <ele>553.2000122070312</ele>
        <time>2014-07-04T06:21:52.000Z</time>
      </trkpt>
      <trkpt lon="35.07962909527123" lat="31.796561423689127">
        <ele>553.2000122070312</ele>
        <time>2014-07-04T06:21:53.000Z</time>
      </trkpt>
      <trkpt lon="35.079614762216806" lat="31.796558825299144">
        <ele>553.2000122070312</ele>
        <time>2014-07-04T06:21:54.000Z</time>
      </trkpt>
      <trkpt lon="35.079599088057876" lat="31.79655672982335">
        <ele>553.2000122070312</ele>
        <time>2014-07-04T06:21:55.000Z</time>
      </trkpt>
      <trkpt lon="35.07958282716572" lat="31.79655664600432">
        <ele>553.4000244140625</ele>
        <time>2014-07-04T06:21:56.000Z</time>
      </trkpt>
      <trkpt lon="35.079568242654204" lat="31.796556981280446">
        <ele>553.4000244140625</ele>
        <time>2014-07-04T06:21:57.000Z</time>
      </trkpt>
      <trkpt lon="35.07955390959978" lat="31.796557400375605">
        <ele>553.5999755859375</ele>
        <time>2014-07-04T06:21:58.000Z</time>
      </trkpt>
      <trkpt lon="35.079539995640516" lat="31.79655907675624">
        <ele>553.7999877929688</ele>
        <time>2014-07-04T06:21:59.000Z</time>
      </trkpt>
      <trkpt lon="35.079527171328664" lat="31.796556394547224">
        <ele>553.7999877929688</ele>
        <time>2014-07-04T06:22:00.000Z</time>
      </trkpt>
      <trkpt lon="35.07951384410262" lat="31.796551700681448">
        <ele>553.7999877929688</ele>
        <time>2014-07-04T06:22:01.000Z</time>
      </trkpt>
      <trkpt lon="35.079500349238515" lat="31.796550108119845">
        <ele>553.7999877929688</ele>
        <time>2014-07-04T06:22:02.000Z</time>
      </trkpt>
      <trkpt lon="35.079337572678924" lat="31.796518173068762">
        <ele>554.5999755859375</ele>
        <time>2014-07-04T06:22:12.000Z</time>
      </trkpt>
      <trkpt lon="35.07929448969662" lat="31.79650140926242">
        <ele>554.5999755859375</ele>
        <time>2014-07-04T06:22:15.000Z</time>
      </trkpt>
      <trkpt lon="35.07920354604721" lat="31.79648431017995">
        <ele>555.0</ele>
        <time>2014-07-04T06:22:20.000Z</time>
      </trkpt>
      <trkpt lon="35.07918745279312" lat="31.796477353200316">
        <ele>555.0</ele>
        <time>2014-07-04T06:22:21.000Z</time>
      </trkpt>
      <trkpt lon="35.07917219772935" lat="31.79647265933454">
        <ele>555.0</ele>
        <time>2014-07-04T06:22:22.000Z</time>
      </trkpt>
      <trkpt lon="35.07915602065623" lat="31.79646871984005">
        <ele>555.0</ele>
        <time>2014-07-04T06:22:23.000Z</time>
      </trkpt>
      <trkpt lon="35.07914185523987" lat="31.796468468382955">
        <ele>555.2000122070312</ele>
        <time>2014-07-04T06:22:24.000Z</time>
      </trkpt>
      <trkpt lon="35.079125510528684" lat="31.796469390392303">
        <ele>555.4000244140625</ele>
        <time>2014-07-04T06:22:25.000Z</time>
      </trkpt>
      <trkpt lon="35.078972205519676" lat="31.796450447291136">
        <ele>556.2000122070312</ele>
        <time>2014-07-04T06:22:34.000Z</time>
      </trkpt>
      <trkpt lon="35.07877791300416" lat="31.796407448127866">
        <ele>557.0</ele>
        <time>2014-07-04T06:22:44.000Z</time>
      </trkpt>
      <trkpt lon="35.07865729741752" lat="31.796335699036717">
        <ele>557.7999877929688</ele>
        <time>2014-07-04T06:22:51.000Z</time>
      </trkpt>
      <trkpt lon="35.07857087999582" lat="31.796247269958258">
        <ele>557.7999877929688</ele>
        <time>2014-07-04T06:22:59.000Z</time>
      </trkpt>
      <trkpt lon="35.07847264409065" lat="31.796112740412354">
        <ele>557.0</ele>
        <time>2014-07-04T06:23:09.000Z</time>
      </trkpt>
      <trkpt lon="35.078366696834564" lat="31.795980306342244">
        <ele>556.4000244140625</ele>
        <time>2014-07-04T06:23:18.000Z</time>
      </trkpt>
      <trkpt lon="35.07824440486729" lat="31.795819625258446">
        <ele>555.5999755859375</ele>
        <time>2014-07-04T06:23:27.000Z</time>
      </trkpt>
      <trkpt lon="35.07816569879651" lat="31.795681407675147">
        <ele>555.0</ele>
        <time>2014-07-04T06:23:36.000Z</time>
      </trkpt>
      <trkpt lon="35.07810744456947" lat="31.795481080189347">
        <ele>554.5999755859375</ele>
        <time>2014-07-04T06:23:47.000Z</time>
      </trkpt>
      <trkpt lon="35.078039383515716" lat="31.795326936990023">
        <ele>555.0</ele>
        <time>2014-07-04T06:23:57.000Z</time>
      </trkpt>
      <trkpt lon="35.07801222614944" lat="31.795268431305885">
        <ele>555.0</ele>
        <time>2014-07-04T06:24:01.000Z</time>
      </trkpt>
      <trkpt lon="35.078002167865634" lat="31.795253846794367">
        <ele>555.2000122070312</ele>
        <time>2014-07-04T06:24:02.000Z</time>
      </trkpt>
      <trkpt lon="35.07799319922924" lat="31.795238507911563">
        <ele>555.2000122070312</ele>
        <time>2014-07-04T06:24:03.000Z</time>
      </trkpt>
      <trkpt lon="35.07798766717315" lat="31.795224091038108">
        <ele>555.2000122070312</ele>
        <time>2014-07-04T06:24:04.000Z</time>
      </trkpt>
      <trkpt lon="35.07798573933542" lat="31.795210596174">
        <ele>555.2000122070312</ele>
        <time>2014-07-04T06:24:05.000Z</time>
      </trkpt>
      <trkpt lon="35.07798347622156" lat="31.79519584402442">
        <ele>555.2000122070312</ele>
        <time>2014-07-04T06:24:06.000Z</time>
      </trkpt>
      <trkpt lon="35.07797936908901" lat="31.795180840417743">
        <ele>555.2000122070312</ele>
        <time>2014-07-04T06:24:07.000Z</time>
      </trkpt>
      <trkpt lon="35.077924970537424" lat="31.795028625056148">
        <ele>555.2000122070312</ele>
        <time>2014-07-04T06:24:17.000Z</time>
      </trkpt>
      <trkpt lon="35.07791834883392" lat="31.794893005862832">
        <ele>554.4000244140625</ele>
        <time>2014-07-04T06:24:25.000Z</time>
      </trkpt>
      <trkpt lon="35.07790661416948" lat="31.794710028916597">
        <ele>554.4000244140625</ele>
        <time>2014-07-04T06:24:31.000Z</time>
      </trkpt>
      <trkpt lon="35.07789144292474" lat="31.79461690597236">
        <ele>554.5999755859375</ele>
        <time>2014-07-04T06:24:33.000Z</time>
      </trkpt>
      <trkpt lon="35.07781298831105" lat="31.79442621767521">
        <ele>555.7999877929688</ele>
        <time>2014-07-04T06:24:39.000Z</time>
      </trkpt>
      <trkpt lon="35.07774534635246" lat="31.794272074475884">
        <ele>556.7999877929688</ele>
        <time>2014-07-04T06:24:44.000Z</time>
      </trkpt>
      <trkpt lon="35.0777034368366" lat="31.794048948213458">
        <ele>557.5999755859375</ele>
        <time>2014-07-04T06:24:52.000Z</time>
      </trkpt>
      <trkpt lon="35.077669490128756" lat="31.793883070349693">
        <ele>557.5999755859375</ele>
        <time>2014-07-04T06:24:59.000Z</time>
      </trkpt>
      <trkpt lon="35.077681224793196" lat="31.79371333681047">
        <ele>557.2000122070312</ele>
        <time>2014-07-04T06:25:03.000Z</time>
      </trkpt>
      <trkpt lon="35.07768449373543" lat="31.793658435344696">
        <ele>557.0</ele>
        <time>2014-07-04T06:25:04.000Z</time>
      </trkpt>
      <trkpt lon="35.077682146802545" lat="31.793541759252548">
        <ele>557.0</ele>
        <time>2014-07-04T06:25:06.000Z</time>
      </trkpt>
      <trkpt lon="35.07767175324261" lat="31.7934803199023">
        <ele>557.0</ele>
        <time>2014-07-04T06:25:07.000Z</time>
      </trkpt>
      <trkpt lon="35.0776550732553" lat="31.793421311303973">
        <ele>557.2000122070312</ele>
        <time>2014-07-04T06:25:08.000Z</time>
      </trkpt>
      <trkpt lon="35.077631855383515" lat="31.793366158381104">
        <ele>557.4000244140625</ele>
        <time>2014-07-04T06:25:09.000Z</time>
      </trkpt>
      <trkpt lon="35.077606374397874" lat="31.793311005458236">
        <ele>557.7999877929688</ele>
        <time>2014-07-04T06:25:10.000Z</time>
      </trkpt>
      <trkpt lon="35.077584413811564" lat="31.793255601078272">
        <ele>558.0</ele>
        <time>2014-07-04T06:25:11.000Z</time>
      </trkpt>
      <trkpt lon="35.077556082978845" lat="31.793202040717006">
        <ele>558.2000122070312</ele>
        <time>2014-07-04T06:25:12.000Z</time>
      </trkpt>
      <trkpt lon="35.077523393556476" lat="31.793153509497643">
        <ele>558.0</ele>
        <time>2014-07-04T06:25:13.000Z</time>
      </trkpt>
      <trkpt lon="35.07748550735414" lat="31.79310849867761">
        <ele>558.0</ele>
        <time>2014-07-04T06:25:14.000Z</time>
      </trkpt>
      <trkpt lon="35.077445609495044" lat="31.793068516999483">
        <ele>558.0</ele>
        <time>2014-07-04T06:25:15.000Z</time>
      </trkpt>
      <trkpt lon="35.077407555654645" lat="31.79303322918713">
        <ele>558.2000122070312</ele>
        <time>2014-07-04T06:25:16.000Z</time>
      </trkpt>
      <trkpt lon="35.07737218402326" lat="31.792999366298318">
        <ele>558.2000122070312</ele>
        <time>2014-07-04T06:25:17.000Z</time>
      </trkpt>
      <trkpt lon="35.077344020828605" lat="31.79296089336276">
        <ele>558.0</ele>
        <time>2014-07-04T06:25:18.000Z</time>
      </trkpt>
      <trkpt lon="35.077323485165834" lat="31.792919989675283">
        <ele>557.7999877929688</ele>
        <time>2014-07-04T06:25:19.000Z</time>
      </trkpt>
      <trkpt lon="35.077297501266" lat="31.79288227111101">
        <ele>557.7999877929688</ele>
        <time>2014-07-04T06:25:20.000Z</time>
      </trkpt>
      <trkpt lon="35.07722390815616" lat="31.79281664080918">
        <ele>557.7999877929688</ele>
        <time>2014-07-04T06:25:22.000Z</time>
      </trkpt>
      <trkpt lon="35.07717386819422" lat="31.792784873396158">
        <ele>558.2000122070312</ele>
        <time>2014-07-04T06:25:23.000Z</time>
      </trkpt>
      <trkpt lon="35.07711159065366" lat="31.79275461472571">
        <ele>558.5999755859375</ele>
        <time>2014-07-04T06:25:24.000Z</time>
      </trkpt>
      <trkpt lon="35.07704168558121" lat="31.792728630825877">
        <ele>558.2000122070312</ele>
        <time>2014-07-04T06:25:25.000Z</time>
      </trkpt>
      <trkpt lon="35.07696599699557" lat="31.792709855362773">
        <ele>557.4000244140625</ele>
        <time>2014-07-04T06:25:26.000Z</time>
      </trkpt>
      <trkpt lon="35.076889554038644" lat="31.79269317537546">
        <ele>556.5999755859375</ele>
        <time>2014-07-04T06:25:27.000Z</time>
      </trkpt>
      <trkpt lon="35.07674471475184" lat="31.79266861639917">
        <ele>555.2000122070312</ele>
        <time>2014-07-04T06:25:29.000Z</time>
      </trkpt>
      <trkpt lon="35.07660834118724" lat="31.792663503438234">
        <ele>554.2000122070312</ele>
        <time>2014-07-04T06:25:31.000Z</time>
      </trkpt>
      <trkpt lon="35.076539693400264" lat="31.792669538408518">
        <ele>554.0</ele>
        <time>2014-07-04T06:25:32.000Z</time>
      </trkpt>
      <trkpt lon="35.076472805812955" lat="31.792687391862273">
        <ele>555.2000122070312</ele>
        <time>2014-07-04T06:25:33.000Z</time>
      </trkpt>
      <trkpt lon="35.07599160075188" lat="31.792856203392148">
        <ele>558.7999877929688</ele>
        <time>2014-07-04T06:25:40.000Z</time>
      </trkpt>
      <trkpt lon="35.07554652169347" lat="31.79302685894072">
        <ele>562.7999877929688</ele>
        <time>2014-07-04T06:25:46.000Z</time>
      </trkpt>
      <trkpt lon="35.075339153409004" lat="31.793123669922352">
        <ele>565.2000122070312</ele>
        <time>2014-07-04T06:25:49.000Z</time>
      </trkpt>
      <trkpt lon="35.075266817584634" lat="31.793144457042217">
        <ele>566.0</ele>
        <time>2014-07-04T06:25:50.000Z</time>
      </trkpt>
      <trkpt lon="35.075191631913185" lat="31.793154096230865">
        <ele>566.2000122070312</ele>
        <time>2014-07-04T06:25:51.000Z</time>
      </trkpt>
      <trkpt lon="35.07511569187045" lat="31.79314948618412">
        <ele>565.7999877929688</ele>
        <time>2014-07-04T06:25:52.000Z</time>
      </trkpt>
      <trkpt lon="35.07503991946578" lat="31.793128615245223">
        <ele>564.4000244140625</ele>
        <time>2014-07-04T06:25:53.000Z</time>
      </trkpt>
      <trkpt lon="35.074972696602345" lat="31.793090142309666">
        <ele>562.4000244140625</ele>
        <time>2014-07-04T06:25:54.000Z</time>
      </trkpt>
      <trkpt lon="35.07491662167013" lat="31.793039431795478">
        <ele>559.7999877929688</ele>
        <time>2014-07-04T06:25:55.000Z</time>
      </trkpt>
      <trkpt lon="35.07485702633858" lat="31.792981680482626">
        <ele>556.7999877929688</ele>
        <time>2014-07-04T06:25:56.000Z</time>
      </trkpt>
      <trkpt lon="35.074429800733924" lat="31.79268035106361">
        <ele>544.2000122070312</ele>
        <time>2014-07-04T06:26:02.000Z</time>
      </trkpt>
      <trkpt lon="35.07401028648019" lat="31.79241162724793">
        <ele>538.2000122070312</ele>
        <time>2014-07-04T06:26:08.000Z</time>
      </trkpt>
      <trkpt lon="35.073550287634134" lat="31.79198465310037">
        <ele>529.7999877929688</ele>
        <time>2014-07-04T06:26:15.000Z</time>
      </trkpt>
      <trkpt lon="35.07311660796404" lat="31.791546614840627">
        <ele>525.0</ele>
        <time>2014-07-04T06:26:22.000Z</time>
      </trkpt>
      <trkpt lon="35.073003536090255" lat="31.79145692847669">
        <ele>525.7999877929688</ele>
        <time>2014-07-04T06:26:24.000Z</time>
      </trkpt>
      <trkpt lon="35.07277906872332" lat="31.791346287354827">
        <ele>529.0</ele>
        <time>2014-07-04T06:26:28.000Z</time>
      </trkpt>
      <trkpt lon="35.07273120805621" lat="31.79132927209139">
        <ele>529.7999877929688</ele>
        <time>2014-07-04T06:26:29.000Z</time>
      </trkpt>
      <trkpt lon="35.072691310197115" lat="31.791309993714094">
        <ele>530.2000122070312</ele>
        <time>2014-07-04T06:26:30.000Z</time>
      </trkpt>
      <trkpt lon="35.072478242218494" lat="31.79118476808071">
        <ele>532.0</ele>
        <time>2014-07-04T06:26:37.000Z</time>
      </trkpt>
      <trkpt lon="35.072283865883946" lat="31.791069013997912">
        <ele>533.7999877929688</ele>
        <time>2014-07-04T06:26:45.000Z</time>
      </trkpt>
      <trkpt lon="35.072121089324355" lat="31.790953846648335">
        <ele>534.4000244140625</ele>
        <time>2014-07-04T06:26:53.000Z</time>
      </trkpt>
      <trkpt lon="35.07192386314273" lat="31.790832225233316">
        <ele>535.4000244140625</ele>
        <time>2014-07-04T06:27:01.000Z</time>
      </trkpt>
      <trkpt lon="35.07177927531302" lat="31.790745304897428">
        <ele>536.2000122070312</ele>
        <time>2014-07-04T06:27:08.000Z</time>
      </trkpt>
      <trkpt lon="35.071649104356766" lat="31.790640614926815">
        <ele>535.7999877929688</ele>
        <time>2014-07-04T06:27:14.000Z</time>
      </trkpt>
      <trkpt lon="35.071445340290666" lat="31.790513964369893">
        <ele>536.2000122070312</ele>
        <time>2014-07-04T06:27:22.000Z</time>
      </trkpt>
      <trkpt lon="35.07124417461455" lat="31.7904513515532">
        <ele>539.0</ele>
        <time>2014-07-04T06:27:31.000Z</time>
      </trkpt>
      <trkpt lon="35.07105013355613" lat="31.790440371260047">
        <ele>539.4000244140625</ele>
        <time>2014-07-04T06:27:39.000Z</time>
      </trkpt>
      <trkpt lon="35.070850644260645" lat="31.79046249948442">
        <ele>542.7999877929688</ele>
        <time>2014-07-04T06:27:47.000Z</time>
      </trkpt>
      <trkpt lon="35.070694321766496" lat="31.790505750104785">
        <ele>547.4000244140625</ele>
        <time>2014-07-04T06:27:54.000Z</time>
      </trkpt>
      <trkpt lon="35.070480247959495" lat="31.790527794510126">
        <ele>551.5999755859375</ele>
        <time>2014-07-04T06:28:02.000Z</time>
      </trkpt>
      <trkpt lon="35.07020590826869" lat="31.79051731713116">
        <ele>554.5999755859375</ele>
        <time>2014-07-04T06:28:11.000Z</time>
      </trkpt>
      <trkpt lon="35.06988630630076" lat="31.790426960214972">
        <ele>553.5999755859375</ele>
        <time>2014-07-04T06:28:22.000Z</time>
      </trkpt>
      <trkpt lon="35.0696562230587" lat="31.790346074849367">
        <ele>552.2000122070312</ele>
        <time>2014-07-04T06:28:31.000Z</time>
      </trkpt>
      <trkpt lon="35.06949545815587" lat="31.790244486182928">
        <ele>550.7999877929688</ele>
        <time>2014-07-04T06:28:38.000Z</time>
      </trkpt>
      <trkpt lon="35.06939152255654" lat="31.790164187550545">
        <ele>550.0</ele>
        <time>2014-07-04T06:28:45.000Z</time>
      </trkpt>
      <trkpt lon="35.06920133717358" lat="31.789998980239034">
        <ele>547.5999755859375</ele>
        <time>2014-07-04T06:28:54.000Z</time>
      </trkpt>
      <trkpt lon="35.069005033001304" lat="31.789794797077775">
        <ele>544.7999877929688</ele>
        <time>2014-07-04T06:29:02.000Z</time>
      </trkpt>
      <trkpt lon="35.06880395114422" lat="31.789585584774613">
        <ele>543.7999877929688</ele>
        <time>2014-07-04T06:29:11.000Z</time>
      </trkpt>
      <trkpt lon="35.06864896975458" lat="31.78945063613355">
        <ele>544.4000244140625</ele>
        <time>2014-07-04T06:29:19.000Z</time>
      </trkpt>
      <trkpt lon="35.06839910522103" lat="31.789273023605347">
        <ele>547.2000122070312</ele>
        <time>2014-07-04T06:29:29.000Z</time>
      </trkpt>
      <trkpt lon="35.06827547214925" lat="31.789176547899842">
        <ele>548.2000122070312</ele>
        <time>2014-07-04T06:29:34.000Z</time>
      </trkpt>
      <trkpt lon="35.06808528676629" lat="31.789101865142584">
        <ele>552.4000244140625</ele>
        <time>2014-07-04T06:29:41.000Z</time>
      </trkpt>
      <trkpt lon="35.06780608557165" lat="31.789093483239412">
        <ele>557.7999877929688</ele>
        <time>2014-07-04T06:29:51.000Z</time>
      </trkpt>
      <trkpt lon="35.067683290690184" lat="31.789177805185318">
        <ele>561.0</ele>
        <time>2014-07-04T06:29:58.000Z</time>
      </trkpt>
      <trkpt lon="35.0676011480391" lat="31.789225917309523">
        <ele>562.5999755859375</ele>
        <time>2014-07-04T06:30:04.000Z</time>
      </trkpt>
      <trkpt lon="35.067587653174996" lat="31.789230862632394">
        <ele>562.7999877929688</ele>
        <time>2014-07-04T06:30:05.000Z</time>
      </trkpt>
      <trkpt lon="35.06757273338735" lat="31.789238406345248">
        <ele>563.2000122070312</ele>
        <time>2014-07-04T06:30:06.000Z</time>
      </trkpt>
      <trkpt lon="35.06755898706615" lat="31.78924737498164">
        <ele>563.5999755859375</ele>
        <time>2014-07-04T06:30:07.000Z</time>
      </trkpt>
      <trkpt lon="35.067545576021075" lat="31.78925659507513">
        <ele>563.7999877929688</ele>
        <time>2014-07-04T06:30:08.000Z</time>
      </trkpt>
      <trkpt lon="35.06753308698535" lat="31.789263216778636">
        <ele>564.0</ele>
        <time>2014-07-04T06:30:09.000Z</time>
      </trkpt>
      <trkpt lon="35.06752135232091" lat="31.789269503206015">
        <ele>564.4000244140625</ele>
        <time>2014-07-04T06:30:10.000Z</time>
      </trkpt>
      <trkpt lon="35.0675081089139" lat="31.789275957271457">
        <ele>564.5999755859375</ele>
        <time>2014-07-04T06:30:11.000Z</time>
      </trkpt>
      <trkpt lon="35.06749545224011" lat="31.78928392007947">
        <ele>564.7999877929688</ele>
        <time>2014-07-04T06:30:12.000Z</time>
      </trkpt>
      <trkpt lon="35.06747986190021" lat="31.789292553439736">
        <ele>565.2000122070312</ele>
        <time>2014-07-04T06:30:13.000Z</time>
      </trkpt>
      <trkpt lon="35.06746376864612" lat="31.789299761876464">
        <ele>565.4000244140625</ele>
        <time>2014-07-04T06:30:14.000Z</time>
      </trkpt>
      <trkpt lon="35.06744742393494" lat="31.789304288104177">
        <ele>565.5999755859375</ele>
        <time>2014-07-04T06:30:15.000Z</time>
      </trkpt>
      <trkpt lon="35.067428816109896" lat="31.789308143779635">
        <ele>565.7999877929688</ele>
        <time>2014-07-04T06:30:16.000Z</time>
      </trkpt>
      <trkpt lon="35.067413644865155" lat="31.789313843473792">
        <ele>566.2000122070312</ele>
        <time>2014-07-04T06:30:17.000Z</time>
      </trkpt>
      <trkpt lon="35.06739973090589" lat="31.789319878444076">
        <ele>566.4000244140625</ele>
        <time>2014-07-04T06:30:18.000Z</time>
      </trkpt>
      <trkpt lon="35.067385230213404" lat="31.78932742215693">
        <ele>566.5999755859375</ele>
        <time>2014-07-04T06:30:19.000Z</time>
      </trkpt>
      <trkpt lon="35.067371148616076" lat="31.789335887879133">
        <ele>567.0</ele>
        <time>2014-07-04T06:30:20.000Z</time>
      </trkpt>
      <trkpt lon="35.067357989028096" lat="31.78934351541102">
        <ele>567.4000244140625</ele>
        <time>2014-07-04T06:30:21.000Z</time>
      </trkpt>
      <trkpt lon="35.06734650582075" lat="31.789352148771286">
        <ele>567.7999877929688</ele>
        <time>2014-07-04T06:30:22.000Z</time>
      </trkpt>
      <trkpt lon="35.067215245217085" lat="31.789419874548912">
        <ele>571.0</ele>
        <time>2014-07-04T06:30:31.000Z</time>
      </trkpt>
      <trkpt lon="35.06708004511893" lat="31.789493719115853">
        <ele>574.4000244140625</ele>
        <time>2014-07-04T06:30:39.000Z</time>
      </trkpt>
      <trkpt lon="35.06702061742544" lat="31.789525989443064">
        <ele>575.0</ele>
        <time>2014-07-04T06:30:43.000Z</time>
      </trkpt>
      <trkpt lon="35.06700938567519" lat="31.789535293355584">
        <ele>575.2000122070312</ele>
        <time>2014-07-04T06:30:44.000Z</time>
      </trkpt>
      <trkpt lon="35.06699999794364" lat="31.789544094353914">
        <ele>575.4000244140625</ele>
        <time>2014-07-04T06:30:45.000Z</time>
      </trkpt>
      <trkpt lon="35.0669882632792" lat="31.789553314447403">
        <ele>575.7999877929688</ele>
        <time>2014-07-04T06:30:46.000Z</time>
      </trkpt>
      <trkpt lon="35.066971415653825" lat="31.789561612531543">
        <ele>575.7999877929688</ele>
        <time>2014-07-04T06:30:47.000Z</time>
      </trkpt>
      <trkpt lon="35.06695297546685" lat="31.78956882096827">
        <ele>576.0</ele>
        <time>2014-07-04T06:30:48.000Z</time>
      </trkpt>
      <trkpt lon="35.06679615005851" lat="31.789643922820687">
        <ele>577.7999877929688</ele>
        <time>2014-07-04T06:30:56.000Z</time>
      </trkpt>
      <trkpt lon="35.066624488681555" lat="31.789724556729198">
        <ele>580.2000122070312</ele>
        <time>2014-07-04T06:31:06.000Z</time>
      </trkpt>
      <trkpt lon="35.0664374884218" lat="31.78981608711183">
        <ele>583.0</ele>
        <time>2014-07-04T06:31:16.000Z</time>
      </trkpt>
      <trkpt lon="35.0663061439991" lat="31.789868557825685">
        <ele>584.5999755859375</ele>
        <time>2014-07-04T06:31:24.000Z</time>
      </trkpt>
      <trkpt lon="35.06619265303016" lat="31.78992689587176">
        <ele>586.5999755859375</ele>
        <time>2014-07-04T06:31:32.000Z</time>
      </trkpt>
      <trkpt lon="35.06617748178542" lat="31.789932930842042">
        <ele>586.7999877929688</ele>
        <time>2014-07-04T06:31:33.000Z</time>
      </trkpt>
      <trkpt lon="35.066163651645184" lat="31.789939887821674">
        <ele>587.0</ele>
        <time>2014-07-04T06:31:34.000Z</time>
      </trkpt>
      <trkpt lon="35.06614135578275" lat="31.78994257003069">
        <ele>587.0</ele>
        <time>2014-07-04T06:31:36.000Z</time>
      </trkpt>
      <trkpt lon="35.06612475961447" lat="31.78994106128812">
        <ele>586.7999877929688</ele>
        <time>2014-07-04T06:31:37.000Z</time>
      </trkpt>
      <trkpt lon="35.06610933691263" lat="31.789943743497133">
        <ele>586.7999877929688</ele>
        <time>2014-07-04T06:31:38.000Z</time>
      </trkpt>
      <trkpt lon="35.06597304716706" lat="31.789982048794627">
        <ele>587.7999877929688</ele>
        <time>2014-07-04T06:31:47.000Z</time>
      </trkpt>
      <trkpt lon="35.065918397158384" lat="31.78998900577426">
        <ele>587.5999755859375</ele>
        <time>2014-07-04T06:31:50.000Z</time>
      </trkpt>
      <trkpt lon="35.065705915912986" lat="31.789988670498133">
        <ele>586.2000122070312</ele>
        <time>2014-07-04T06:32:00.000Z</time>
      </trkpt>
      <trkpt lon="35.06548429839313" lat="31.7900213599205">
        <ele>586.7999877929688</ele>
        <time>2014-07-04T06:32:10.000Z</time>
      </trkpt>
      <trkpt lon="35.06526293233037" lat="31.79001934826374">
        <ele>586.4000244140625</ele>
        <time>2014-07-04T06:32:18.000Z</time>
      </trkpt>
      <trkpt lon="35.065042320638895" lat="31.790010798722506">
        <ele>585.5999755859375</ele>
        <time>2014-07-04T06:32:26.000Z</time>
      </trkpt>
      <trkpt lon="35.0647658854723" lat="31.789993112906814">
        <ele>584.4000244140625</ele>
        <time>2014-07-04T06:32:34.000Z</time>
      </trkpt>
      <trkpt lon="35.06453789770603" lat="31.789974002167583">
        <ele>583.4000244140625</ele>
        <time>2014-07-04T06:32:42.000Z</time>
      </trkpt>
      <trkpt lon="35.06422785110772" lat="31.789996717125177">
        <ele>584.7999877929688</ele>
        <time>2014-07-04T06:32:52.000Z</time>
      </trkpt>
      <trkpt lon="35.06399692967534" lat="31.790014570578933">
        <ele>585.7999877929688</ele>
        <time>2014-07-04T06:33:00.000Z</time>
      </trkpt>
      <trkpt lon="35.063752345740795" lat="31.79007114842534">
        <ele>589.5999755859375</ele>
        <time>2014-07-04T06:33:08.000Z</time>
      </trkpt>
      <trkpt lon="35.06344833411276" lat="31.790161756798625">
        <ele>593.2000122070312</ele>
        <time>2014-07-04T06:33:19.000Z</time>
      </trkpt>
      <trkpt lon="35.063093695789576" lat="31.79020458832383">
        <ele>593.0</ele>
        <time>2014-07-04T06:33:31.000Z</time>
      </trkpt>
      <trkpt lon="35.062856236472726" lat="31.790171563625336">
        <ele>589.7999877929688</ele>
        <time>2014-07-04T06:33:40.000Z</time>
      </trkpt>
      <trkpt lon="35.06263361312449" lat="31.790115404874086">
        <ele>588.2000122070312</ele>
        <time>2014-07-04T06:33:49.000Z</time>
      </trkpt>
      <trkpt lon="35.062363129109144" lat="31.790033262223005">
        <ele>585.5999755859375</ele>
        <time>2014-07-04T06:33:58.000Z</time>
      </trkpt>
      <trkpt lon="35.0620942376554" lat="31.789953047409654">
        <ele>583.2000122070312</ele>
        <time>2014-07-04T06:34:06.000Z</time>
      </trkpt>
      <trkpt lon="35.061750411987305" lat="31.789891691878438">
        <ele>584.5999755859375</ele>
        <time>2014-07-04T06:34:16.000Z</time>
      </trkpt>
      <trkpt lon="35.061471965163946" lat="31.78986973129213">
        <ele>587.2000122070312</ele>
        <time>2014-07-04T06:34:25.000Z</time>
      </trkpt>
      <trkpt lon="35.06120533682406" lat="31.789849866181612">
        <ele>590.0</ele>
        <time>2014-07-04T06:34:34.000Z</time>
      </trkpt>
      <trkpt lon="35.060929069295526" lat="31.7898125667125">
        <ele>590.5999755859375</ele>
        <time>2014-07-04T06:34:43.000Z</time>
      </trkpt>
      <trkpt lon="35.060691526159644" lat="31.7897710762918">
        <ele>590.5999755859375</ele>
        <time>2014-07-04T06:34:50.000Z</time>
      </trkpt>
      <trkpt lon="35.0604694057256" lat="31.78971634246409">
        <ele>590.0</ele>
        <time>2014-07-04T06:34:57.000Z</time>
      </trkpt>
      <trkpt lon="35.06022674962878" lat="31.789652472361922">
        <ele>593.0</ele>
        <time>2014-07-04T06:35:04.000Z</time>
      </trkpt>
      <trkpt lon="35.05995542742312" lat="31.789526911452413">
        <ele>593.7999877929688</ele>
        <time>2014-07-04T06:35:12.000Z</time>
      </trkpt>
      <trkpt lon="35.05971754901111" lat="31.7893307749182">
        <ele>591.0</ele>
        <time>2014-07-04T06:35:18.000Z</time>
      </trkpt>
      <trkpt lon="35.05967580713332" lat="31.789295319467783">
        <ele>590.4000244140625</ele>
        <time>2014-07-04T06:35:19.000Z</time>
      </trkpt>
      <trkpt lon="35.05933105945587" lat="31.788958702236414">
        <ele>586.0</ele>
        <time>2014-07-04T06:35:27.000Z</time>
      </trkpt>
      <trkpt lon="35.059244725853205" lat="31.788873793557286">
        <ele>585.0</ele>
        <time>2014-07-04T06:35:29.000Z</time>
      </trkpt>
      <trkpt lon="35.05917180329561" lat="31.788792740553617">
        <ele>584.0</ele>
        <time>2014-07-04T06:35:31.000Z</time>
      </trkpt>
      <trkpt lon="35.05913408473134" lat="31.788758961483836">
        <ele>583.5999755859375</ele>
        <time>2014-07-04T06:35:32.000Z</time>
      </trkpt>
      <trkpt lon="35.059094689786434" lat="31.788729624822736">
        <ele>583.5999755859375</ele>
        <time>2014-07-04T06:35:33.000Z</time>
      </trkpt>
      <trkpt lon="35.05892185494304" lat="31.788632981479168">
        <ele>584.2000122070312</ele>
        <time>2014-07-04T06:35:37.000Z</time>
      </trkpt>
      <trkpt lon="35.05887416191399" lat="31.788612278178334">
        <ele>584.5999755859375</ele>
        <time>2014-07-04T06:35:38.000Z</time>
      </trkpt>
      <trkpt lon="35.05860392935574" lat="31.7884723842144">
        <ele>584.0</ele>
        <time>2014-07-04T06:35:44.000Z</time>
      </trkpt>
      <trkpt lon="35.05814619362354" lat="31.78832184523344">
        <ele>583.4000244140625</ele>
        <time>2014-07-04T06:35:53.000Z</time>
      </trkpt>
      <trkpt lon="35.058044604957104" lat="31.788285300135612">
        <ele>583.2000122070312</ele>
        <time>2014-07-04T06:35:55.000Z</time>
      </trkpt>
      <trkpt lon="35.05788132548332" lat="31.788246324285865">
        <ele>583.5999755859375</ele>
        <time>2014-07-04T06:35:58.000Z</time>
      </trkpt>
      <trkpt lon="35.057443622499704" lat="31.78819041699171">
        <ele>582.0</ele>
        <time>2014-07-04T06:36:05.000Z</time>
      </trkpt>
      <trkpt lon="35.05738193169236" lat="31.788194105029106">
        <ele>582.5999755859375</ele>
        <time>2014-07-04T06:36:06.000Z</time>
      </trkpt>
      <trkpt lon="35.05731848068535" lat="31.7881996370852">
        <ele>583.2000122070312</ele>
        <time>2014-07-04T06:36:07.000Z</time>
      </trkpt>
      <trkpt lon="35.05725326947868" lat="31.788198547437787">
        <ele>583.2000122070312</ele>
        <time>2014-07-04T06:36:08.000Z</time>
      </trkpt>
      <trkpt lon="35.0571901537478" lat="31.78819427266717">
        <ele>583.2000122070312</ele>
        <time>2014-07-04T06:36:09.000Z</time>
      </trkpt>
      <trkpt lon="35.05672847852111" lat="31.788140293210745">
        <ele>581.4000244140625</ele>
        <time>2014-07-04T06:36:16.000Z</time>
      </trkpt>
      <trkpt lon="35.05667625926435" lat="31.788138197734952">
        <ele>581.2000122070312</ele>
        <time>2014-07-04T06:36:17.000Z</time>
      </trkpt>
      <trkpt lon="35.05646235309541" lat="31.788148675113916">
        <ele>582.2000122070312</ele>
        <time>2014-07-04T06:36:21.000Z</time>
      </trkpt>
      <trkpt lon="35.056404769420624" lat="31.788162253797054">
        <ele>583.0</ele>
        <time>2014-07-04T06:36:22.000Z</time>
      </trkpt>
      <trkpt lon="35.05634844303131" lat="31.788180274888873">
        <ele>584.0</ele>
        <time>2014-07-04T06:36:23.000Z</time>
      </trkpt>
      <trkpt lon="35.05628943443298" lat="31.78820022381842">
        <ele>585.2000122070312</ele>
        <time>2014-07-04T06:36:24.000Z</time>
      </trkpt>
      <trkpt lon="35.05623168312013" lat="31.788223022595048">
        <ele>585.7999877929688</ele>
        <time>2014-07-04T06:36:25.000Z</time>
      </trkpt>
      <trkpt lon="35.05617066286504" lat="31.788248335942626">
        <ele>585.7999877929688</ele>
        <time>2014-07-04T06:36:26.000Z</time>
      </trkpt>
      <trkpt lon="35.0559086445719" lat="31.788331484422088">
        <ele>584.7999877929688</ele>
        <time>2014-07-04T06:36:30.000Z</time>
      </trkpt>
      <trkpt lon="35.05583471618593" lat="31.78834095597267">
        <ele>584.2000122070312</ele>
        <time>2014-07-04T06:36:31.000Z</time>
      </trkpt>
      <trkpt lon="35.055754920467734" lat="31.788345901295543">
        <ele>583.2000122070312</ele>
        <time>2014-07-04T06:36:32.000Z</time>
      </trkpt>
      <trkpt lon="35.05567495711148" lat="31.78835168480873">
        <ele>582.4000244140625</ele>
        <time>2014-07-04T06:36:33.000Z</time>
      </trkpt>
      <trkpt lon="35.05559574812651" lat="31.78836283273995">
        <ele>581.5999755859375</ele>
        <time>2014-07-04T06:36:34.000Z</time>
      </trkpt>
      <trkpt lon="35.05545535124838" lat="31.78839166648686">
        <ele>578.7999877929688</ele>
        <time>2014-07-04T06:36:36.000Z</time>
      </trkpt>
      <trkpt lon="35.0553975161165" lat="31.788412956520915">
        <ele>577.7999877929688</ele>
        <time>2014-07-04T06:36:37.000Z</time>
      </trkpt>
      <trkpt lon="35.055345045402646" lat="31.788441790267825">
        <ele>577.4000244140625</ele>
        <time>2014-07-04T06:36:38.000Z</time>
      </trkpt>
      <trkpt lon="35.05530514754355" lat="31.788479844108224">
        <ele>577.2000122070312</ele>
        <time>2014-07-04T06:36:39.000Z</time>
      </trkpt>
      <trkpt lon="35.055272122845054" lat="31.788523346185684">
        <ele>577.4000244140625</ele>
        <time>2014-07-04T06:36:40.000Z</time>
      </trkpt>
      <trkpt lon="35.05524756386876" lat="31.788575816899538">
        <ele>577.7999877929688</ele>
        <time>2014-07-04T06:36:41.000Z</time>
      </trkpt>
      <trkpt lon="35.05523188970983" lat="31.788630886003375">
        <ele>578.4000244140625</ele>
        <time>2014-07-04T06:36:42.000Z</time>
      </trkpt>
      <trkpt lon="35.0552214961499" lat="31.788684027269483">
        <ele>579.2000122070312</ele>
        <time>2014-07-04T06:36:43.000Z</time>
      </trkpt>
      <trkpt lon="35.055211186409" lat="31.788733564317226">
        <ele>579.7999877929688</ele>
        <time>2014-07-04T06:36:44.000Z</time>
      </trkpt>
      <trkpt lon="35.055218981578946" lat="31.789020393043756">
        <ele>583.2000122070312</ele>
        <time>2014-07-04T06:36:51.000Z</time>
      </trkpt>
      <trkpt lon="35.05527430213988" lat="31.789378467947245">
        <ele>583.7999877929688</ele>
        <time>2014-07-04T06:36:59.000Z</time>
      </trkpt>
      <trkpt lon="35.05532861687243" lat="31.789577454328537">
        <ele>584.5999755859375</ele>
        <time>2014-07-04T06:37:03.000Z</time>
      </trkpt>
      <trkpt lon="35.05539768375456" lat="31.790004931390285">
        <ele>585.7999877929688</ele>
        <time>2014-07-04T06:37:11.000Z</time>
      </trkpt>
      <trkpt lon="35.05542534403503" lat="31.790115823969245">
        <ele>586.5999755859375</ele>
        <time>2014-07-04T06:37:13.000Z</time>
      </trkpt>
      <trkpt lon="35.05542718805373" lat="31.79017273709178">
        <ele>586.7999877929688</ele>
        <time>2014-07-04T06:37:14.000Z</time>
      </trkpt>
      <trkpt lon="35.05541402846575" lat="31.790314642712474">
        <ele>586.7999877929688</ele>
        <time>2014-07-04T06:37:17.000Z</time>
      </trkpt>
      <trkpt lon="35.05539106205106" lat="31.79033987224102">
        <ele>586.4000244140625</ele>
        <time>2014-07-04T06:37:18.000Z</time>
      </trkpt>
      <trkpt lon="35.0553560256958" lat="31.790353283286095">
        <ele>585.7999877929688</ele>
        <time>2014-07-04T06:37:19.000Z</time>
      </trkpt>
      <trkpt lon="35.055316630750895" lat="31.790349343791604">
        <ele>585.0</ele>
        <time>2014-07-04T06:37:20.000Z</time>
      </trkpt>
      <trkpt lon="35.0552748888731" lat="31.790337022393942">
        <ele>584.2000122070312</ele>
        <time>2014-07-04T06:37:21.000Z</time>
      </trkpt>
      <trkpt lon="35.055236583575606" lat="31.79032034240663">
        <ele>583.4000244140625</ele>
        <time>2014-07-04T06:37:22.000Z</time>
      </trkpt>
      <trkpt lon="35.0552022177726" lat="31.79029737599194">
        <ele>582.5999755859375</ele>
        <time>2014-07-04T06:37:23.000Z</time>
      </trkpt>
      <trkpt lon="35.05516843870282" lat="31.790270386263728">
        <ele>582.0</ele>
        <time>2014-07-04T06:37:24.000Z</time>
      </trkpt>
      <trkpt lon="35.05513398908079" lat="31.790238115936518">
        <ele>581.2000122070312</ele>
        <time>2014-07-04T06:37:25.000Z</time>
      </trkpt>
      <trkpt lon="35.05509803071618" lat="31.79020500741899">
        <ele>580.4000244140625</ele>
        <time>2014-07-04T06:37:26.000Z</time>
      </trkpt>
      <trkpt lon="35.05498118698597" lat="31.790098808705807">
        <ele>578.0</ele>
        <time>2014-07-04T06:37:29.000Z</time>
      </trkpt>
      <trkpt lon="35.05464306101203" lat="31.789882136508822">
        <ele>571.0</ele>
        <time>2014-07-04T06:37:35.000Z</time>
      </trkpt>
      <trkpt lon="35.05425657145679" lat="31.789631014689803">
        <ele>567.7999877929688</ele>
        <time>2014-07-04T06:37:41.000Z</time>
      </trkpt>
      <trkpt lon="35.054188929498196" lat="31.7895932123065">
        <ele>567.5999755859375</ele>
        <time>2014-07-04T06:37:42.000Z</time>
      </trkpt>
      <trkpt lon="35.054128747433424" lat="31.789552392438054">
        <ele>567.2000122070312</ele>
        <time>2014-07-04T06:37:43.000Z</time>
      </trkpt>
      <trkpt lon="35.054071079939604" lat="31.789513919502497">
        <ele>567.0</ele>
        <time>2014-07-04T06:37:44.000Z</time>
      </trkpt>
      <trkpt lon="35.05401215516031" lat="31.789482068270445">
        <ele>566.7999877929688</ele>
        <time>2014-07-04T06:37:45.000Z</time>
      </trkpt>
      <trkpt lon="35.05395230837166" lat="31.78945197723806">
        <ele>566.7999877929688</ele>
        <time>2014-07-04T06:37:46.000Z</time>
      </trkpt>
      <trkpt lon="35.053891874849796" lat="31.789418533444405">
        <ele>566.7999877929688</ele>
        <time>2014-07-04T06:37:47.000Z</time>
      </trkpt>
      <trkpt lon="35.053501361981034" lat="31.78922868333757">
        <ele>563.5999755859375</ele>
        <time>2014-07-04T06:37:53.000Z</time>
      </trkpt>
      <trkpt lon="35.053360629826784" lat="31.789179649204016">
        <ele>562.4000244140625</ele>
        <time>2014-07-04T06:37:55.000Z</time>
      </trkpt>
      <trkpt lon="35.05320908501744" lat="31.789153749123216">
        <ele>561.5999755859375</ele>
        <time>2014-07-04T06:37:57.000Z</time>
      </trkpt>
      <trkpt lon="35.053130462765694" lat="31.78915685042739">
        <ele>561.7999877929688</ele>
        <time>2014-07-04T06:37:58.000Z</time>
      </trkpt>
      <trkpt lon="35.053053265437484" lat="31.789169004186988">
        <ele>562.0</ele>
        <time>2014-07-04T06:37:59.000Z</time>
      </trkpt>
      <trkpt lon="35.05298277363181" lat="31.78918811492622">
        <ele>563.0</ele>
        <time>2014-07-04T06:38:00.000Z</time>
      </trkpt>
      <trkpt lon="35.052916053682566" lat="31.789214434102178">
        <ele>563.7999877929688</ele>
        <time>2014-07-04T06:38:01.000Z</time>
      </trkpt>
      <trkpt lon="35.05285310558975" lat="31.789247877895832">
        <ele>564.2000122070312</ele>
        <time>2014-07-04T06:38:02.000Z</time>
      </trkpt>
      <trkpt lon="35.052793929353356" lat="31.78928350098431">
        <ele>564.5999755859375</ele>
        <time>2014-07-04T06:38:03.000Z</time>
      </trkpt>
      <trkpt lon="35.05274464376271" lat="31.789323901757598">
        <ele>565.4000244140625</ele>
        <time>2014-07-04T06:38:04.000Z</time>
      </trkpt>
      <trkpt lon="35.052707847207785" lat="31.789371091872454">
        <ele>566.4000244140625</ele>
        <time>2014-07-04T06:38:05.000Z</time>
      </trkpt>
      <trkpt lon="35.05264791660011" lat="31.789480894804">
        <ele>569.0</ele>
        <time>2014-07-04T06:38:07.000Z</time>
      </trkpt>
      <trkpt lon="35.05262394435704" lat="31.789535377174616">
        <ele>570.4000244140625</ele>
        <time>2014-07-04T06:38:08.000Z</time>
      </trkpt>
      <trkpt lon="35.05250190384686" lat="31.78987082093954">
        <ele>572.5999755859375</ele>
        <time>2014-07-04T06:38:14.000Z</time>
      </trkpt>
      <trkpt lon="35.05232655443251" lat="31.790277091786265">
        <ele>577.7999877929688</ele>
        <time>2014-07-04T06:38:21.000Z</time>
      </trkpt>
      <trkpt lon="35.05230392329395" lat="31.79033107124269">
        <ele>578.5999755859375</ele>
        <time>2014-07-04T06:38:22.000Z</time>
      </trkpt>
      <trkpt lon="35.052286237478256" lat="31.790380775928497">
        <ele>579.4000244140625</ele>
        <time>2014-07-04T06:38:23.000Z</time>
      </trkpt>
      <trkpt lon="35.052265115082264" lat="31.7904272954911">
        <ele>580.2000122070312</ele>
        <time>2014-07-04T06:38:24.000Z</time>
      </trkpt>
      <trkpt lon="35.05218096077442" lat="31.79056224413216">
        <ele>581.4000244140625</ele>
        <time>2014-07-04T06:38:27.000Z</time>
      </trkpt>
      <trkpt lon="35.052138632163405" lat="31.790598202496767">
        <ele>581.2000122070312</ele>
        <time>2014-07-04T06:38:28.000Z</time>
      </trkpt>
      <trkpt lon="35.05209085531533" lat="31.790621671825647">
        <ele>580.5999755859375</ele>
        <time>2014-07-04T06:38:29.000Z</time>
      </trkpt>
      <trkpt lon="35.05203955806792" lat="31.790631227195263">
        <ele>580.4000244140625</ele>
        <time>2014-07-04T06:38:30.000Z</time>
      </trkpt>
      <trkpt lon="35.05198650062084" lat="31.790625862777233">
        <ele>579.5999755859375</ele>
        <time>2014-07-04T06:38:31.000Z</time>
      </trkpt>
      <trkpt lon="35.051939729601145" lat="31.79060566239059">
        <ele>578.5999755859375</ele>
        <time>2014-07-04T06:38:32.000Z</time>
      </trkpt>
      <trkpt lon="35.05189564079046" lat="31.7905758228153">
        <ele>577.4000244140625</ele>
        <time>2014-07-04T06:38:33.000Z</time>
      </trkpt>
      <trkpt lon="35.05179447121918" lat="31.790510024875402">
        <ele>574.7999877929688</ele>
        <time>2014-07-04T06:38:35.000Z</time>
      </trkpt>
      <trkpt lon="35.05173873156309" lat="31.79048303514719">
        <ele>573.4000244140625</ele>
        <time>2014-07-04T06:38:36.000Z</time>
      </trkpt>
      <trkpt lon="35.05168047733605" lat="31.79045571014285">
        <ele>572.2000122070312</ele>
        <time>2014-07-04T06:38:37.000Z</time>
      </trkpt>
      <trkpt lon="35.05162574350834" lat="31.79042587056756">
        <ele>570.7999877929688</ele>
        <time>2014-07-04T06:38:38.000Z</time>
      </trkpt>
      <trkpt lon="35.05157117731869" lat="31.790396366268396">
        <ele>569.5999755859375</ele>
        <time>2014-07-04T06:38:39.000Z</time>
      </trkpt>
      <trkpt lon="35.05146321840584" lat="31.790351355448365">
        <ele>567.4000244140625</ele>
        <time>2014-07-04T06:38:41.000Z</time>
      </trkpt>
      <trkpt lon="35.051408568397164" lat="31.790333837270737">
        <ele>566.4000244140625</ele>
        <time>2014-07-04T06:38:42.000Z</time>
      </trkpt>
      <trkpt lon="35.05135450512171" lat="31.7903115414083">
        <ele>565.2000122070312</ele>
        <time>2014-07-04T06:38:43.000Z</time>
      </trkpt>
      <trkpt lon="35.05112291313708" lat="31.790210288017988">
        <ele>563.7999877929688</ele>
        <time>2014-07-04T06:38:47.000Z</time>
      </trkpt>
      <trkpt lon="35.05106834694743" lat="31.790177850052714">
        <ele>563.7999877929688</ele>
        <time>2014-07-04T06:38:48.000Z</time>
      </trkpt>
      <trkpt lon="35.05102316848934" lat="31.79013703018427">
        <ele>563.4000244140625</ele>
        <time>2014-07-04T06:38:49.000Z</time>
      </trkpt>
      <trkpt lon="35.050984025001526" lat="31.79008925333619">
        <ele>562.7999877929688</ele>
        <time>2014-07-04T06:38:50.000Z</time>
      </trkpt>
      <trkpt lon="35.05094949156046" lat="31.790036195889115">
        <ele>562.0</ele>
        <time>2014-07-04T06:38:51.000Z</time>
      </trkpt>
      <trkpt lon="35.05091889761388" lat="31.789980372413993">
        <ele>561.0</ele>
        <time>2014-07-04T06:38:52.000Z</time>
      </trkpt>
      <trkpt lon="35.05089274607599" lat="31.789920860901475">
        <ele>559.7999877929688</ele>
        <time>2014-07-04T06:38:53.000Z</time>
      </trkpt>
      <trkpt lon="35.05087371915579" lat="31.78985657170415">
        <ele>558.4000244140625</ele>
        <time>2014-07-04T06:38:54.000Z</time>
      </trkpt>
      <trkpt lon="35.050859805196524" lat="31.789792869240046">
        <ele>556.7999877929688</ele>
        <time>2014-07-04T06:38:55.000Z</time>
      </trkpt>
      <trkpt lon="35.05072276107967" lat="31.7893841676414">
        <ele>548.2000122070312</ele>
        <time>2014-07-04T06:39:01.000Z</time>
      </trkpt>
      <trkpt lon="35.05063810385764" lat="31.789271598681808">
        <ele>546.5999755859375</ele>
        <time>2014-07-04T06:39:03.000Z</time>
      </trkpt>
      <trkpt lon="35.050584794953465" lat="31.78922281600535">
        <ele>546.2000122070312</ele>
        <time>2014-07-04T06:39:04.000Z</time>
      </trkpt>
      <trkpt lon="35.050417073071" lat="31.789087867364287">
        <ele>545.2000122070312</ele>
        <time>2014-07-04T06:39:07.000Z</time>
      </trkpt>
      <trkpt lon="35.05035781301558" lat="31.789054088294506">
        <ele>545.7999877929688</ele>
        <time>2014-07-04T06:39:08.000Z</time>
      </trkpt>
      <trkpt lon="35.05029151216149" lat="31.78903078660369">
        <ele>546.5999755859375</ele>
        <time>2014-07-04T06:39:09.000Z</time>
      </trkpt>
      <trkpt lon="35.05022185854614" lat="31.789015363901854">
        <ele>547.5999755859375</ele>
        <time>2014-07-04T06:39:10.000Z</time>
      </trkpt>
      <trkpt lon="35.05015153437853" lat="31.78900010883808">
        <ele>548.5999755859375</ele>
        <time>2014-07-04T06:39:11.000Z</time>
      </trkpt>
      <trkpt lon="35.050081461668015" lat="31.78898049518466">
        <ele>549.4000244140625</ele>
        <time>2014-07-04T06:39:12.000Z</time>
      </trkpt>
      <trkpt lon="35.049949027597904" lat="31.78893892094493">
        <ele>550.7999877929688</ele>
        <time>2014-07-04T06:39:14.000Z</time>
      </trkpt>
      <trkpt lon="35.049877278506756" lat="31.788929030299187">
        <ele>552.2000122070312</ele>
        <time>2014-07-04T06:39:15.000Z</time>
      </trkpt>
      <trkpt lon="35.04980435594916" lat="31.788927353918552">
        <ele>554.0</ele>
        <time>2014-07-04T06:39:16.000Z</time>
      </trkpt>
      <trkpt lon="35.04973084665835" lat="31.788932802155614">
        <ele>556.0</ele>
        <time>2014-07-04T06:39:17.000Z</time>
      </trkpt>
      <trkpt lon="35.04965775646269" lat="31.788944453001022">
        <ele>558.4000244140625</ele>
        <time>2014-07-04T06:39:18.000Z</time>
      </trkpt>
      <trkpt lon="35.049587935209274" lat="31.78896431811154">
        <ele>561.0</ele>
        <time>2014-07-04T06:39:19.000Z</time>
      </trkpt>
      <trkpt lon="35.04952364601195" lat="31.788988122716546">
        <ele>562.0</ele>
        <time>2014-07-04T06:39:20.000Z</time>
      </trkpt>
      <trkpt lon="35.04945985972881" lat="31.78900547325611">
        <ele>562.2000122070312</ele>
        <time>2014-07-04T06:39:21.000Z</time>
      </trkpt>
      <trkpt lon="35.04927855916321" lat="31.789041850715876">
        <ele>562.4000244140625</ele>
        <time>2014-07-04T06:39:24.000Z</time>
      </trkpt>
      <trkpt lon="35.04886734299362" lat="31.789186522364616">
        <ele>562.5999755859375</ele>
        <time>2014-07-04T06:39:32.000Z</time>
      </trkpt>
      <trkpt lon="35.04852854646742" lat="31.789324739947915">
        <ele>562.5999755859375</ele>
        <time>2014-07-04T06:39:38.000Z</time>
      </trkpt>
      <trkpt lon="35.0482845492661" lat="31.78941836580634">
        <ele>561.5999755859375</ele>
        <time>2014-07-04T06:39:43.000Z</time>
      </trkpt>
      <trkpt lon="35.04823945462704" lat="31.789430771023035">
        <ele>561.4000244140625</ele>
        <time>2014-07-04T06:39:44.000Z</time>
      </trkpt>
      <trkpt lon="35.04786687903106" lat="31.789508052170277">
        <ele>561.0</ele>
        <time>2014-07-04T06:39:52.000Z</time>
      </trkpt>
      <trkpt lon="35.0478096306324" lat="31.789504028856754">
        <ele>561.2000122070312</ele>
        <time>2014-07-04T06:39:53.000Z</time>
      </trkpt>
      <trkpt lon="35.047751711681485" lat="31.789492461830378">
        <ele>561.2000122070312</ele>
        <time>2014-07-04T06:39:54.000Z</time>
      </trkpt>
      <trkpt lon="35.047694966197014" lat="31.78947594948113">
        <ele>561.0</ele>
        <time>2014-07-04T06:39:55.000Z</time>
      </trkpt>
      <trkpt lon="35.04759379662573" lat="31.789432195946574">
        <ele>560.2000122070312</ele>
        <time>2014-07-04T06:39:57.000Z</time>
      </trkpt>
      <trkpt lon="35.04745717160404" lat="31.78935332223773">
        <ele>558.4000244140625</ele>
        <time>2014-07-04T06:40:00.000Z</time>
      </trkpt>
      <trkpt lon="35.0473088119179" lat="31.78921803832054">
        <ele>555.0</ele>
        <time>2014-07-04T06:40:04.000Z</time>
      </trkpt>
      <trkpt lon="35.04701745696366" lat="31.788938082754612">
        <ele>550.0</ele>
        <time>2014-07-04T06:40:11.000Z</time>
      </trkpt>
      <trkpt lon="35.04688133485615" lat="31.788807157427073">
        <ele>550.4000244140625</ele>
        <time>2014-07-04T06:40:14.000Z</time>
      </trkpt>
      <trkpt lon="35.04683632403612" lat="31.78875577636063">
        <ele>550.2000122070312</ele>
        <time>2014-07-04T06:40:15.000Z</time>
      </trkpt>
      <trkpt lon="35.046732891350985" lat="31.788651337847114">
        <ele>550.4000244140625</ele>
        <time>2014-07-04T06:40:17.000Z</time>
      </trkpt>
      <trkpt lon="35.0465439632535" lat="31.788444304838777">
        <ele>550.0</ele>
        <time>2014-07-04T06:40:21.000Z</time>
      </trkpt>
      <trkpt lon="35.04648579284549" lat="31.788413878530264">
        <ele>551.0</ele>
        <time>2014-07-04T06:40:22.000Z</time>
      </trkpt>
      <trkpt lon="35.046424604952335" lat="31.78839610889554">
        <ele>552.0</ele>
        <time>2014-07-04T06:40:23.000Z</time>
      </trkpt>
      <trkpt lon="35.0463676918298" lat="31.78839216940105">
        <ele>552.7999877929688</ele>
        <time>2014-07-04T06:40:24.000Z</time>
      </trkpt>
      <trkpt lon="35.04632075317204" lat="31.788397952914238">
        <ele>553.5999755859375</ele>
        <time>2014-07-04T06:40:25.000Z</time>
      </trkpt>
      <trkpt lon="35.046279011294246" lat="31.788405999541283">
        <ele>554.2000122070312</ele>
        <time>2014-07-04T06:40:26.000Z</time>
      </trkpt>
      <trkpt lon="35.04623852670193" lat="31.788416979834437">
        <ele>554.5999755859375</ele>
        <time>2014-07-04T06:40:27.000Z</time>
      </trkpt>
      <trkpt lon="35.045843655243516" lat="31.788562908768654">
        <ele>556.0</ele>
        <time>2014-07-04T06:40:35.000Z</time>
      </trkpt>
      <trkpt lon="35.045789340510964" lat="31.788592915982008">
        <ele>556.4000244140625</ele>
        <time>2014-07-04T06:40:36.000Z</time>
      </trkpt>
      <trkpt lon="35.045736115425825" lat="31.788627617061138">
        <ele>557.0</ele>
        <time>2014-07-04T06:40:37.000Z</time>
      </trkpt>
      <trkpt lon="35.045690685510635" lat="31.788666509091854">
        <ele>557.5999755859375</ele>
        <time>2014-07-04T06:40:38.000Z</time>
      </trkpt>
      <trkpt lon="35.04564953036606" lat="31.788706155493855">
        <ele>558.0</ele>
        <time>2014-07-04T06:40:39.000Z</time>
      </trkpt>
      <trkpt lon="35.045606615021825" lat="31.78874110803008">
        <ele>558.5999755859375</ele>
        <time>2014-07-04T06:40:40.000Z</time>
      </trkpt>
      <trkpt lon="35.04556009545922" lat="31.788774132728577">
        <ele>559.0</ele>
        <time>2014-07-04T06:40:41.000Z</time>
      </trkpt>
      <trkpt lon="35.04530821926892" lat="31.78900346159935">
        <ele>561.0</ele>
        <time>2014-07-04T06:40:48.000Z</time>
      </trkpt>
      <trkpt lon="35.04505123011768" lat="31.78916573524475">
        <ele>561.0</ele>
        <time>2014-07-04T06:40:55.000Z</time>
      </trkpt>
      <trkpt lon="35.044919131323695" lat="31.789240585640073">
        <ele>560.5999755859375</ele>
        <time>2014-07-04T06:40:58.000Z</time>
      </trkpt>
      <trkpt lon="35.044552590698004" lat="31.78932742215693">
        <ele>558.5999755859375</ele>
        <time>2014-07-04T06:41:04.000Z</time>
      </trkpt>
      <trkpt lon="35.04435980692506" lat="31.789371259510517">
        <ele>556.7999877929688</ele>
        <time>2014-07-04T06:41:07.000Z</time>
      </trkpt>
      <trkpt lon="35.044293254613876" lat="31.78939187899232">
        <ele>556.4000244140625</ele>
        <time>2014-07-04T06:41:08.000Z</time>
      </trkpt>
      <trkpt lon="35.04388237372041" lat="31.78949983790517">
        <ele>553.7999877929688</ele>
        <time>2014-07-04T06:41:14.000Z</time>
      </trkpt>
      <trkpt lon="35.04364860244095" lat="31.789585081860423">
        <ele>554.4000244140625</ele>
        <time>2014-07-04T06:41:19.000Z</time>
      </trkpt>
      <trkpt lon="35.0434631947428" lat="31.78957510739565">
        <ele>555.0</ele>
        <time>2014-07-04T06:41:23.000Z</time>
      </trkpt>
      <trkpt lon="35.043291030451655" lat="31.7895136680454">
        <ele>554.0</ele>
        <time>2014-07-04T06:41:26.000Z</time>
      </trkpt>
      <trkpt lon="35.043237302452326" lat="31.78948567248881">
        <ele>553.4000244140625</ele>
        <time>2014-07-04T06:41:27.000Z</time>
      </trkpt>
      <trkpt lon="35.04318952560425" lat="31.78944912739098">
        <ele>553.0</ele>
        <time>2014-07-04T06:41:28.000Z</time>
      </trkpt>
      <trkpt lon="35.04314962774515" lat="31.789406463503838">
        <ele>552.4000244140625</ele>
        <time>2014-07-04T06:41:29.000Z</time>
      </trkpt>
      <trkpt lon="35.043113166466355" lat="31.789360279217362">
        <ele>551.7999877929688</ele>
        <time>2014-07-04T06:41:30.000Z</time>
      </trkpt>
      <trkpt lon="35.04304502159357" lat="31.789258355274796">
        <ele>550.5999755859375</ele>
        <time>2014-07-04T06:41:32.000Z</time>
      </trkpt>
      <trkpt lon="35.043019289150834" lat="31.78920429199934">
        <ele>550.0</ele>
        <time>2014-07-04T06:41:33.000Z</time>
      </trkpt>
      <trkpt lon="35.0429917126894" lat="31.78915048018098">
        <ele>549.2000122070312</ele>
        <time>2014-07-04T06:41:34.000Z</time>
      </trkpt>
      <trkpt lon="35.04284938797355" lat="31.78881981410086">
        <ele>544.0</ele>
        <time>2014-07-04T06:41:40.000Z</time>
      </trkpt>
      <trkpt lon="35.04273137077689" lat="31.788550335913897">
        <ele>540.0</ele>
        <time>2014-07-04T06:41:45.000Z</time>
      </trkpt>
      <trkpt lon="35.04270002245903" lat="31.788502726703882">
        <ele>539.5999755859375</ele>
        <time>2014-07-04T06:41:46.000Z</time>
      </trkpt>
      <trkpt lon="35.04266448318958" lat="31.788457380607724">
        <ele>539.2000122070312</ele>
        <time>2014-07-04T06:41:47.000Z</time>
      </trkpt>
      <trkpt lon="35.04262818954885" lat="31.788411615416408">
        <ele>539.0</ele>
        <time>2014-07-04T06:41:48.000Z</time>
      </trkpt>
      <trkpt lon="35.04259625449777" lat="31.788366939872503">
        <ele>538.5999755859375</ele>
        <time>2014-07-04T06:41:49.000Z</time>
      </trkpt>
      <trkpt lon="35.04252886399627" lat="31.788284294307232">
        <ele>538.2000122070312</ele>
        <time>2014-07-04T06:41:51.000Z</time>
      </trkpt>
      <trkpt lon="35.04249491728842" lat="31.788247330114245">
        <ele>538.2000122070312</ele>
        <time>2014-07-04T06:41:52.000Z</time>
      </trkpt>
      <trkpt lon="35.04246541298926" lat="31.78821044974029">
        <ele>538.0</ele>
        <time>2014-07-04T06:41:53.000Z</time>
      </trkpt>
      <trkpt lon="35.042440351098776" lat="31.78817180916667">
        <ele>537.0</ele>
        <time>2014-07-04T06:41:54.000Z</time>
      </trkpt>
      <trkpt lon="35.0424150377512" lat="31.788131156936288">
        <ele>536.0</ele>
        <time>2014-07-04T06:41:55.000Z</time>
      </trkpt>
      <trkpt lon="35.042382599785924" lat="31.78808773867786">
        <ele>535.2000122070312</ele>
        <time>2014-07-04T06:41:56.000Z</time>
      </trkpt>
      <trkpt lon="35.04234035499394" lat="31.78804482333362">
        <ele>534.4000244140625</ele>
        <time>2014-07-04T06:41:57.000Z</time>
      </trkpt>
      <trkpt lon="35.042290734127164" lat="31.788005093112588">
        <ele>534.2000122070312</ele>
        <time>2014-07-04T06:41:58.000Z</time>
      </trkpt>
      <trkpt lon="35.0422369223088" lat="31.787969218567014">
        <ele>534.2000122070312</ele>
        <time>2014-07-04T06:41:59.000Z</time>
      </trkpt>
      <trkpt lon="35.04218218848109" lat="31.787936948239803">
        <ele>534.2000122070312</ele>
        <time>2014-07-04T06:42:00.000Z</time>
      </trkpt>
      <trkpt lon="35.04207406193018" lat="31.787877939641476">
        <ele>534.5999755859375</ele>
        <time>2014-07-04T06:42:02.000Z</time>
      </trkpt>
      <trkpt lon="35.04202075302601" lat="31.78785664960742">
        <ele>534.5999755859375</ele>
        <time>2014-07-04T06:42:03.000Z</time>
      </trkpt>
      <trkpt lon="35.04197146743536" lat="31.787836952134967">
        <ele>534.5999755859375</ele>
        <time>2014-07-04T06:42:04.000Z</time>
      </trkpt>
      <trkpt lon="35.041723530739546" lat="31.787762101739645">
        <ele>535.7999877929688</ele>
        <time>2014-07-04T06:42:09.000Z</time>
      </trkpt>
      <trkpt lon="35.04167139530182" lat="31.78775841370225">
        <ele>536.4000244140625</ele>
        <time>2014-07-04T06:42:10.000Z</time>
      </trkpt>
      <trkpt lon="35.04124358296394" lat="31.78775648586452">
        <ele>540.5999755859375</ele>
        <time>2014-07-04T06:42:17.000Z</time>
      </trkpt>
      <trkpt lon="35.04117124713957" lat="31.787747936323285">
        <ele>540.4000244140625</ele>
        <time>2014-07-04T06:42:18.000Z</time>
      </trkpt>
      <trkpt lon="35.041093630716205" lat="31.787732345983386">
        <ele>540.0</ele>
        <time>2014-07-04T06:42:19.000Z</time>
      </trkpt>
      <trkpt lon="35.04101282916963" lat="31.787715582177043">
        <ele>539.5999755859375</ele>
        <time>2014-07-04T06:42:20.000Z</time>
      </trkpt>
      <trkpt lon="35.04092490300536" lat="31.78769974038005">
        <ele>539.0</ele>
        <time>2014-07-04T06:42:21.000Z</time>
      </trkpt>
      <trkpt lon="35.040280586108565" lat="31.787574095651507">
        <ele>536.7999877929688</ele>
        <time>2014-07-04T06:42:27.000Z</time>
      </trkpt>
      <trkpt lon="35.03964917734265" lat="31.787436632439494">
        <ele>535.5999755859375</ele>
        <time>2014-07-04T06:42:33.000Z</time>
      </trkpt>
      <trkpt lon="35.03946863114834" lat="31.78736806847155">
        <ele>534.4000244140625</ele>
        <time>2014-07-04T06:42:35.000Z</time>
      </trkpt>
      <trkpt lon="35.03922237083316" lat="31.787240160629153">
        <ele>532.0</ele>
        <time>2014-07-04T06:42:38.000Z</time>
      </trkpt>
      <trkpt lon="35.03874225541949" lat="31.786858532577753">
        <ele>522.7999877929688</ele>
        <time>2014-07-04T06:42:45.000Z</time>
      </trkpt>
      <trkpt lon="35.038397843018174" lat="31.78653985261917">
        <ele>522.5999755859375</ele>
        <time>2014-07-04T06:42:52.000Z</time>
      </trkpt>
      <trkpt lon="35.03814739175141" lat="31.786184208467603">
        <ele>519.7999877929688</ele>
        <time>2014-07-04T06:42:59.000Z</time>
      </trkpt>
      <trkpt lon="35.0378664303571" lat="31.78572915494442">
        <ele>515.7999877929688</ele>
        <time>2014-07-04T06:43:07.000Z</time>
      </trkpt>
      <trkpt lon="35.037520341575146" lat="31.78509548306465">
        <ele>515.2000122070312</ele>
        <time>2014-07-04T06:43:17.000Z</time>
      </trkpt>
      <trkpt lon="35.03746988251805" lat="31.78492139093578">
        <ele>512.5999755859375</ele>
        <time>2014-07-04T06:43:20.000Z</time>
      </trkpt>
      <trkpt lon="35.03742730244994" lat="31.784548480063677">
        <ele>512.0</ele>
        <time>2014-07-04T06:43:27.000Z</time>
      </trkpt>
      <trkpt lon="35.03742981702089" lat="31.784439347684383">
        <ele>511.3999938964844</ele>
        <time>2014-07-04T06:43:29.000Z</time>
      </trkpt>
      <trkpt lon="35.03744197078049" lat="31.784328538924456">
        <ele>509.6000061035156</ele>
        <time>2014-07-04T06:43:31.000Z</time>
      </trkpt>
      <trkpt lon="35.03743660636246" lat="31.784114968031645">
        <ele>507.0</ele>
        <time>2014-07-04T06:43:35.000Z</time>
      </trkpt>
      <trkpt lon="35.03740718588233" lat="31.783975744619966">
        <ele>506.79998779296875</ele>
        <time>2014-07-04T06:43:38.000Z</time>
      </trkpt>
      <trkpt lon="35.03740726970136" lat="31.78393400274217">
        <ele>506.20001220703125</ele>
        <time>2014-07-04T06:43:39.000Z</time>
      </trkpt>
      <trkpt lon="35.03741204738617" lat="31.78385085426271">
        <ele>504.6000061035156</ele>
        <time>2014-07-04T06:43:41.000Z</time>
      </trkpt>
      <trkpt lon="35.037408443167806" lat="31.78380584344268">
        <ele>504.20001220703125</ele>
        <time>2014-07-04T06:43:42.000Z</time>
      </trkpt>
      <trkpt lon="35.03740559332073" lat="31.78375798277557">
        <ele>503.6000061035156</ele>
        <time>2014-07-04T06:43:43.000Z</time>
      </trkpt>
      <trkpt lon="35.03739352338016" lat="31.78370869718492">
        <ele>503.3999938964844</ele>
        <time>2014-07-04T06:43:44.000Z</time>
      </trkpt>
      <trkpt lon="35.03737315535545" lat="31.78365396335721">
        <ele>503.79998779296875</ele>
        <time>2014-07-04T06:43:45.000Z</time>
      </trkpt>
      <trkpt lon="35.037340549752116" lat="31.78359931334853">
        <ele>505.0</ele>
        <time>2014-07-04T06:43:46.000Z</time>
      </trkpt>
      <trkpt lon="35.0373035017401" lat="31.783541729673743">
        <ele>506.20001220703125</ele>
        <time>2014-07-04T06:43:47.000Z</time>
      </trkpt>
      <trkpt lon="35.03722018562257" lat="31.783417677506804">
        <ele>509.3999938964844</ele>
        <time>2014-07-04T06:43:49.000Z</time>
      </trkpt>
      <trkpt lon="35.0371671281755" lat="31.78335824981332">
        <ele>511.6000061035156</ele>
        <time>2014-07-04T06:43:50.000Z</time>
      </trkpt>
      <trkpt lon="35.03696361556649" lat="31.783136799931526">
        <ele>515.0</ele>
        <time>2014-07-04T06:43:54.000Z</time>
      </trkpt>
      <trkpt lon="35.036922208964825" lat="31.78308080881834">
        <ele>514.2000122070312</ele>
        <time>2014-07-04T06:43:55.000Z</time>
      </trkpt>
      <trkpt lon="35.036807376891375" lat="31.78293320350349">
        <ele>512.0</ele>
        <time>2014-07-04T06:43:58.000Z</time>
      </trkpt>
      <trkpt lon="35.03676261752844" lat="31.78289406001568">
        <ele>512.0</ele>
        <time>2014-07-04T06:43:59.000Z</time>
      </trkpt>
      <trkpt lon="35.0367178581655" lat="31.782859610393643">
        <ele>512.0</ele>
        <time>2014-07-04T06:44:00.000Z</time>
      </trkpt>
      <trkpt lon="35.03666924312711" lat="31.78283496759832">
        <ele>512.5999755859375</ele>
        <time>2014-07-04T06:44:01.000Z</time>
      </trkpt>
      <trkpt lon="35.036617275327444" lat="31.78282080218196">
        <ele>513.7999877929688</ele>
        <time>2014-07-04T06:44:02.000Z</time>
      </trkpt>
      <trkpt lon="35.036564050242305" lat="31.782811162993312">
        <ele>515.0</ele>
        <time>2014-07-04T06:44:03.000Z</time>
      </trkpt>
      <trkpt lon="35.03650998696685" lat="31.782806972041726">
        <ele>516.5999755859375</ele>
        <time>2014-07-04T06:44:04.000Z</time>
      </trkpt>
      <trkpt lon="35.03645491786301" lat="31.78280521184206">
        <ele>518.4000244140625</ele>
        <time>2014-07-04T06:44:05.000Z</time>
      </trkpt>
      <trkpt lon="35.03640118986368" lat="31.78280965425074">
        <ele>520.4000244140625</ele>
        <time>2014-07-04T06:44:06.000Z</time>
      </trkpt>
      <trkpt lon="35.03634486347437" lat="31.782819712534547">
        <ele>522.5999755859375</ele>
        <time>2014-07-04T06:44:07.000Z</time>
      </trkpt>
      <trkpt lon="35.03590204752982" lat="31.782943680882454">
        <ele>526.2000122070312</ele>
        <time>2014-07-04T06:44:14.000Z</time>
      </trkpt>
      <trkpt lon="35.03569685854018" lat="31.783021548762918">
        <ele>530.7999877929688</ele>
        <time>2014-07-04T06:44:17.000Z</time>
      </trkpt>
      <trkpt lon="35.035622511059046" lat="31.78303772583604">
        <ele>531.7999877929688</ele>
        <time>2014-07-04T06:44:18.000Z</time>
      </trkpt>
      <trkpt lon="35.035547660663724" lat="31.78304946050048">
        <ele>532.5999755859375</ele>
        <time>2014-07-04T06:44:19.000Z</time>
      </trkpt>
      <trkpt lon="35.035209031775594" lat="31.783095644786954">
        <ele>534.5999755859375</ele>
        <time>2014-07-04T06:44:24.000Z</time>
      </trkpt>
      <trkpt lon="35.035137701779604" lat="31.78309304639697">
        <ele>534.5999755859375</ele>
        <time>2014-07-04T06:44:25.000Z</time>
      </trkpt>
      <trkpt lon="35.035065868869424" lat="31.783087011426687">
        <ele>534.2000122070312</ele>
        <time>2014-07-04T06:44:26.000Z</time>
      </trkpt>
      <trkpt lon="35.034988755360246" lat="31.783073600381613">
        <ele>533.4000244140625</ele>
        <time>2014-07-04T06:44:27.000Z</time>
      </trkpt>
      <trkpt lon="35.034914910793304" lat="31.783050298690796">
        <ele>532.0</ele>
        <time>2014-07-04T06:44:28.000Z</time>
      </trkpt>
      <trkpt lon="35.03484047949314" lat="31.783023476600647">
        <ele>530.4000244140625</ele>
        <time>2014-07-04T06:44:29.000Z</time>
      </trkpt>
      <trkpt lon="35.0345956441015" lat="31.78292834199965">
        <ele>524.4000244140625</ele>
        <time>2014-07-04T06:44:32.000Z</time>
      </trkpt>
      <trkpt lon="35.03452003933489" lat="31.782889366149902">
        <ele>522.4000244140625</ele>
        <time>2014-07-04T06:44:33.000Z</time>
      </trkpt>
      <trkpt lon="35.034442422911525" lat="31.782851479947567">
        <ele>520.5999755859375</ele>
        <time>2014-07-04T06:44:34.000Z</time>
      </trkpt>
      <trkpt lon="35.034359861165285" lat="31.782816192135215">
        <ele>518.7999877929688</ele>
        <time>2014-07-04T06:44:35.000Z</time>
      </trkpt>
      <trkpt lon="35.03427394665778" lat="31.782782580703497">
        <ele>517.4000244140625</ele>
        <time>2014-07-04T06:44:36.000Z</time>
      </trkpt>
      <trkpt lon="35.03372669219971" lat="31.782633299008012">
        <ele>512.7999877929688</ele>
        <time>2014-07-04T06:44:42.000Z</time>
      </trkpt>
      <trkpt lon="35.03343424759805" lat="31.78251746110618">
        <ele>513.4000244140625</ele>
        <time>2014-07-04T06:44:46.000Z</time>
      </trkpt>
      <trkpt lon="35.033374819904566" lat="31.78247488103807">
        <ele>512.4000244140625</ele>
        <time>2014-07-04T06:44:47.000Z</time>
      </trkpt>
      <trkpt lon="35.03301590681076" lat="31.782088642939925">
        <ele>502.3999938964844</ele>
        <time>2014-07-04T06:44:54.000Z</time>
      </trkpt>
      <trkpt lon="35.032700495794415" lat="31.781704081222415">
        <ele>494.6000061035156</ele>
        <time>2014-07-04T06:45:01.000Z</time>
      </trkpt>
      <trkpt lon="35.03252145834267" lat="31.781471399590373">
        <ele>490.6000061035156</ele>
        <time>2014-07-04T06:45:06.000Z</time>
      </trkpt>
      <trkpt lon="35.032476196065545" lat="31.781436698511243">
        <ele>490.79998779296875</ele>
        <time>2014-07-04T06:45:07.000Z</time>
      </trkpt>
      <trkpt lon="35.032423473894596" lat="31.781409876421094">
        <ele>491.6000061035156</ele>
        <time>2014-07-04T06:45:08.000Z</time>
      </trkpt>
      <trkpt lon="35.0323661416769" lat="31.7813905980438">
        <ele>493.0</ele>
        <time>2014-07-04T06:45:09.000Z</time>
      </trkpt>
      <trkpt lon="35.032304199412465" lat="31.781377103179693">
        <ele>494.79998779296875</ele>
        <time>2014-07-04T06:45:10.000Z</time>
      </trkpt>
      <trkpt lon="35.03223764710128" lat="31.781365536153316">
        <ele>496.6000061035156</ele>
        <time>2014-07-04T06:45:11.000Z</time>
      </trkpt>
      <trkpt lon="35.03217143006623" lat="31.78135983645916">
        <ele>498.79998779296875</ele>
        <time>2014-07-04T06:45:12.000Z</time>
      </trkpt>
      <trkpt lon="35.03210504539311" lat="31.781357489526272">
        <ele>501.20001220703125</ele>
        <time>2014-07-04T06:45:13.000Z</time>
      </trkpt>
      <trkpt lon="35.03157455474138" lat="31.781335026025772">
        <ele>503.3999938964844</ele>
        <time>2014-07-04T06:45:21.000Z</time>
      </trkpt>
      <trkpt lon="35.03126358613372" lat="31.7812938708812">
        <ele>502.79998779296875</ele>
        <time>2014-07-04T06:45:25.000Z</time>
      </trkpt>
      <trkpt lon="35.03118010237813" lat="31.78129873238504">
        <ele>502.20001220703125</ele>
        <time>2014-07-04T06:45:26.000Z</time>
      </trkpt>
      <trkpt lon="35.03110340796411" lat="31.78131775930524">
        <ele>502.0</ele>
        <time>2014-07-04T06:45:27.000Z</time>
      </trkpt>
      <trkpt lon="35.03104322589934" lat="31.78134852088988">
        <ele>502.20001220703125</ele>
        <time>2014-07-04T06:45:28.000Z</time>
      </trkpt>
      <trkpt lon="35.031003495678306" lat="31.781387077644467">
        <ele>502.20001220703125</ele>
        <time>2014-07-04T06:45:29.000Z</time>
      </trkpt>
      <trkpt lon="35.03099243156612" lat="31.78143451921642">
        <ele>503.0</ele>
        <time>2014-07-04T06:45:30.000Z</time>
      </trkpt>
      <trkpt lon="35.03099301829934" lat="31.781481374055147">
        <ele>504.20001220703125</ele>
        <time>2014-07-04T06:45:31.000Z</time>
      </trkpt>
      <trkpt lon="35.03099896945059" lat="31.78152445703745">
        <ele>505.20001220703125</ele>
        <time>2014-07-04T06:45:32.000Z</time>
      </trkpt>
      <trkpt lon="35.03100802190602" lat="31.781563013792038">
        <ele>506.20001220703125</ele>
        <time>2014-07-04T06:45:33.000Z</time>
      </trkpt>
      <trkpt lon="35.03101305104792" lat="31.781598469242454">
        <ele>506.6000061035156</ele>
        <time>2014-07-04T06:45:34.000Z</time>
      </trkpt>
      <trkpt lon="35.031020091846585" lat="31.78163099102676">
        <ele>507.20001220703125</ele>
        <time>2014-07-04T06:45:35.000Z</time>
      </trkpt>
      <trkpt lon="35.03103065304458" lat="31.781663596630096">
        <ele>507.79998779296875</ele>
        <time>2014-07-04T06:45:36.000Z</time>
      </trkpt>
      <trkpt lon="35.03106468357146" lat="31.781915221363306">
        <ele>511.6000061035156</ele>
        <time>2014-07-04T06:45:44.000Z</time>
      </trkpt>
      <trkpt lon="35.0310486741364" lat="31.782194674015045">
        <ele>514.5999755859375</ele>
        <time>2014-07-04T06:45:51.000Z</time>
      </trkpt>
      <trkpt lon="35.03103610128164" lat="31.78232048638165">
        <ele>515.5999755859375</ele>
        <time>2014-07-04T06:45:54.000Z</time>
      </trkpt>
      <trkpt lon="35.030989330261946" lat="31.782452082261443">
        <ele>516.4000244140625</ele>
        <time>2014-07-04T06:45:57.000Z</time>
      </trkpt>
      <trkpt lon="35.03096301108599" lat="31.78249977529049">
        <ele>516.5999755859375</ele>
        <time>2014-07-04T06:45:58.000Z</time>
      </trkpt>
      <trkpt lon="35.03093518316746" lat="31.782544367015362">
        <ele>516.5999755859375</ele>
        <time>2014-07-04T06:45:59.000Z</time>
      </trkpt>
      <trkpt lon="35.03090207464993" lat="31.78258879110217">
        <ele>516.5999755859375</ele>
        <time>2014-07-04T06:46:00.000Z</time>
      </trkpt>
      <trkpt lon="35.03086192533374" lat="31.78263572975993">
        <ele>516.4000244140625</ele>
        <time>2014-07-04T06:46:01.000Z</time>
      </trkpt>
      <trkpt lon="35.0308137293905" lat="31.782681243494153">
        <ele>516.2000122070312</ele>
        <time>2014-07-04T06:46:02.000Z</time>
      </trkpt>
      <trkpt lon="35.03075706772506" lat="31.782720806077123">
        <ele>515.5999755859375</ele>
        <time>2014-07-04T06:46:03.000Z</time>
      </trkpt>
      <trkpt lon="35.0306945387274" lat="31.782753746956587">
        <ele>515.5999755859375</ele>
        <time>2014-07-04T06:46:04.000Z</time>
      </trkpt>
      <trkpt lon="35.030628154054284" lat="31.78277838975191">
        <ele>515.5999755859375</ele>
        <time>2014-07-04T06:46:05.000Z</time>
      </trkpt>
      <trkpt lon="35.030560260638595" lat="31.78279691375792">
        <ele>515.2000122070312</ele>
        <time>2014-07-04T06:46:06.000Z</time>
      </trkpt>
      <trkpt lon="35.03049303777516" lat="31.782808313146234">
        <ele>514.5999755859375</ele>
        <time>2014-07-04T06:46:07.000Z</time>
      </trkpt>
      <trkpt lon="35.03042958676815" lat="31.782818203791976">
        <ele>514.2000122070312</ele>
        <time>2014-07-04T06:46:08.000Z</time>
      </trkpt>
      <trkpt lon="35.03018877469003" lat="31.78283262066543">
        <ele>512.4000244140625</ele>
        <time>2014-07-04T06:46:12.000Z</time>
      </trkpt>
      <trkpt lon="35.03012951463461" lat="31.782829016447067">
        <ele>511.79998779296875</ele>
        <time>2014-07-04T06:46:13.000Z</time>
      </trkpt>
      <trkpt lon="35.02966918051243" lat="31.782764978706837">
        <ele>506.0</ele>
        <time>2014-07-04T06:46:21.000Z</time>
      </trkpt>
      <trkpt lon="35.02922259271145" lat="31.78267336450517">
        <ele>500.3999938964844</ele>
        <time>2014-07-04T06:46:29.000Z</time>
      </trkpt>
      <trkpt lon="35.02916685305536" lat="31.78266104310751">
        <ele>499.6000061035156</ele>
        <time>2014-07-04T06:46:30.000Z</time>
      </trkpt>
      <trkpt lon="35.02899443730712" lat="31.782634388655424">
        <ele>497.79998779296875</ele>
        <time>2014-07-04T06:46:33.000Z</time>
      </trkpt>
      <trkpt lon="35.02893383614719" lat="31.78263950161636">
        <ele>497.0</ele>
        <time>2014-07-04T06:46:34.000Z</time>
      </trkpt>
      <trkpt lon="35.02887189388275" lat="31.782654924318194">
        <ele>496.20001220703125</ele>
        <time>2014-07-04T06:46:35.000Z</time>
      </trkpt>
      <trkpt lon="35.028809951618314" lat="31.782682836055756">
        <ele>495.79998779296875</ele>
        <time>2014-07-04T06:46:36.000Z</time>
      </trkpt>
      <trkpt lon="35.028749350458384" lat="31.782720470800996">
        <ele>495.6000061035156</ele>
        <time>2014-07-04T06:46:37.000Z</time>
      </trkpt>
      <trkpt lon="35.028692269697785" lat="31.782765313982964">
        <ele>495.79998779296875</ele>
        <time>2014-07-04T06:46:38.000Z</time>
      </trkpt>
      <trkpt lon="35.02863535657525" lat="31.78281250409782">
        <ele>496.20001220703125</ele>
        <time>2014-07-04T06:46:39.000Z</time>
      </trkpt>
      <trkpt lon="35.02829077653587" lat="31.783131435513496">
        <ele>495.0</ele>
        <time>2014-07-04T06:46:45.000Z</time>
      </trkpt>
      <trkpt lon="35.028190696612" lat="31.78322883322835">
        <ele>493.79998779296875</ele>
        <time>2014-07-04T06:46:47.000Z</time>
      </trkpt>
      <trkpt lon="35.02815532498062" lat="31.78327912464738">
        <ele>492.6000061035156</ele>
        <time>2014-07-04T06:46:48.000Z</time>
      </trkpt>
      <trkpt lon="35.02813805826008" lat="31.783333774656057">
        <ele>491.79998779296875</ele>
        <time>2014-07-04T06:46:49.000Z</time>
      </trkpt>
      <trkpt lon="35.02814752981067" lat="31.783389933407307">
        <ele>491.6000061035156</ele>
        <time>2014-07-04T06:46:50.000Z</time>
      </trkpt>
      <trkpt lon="35.028182649984956" lat="31.783445673063397">
        <ele>491.79998779296875</ele>
        <time>2014-07-04T06:46:51.000Z</time>
      </trkpt>
      <trkpt lon="35.028220787644386" lat="31.78350107744336">
        <ele>492.0</ele>
        <time>2014-07-04T06:46:52.000Z</time>
      </trkpt>
      <trkpt lon="35.02826353535056" lat="31.78355866111815">
        <ele>492.20001220703125</ele>
        <time>2014-07-04T06:46:53.000Z</time>
      </trkpt>
      <trkpt lon="35.02848045900464" lat="31.783845657482743">
        <ele>493.0</ele>
        <time>2014-07-04T06:46:58.000Z</time>
      </trkpt>
      <trkpt lon="35.02850795164704" lat="31.78390600718558">
        <ele>492.6000061035156</ele>
        <time>2014-07-04T06:46:59.000Z</time>
      </trkpt>
      <trkpt lon="35.028521781787276" lat="31.783967278897762">
        <ele>491.79998779296875</ele>
        <time>2014-07-04T06:47:00.000Z</time>
      </trkpt>
      <trkpt lon="35.02852194942534" lat="31.784029891714454">
        <ele>490.6000061035156</ele>
        <time>2014-07-04T06:47:01.000Z</time>
      </trkpt>
      <trkpt lon="35.02852505072951" lat="31.784090911969543">
        <ele>489.6000061035156</ele>
        <time>2014-07-04T06:47:02.000Z</time>
      </trkpt>
      <trkpt lon="35.02853821031749" lat="31.78415142931044">
        <ele>489.0</ele>
        <time>2014-07-04T06:47:03.000Z</time>
      </trkpt>
      <trkpt lon="35.02856218256056" lat="31.784210689365864">
        <ele>488.79998779296875</ele>
        <time>2014-07-04T06:47:04.000Z</time>
      </trkpt>
      <trkpt lon="35.028596464544535" lat="31.78426626138389">
        <ele>488.79998779296875</ele>
        <time>2014-07-04T06:47:05.000Z</time>
      </trkpt>
      <trkpt lon="35.028637032955885" lat="31.784318648278713">
        <ele>489.0</ele>
        <time>2014-07-04T06:47:06.000Z</time>
      </trkpt>
      <trkpt lon="35.02868413925171" lat="31.784367514774203">
        <ele>489.6000061035156</ele>
        <time>2014-07-04T06:47:07.000Z</time>
      </trkpt>
      <trkpt lon="35.02873711287975" lat="31.78441327996552">
        <ele>490.3999938964844</ele>
        <time>2014-07-04T06:47:08.000Z</time>
      </trkpt>
      <trkpt lon="35.028791930526495" lat="31.784455692395568">
        <ele>491.6000061035156</ele>
        <time>2014-07-04T06:47:09.000Z</time>
      </trkpt>
      <trkpt lon="35.02900826744735" lat="31.784624503925443">
        <ele>497.3999938964844</ele>
        <time>2014-07-04T06:47:13.000Z</time>
      </trkpt>
      <trkpt lon="35.02905260771513" lat="31.784671107307076">
        <ele>498.3999938964844</ele>
        <time>2014-07-04T06:47:14.000Z</time>
      </trkpt>
      <trkpt lon="35.029087560251355" lat="31.784721231088042">
        <ele>498.79998779296875</ele>
        <time>2014-07-04T06:47:15.000Z</time>
      </trkpt>
      <trkpt lon="35.02911404706538" lat="31.784780910238624">
        <ele>498.79998779296875</ele>
        <time>2014-07-04T06:47:16.000Z</time>
      </trkpt>
      <trkpt lon="35.02913407981396" lat="31.78484628908336">
        <ele>498.6000061035156</ele>
        <time>2014-07-04T06:47:17.000Z</time>
      </trkpt>
      <trkpt lon="35.02913969568908" lat="31.78491074591875">
        <ele>498.20001220703125</ele>
        <time>2014-07-04T06:47:18.000Z</time>
      </trkpt>
      <trkpt lon="35.02913014031947" lat="31.78497184999287">
        <ele>498.0</ele>
        <time>2014-07-04T06:47:19.000Z</time>
      </trkpt>
      <trkpt lon="35.02911069430411" lat="31.785032618790865">
        <ele>497.20001220703125</ele>
        <time>2014-07-04T06:47:20.000Z</time>
      </trkpt>
      <trkpt lon="35.02908487804234" lat="31.78509581834078">
        <ele>496.3999938964844</ele>
        <time>2014-07-04T06:47:21.000Z</time>
      </trkpt>
      <trkpt lon="35.02904984168708" lat="31.785150384530425">
        <ele>495.0</ele>
        <time>2014-07-04T06:47:22.000Z</time>
      </trkpt>
      <trkpt lon="35.02901304513216" lat="31.785204196348786">
        <ele>493.79998779296875</ele>
        <time>2014-07-04T06:47:23.000Z</time>
      </trkpt>
      <trkpt lon="35.02875605598092" lat="31.785636115819216">
        <ele>485.79998779296875</ele>
        <time>2014-07-04T06:47:30.000Z</time>
      </trkpt>
      <trkpt lon="35.02873510122299" lat="31.785701075568795">
        <ele>485.20001220703125</ele>
        <time>2014-07-04T06:47:31.000Z</time>
      </trkpt>
      <trkpt lon="35.02872470766306" lat="31.78576720878482">
        <ele>484.20001220703125</ele>
        <time>2014-07-04T06:47:32.000Z</time>
      </trkpt>
      <trkpt lon="35.02872135490179" lat="31.785836946219206">
        <ele>483.3999938964844</ele>
        <time>2014-07-04T06:47:33.000Z</time>
      </trkpt>
      <trkpt lon="35.02872177399695" lat="31.785912215709686">
        <ele>482.79998779296875</ele>
        <time>2014-07-04T06:47:34.000Z</time>
      </trkpt>
      <trkpt lon="35.02874381840229" lat="31.786472713574767">
        <ele>478.20001220703125</ele>
        <time>2014-07-04T06:47:41.000Z</time>
      </trkpt>
      <trkpt lon="35.02876644954085" lat="31.786594754084945">
        <ele>477.20001220703125</ele>
        <time>2014-07-04T06:47:43.000Z</time>
      </trkpt>
      <trkpt lon="35.028788493946195" lat="31.786648984998465">
        <ele>476.3999938964844</ele>
        <time>2014-07-04T06:47:44.000Z</time>
      </trkpt>
      <trkpt lon="35.02882394939661" lat="31.786698773503304">
        <ele>476.3999938964844</ele>
        <time>2014-07-04T06:47:45.000Z</time>
      </trkpt>
      <trkpt lon="35.02886636182666" lat="31.786751076579094">
        <ele>476.6000061035156</ele>
        <time>2014-07-04T06:47:46.000Z</time>
      </trkpt>
      <trkpt lon="35.028907265514135" lat="31.786803798750043">
        <ele>476.6000061035156</ele>
        <time>2014-07-04T06:47:47.000Z</time>
      </trkpt>
      <trkpt lon="35.02915562130511" lat="31.787150306627154">
        <ele>476.6000061035156</ele>
        <time>2014-07-04T06:47:53.000Z</time>
      </trkpt>
      <trkpt lon="35.029469188302755" lat="31.787660513073206">
        <ele>472.79998779296875</ele>
        <time>2014-07-04T06:48:00.000Z</time>
      </trkpt>
      <trkpt lon="35.029668593779206" lat="31.788018168881536">
        <ele>467.3999938964844</ele>
        <time>2014-07-04T06:48:05.000Z</time>
      </trkpt>
      <trkpt lon="35.02971955575049" lat="31.78808530792594">
        <ele>466.3999938964844</ele>
        <time>2014-07-04T06:48:06.000Z</time>
      </trkpt>
      <trkpt lon="35.03018818795681" lat="31.788572380319238">
        <ele>466.6000061035156</ele>
        <time>2014-07-04T06:48:14.000Z</time>
      </trkpt>
      <trkpt lon="35.03025071695447" lat="31.788617726415396">
        <ele>467.3999938964844</ele>
        <time>2014-07-04T06:48:15.000Z</time>
      </trkpt>
      <trkpt lon="35.03055967390537" lat="31.788801457732916">
        <ele>469.0</ele>
        <time>2014-07-04T06:48:21.000Z</time>
      </trkpt>
      <trkpt lon="35.03060845658183" lat="31.788864992558956">
        <ele>468.20001220703125</ele>
        <time>2014-07-04T06:48:24.000Z</time>
      </trkpt>
      <trkpt lon="35.03060384653509" lat="31.788883432745934">
        <ele>467.79998779296875</ele>
        <time>2014-07-04T06:48:25.000Z</time>
      </trkpt>
      <trkpt lon="35.03059043549001" lat="31.78889835253358">
        <ele>467.6000061035156</ele>
        <time>2014-07-04T06:48:26.000Z</time>
      </trkpt>
      <trkpt lon="35.030568055808544" lat="31.788909500464797">
        <ele>467.20001220703125</ele>
        <time>2014-07-04T06:48:27.000Z</time>
      </trkpt>
      <trkpt lon="35.03054584376514" lat="31.7889248393476">
        <ele>466.79998779296875</ele>
        <time>2014-07-04T06:48:28.000Z</time>
      </trkpt>
      <trkpt lon="35.03052446991205" lat="31.788945542648435">
        <ele>466.3999938964844</ele>
        <time>2014-07-04T06:48:29.000Z</time>
      </trkpt>
      <trkpt lon="35.03032556734979" lat="31.789002288132906">
        <ele>463.79998779296875</ele>
        <time>2014-07-04T06:48:35.000Z</time>
      </trkpt>
      <trkpt lon="35.03015256486833" lat="31.789015363901854">
        <ele>464.0</ele>
        <time>2014-07-04T06:48:39.000Z</time>
      </trkpt>
      <trkpt lon="35.02987001091242" lat="31.788984267041087">
        <ele>464.20001220703125</ele>
        <time>2014-07-04T06:48:46.000Z</time>
      </trkpt>
      <trkpt lon="35.029562478885055" lat="31.788908829912543">
        <ele>463.6000061035156</ele>
        <time>2014-07-04T06:48:53.000Z</time>
      </trkpt>
      <trkpt lon="35.029185293242335" lat="31.788762398064137">
        <ele>459.3999938964844</ele>
        <time>2014-07-04T06:49:01.000Z</time>
      </trkpt>
      <trkpt lon="35.02887834794819" lat="31.78862325847149">
        <ele>457.79998779296875</ele>
        <time>2014-07-04T06:49:07.000Z</time>
      </trkpt>
      <trkpt lon="35.0287261325866" lat="31.788569279015064">
        <ele>457.3999938964844</ele>
        <time>2014-07-04T06:49:10.000Z</time>
      </trkpt>
      <trkpt lon="35.028678523376584" lat="31.788545390591025">
        <ele>457.20001220703125</ele>
        <time>2014-07-04T06:49:11.000Z</time>
      </trkpt>
      <trkpt lon="35.02858640626073" lat="31.788488561287522">
        <ele>456.3999938964844</ele>
        <time>2014-07-04T06:49:13.000Z</time>
      </trkpt>
      <trkpt lon="35.02854089252651" lat="31.788446735590696">
        <ele>455.6000061035156</ele>
        <time>2014-07-04T06:49:14.000Z</time>
      </trkpt>
      <trkpt lon="35.02849110402167" lat="31.788399713113904">
        <ele>454.6000061035156</ele>
        <time>2014-07-04T06:49:15.000Z</time>
      </trkpt>
      <trkpt lon="35.02804367803037" lat="31.788056138902903">
        <ele>449.79998779296875</ele>
        <time>2014-07-04T06:49:22.000Z</time>
      </trkpt>
      <trkpt lon="35.027506900951266" lat="31.78766218945384">
        <ele>446.79998779296875</ele>
        <time>2014-07-04T06:49:30.000Z</time>
      </trkpt>
      <trkpt lon="35.02745853736997" lat="31.787607539445162">
        <ele>446.0</ele>
        <time>2014-07-04T06:49:31.000Z</time>
      </trkpt>
      <trkpt lon="35.02723499201238" lat="31.787339570000768">
        <ele>442.3999938964844</ele>
        <time>2014-07-04T06:49:36.000Z</time>
      </trkpt>
      <trkpt lon="35.027200039476156" lat="31.787286680191755">
        <ele>441.6000061035156</ele>
        <time>2014-07-04T06:49:37.000Z</time>
      </trkpt>
      <trkpt lon="35.027162823826075" lat="31.787236975505948">
        <ele>441.0</ele>
        <time>2014-07-04T06:49:38.000Z</time>
      </trkpt>
      <trkpt lon="35.02711814828217" lat="31.787189953029156">
        <ele>440.6000061035156</ele>
        <time>2014-07-04T06:49:39.000Z</time>
      </trkpt>
      <trkpt lon="35.02706785686314" lat="31.787145528942347">
        <ele>440.20001220703125</ele>
        <time>2014-07-04T06:49:40.000Z</time>
      </trkpt>
      <trkpt lon="35.02701899036765" lat="31.78710026666522">
        <ele>440.0</ele>
        <time>2014-07-04T06:49:41.000Z</time>
      </trkpt>
      <trkpt lon="35.02697548829019" lat="31.78705240599811">
        <ele>439.6000061035156</ele>
        <time>2014-07-04T06:49:42.000Z</time>
      </trkpt>
      <trkpt lon="35.02693441696465" lat="31.787004126235843">
        <ele>439.0</ele>
        <time>2014-07-04T06:49:43.000Z</time>
      </trkpt>
      <trkpt lon="35.026862332597375" lat="31.78691645152867">
        <ele>438.20001220703125</ele>
        <time>2014-07-04T06:49:45.000Z</time>
      </trkpt>
      <trkpt lon="35.02674624323845" lat="31.786753004416823">
        <ele>436.3999938964844</ele>
        <time>2014-07-04T06:49:49.000Z</time>
      </trkpt>
      <trkpt lon="35.02670584246516" lat="31.78671319037676">
        <ele>436.0</ele>
        <time>2014-07-04T06:49:50.000Z</time>
      </trkpt>
      <trkpt lon="35.02665831707418" lat="31.78667756728828">
        <ele>436.0</ele>
        <time>2014-07-04T06:49:51.000Z</time>
      </trkpt>
      <trkpt lon="35.02656175754964" lat="31.78660523146391">
        <ele>435.79998779296875</ele>
        <time>2014-07-04T06:49:53.000Z</time>
      </trkpt>
      <trkpt lon="35.026519261300564" lat="31.786563573405147">
        <ele>435.6000061035156</ele>
        <time>2014-07-04T06:49:54.000Z</time>
      </trkpt>
      <trkpt lon="35.026482632383704" lat="31.7865158803761">
        <ele>435.0</ele>
        <time>2014-07-04T06:49:55.000Z</time>
      </trkpt>
      <trkpt lon="35.02637987025082" lat="31.7863604798913">
        <ele>432.79998779296875</ele>
        <time>2014-07-04T06:49:58.000Z</time>
      </trkpt>
      <trkpt lon="35.02633133903146" lat="31.78631362505257">
        <ele>432.20001220703125</ele>
        <time>2014-07-04T06:49:59.000Z</time>
      </trkpt>
      <trkpt lon="35.02623218111694" lat="31.786229806020856">
        <ele>431.79998779296875</ele>
        <time>2014-07-04T06:50:01.000Z</time>
      </trkpt>
      <trkpt lon="35.02619228325784" lat="31.786185633391142">
        <ele>431.6000061035156</ele>
        <time>2014-07-04T06:50:02.000Z</time>
      </trkpt>
      <trkpt lon="35.02598583698273" lat="31.785872150212526">
        <ele>428.0</ele>
        <time>2014-07-04T06:50:09.000Z</time>
      </trkpt>
      <trkpt lon="35.02594459801912" lat="31.785826049745083">
        <ele>427.6000061035156</ele>
        <time>2014-07-04T06:50:10.000Z</time>
      </trkpt>
      <trkpt lon="35.025894306600094" lat="31.785785229876637">
        <ele>427.6000061035156</ele>
        <time>2014-07-04T06:50:11.000Z</time>
      </trkpt>
      <trkpt lon="35.0258369743824" lat="31.78574876859784">
        <ele>427.79998779296875</ele>
        <time>2014-07-04T06:50:12.000Z</time>
      </trkpt>
      <trkpt lon="35.02577771432698" lat="31.785720605403185">
        <ele>428.3999938964844</ele>
        <time>2014-07-04T06:50:13.000Z</time>
      </trkpt>
      <trkpt lon="35.025714347139" lat="31.78569487296045">
        <ele>428.6000061035156</ele>
        <time>2014-07-04T06:50:14.000Z</time>
      </trkpt>
      <trkpt lon="35.025648549199104" lat="31.785674169659615">
        <ele>429.20001220703125</ele>
        <time>2014-07-04T06:50:15.000Z</time>
      </trkpt>
      <trkpt lon="35.02530765719712" lat="31.78560216911137">
        <ele>432.0</ele>
        <time>2014-07-04T06:50:20.000Z</time>
      </trkpt>
      <trkpt lon="35.02507799305022" lat="31.785564618185163">
        <ele>433.0</ele>
        <time>2014-07-04T06:50:24.000Z</time>
      </trkpt>
      <trkpt lon="35.02478923648596" lat="31.7855108063668">
        <ele>433.79998779296875</ele>
        <time>2014-07-04T06:50:29.000Z</time>
      </trkpt>
      <trkpt lon="35.02473056316376" lat="31.785500328987837">
        <ele>434.0</ele>
        <time>2014-07-04T06:50:30.000Z</time>
      </trkpt>
      <trkpt lon="35.02461489289999" lat="31.785473758354783">
        <ele>434.0</ele>
        <time>2014-07-04T06:50:32.000Z</time>
      </trkpt>
      <trkpt lon="35.024192947894335" lat="31.785410810261965">
        <ele>434.79998779296875</ele>
        <time>2014-07-04T06:50:38.000Z</time>
      </trkpt>
      <trkpt lon="35.02398985438049" lat="31.78536521270871">
        <ele>434.3999938964844</ele>
        <time>2014-07-04T06:50:41.000Z</time>
      </trkpt>
      <trkpt lon="35.023818612098694" lat="31.7852898593992">
        <ele>432.79998779296875</ele>
        <time>2014-07-04T06:50:44.000Z</time>
      </trkpt>
      <trkpt lon="35.023768823593855" lat="31.785258427262306">
        <ele>432.0</ele>
        <time>2014-07-04T06:50:45.000Z</time>
      </trkpt>
      <trkpt lon="35.023720879107714" lat="31.78522825241089">
        <ele>431.6000061035156</ele>
        <time>2014-07-04T06:50:46.000Z</time>
      </trkpt>
      <trkpt lon="35.02367570064962" lat="31.785200173035264">
        <ele>431.3999938964844</ele>
        <time>2014-07-04T06:50:47.000Z</time>
      </trkpt>
      <trkpt lon="35.02363219857216" lat="31.785171842202544">
        <ele>431.0</ele>
        <time>2014-07-04T06:50:48.000Z</time>
      </trkpt>
      <trkpt lon="35.023333132267" lat="31.784924576058984">
        <ele>427.0</ele>
        <time>2014-07-04T06:50:55.000Z</time>
      </trkpt>
      <trkpt lon="35.023299772292376" lat="31.78488476201892">
        <ele>426.20001220703125</ele>
        <time>2014-07-04T06:50:56.000Z</time>
      </trkpt>
      <trkpt lon="35.02324587665498" lat="31.784809241071343">
        <ele>424.3999938964844</ele>
        <time>2014-07-04T06:50:58.000Z</time>
      </trkpt>
      <trkpt lon="35.02301495522261" lat="31.78456323221326">
        <ele>419.3999938964844</ele>
        <time>2014-07-04T06:51:07.000Z</time>
      </trkpt>
      <trkpt lon="35.0228859577328" lat="31.78442308679223">
        <ele>417.0</ele>
        <time>2014-07-04T06:51:12.000Z</time>
      </trkpt>
      <trkpt lon="35.02284991554916" lat="31.784393498674035">
        <ele>417.0</ele>
        <time>2014-07-04T06:51:13.000Z</time>
      </trkpt>
      <trkpt lon="35.02281135879457" lat="31.784362234175205">
        <ele>417.0</ele>
        <time>2014-07-04T06:51:14.000Z</time>
      </trkpt>
      <trkpt lon="35.02262025140226" lat="31.784216724336147">
        <ele>417.20001220703125</ele>
        <time>2014-07-04T06:51:18.000Z</time>
      </trkpt>
      <trkpt lon="35.022568283602595" lat="31.784189734607935">
        <ele>417.6000061035156</ele>
        <time>2014-07-04T06:51:19.000Z</time>
      </trkpt>
      <trkpt lon="35.02251732163131" lat="31.784183364361525">
        <ele>418.79998779296875</ele>
        <time>2014-07-04T06:51:20.000Z</time>
      </trkpt>
      <trkpt lon="35.022470047697425" lat="31.784195601940155">
        <ele>420.6000061035156</ele>
        <time>2014-07-04T06:51:21.000Z</time>
      </trkpt>
      <trkpt lon="35.022425539791584" lat="31.784215718507767">
        <ele>422.6000061035156</ele>
        <time>2014-07-04T06:51:22.000Z</time>
      </trkpt>
      <trkpt lon="35.02238530665636" lat="31.784240193665028">
        <ele>424.3999938964844</ele>
        <time>2014-07-04T06:51:23.000Z</time>
      </trkpt>
      <trkpt lon="35.02234976738691" lat="31.784269865602255">
        <ele>426.3999938964844</ele>
        <time>2014-07-04T06:51:24.000Z</time>
      </trkpt>
      <trkpt lon="35.022318083792925" lat="31.784300794824958">
        <ele>428.0</ele>
        <time>2014-07-04T06:51:25.000Z</time>
      </trkpt>
      <trkpt lon="35.022249687463045" lat="31.784358378499746">
        <ele>429.3999938964844</ele>
        <time>2014-07-04T06:51:27.000Z</time>
      </trkpt>
      <trkpt lon="35.02217324450612" lat="31.784414453431964">
        <ele>430.6000061035156</ele>
        <time>2014-07-04T06:51:29.000Z</time>
      </trkpt>
      <trkpt lon="35.02214189618826" lat="31.784446220844984">
        <ele>431.3999938964844</ele>
        <time>2014-07-04T06:51:30.000Z</time>
      </trkpt>
      <trkpt lon="35.022084983065724" lat="31.784527441486716">
        <ele>433.0</ele>
        <time>2014-07-04T06:51:35.000Z</time>
      </trkpt>
      <trkpt lon="35.02203494310379" lat="31.784538002684712">
        <ele>433.0</ele>
        <time>2014-07-04T06:51:42.000Z</time>
      </trkpt>
      <trkpt lon="35.02202429808676" lat="31.784546049311757">
        <ele>433.0</ele>
        <time>2014-07-04T06:51:43.000Z</time>
      </trkpt>
      <trkpt lon="35.02201390452683" lat="31.78455837070942">
        <ele>433.20001220703125</ele>
        <time>2014-07-04T06:51:44.000Z</time>
      </trkpt>
      <trkpt lon="35.02200032584369" lat="31.784572200849652">
        <ele>433.3999938964844</ele>
        <time>2014-07-04T06:51:45.000Z</time>
      </trkpt>
      <trkpt lon="35.021985825151205" lat="31.78458779118955">
        <ele>433.6000061035156</ele>
        <time>2014-07-04T06:51:46.000Z</time>
      </trkpt>
      <trkpt lon="35.02189706079662" lat="31.784733217209578">
        <ele>435.20001220703125</ele>
        <time>2014-07-04T06:51:54.000Z</time>
      </trkpt>
      <trkpt lon="35.02180469222367" lat="31.784950140863657">
        <ele>436.20001220703125</ele>
        <time>2014-07-04T06:52:03.000Z</time>
      </trkpt>
      <trkpt lon="35.02172674052417" lat="31.785214841365814">
        <ele>437.79998779296875</ele>
        <time>2014-07-04T06:52:12.000Z</time>
      </trkpt>
      <trkpt lon="35.0216129142791" lat="31.7854193598032">
        <ele>438.20001220703125</ele>
        <time>2014-07-04T06:52:19.000Z</time>
      </trkpt>
      <trkpt lon="35.021513253450394" lat="31.785627650097013">
        <ele>438.20001220703125</ele>
        <time>2014-07-04T06:52:26.000Z</time>
      </trkpt>
      <trkpt lon="35.02143052406609" lat="31.785783721134067">
        <ele>438.6000061035156</ele>
        <time>2014-07-04T06:52:32.000Z</time>
      </trkpt>
      <trkpt lon="35.02126296982169" lat="31.78597005084157">
        <ele>437.0</ele>
        <time>2014-07-04T06:52:38.000Z</time>
      </trkpt>
      <trkpt lon="35.021057864651084" lat="31.786176078021526">
        <ele>435.3999938964844</ele>
        <time>2014-07-04T06:52:45.000Z</time>
      </trkpt>
      <trkpt lon="35.02083306200802" lat="31.786331394687295">
        <ele>433.0</ele>
        <time>2014-07-04T06:52:51.000Z</time>
      </trkpt>
      <trkpt lon="35.020556626841426" lat="31.786548737436533">
        <ele>429.79998779296875</ele>
        <time>2014-07-04T06:52:58.000Z</time>
      </trkpt>
      <trkpt lon="35.020511616021395" lat="31.78658469580114">
        <ele>429.20001220703125</ele>
        <time>2014-07-04T06:52:59.000Z</time>
      </trkpt>
      <trkpt lon="35.02046744339168" lat="31.786618642508984">
        <ele>428.3999938964844</ele>
        <time>2014-07-04T06:53:00.000Z</time>
      </trkpt>
      <trkpt lon="35.02042796462774" lat="31.786659294739366">
        <ele>427.3999938964844</ele>
        <time>2014-07-04T06:53:01.000Z</time>
      </trkpt>
      <trkpt lon="35.0203905813396" lat="31.786706652492285">
        <ele>426.20001220703125</ele>
        <time>2014-07-04T06:53:02.000Z</time>
      </trkpt>
      <trkpt lon="35.020356299355626" lat="31.786760883405805">
        <ele>425.20001220703125</ele>
        <time>2014-07-04T06:53:03.000Z</time>
      </trkpt>
      <trkpt lon="35.02032486721873" lat="31.786816455423832">
        <ele>424.20001220703125</ele>
        <time>2014-07-04T06:53:04.000Z</time>
      </trkpt>
      <trkpt lon="35.02029695548117" lat="31.786871859803796">
        <ele>423.20001220703125</ele>
        <time>2014-07-04T06:53:05.000Z</time>
      </trkpt>
      <trkpt lon="35.02027926966548" lat="31.786927934736013">
        <ele>422.6000061035156</ele>
        <time>2014-07-04T06:53:06.000Z</time>
      </trkpt>
      <trkpt lon="35.02027600072324" lat="31.786985183134675">
        <ele>422.0</ele>
        <time>2014-07-04T06:53:07.000Z</time>
      </trkpt>
      <trkpt lon="35.02028312534094" lat="31.787044778466225">
        <ele>421.79998779296875</ele>
        <time>2014-07-04T06:53:08.000Z</time>
      </trkpt>
      <trkpt lon="35.02031070180237" lat="31.787104289978743">
        <ele>421.79998779296875</ele>
        <time>2014-07-04T06:53:09.000Z</time>
      </trkpt>
      <trkpt lon="35.0203506834805" lat="31.787162208929658">
        <ele>422.20001220703125</ele>
        <time>2014-07-04T06:53:10.000Z</time>
      </trkpt>
      <trkpt lon="35.02040348947048" lat="31.787219624966383">
        <ele>422.79998779296875</ele>
        <time>2014-07-04T06:53:11.000Z</time>
      </trkpt>
      <trkpt lon="35.02046752721071" lat="31.787274358794093">
        <ele>423.6000061035156</ele>
        <time>2014-07-04T06:53:12.000Z</time>
      </trkpt>
      <trkpt lon="35.020530642941594" lat="31.78732548840344">
        <ele>424.3999938964844</ele>
        <time>2014-07-04T06:53:13.000Z</time>
      </trkpt>
      <trkpt lon="35.02075678668916" lat="31.78756051696837">
        <ele>427.3999938964844</ele>
        <time>2014-07-04T06:53:17.000Z</time>
      </trkpt>
      <trkpt lon="35.02079919911921" lat="31.787633439525962">
        <ele>428.0</ele>
        <time>2014-07-04T06:53:18.000Z</time>
      </trkpt>
      <trkpt lon="35.020833648741245" lat="31.787711726501584">
        <ele>428.20001220703125</ele>
        <time>2014-07-04T06:53:19.000Z</time>
      </trkpt>
      <trkpt lon="35.02093959599733" lat="31.788166193291545">
        <ele>428.20001220703125</ele>
        <time>2014-07-04T06:53:25.000Z</time>
      </trkpt>
      <trkpt lon="35.02094085328281" lat="31.78823676891625">
        <ele>428.20001220703125</ele>
        <time>2014-07-04T06:53:26.000Z</time>
      </trkpt>
      <trkpt lon="35.0209310464561" lat="31.788303656503558">
        <ele>428.3999938964844</ele>
        <time>2014-07-04T06:53:27.000Z</time>
      </trkpt>
      <trkpt lon="35.0209104269743" lat="31.78836283273995">
        <ele>428.3999938964844</ele>
        <time>2014-07-04T06:53:28.000Z</time>
      </trkpt>
      <trkpt lon="35.020883018150926" lat="31.788413543254137">
        <ele>428.3999938964844</ele>
        <time>2014-07-04T06:53:29.000Z</time>
      </trkpt>
      <trkpt lon="35.02085619606078" lat="31.788456877693534">
        <ele>428.20001220703125</ele>
        <time>2014-07-04T06:53:30.000Z</time>
      </trkpt>
      <trkpt lon="35.02083029597998" lat="31.78849677555263">
        <ele>428.0</ele>
        <time>2014-07-04T06:53:31.000Z</time>
      </trkpt>
      <trkpt lon="35.0207997020334" lat="31.788531811907887">
        <ele>427.6000061035156</ele>
        <time>2014-07-04T06:53:32.000Z</time>
      </trkpt>
      <trkpt lon="35.02076215110719" lat="31.788564333692193">
        <ele>427.20001220703125</ele>
        <time>2014-07-04T06:53:33.000Z</time>
      </trkpt>
      <trkpt lon="35.020710937678814" lat="31.788588473573327">
        <ele>426.79998779296875</ele>
        <time>2014-07-04T06:53:34.000Z</time>
      </trkpt>
      <trkpt lon="35.02064907923341" lat="31.788609763607383">
        <ele>426.20001220703125</ele>
        <time>2014-07-04T06:53:35.000Z</time>
      </trkpt>
      <trkpt lon="35.02058085054159" lat="31.78863021545112">
        <ele>425.6000061035156</ele>
        <time>2014-07-04T06:53:36.000Z</time>
      </trkpt>
      <trkpt lon="35.020508263260126" lat="31.788646057248116">
        <ele>424.79998779296875</ele>
        <time>2014-07-04T06:53:37.000Z</time>
      </trkpt>
      <trkpt lon="35.020429557189345" lat="31.788658211007714">
        <ele>424.0</ele>
        <time>2014-07-04T06:53:38.000Z</time>
      </trkpt>
      <trkpt lon="35.019918931648135" lat="31.788770025596023">
        <ele>416.3999938964844</ele>
        <time>2014-07-04T06:53:44.000Z</time>
      </trkpt>
      <trkpt lon="35.01969739794731" lat="31.78887253627181">
        <ele>413.6000061035156</ele>
        <time>2014-07-04T06:53:47.000Z</time>
      </trkpt>
      <trkpt lon="35.01963914372027" lat="31.78891846910119">
        <ele>413.20001220703125</ele>
        <time>2014-07-04T06:53:48.000Z</time>
      </trkpt>
      <trkpt lon="35.0195874273777" lat="31.788975214585662">
        <ele>413.0</ele>
        <time>2014-07-04T06:53:49.000Z</time>
      </trkpt>
      <trkpt lon="35.01954308710992" lat="31.789043443277478">
        <ele>413.0</ele>
        <time>2014-07-04T06:53:50.000Z</time>
      </trkpt>
      <trkpt lon="35.01950880512595" lat="31.789123322814703">
        <ele>412.20001220703125</ele>
        <time>2014-07-04T06:53:51.000Z</time>
      </trkpt>
      <trkpt lon="35.019474271684885" lat="31.7892097402364">
        <ele>411.3999938964844</ele>
        <time>2014-07-04T06:53:52.000Z</time>
      </trkpt>
      <trkpt lon="35.019221138209105" lat="31.789906779304147">
        <ele>405.3999938964844</ele>
        <time>2014-07-04T06:54:00.000Z</time>
      </trkpt>
      <trkpt lon="35.01911058090627" lat="31.790277929976583">
        <ele>399.3999938964844</ele>
        <time>2014-07-04T06:54:05.000Z</time>
      </trkpt>
      <trkpt lon="35.01910764724016" lat="31.79035160690546">
        <ele>398.6000061035156</ele>
        <time>2014-07-04T06:54:06.000Z</time>
      </trkpt>
      <trkpt lon="35.019119968637824" lat="31.790514886379242">
        <ele>397.20001220703125</ele>
        <time>2014-07-04T06:54:08.000Z</time>
      </trkpt>
      <trkpt lon="35.01914327032864" lat="31.790601052343845">
        <ele>397.0</ele>
        <time>2014-07-04T06:54:09.000Z</time>
      </trkpt>
      <trkpt lon="35.019179563969374" lat="31.79068730212748">
        <ele>397.0</ele>
        <time>2014-07-04T06:54:10.000Z</time>
      </trkpt>
      <trkpt lon="35.01933228224516" lat="31.79123648442328">
        <ele>394.0</ele>
        <time>2014-07-04T06:54:16.000Z</time>
      </trkpt>
      <trkpt lon="35.01934544183314" lat="31.791804945096374">
        <ele>389.79998779296875</ele>
        <time>2014-07-04T06:54:22.000Z</time>
      </trkpt>
      <trkpt lon="35.01934829168022" lat="31.79222261533141">
        <ele>387.0</ele>
        <time>2014-07-04T06:54:27.000Z</time>
      </trkpt>
      <trkpt lon="35.019328594207764" lat="31.792282965034246">
        <ele>386.3999938964844</ele>
        <time>2014-07-04T06:54:28.000Z</time>
      </trkpt>
      <trkpt lon="35.019297329708934" lat="31.792336022481322">
        <ele>385.79998779296875</ele>
        <time>2014-07-04T06:54:29.000Z</time>
      </trkpt>
      <trkpt lon="35.01926396973431" lat="31.79238824173808">
        <ele>384.79998779296875</ele>
        <time>2014-07-04T06:54:30.000Z</time>
      </trkpt>
      <trkpt lon="35.01922792755067" lat="31.792437862604856">
        <ele>383.20001220703125</ele>
        <time>2014-07-04T06:54:31.000Z</time>
      </trkpt>
      <trkpt lon="35.01919062808156" lat="31.792487651109695">
        <ele>381.6000061035156</ele>
        <time>2014-07-04T06:54:32.000Z</time>
      </trkpt>
      <trkpt lon="35.01915332861245" lat="31.79253718815744">
        <ele>380.0</ele>
        <time>2014-07-04T06:54:33.000Z</time>
      </trkpt>
      <trkpt lon="35.01911301165819" lat="31.792581444606185">
        <ele>378.6000061035156</ele>
        <time>2014-07-04T06:54:34.000Z</time>
      </trkpt>
      <trkpt lon="35.019068671390414" lat="31.79262025281787">
        <ele>377.0</ele>
        <time>2014-07-04T06:54:35.000Z</time>
      </trkpt>
      <trkpt lon="35.01901821233332" lat="31.79264573380351">
        <ele>375.79998779296875</ele>
        <time>2014-07-04T06:54:36.000Z</time>
      </trkpt>
      <trkpt lon="35.018965071067214" lat="31.79266174323857">
        <ele>375.3999938964844</ele>
        <time>2014-07-04T06:54:37.000Z</time>
      </trkpt>
      <trkpt lon="35.018908409401774" lat="31.79266668856144">
        <ele>375.20001220703125</ele>
        <time>2014-07-04T06:54:38.000Z</time>
      </trkpt>
      <trkpt lon="35.01885283738375" lat="31.79266082122922">
        <ele>375.0</ele>
        <time>2014-07-04T06:54:39.000Z</time>
      </trkpt>
      <trkpt lon="35.01880128867924" lat="31.792643051594496">
        <ele>375.0</ele>
        <time>2014-07-04T06:54:40.000Z</time>
      </trkpt>
      <trkpt lon="35.018752086907625" lat="31.792621510103345">
        <ele>375.0</ele>
        <time>2014-07-04T06:54:41.000Z</time>
      </trkpt>
      <trkpt lon="35.0187031365931" lat="31.792596112936735">
        <ele>375.0</ele>
        <time>2014-07-04T06:54:42.000Z</time>
      </trkpt>
      <trkpt lon="35.018656784668565" lat="31.792568704113364">
        <ele>375.0</ele>
        <time>2014-07-04T06:54:43.000Z</time>
      </trkpt>
      <trkpt lon="35.018607415258884" lat="31.792539451271296">
        <ele>375.0</ele>
        <time>2014-07-04T06:54:44.000Z</time>
      </trkpt>
      <trkpt lon="35.01855435781181" lat="31.792514137923717">
        <ele>375.0</ele>
        <time>2014-07-04T06:54:45.000Z</time>
      </trkpt>
      <trkpt lon="35.018496019765735" lat="31.792487483471632">
        <ele>374.79998779296875</ele>
        <time>2014-07-04T06:54:46.000Z</time>
      </trkpt>
      <trkpt lon="35.01836157403886" lat="31.792435599491">
        <ele>374.6000061035156</ele>
        <time>2014-07-04T06:54:48.000Z</time>
      </trkpt>
      <trkpt lon="35.01828018575907" lat="31.7924165725708">
        <ele>374.3999938964844</ele>
        <time>2014-07-04T06:54:49.000Z</time>
      </trkpt>
      <trkpt lon="35.018199384212494" lat="31.792397629469633">
        <ele>374.20001220703125</ele>
        <time>2014-07-04T06:54:50.000Z</time>
      </trkpt>
      <trkpt lon="35.01811665482819" lat="31.79237013682723">
        <ele>373.79998779296875</ele>
        <time>2014-07-04T06:54:51.000Z</time>
      </trkpt>
      <trkpt lon="35.01803199760616" lat="31.792337195947766">
        <ele>373.20001220703125</ele>
        <time>2014-07-04T06:54:52.000Z</time>
      </trkpt>
      <trkpt lon="35.017682891339064" lat="31.792196296155453">
        <ele>369.6000061035156</ele>
        <time>2014-07-04T06:54:56.000Z</time>
      </trkpt>
      <trkpt lon="35.01760309562087" lat="31.792171066626906">
        <ele>369.20001220703125</ele>
        <time>2014-07-04T06:54:57.000Z</time>
      </trkpt>
      <trkpt lon="35.017523132264614" lat="31.792154721915722">
        <ele>369.0</ele>
        <time>2014-07-04T06:54:58.000Z</time>
      </trkpt>
      <trkpt lon="35.017437636852264" lat="31.79214784875512">
        <ele>368.79998779296875</ele>
        <time>2014-07-04T06:54:59.000Z</time>
      </trkpt>
      <trkpt lon="35.01734459772706" lat="31.792144244536757">
        <ele>368.79998779296875</ele>
        <time>2014-07-04T06:55:00.000Z</time>
      </trkpt>
      <trkpt lon="35.01660489477217" lat="31.79210778325796">
        <ele>363.3999938964844</ele>
        <time>2014-07-04T06:55:07.000Z</time>
      </trkpt>
      <trkpt lon="35.01614045351744" lat="31.792158745229244">
        <ele>359.79998779296875</ele>
        <time>2014-07-04T06:55:12.000Z</time>
      </trkpt>
      <trkpt lon="35.015979604795575" lat="31.79220501333475">
        <ele>358.6000061035156</ele>
        <time>2014-07-04T06:55:14.000Z</time>
      </trkpt>
      <trkpt lon="35.01590710133314" lat="31.792242228984833">
        <ele>358.20001220703125</ele>
        <time>2014-07-04T06:55:15.000Z</time>
      </trkpt>
      <trkpt lon="35.015831496566534" lat="31.792292520403862">
        <ele>358.0</ele>
        <time>2014-07-04T06:55:16.000Z</time>
      </trkpt>
      <trkpt lon="35.015700068324804" lat="31.792397797107697">
        <ele>357.6000061035156</ele>
        <time>2014-07-04T06:55:18.000Z</time>
      </trkpt>
      <trkpt lon="35.015666373074055" lat="31.792453536763787">
        <ele>357.0</ele>
        <time>2014-07-04T06:55:19.000Z</time>
      </trkpt>
      <trkpt lon="35.01564458012581" lat="31.792512461543083">
        <ele>356.6000061035156</ele>
        <time>2014-07-04T06:55:20.000Z</time>
      </trkpt>
      <trkpt lon="35.01562999561429" lat="31.792574571445584">
        <ele>356.0</ele>
        <time>2014-07-04T06:55:21.000Z</time>
      </trkpt>
      <trkpt lon="35.015619015321136" lat="31.792632322758436">
        <ele>355.6000061035156</ele>
        <time>2014-07-04T06:55:22.000Z</time>
      </trkpt>
      <trkpt lon="35.015600156039" lat="31.79268571548164">
        <ele>355.20001220703125</ele>
        <time>2014-07-04T06:55:23.000Z</time>
      </trkpt>
      <trkpt lon="35.01557182520628" lat="31.79273650981486">
        <ele>354.3999938964844</ele>
        <time>2014-07-04T06:55:24.000Z</time>
      </trkpt>
      <trkpt lon="35.01553025096655" lat="31.79277565330267">
        <ele>353.79998779296875</ele>
        <time>2014-07-04T06:55:25.000Z</time>
      </trkpt>
      <trkpt lon="35.015482138842344" lat="31.792805828154087">
        <ele>352.79998779296875</ele>
        <time>2014-07-04T06:55:26.000Z</time>
      </trkpt>
      <trkpt lon="35.01543352380395" lat="31.792832734063268">
        <ele>352.0</ele>
        <time>2014-07-04T06:55:27.000Z</time>
      </trkpt>
      <trkpt lon="35.01538968645036" lat="31.792866429314017">
        <ele>351.20001220703125</ele>
        <time>2014-07-04T06:55:28.000Z</time>
      </trkpt>
      <trkpt lon="35.015355153009295" lat="31.792908925563097">
        <ele>350.3999938964844</ele>
        <time>2014-07-04T06:55:29.000Z</time>
      </trkpt>
      <trkpt lon="35.01532908529043" lat="31.792959636077285">
        <ele>349.79998779296875</ele>
        <time>2014-07-04T06:55:30.000Z</time>
      </trkpt>
      <trkpt lon="35.015310728922486" lat="31.793015375733376">
        <ele>349.20001220703125</ele>
        <time>2014-07-04T06:55:31.000Z</time>
      </trkpt>
      <trkpt lon="35.01529639586806" lat="31.79307572543621">
        <ele>348.6000061035156</ele>
        <time>2014-07-04T06:55:32.000Z</time>
      </trkpt>
      <trkpt lon="35.01529002562165" lat="31.793140769004822">
        <ele>348.6000061035156</ele>
        <time>2014-07-04T06:55:33.000Z</time>
      </trkpt>
      <trkpt lon="35.01528264954686" lat="31.793206986039877">
        <ele>348.79998779296875</ele>
        <time>2014-07-04T06:55:34.000Z</time>
      </trkpt>
      <trkpt lon="35.01522087492049" lat="31.793552991002798">
        <ele>345.0</ele>
        <time>2014-07-04T06:55:39.000Z</time>
      </trkpt>
      <trkpt lon="35.01519413664937" lat="31.793617699295282">
        <ele>344.20001220703125</ele>
        <time>2014-07-04T06:55:40.000Z</time>
      </trkpt>
      <trkpt lon="35.01516538672149" lat="31.79367276839912">
        <ele>343.3999938964844</ele>
        <time>2014-07-04T06:55:41.000Z</time>
      </trkpt>
      <trkpt lon="35.01513320021331" lat="31.793721467256546">
        <ele>342.79998779296875</ele>
        <time>2014-07-04T06:55:42.000Z</time>
      </trkpt>
      <trkpt lon="35.01509942114353" lat="31.793758934363723">
        <ele>342.20001220703125</ele>
        <time>2014-07-04T06:55:43.000Z</time>
      </trkpt>
      <trkpt lon="35.015063462778926" lat="31.793783996254206">
        <ele>341.79998779296875</ele>
        <time>2014-07-04T06:55:44.000Z</time>
      </trkpt>
      <trkpt lon="35.01503295265138" lat="31.79379648528993">
        <ele>341.6000061035156</ele>
        <time>2014-07-04T06:55:45.000Z</time>
      </trkpt>
      <trkpt lon="35.015006214380264" lat="31.793799502775073">
        <ele>341.6000061035156</ele>
        <time>2014-07-04T06:55:46.000Z</time>
      </trkpt>
      <trkpt lon="35.01498467288911" lat="31.793792294338346">
        <ele>341.3999938964844</ele>
        <time>2014-07-04T06:55:47.000Z</time>
      </trkpt>
      <trkpt lon="35.01497335731983" lat="31.793773351237178">
        <ele>341.6000061035156</ele>
        <time>2014-07-04T06:55:48.000Z</time>
      </trkpt>
      <trkpt lon="35.01496531069279" lat="31.79375139065087">
        <ele>341.6000061035156</ele>
        <time>2014-07-04T06:55:49.000Z</time>
      </trkpt>
      <trkpt lon="35.014955000951886" lat="31.7937221378088">
        <ele>341.79998779296875</ele>
        <time>2014-07-04T06:55:50.000Z</time>
      </trkpt>
      <trkpt lon="35.01493999734521" lat="31.793693555518985">
        <ele>341.79998779296875</ele>
        <time>2014-07-04T06:55:51.000Z</time>
      </trkpt>
      <trkpt lon="35.01491820439696" lat="31.793667320162058">
        <ele>341.79998779296875</ele>
        <time>2014-07-04T06:55:52.000Z</time>
      </trkpt>
      <trkpt lon="35.01489423215389" lat="31.793641755357385">
        <ele>342.0</ele>
        <time>2014-07-04T06:55:53.000Z</time>
      </trkpt>
      <trkpt lon="35.014833211898804" lat="31.793572520837188">
        <ele>342.0</ele>
        <time>2014-07-04T06:55:55.000Z</time>
      </trkpt>
      <trkpt lon="35.01480504870415" lat="31.79352667182684">
        <ele>342.20001220703125</ele>
        <time>2014-07-04T06:55:56.000Z</time>
      </trkpt>
      <trkpt lon="35.01478032208979" lat="31.793477553874254">
        <ele>342.3999938964844</ele>
        <time>2014-07-04T06:55:57.000Z</time>
      </trkpt>
      <trkpt lon="35.01471661962569" lat="31.793311005458236">
        <ele>343.20001220703125</ele>
        <time>2014-07-04T06:56:00.000Z</time>
      </trkpt>
      <trkpt lon="35.014710081741214" lat="31.79324126802385">
        <ele>343.79998779296875</ele>
        <time>2014-07-04T06:56:01.000Z</time>
      </trkpt>
      <trkpt lon="35.01470547169447" lat="31.7931660823524">
        <ele>343.79998779296875</ele>
        <time>2014-07-04T06:56:02.000Z</time>
      </trkpt>
      <trkpt lon="35.01469122245908" lat="31.79309718310833">
        <ele>343.3999938964844</ele>
        <time>2014-07-04T06:56:03.000Z</time>
      </trkpt>
      <trkpt lon="35.01466683112085" lat="31.793043790385127">
        <ele>343.0</ele>
        <time>2014-07-04T06:56:04.000Z</time>
      </trkpt>
      <trkpt lon="35.014643194153905" lat="31.792991487309337">
        <ele>342.6000061035156</ele>
        <time>2014-07-04T06:56:05.000Z</time>
      </trkpt>
      <trkpt lon="35.01463162712753" lat="31.792933819815516">
        <ele>342.3999938964844</ele>
        <time>2014-07-04T06:56:06.000Z</time>
      </trkpt>
      <trkpt lon="35.014629531651735" lat="31.79287481121719">
        <ele>342.20001220703125</ele>
        <time>2014-07-04T06:56:07.000Z</time>
      </trkpt>
      <trkpt lon="35.014625675976276" lat="31.79281043820083">
        <ele>341.79998779296875</ele>
        <time>2014-07-04T06:56:08.000Z</time>
      </trkpt>
      <trkpt lon="35.01461561769247" lat="31.792738856747746">
        <ele>341.6000061035156</ele>
        <time>2014-07-04T06:56:09.000Z</time>
      </trkpt>
      <trkpt lon="35.01460279338062" lat="31.7926652636379">
        <ele>341.20001220703125</ele>
        <time>2014-07-04T06:56:10.000Z</time>
      </trkpt>
      <trkpt lon="35.01458276063204" lat="31.792392013594508">
        <ele>340.0</ele>
        <time>2014-07-04T06:56:15.000Z</time>
      </trkpt>
      <trkpt lon="35.01458971761167" lat="31.792283048853278">
        <ele>338.79998779296875</ele>
        <time>2014-07-04T06:56:18.000Z</time>
      </trkpt>
      <trkpt lon="35.014553256332874" lat="31.79203385487199">
        <ele>335.3999938964844</ele>
        <time>2014-07-04T06:56:21.000Z</time>
      </trkpt>
      <trkpt lon="35.01441964879632" lat="31.791341928765178">
        <ele>327.0</ele>
        <time>2014-07-04T06:56:28.000Z</time>
      </trkpt>
      <trkpt lon="35.014297273010015" lat="31.79088369011879">
        <ele>324.79998779296875</ele>
        <time>2014-07-04T06:56:33.000Z</time>
      </trkpt>
      <trkpt lon="35.014249831438065" lat="31.790635585784912">
        <ele>324.20001220703125</ele>
        <time>2014-07-04T06:56:36.000Z</time>
      </trkpt>
      <trkpt lon="35.014172131195664" lat="31.790404161438346">
        <ele>323.20001220703125</ele>
        <time>2014-07-04T06:56:39.000Z</time>
      </trkpt>
      <trkpt lon="35.01413483172655" lat="31.790332328528166">
        <ele>322.79998779296875</ele>
        <time>2014-07-04T06:56:40.000Z</time>
      </trkpt>
      <trkpt lon="35.0140683632344" lat="31.790199894458055">
        <ele>322.0</ele>
        <time>2014-07-04T06:56:42.000Z</time>
      </trkpt>
      <trkpt lon="35.01404925249517" lat="31.79012982174754">
        <ele>321.79998779296875</ele>
        <time>2014-07-04T06:56:43.000Z</time>
      </trkpt>
      <trkpt lon="35.01404598355293" lat="31.790057569742203">
        <ele>322.20001220703125</ele>
        <time>2014-07-04T06:56:44.000Z</time>
      </trkpt>
      <trkpt lon="35.01405369490385" lat="31.789987245574594">
        <ele>322.6000061035156</ele>
        <time>2014-07-04T06:56:45.000Z</time>
      </trkpt>
      <trkpt lon="35.01406199298799" lat="31.789919435977936">
        <ele>323.20001220703125</ele>
        <time>2014-07-04T06:56:46.000Z</time>
      </trkpt>
      <trkpt lon="35.01408135518432" lat="31.7898072861135">
        <ele>323.3999938964844</ele>
        <time>2014-07-04T06:56:48.000Z</time>
      </trkpt>
      <trkpt lon="35.01409652642906" lat="31.78976529277861">
        <ele>323.3999938964844</ele>
        <time>2014-07-04T06:56:49.000Z</time>
      </trkpt>
      <trkpt lon="35.0141048245132" lat="31.789719024673104">
        <ele>323.3999938964844</ele>
        <time>2014-07-04T06:56:50.000Z</time>
      </trkpt>
      <trkpt lon="35.01410499215126" lat="31.789665464311838">
        <ele>323.20001220703125</ele>
        <time>2014-07-04T06:56:51.000Z</time>
      </trkpt>
      <trkpt lon="35.01409359276295" lat="31.789603186771274">
        <ele>322.6000061035156</ele>
        <time>2014-07-04T06:56:52.000Z</time>
      </trkpt>
      <trkpt lon="35.0140736438334" lat="31.78953319787979">
        <ele>321.79998779296875</ele>
        <time>2014-07-04T06:56:53.000Z</time>
      </trkpt>
      <trkpt lon="35.014054365456104" lat="31.789458766579628">
        <ele>321.20001220703125</ele>
        <time>2014-07-04T06:56:54.000Z</time>
      </trkpt>
      <trkpt lon="35.01404581591487" lat="31.789378970861435">
        <ele>320.6000061035156</ele>
        <time>2014-07-04T06:56:55.000Z</time>
      </trkpt>
      <trkpt lon="35.014048581942916" lat="31.789296744391322">
        <ele>319.79998779296875</ele>
        <time>2014-07-04T06:56:56.000Z</time>
      </trkpt>
      <trkpt lon="35.01412712037563" lat="31.78880313411355">
        <ele>317.20001220703125</ele>
        <time>2014-07-04T06:57:01.000Z</time>
      </trkpt>
      <trkpt lon="35.014127204194665" lat="31.788696767762303">
        <ele>317.0</ele>
        <time>2014-07-04T06:57:02.000Z</time>
      </trkpt>
      <trkpt lon="35.01411572098732" lat="31.7883722204715">
        <ele>319.20001220703125</ele>
        <time>2014-07-04T06:57:06.000Z</time>
      </trkpt>
      <trkpt lon="35.01410750672221" lat="31.788172647356987">
        <ele>320.6000061035156</ele>
        <time>2014-07-04T06:57:10.000Z</time>
      </trkpt>
      <trkpt lon="35.014086719602346" lat="31.787955639883876">
        <ele>318.20001220703125</ele>
        <time>2014-07-04T06:57:14.000Z</time>
      </trkpt>
      <trkpt lon="35.014088563621044" lat="31.787896547466516">
        <ele>317.79998779296875</ele>
        <time>2014-07-04T06:57:15.000Z</time>
      </trkpt>
      <trkpt lon="35.01410633325577" lat="31.787483571097255">
        <ele>314.79998779296875</ele>
        <time>2014-07-04T06:57:22.000Z</time>
      </trkpt>
      <trkpt lon="35.014123348519206" lat="31.78737787529826">
        <ele>314.3999938964844</ele>
        <time>2014-07-04T06:57:24.000Z</time>
      </trkpt>
      <trkpt lon="35.01412007957697" lat="31.787322387099266">
        <ele>313.6000061035156</ele>
        <time>2014-07-04T06:57:25.000Z</time>
      </trkpt>
      <trkpt lon="35.01411069184542" lat="31.787204118445516">
        <ele>312.3999938964844</ele>
        <time>2014-07-04T06:57:27.000Z</time>
      </trkpt>
      <trkpt lon="35.014096442610025" lat="31.786841098219156">
        <ele>308.20001220703125</ele>
        <time>2014-07-04T06:57:33.000Z</time>
      </trkpt>
      <trkpt lon="35.01410507597029" lat="31.78679097443819">
        <ele>307.3999938964844</ele>
        <time>2014-07-04T06:57:34.000Z</time>
      </trkpt>
      <trkpt lon="35.01414455473423" lat="31.786623671650887">
        <ele>305.3999938964844</ele>
        <time>2014-07-04T06:57:39.000Z</time>
      </trkpt>
      <trkpt lon="35.01419434323907" lat="31.786431139335036">
        <ele>305.0</ele>
        <time>2014-07-04T06:57:45.000Z</time>
      </trkpt>
      <trkpt lon="35.014266427606344" lat="31.78611958399415">
        <ele>306.20001220703125</ele>
        <time>2014-07-04T06:57:49.000Z</time>
      </trkpt>
      <trkpt lon="35.01435561105609" lat="31.785672744736075">
        <ele>307.0</ele>
        <time>2014-07-04T06:57:55.000Z</time>
      </trkpt>
      <trkpt lon="35.01438109204173" lat="31.78543210029602">
        <ele>306.79998779296875</ele>
        <time>2014-07-04T06:58:00.000Z</time>
      </trkpt>
      <trkpt lon="35.014392575249076" lat="31.785118952393532">
        <ele>307.79998779296875</ele>
        <time>2014-07-04T06:58:08.000Z</time>
      </trkpt>
      <trkpt lon="35.014412021264434" lat="31.785031529143453">
        <ele>308.3999938964844</ele>
        <time>2014-07-04T06:58:10.000Z</time>
      </trkpt>
      <trkpt lon="35.01443289220333" lat="31.784987524151802">
        <ele>309.0</ele>
        <time>2014-07-04T06:58:11.000Z</time>
      </trkpt>
      <trkpt lon="35.01445569097996" lat="31.78494008257985">
        <ele>309.79998779296875</ele>
        <time>2014-07-04T06:58:12.000Z</time>
      </trkpt>
      <trkpt lon="35.01447195187211" lat="31.78488191217184">
        <ele>310.20001220703125</ele>
        <time>2014-07-04T06:58:13.000Z</time>
      </trkpt>
      <trkpt lon="35.01448402181268" lat="31.78481594659388">
        <ele>310.3999938964844</ele>
        <time>2014-07-04T06:58:14.000Z</time>
      </trkpt>
      <trkpt lon="35.01457370817661" lat="31.78435854613781">
        <ele>304.0</ele>
        <time>2014-07-04T06:58:20.000Z</time>
      </trkpt>
      <trkpt lon="35.014578653499484" lat="31.784281684085727">
        <ele>302.79998779296875</ele>
        <time>2014-07-04T06:58:21.000Z</time>
      </trkpt>
      <trkpt lon="35.01455551944673" lat="31.78383333608508">
        <ele>295.3999938964844</ele>
        <time>2014-07-04T06:58:27.000Z</time>
      </trkpt>
      <trkpt lon="35.014528362080455" lat="31.783683970570564">
        <ele>292.79998779296875</ele>
        <time>2014-07-04T06:58:29.000Z</time>
      </trkpt>
      <trkpt lon="35.01452358439565" lat="31.78361046127975">
        <ele>291.6000061035156</ele>
        <time>2014-07-04T06:58:30.000Z</time>
      </trkpt>
      <trkpt lon="35.01451000571251" lat="31.78304753266275">
        <ele>285.0</ele>
        <time>2014-07-04T06:58:38.000Z</time>
      </trkpt>
      <trkpt lon="35.01450271345675" lat="31.782423751428723">
        <ele>287.79998779296875</ele>
        <time>2014-07-04T06:58:47.000Z</time>
      </trkpt>
      <trkpt lon="35.0145070720464" lat="31.78184355609119">
        <ele>286.20001220703125</ele>
        <time>2014-07-04T06:58:55.000Z</time>
      </trkpt>
      <trkpt lon="35.014553340151906" lat="31.781126484274864">
        <ele>284.6000061035156</ele>
        <time>2014-07-04T06:59:05.000Z</time>
      </trkpt>
      <trkpt lon="35.01454420387745" lat="31.7810573335737">
        <ele>284.20001220703125</ele>
        <time>2014-07-04T06:59:06.000Z</time>
      </trkpt>
      <trkpt lon="35.01452995464206" lat="31.780988853424788">
        <ele>283.79998779296875</ele>
        <time>2014-07-04T06:59:07.000Z</time>
      </trkpt>
      <trkpt lon="35.01444865018129" lat="31.780646704137325">
        <ele>281.6000061035156</ele>
        <time>2014-07-04T06:59:12.000Z</time>
      </trkpt>
      <trkpt lon="35.01432426273823" lat="31.780109759420156">
        <ele>275.0</ele>
        <time>2014-07-04T06:59:20.000Z</time>
      </trkpt>
      <trkpt lon="35.014229379594326" lat="31.7798656783998">
        <ele>271.6000061035156</ele>
        <time>2014-07-04T06:59:24.000Z</time>
      </trkpt>
      <trkpt lon="35.01421923749149" lat="31.779808262363076">
        <ele>271.3999938964844</ele>
        <time>2014-07-04T06:59:25.000Z</time>
      </trkpt>
      <trkpt lon="35.014219572767615" lat="31.779753863811493">
        <ele>271.20001220703125</ele>
        <time>2014-07-04T06:59:26.000Z</time>
      </trkpt>
      <trkpt lon="35.01423097215593" lat="31.77970290184021">
        <ele>271.20001220703125</ele>
        <time>2014-07-04T06:59:27.000Z</time>
      </trkpt>
      <trkpt lon="35.01425050199032" lat="31.779656214639544">
        <ele>271.20001220703125</ele>
        <time>2014-07-04T06:59:28.000Z</time>
      </trkpt>
      <trkpt lon="35.014274809509516" lat="31.77961648441851">
        <ele>271.3999938964844</ele>
        <time>2014-07-04T06:59:29.000Z</time>
      </trkpt>
      <trkpt lon="35.014305990189314" lat="31.779586980119348">
        <ele>271.6000061035156</ele>
        <time>2014-07-04T06:59:30.000Z</time>
      </trkpt>
      <trkpt lon="35.01434152945876" lat="31.779563259333372">
        <ele>271.3999938964844</ele>
        <time>2014-07-04T06:59:31.000Z</time>
      </trkpt>
      <trkpt lon="35.01438109204173" lat="31.779542388394475">
        <ele>271.6000061035156</ele>
        <time>2014-07-04T06:59:32.000Z</time>
      </trkpt>
      <trkpt lon="35.014420906081796" lat="31.779520427808166">
        <ele>271.6000061035156</ele>
        <time>2014-07-04T06:59:33.000Z</time>
      </trkpt>
      <trkpt lon="35.01450615003705" lat="31.779474494978786">
        <ele>271.6000061035156</ele>
        <time>2014-07-04T06:59:35.000Z</time>
      </trkpt>
      <trkpt lon="35.01455157995224" lat="31.779456557706">
        <ele>271.79998779296875</ele>
        <time>2014-07-04T06:59:36.000Z</time>
      </trkpt>
      <trkpt lon="35.01459717750549" lat="31.779443230479956">
        <ele>272.0</ele>
        <time>2014-07-04T06:59:37.000Z</time>
      </trkpt>
      <trkpt lon="35.01507653854787" lat="31.779340468347073">
        <ele>276.20001220703125</ele>
        <time>2014-07-04T06:59:47.000Z</time>
      </trkpt>
      <trkpt lon="35.015510972589254" lat="31.779265785589814">
        <ele>277.79998779296875</ele>
        <time>2014-07-04T06:59:56.000Z</time>
      </trkpt>
      <trkpt lon="35.01595194451511" lat="31.77917568013072">
        <ele>279.0</ele>
        <time>2014-07-04T07:00:06.000Z</time>
      </trkpt>
      <trkpt lon="35.01620574854314" lat="31.77911792881787">
        <ele>279.20001220703125</ele>
        <time>2014-07-04T07:00:14.000Z</time>
      </trkpt>
      <trkpt lon="35.016378834843636" lat="31.779073840007186">
        <ele>278.0</ele>
        <time>2014-07-04T07:00:23.000Z</time>
      </trkpt>
      <trkpt lon="35.016412027180195" lat="31.779061518609524">
        <ele>277.79998779296875</ele>
        <time>2014-07-04T07:00:25.000Z</time>
      </trkpt>
      <trkpt lon="35.01642485149205" lat="31.779066547751427">
        <ele>277.79998779296875</ele>
        <time>2014-07-04T07:00:26.000Z</time>
      </trkpt>
      <trkpt lon="35.01643314957619" lat="31.77907593548298">
        <ele>278.0</ele>
        <time>2014-07-04T07:00:27.000Z</time>
      </trkpt>
      <trkpt lon="35.01642116345465" lat="31.77909119054675">
        <ele>278.20001220703125</ele>
        <time>2014-07-04T07:00:28.000Z</time>
      </trkpt>
      <trkpt lon="35.01639719121158" lat="31.77910099737346">
        <ele>278.3999938964844</ele>
        <time>2014-07-04T07:00:29.000Z</time>
      </trkpt>
      <trkpt lon="35.016373889520764" lat="31.779103511944413">
        <ele>278.3999938964844</ele>
        <time>2014-07-04T07:00:30.000Z</time>
      </trkpt>
      <trkpt lon="35.016351928934455" lat="31.779100326821208">
        <ele>278.3999938964844</ele>
        <time>2014-07-04T07:00:31.000Z</time>
      </trkpt>
      <trkpt lon="35.01632887870073" lat="31.779096387326717">
        <ele>278.3999938964844</ele>
        <time>2014-07-04T07:00:32.000Z</time>
      </trkpt>
      <trkpt lon="35.01630323007703" lat="31.779097225517035">
        <ele>278.3999938964844</ele>
        <time>2014-07-04T07:00:33.000Z</time>
      </trkpt>
      <trkpt lon="35.01627548597753" lat="31.779100578278303">
        <ele>278.79998779296875</ele>
        <time>2014-07-04T07:00:34.000Z</time>
      </trkpt>
      <trkpt lon="35.016246400773525" lat="31.779104936867952">
        <ele>279.20001220703125</ele>
        <time>2014-07-04T07:00:35.000Z</time>
      </trkpt>
      <trkpt lon="35.01621538773179" lat="31.779098147526383">
        <ele>278.79998779296875</ele>
        <time>2014-07-04T07:00:36.000Z</time>
      </trkpt>
      <trkpt lon="35.01619091257453" lat="31.779082641005516">
        <ele>278.3999938964844</ele>
        <time>2014-07-04T07:00:37.000Z</time>
      </trkpt>
      <trkpt lon="35.01617641188204" lat="31.779053388163447">
        <ele>277.6000061035156</ele>
        <time>2014-07-04T07:00:38.000Z</time>
      </trkpt>
      <trkpt lon="35.01616752706468" lat="31.779014244675636">
        <ele>277.20001220703125</ele>
        <time>2014-07-04T07:00:39.000Z</time>
      </trkpt>
      <trkpt lon="35.01616643741727" lat="31.778963953256607">
        <ele>276.6000061035156</ele>
        <time>2014-07-04T07:00:40.000Z</time>
      </trkpt>
      <trkpt lon="35.01617238856852" lat="31.77890494465828">
        <ele>276.3999938964844</ele>
        <time>2014-07-04T07:00:41.000Z</time>
      </trkpt>
      <trkpt lon="35.01618345268071" lat="31.778846187517047">
        <ele>276.20001220703125</ele>
        <time>2014-07-04T07:00:42.000Z</time>
      </trkpt>
      <trkpt lon="35.016195103526115" lat="31.77879212424159">
        <ele>276.0</ele>
        <time>2014-07-04T07:00:43.000Z</time>
      </trkpt>
      <trkpt lon="35.01620792783797" lat="31.778683410957456">
        <ele>275.3999938964844</ele>
        <time>2014-07-04T07:00:45.000Z</time>
      </trkpt>
      <trkpt lon="35.01620164141059" lat="31.778626581653953">
        <ele>275.0</ele>
        <time>2014-07-04T07:00:46.000Z</time>
      </trkpt>
      <trkpt lon="35.01618638634682" lat="31.7785722669214">
        <ele>274.6000061035156</ele>
        <time>2014-07-04T07:00:47.000Z</time>
      </trkpt>
      <trkpt lon="35.016157468780875" lat="31.77852096967399">
        <ele>274.0</ele>
        <time>2014-07-04T07:00:48.000Z</time>
      </trkpt>
      <trkpt lon="35.01612880267203" lat="31.77847151644528">
        <ele>273.3999938964844</ele>
        <time>2014-07-04T07:00:49.000Z</time>
      </trkpt>
      <trkpt lon="35.01599159091711" lat="31.778248976916075">
        <ele>270.79998779296875</ele>
        <time>2014-07-04T07:00:55.000Z</time>
      </trkpt>
      <trkpt lon="35.01591531559825" lat="31.778055354952812">
        <ele>271.3999938964844</ele>
        <time>2014-07-04T07:01:02.000Z</time>
      </trkpt>
      <trkpt lon="35.015925290063024" lat="31.778034567832947">
        <ele>271.79998779296875</ele>
        <time>2014-07-04T07:01:03.000Z</time>
      </trkpt>
      <trkpt lon="35.01593794673681" lat="31.778020821511745">
        <ele>272.0</ele>
        <time>2014-07-04T07:01:04.000Z</time>
      </trkpt>
      <trkpt lon="35.01598387956619" lat="31.777909845113754">
        <ele>274.0</ele>
        <time>2014-07-04T07:01:12.000Z</time>
      </trkpt>
      <trkpt lon="35.01599117182195" lat="31.77789785899222">
        <ele>274.3999938964844</ele>
        <time>2014-07-04T07:01:13.000Z</time>
      </trkpt>
      <trkpt lon="35.01600508578122" lat="31.777885872870684">
        <ele>275.0</ele>
        <time>2014-07-04T07:01:14.000Z</time>
      </trkpt>
      <trkpt lon="35.01606325618923" lat="31.77773709408939">
        <ele>279.3999938964844</ele>
        <time>2014-07-04T07:01:23.000Z</time>
      </trkpt>
      <trkpt lon="35.01613391563296" lat="31.77761010825634">
        <ele>283.6000061035156</ele>
        <time>2014-07-04T07:01:31.000Z</time>
      </trkpt>
      <trkpt lon="35.01620323397219" lat="31.777599630877376">
        <ele>285.20001220703125</ele>
        <time>2014-07-04T07:01:34.000Z</time>
      </trkpt>
      <trkpt lon="35.016223434358835" lat="31.77760667167604">
        <ele>285.3999938964844</ele>
        <time>2014-07-04T07:01:35.000Z</time>
      </trkpt>
      <trkpt lon="35.01624070107937" lat="31.777617065235972">
        <ele>285.6000061035156</ele>
        <time>2014-07-04T07:01:36.000Z</time>
      </trkpt>
      <trkpt lon="35.016364585608244" lat="31.777713876217604">
        <ele>285.3999938964844</ele>
        <time>2014-07-04T07:01:45.000Z</time>
      </trkpt>
      <trkpt lon="35.0164360832423" lat="31.777751008048654">
        <ele>285.6000061035156</ele>
        <time>2014-07-04T07:01:53.000Z</time>
      </trkpt>
      <trkpt lon="35.01644790172577" lat="31.777765676379204">
        <ele>285.3999938964844</ele>
        <time>2014-07-04T07:02:09.000Z</time>
      </trkpt>
      <trkpt lon="35.0164479855448" lat="31.777763161808252">
        <ele>285.6000061035156</ele>
        <time>2014-07-04T07:02:18.000Z</time>
      </trkpt>
    </trkseg>
  </trk>
</gpx>
